<?xml version="1.0" encoding="UTF-8" standalone="no" ?>
<gpx xmlns="http://www.topografix.com/GPX/1/1" xmlns:xsi="http://www.w3.org/2001/XMLSchema-instance" xsi:schemaLocation="http://www.topografix.com/GPX/1/1 http://www.topografix.com/GPX/1/1/gpx.xsd" version="1.1" creator="VisuGPX - https://www.visugpx.com">
  <metadata>
    <name>Montségur Sur Lauzon (Topo)</name>
    <desc><![CDATA[Enfin la version Topo du secteur à partir de Montségur Sur Lauzon, un parcours qui emprunte un maximum de sentiers. 
A noter que l'on raccourci le parcours dans Bois Noir car il y a une montée bien raide après le Ravin de la Billote, pas sur que l'on soit capable de pousser le VTTAE.
Option 2, remonter la piste (image satellite) au plus près du vallon et essayer de rejoindre le sentier après la montée...  
J'ai ajouté un POI au bas de Pierre Rousse, c'est à partir d'ici que l'on peux facilement rajouter des variantes pour rouler sur le secteur de Chamaret.
Il y a toujours la possibilité de rajouter çà et là d'autres petits sentiers..
Fin de sortie à : 41 % de 625 Wh (Nadine) et 36 % de 750 Wh (Alain)
Dénivelé mesuré : 985 M]]></desc>
  </metadata>
  <wpt lat="44.37374" lon="4.85291">
    <ele>173.2</ele>
    <name><![CDATA[Variantes Chamaret]]></name>
    <desc><![CDATA[Sentier]]></desc>
    <cmt><![CDATA[Sentier]]></cmt>
  </wpt>
  <trk>
    <name><![CDATA[Montségur 44.7 km 31-09-26]]></name>
    <trkseg>
      <trkpt lat="44.36166" lon="4.85799">
        <ele>119.6</ele>
        <time>2026-08-31T06:35:33Z</time>
      </trkpt>
      <trkpt lat="44.3616" lon="4.85791">
        <ele>119.57</ele>
        <time>2026-08-31T06:35:38Z</time>
      </trkpt>
      <trkpt lat="44.36159" lon="4.85788">
        <ele>119.63</ele>
        <time>2026-08-31T06:35:39Z</time>
      </trkpt>
      <trkpt lat="44.36157" lon="4.85785">
        <ele>119.43</ele>
        <time>2026-08-31T06:35:40Z</time>
      </trkpt>
      <trkpt lat="44.36155" lon="4.85782">
        <ele>119.46</ele>
        <time>2026-08-31T06:35:41Z</time>
      </trkpt>
      <trkpt lat="44.36117" lon="4.8574">
        <ele>119.4</ele>
        <time>2026-08-31T06:35:55Z</time>
      </trkpt>
      <trkpt lat="44.36114" lon="4.85735">
        <ele>119.03</ele>
        <time>2026-08-31T06:36:03Z</time>
      </trkpt>
      <trkpt lat="44.36114" lon="4.85734">
        <ele>119.2</ele>
        <time>2026-08-31T06:36:07Z</time>
      </trkpt>
      <trkpt lat="44.36119" lon="4.85703">
        <ele>119.27</ele>
        <time>2026-08-31T06:36:15Z</time>
      </trkpt>
      <trkpt lat="44.36117" lon="4.85699">
        <ele>119.16</ele>
        <time>2026-08-31T06:36:16Z</time>
      </trkpt>
      <trkpt lat="44.36115" lon="4.85697">
        <ele>119.18</ele>
        <time>2026-08-31T06:36:17Z</time>
      </trkpt>
      <trkpt lat="44.36111" lon="4.85696">
        <ele>119.23</ele>
        <time>2026-08-31T06:36:18Z</time>
      </trkpt>
      <trkpt lat="44.36108" lon="4.85697">
        <ele>119.24</ele>
        <time>2026-08-31T06:36:19Z</time>
      </trkpt>
      <trkpt lat="44.36105" lon="4.85701">
        <ele>119.19</ele>
        <time>2026-08-31T06:36:20Z</time>
      </trkpt>
      <trkpt lat="44.36103" lon="4.85705">
        <ele>119.13</ele>
        <time>2026-08-31T06:36:21Z</time>
      </trkpt>
      <trkpt lat="44.36101" lon="4.85709">
        <ele>119.19</ele>
        <time>2026-08-31T06:36:22Z</time>
      </trkpt>
      <trkpt lat="44.36084" lon="4.85723">
        <ele>118.95</ele>
        <time>2026-08-31T06:36:28Z</time>
      </trkpt>
      <trkpt lat="44.36081" lon="4.85721">
        <ele>118.97</ele>
        <time>2026-08-31T06:36:29Z</time>
      </trkpt>
      <trkpt lat="44.36078" lon="4.85719">
        <ele>119</ele>
        <time>2026-08-31T06:36:30Z</time>
      </trkpt>
      <trkpt lat="44.36037" lon="4.8567">
        <ele>118.96</ele>
        <time>2026-08-31T06:36:46Z</time>
      </trkpt>
      <trkpt lat="44.35994" lon="4.85582">
        <ele>118.4</ele>
        <time>2026-08-31T06:37:06Z</time>
      </trkpt>
      <trkpt lat="44.35951" lon="4.85493">
        <ele>117.65</ele>
        <time>2026-08-31T06:37:26Z</time>
      </trkpt>
      <trkpt lat="44.3592" lon="4.85425">
        <ele>117.65</ele>
        <time>2026-08-31T06:37:41Z</time>
      </trkpt>
      <trkpt lat="44.35904" lon="4.85375">
        <ele>117.28</ele>
        <time>2026-08-31T06:37:51Z</time>
      </trkpt>
      <trkpt lat="44.35901" lon="4.85372">
        <ele>117.19</ele>
        <time>2026-08-31T06:37:52Z</time>
      </trkpt>
      <trkpt lat="44.35897" lon="4.8537">
        <ele>117.11</ele>
        <time>2026-08-31T06:37:53Z</time>
      </trkpt>
      <trkpt lat="44.35834" lon="4.85343">
        <ele>116.63</ele>
        <time>2026-08-31T06:38:09Z</time>
      </trkpt>
      <trkpt lat="44.35809" lon="4.85305">
        <ele>116.01</ele>
        <time>2026-08-31T06:38:20Z</time>
      </trkpt>
      <trkpt lat="44.35821" lon="4.85224">
        <ele>115.15</ele>
        <time>2026-08-31T06:38:35Z</time>
      </trkpt>
      <trkpt lat="44.35819" lon="4.85219">
        <ele>114.91</ele>
        <time>2026-08-31T06:38:36Z</time>
      </trkpt>
      <trkpt lat="44.35817" lon="4.85215">
        <ele>114.82</ele>
        <time>2026-08-31T06:38:37Z</time>
      </trkpt>
      <trkpt lat="44.35778" lon="4.85138">
        <ele>113.43</ele>
        <time>2026-08-31T06:38:51Z</time>
      </trkpt>
      <trkpt lat="44.35728" lon="4.8507">
        <ele>112.37</ele>
        <time>2026-08-31T06:39:08Z</time>
      </trkpt>
      <trkpt lat="44.35661" lon="4.85026">
        <ele>111.65</ele>
        <time>2026-08-31T06:39:25Z</time>
      </trkpt>
      <trkpt lat="44.35578" lon="4.84978">
        <ele>110.22</ele>
        <time>2026-08-31T06:39:44Z</time>
      </trkpt>
      <trkpt lat="44.35493" lon="4.84934">
        <ele>110.37</ele>
        <time>2026-08-31T06:40:05Z</time>
      </trkpt>
      <trkpt lat="44.35402" lon="4.84893">
        <ele>111.68</ele>
        <time>2026-08-31T06:40:27Z</time>
      </trkpt>
      <trkpt lat="44.35313" lon="4.84839">
        <ele>111.23</ele>
        <time>2026-08-31T06:40:49Z</time>
      </trkpt>
      <trkpt lat="44.35244" lon="4.84785">
        <ele>110.89</ele>
        <time>2026-08-31T06:41:08Z</time>
      </trkpt>
      <trkpt lat="44.35177" lon="4.84704">
        <ele>109.96</ele>
        <time>2026-08-31T06:41:28Z</time>
      </trkpt>
      <trkpt lat="44.35112" lon="4.8461">
        <ele>109.17</ele>
        <time>2026-08-31T06:41:49Z</time>
      </trkpt>
      <trkpt lat="44.35045" lon="4.84541">
        <ele>108.05</ele>
        <time>2026-08-31T06:42:07Z</time>
      </trkpt>
      <trkpt lat="44.34955" lon="4.84453">
        <ele>106.63</ele>
        <time>2026-08-31T06:42:31Z</time>
      </trkpt>
      <trkpt lat="44.34916" lon="4.84421">
        <ele>106.39</ele>
        <time>2026-08-31T06:42:41Z</time>
      </trkpt>
      <trkpt lat="44.34912" lon="4.84421">
        <ele>106.28</ele>
        <time>2026-08-31T06:42:42Z</time>
      </trkpt>
      <trkpt lat="44.34909" lon="4.84423">
        <ele>106.69</ele>
        <time>2026-08-31T06:42:43Z</time>
      </trkpt>
      <trkpt lat="44.34906" lon="4.84426">
        <ele>107.01</ele>
        <time>2026-08-31T06:42:44Z</time>
      </trkpt>
      <trkpt lat="44.34906" lon="4.8443">
        <ele>107.24</ele>
        <time>2026-08-31T06:42:45Z</time>
      </trkpt>
      <trkpt lat="44.34906" lon="4.84434">
        <ele>107.34</ele>
        <time>2026-08-31T06:42:46Z</time>
      </trkpt>
      <trkpt lat="44.34902" lon="4.84516">
        <ele>108.26</ele>
        <time>2026-08-31T06:43:04Z</time>
      </trkpt>
      <trkpt lat="44.34896" lon="4.84649">
        <ele>108.73</ele>
        <time>2026-08-31T06:43:31Z</time>
      </trkpt>
      <trkpt lat="44.34888" lon="4.84778">
        <ele>109.08</ele>
        <time>2026-08-31T06:43:57Z</time>
      </trkpt>
      <trkpt lat="44.34867" lon="4.84891">
        <ele>109.99</ele>
        <time>2026-08-31T06:44:20Z</time>
      </trkpt>
      <trkpt lat="44.34861" lon="4.84952">
        <ele>109.96</ele>
        <time>2026-08-31T06:44:34Z</time>
      </trkpt>
      <trkpt lat="44.34857" lon="4.85052">
        <ele>106.63</ele>
        <time>2026-08-31T06:44:47Z</time>
      </trkpt>
      <trkpt lat="44.34843" lon="4.85168">
        <ele>103.53</ele>
        <time>2026-08-31T06:44:59Z</time>
      </trkpt>
      <trkpt lat="44.34824" lon="4.85291">
        <ele>102.87</ele>
        <time>2026-08-31T06:45:15Z</time>
      </trkpt>
      <trkpt lat="44.34809" lon="4.85429">
        <ele>102.67</ele>
        <time>2026-08-31T06:45:36Z</time>
      </trkpt>
      <trkpt lat="44.34798" lon="4.85542">
        <ele>102.63</ele>
        <time>2026-08-31T06:45:54Z</time>
      </trkpt>
      <trkpt lat="44.34787" lon="4.85627">
        <ele>103.09</ele>
        <time>2026-08-31T06:46:09Z</time>
      </trkpt>
      <trkpt lat="44.34758" lon="4.85721">
        <ele>103.93</ele>
        <time>2026-08-31T06:46:27Z</time>
      </trkpt>
      <trkpt lat="44.34718" lon="4.85818">
        <ele>105.41</ele>
        <time>2026-08-31T06:46:48Z</time>
      </trkpt>
      <trkpt lat="44.3468" lon="4.85867">
        <ele>105.87</ele>
        <time>2026-08-31T06:47:02Z</time>
      </trkpt>
      <trkpt lat="44.34638" lon="4.85896">
        <ele>105.76</ele>
        <time>2026-08-31T06:47:15Z</time>
      </trkpt>
      <trkpt lat="44.34591" lon="4.85917">
        <ele>106.3</ele>
        <time>2026-08-31T06:47:31Z</time>
      </trkpt>
      <trkpt lat="44.34553" lon="4.85924">
        <ele>107.19</ele>
        <time>2026-08-31T06:47:44Z</time>
      </trkpt>
      <trkpt lat="44.34551" lon="4.85922">
        <ele>107.36</ele>
        <time>2026-08-31T06:47:45Z</time>
      </trkpt>
      <trkpt lat="44.34549" lon="4.85919">
        <ele>107.71</ele>
        <time>2026-08-31T06:47:46Z</time>
      </trkpt>
      <trkpt lat="44.34548" lon="4.85917">
        <ele>107.79</ele>
        <time>2026-08-31T06:47:47Z</time>
      </trkpt>
      <trkpt lat="44.34546" lon="4.85902">
        <ele>109.54</ele>
        <time>2026-08-31T06:47:53Z</time>
      </trkpt>
      <trkpt lat="44.3455" lon="4.85896">
        <ele>109.95</ele>
        <time>2026-08-31T06:47:57Z</time>
      </trkpt>
      <trkpt lat="44.34572" lon="4.85871">
        <ele>111.28</ele>
        <time>2026-08-31T06:48:11Z</time>
      </trkpt>
      <trkpt lat="44.34595" lon="4.85857">
        <ele>110.65</ele>
        <time>2026-08-31T06:48:21Z</time>
      </trkpt>
      <trkpt lat="44.34618" lon="4.85815">
        <ele>112.54</ele>
        <time>2026-08-31T06:48:36Z</time>
      </trkpt>
      <trkpt lat="44.34624" lon="4.85791">
        <ele>113.31</ele>
        <time>2026-08-31T06:48:44Z</time>
      </trkpt>
      <trkpt lat="44.34633" lon="4.85753">
        <ele>112.77</ele>
        <time>2026-08-31T06:48:54Z</time>
      </trkpt>
      <trkpt lat="44.3464" lon="4.85723">
        <ele>112.06</ele>
        <time>2026-08-31T06:49:03Z</time>
      </trkpt>
      <trkpt lat="44.34638" lon="4.85714">
        <ele>112.37</ele>
        <time>2026-08-31T06:49:07Z</time>
      </trkpt>
      <trkpt lat="44.34637" lon="4.8571">
        <ele>112.5</ele>
        <time>2026-08-31T06:49:09Z</time>
      </trkpt>
      <trkpt lat="44.34623" lon="4.85707">
        <ele>113.69</ele>
        <time>2026-08-31T06:49:17Z</time>
      </trkpt>
      <trkpt lat="44.34591" lon="4.85701">
        <ele>117.08</ele>
        <time>2026-08-31T06:49:31Z</time>
      </trkpt>
      <trkpt lat="44.34574" lon="4.85714">
        <ele>120.12</ele>
        <time>2026-08-31T06:49:41Z</time>
      </trkpt>
      <trkpt lat="44.34567" lon="4.85721">
        <ele>121.54</ele>
        <time>2026-08-31T06:49:46Z</time>
      </trkpt>
      <trkpt lat="44.34547" lon="4.8572">
        <ele>124.98</ele>
        <time>2026-08-31T06:49:56Z</time>
      </trkpt>
      <trkpt lat="44.34543" lon="4.85719">
        <ele>125.95</ele>
        <time>2026-08-31T06:49:58Z</time>
      </trkpt>
      <trkpt lat="44.34513" lon="4.85706">
        <ele>128.74</ele>
        <time>2026-08-31T06:50:13Z</time>
      </trkpt>
      <trkpt lat="44.34503" lon="4.85705">
        <ele>129.83</ele>
        <time>2026-08-31T06:50:18Z</time>
      </trkpt>
      <trkpt lat="44.34489" lon="4.85702">
        <ele>130.96</ele>
        <time>2026-08-31T06:50:25Z</time>
      </trkpt>
      <trkpt lat="44.34486" lon="4.857">
        <ele>131.17</ele>
        <time>2026-08-31T06:50:27Z</time>
      </trkpt>
      <trkpt lat="44.3448" lon="4.85686">
        <ele>131.32</ele>
        <time>2026-08-31T06:50:37Z</time>
      </trkpt>
      <trkpt lat="44.34488" lon="4.85671">
        <ele>130.75</ele>
        <time>2026-08-31T06:50:45Z</time>
      </trkpt>
      <trkpt lat="44.34495" lon="4.85659">
        <ele>130.43</ele>
        <time>2026-08-31T06:50:49Z</time>
      </trkpt>
      <trkpt lat="44.34489" lon="4.85649">
        <ele>130.71</ele>
        <time>2026-08-31T06:50:54Z</time>
      </trkpt>
      <trkpt lat="44.34469" lon="4.85639">
        <ele>132.66</ele>
        <time>2026-08-31T06:51:04Z</time>
      </trkpt>
      <trkpt lat="44.34452" lon="4.85633">
        <ele>132.89</ele>
        <time>2026-08-31T06:51:12Z</time>
      </trkpt>
      <trkpt lat="44.34449" lon="4.85629">
        <ele>133.21</ele>
        <time>2026-08-31T06:51:20Z</time>
      </trkpt>
      <trkpt lat="44.34452" lon="4.85612">
        <ele>129.98</ele>
        <time>2026-08-31T06:51:27Z</time>
      </trkpt>
      <trkpt lat="44.34455" lon="4.85607">
        <ele>128.89</ele>
        <time>2026-08-31T06:51:29Z</time>
      </trkpt>
      <trkpt lat="44.34454" lon="4.85594">
        <ele>125.97</ele>
        <time>2026-08-31T06:51:34Z</time>
      </trkpt>
      <trkpt lat="44.34462" lon="4.85589">
        <ele>124.5</ele>
        <time>2026-08-31T06:51:43Z</time>
      </trkpt>
      <trkpt lat="44.34465" lon="4.85589">
        <ele>124.15</ele>
        <time>2026-08-31T06:51:44Z</time>
      </trkpt>
      <trkpt lat="44.34486" lon="4.85581">
        <ele>120.54</ele>
        <time>2026-08-31T06:51:50Z</time>
      </trkpt>
      <trkpt lat="44.34482" lon="4.85553">
        <ele>118.86</ele>
        <time>2026-08-31T06:51:57Z</time>
      </trkpt>
      <trkpt lat="44.34482" lon="4.85549">
        <ele>118.62</ele>
        <time>2026-08-31T06:52:03Z</time>
      </trkpt>
      <trkpt lat="44.3448" lon="4.85544">
        <ele>118.59</ele>
        <time>2026-08-31T06:52:05Z</time>
      </trkpt>
      <trkpt lat="44.34459" lon="4.85519">
        <ele>119</ele>
        <time>2026-08-31T06:52:16Z</time>
      </trkpt>
      <trkpt lat="44.3443" lon="4.85487">
        <ele>120.09</ele>
        <time>2026-08-31T06:52:30Z</time>
      </trkpt>
      <trkpt lat="44.34416" lon="4.85471">
        <ele>120.29</ele>
        <time>2026-08-31T06:52:39Z</time>
      </trkpt>
      <trkpt lat="44.34398" lon="4.85451">
        <ele>120.87</ele>
        <time>2026-08-31T06:52:48Z</time>
      </trkpt>
      <trkpt lat="44.34396" lon="4.85442">
        <ele>120.73</ele>
        <time>2026-08-31T06:52:52Z</time>
      </trkpt>
      <trkpt lat="44.34392" lon="4.85436">
        <ele>121.07</ele>
        <time>2026-08-31T06:52:56Z</time>
      </trkpt>
      <trkpt lat="44.34386" lon="4.85437">
        <ele>122.02</ele>
        <time>2026-08-31T06:53:00Z</time>
      </trkpt>
      <trkpt lat="44.34373" lon="4.85443">
        <ele>125.52</ele>
        <time>2026-08-31T06:53:09Z</time>
      </trkpt>
      <trkpt lat="44.34371" lon="4.85443">
        <ele>125.65</ele>
        <time>2026-08-31T06:53:10Z</time>
      </trkpt>
      <trkpt lat="44.34365" lon="4.85445">
        <ele>127.73</ele>
        <time>2026-08-31T06:53:13Z</time>
      </trkpt>
      <trkpt lat="44.3434" lon="4.85441">
        <ele>130.6</ele>
        <time>2026-08-31T06:53:26Z</time>
      </trkpt>
      <trkpt lat="44.34338" lon="4.85439">
        <ele>130.75</ele>
        <time>2026-08-31T06:53:27Z</time>
      </trkpt>
      <trkpt lat="44.34324" lon="4.85436">
        <ele>130.92</ele>
        <time>2026-08-31T06:53:38Z</time>
      </trkpt>
      <trkpt lat="44.3431" lon="4.85436">
        <ele>131.12</ele>
        <time>2026-08-31T06:53:44Z</time>
      </trkpt>
      <trkpt lat="44.34302" lon="4.85432">
        <ele>130.79</ele>
        <time>2026-08-31T06:53:47Z</time>
      </trkpt>
      <trkpt lat="44.34286" lon="4.85437">
        <ele>131.1</ele>
        <time>2026-08-31T06:53:54Z</time>
      </trkpt>
      <trkpt lat="44.3428" lon="4.85432">
        <ele>130.66</ele>
        <time>2026-08-31T06:53:56Z</time>
      </trkpt>
      <trkpt lat="44.34257" lon="4.85432">
        <ele>130.13</ele>
        <time>2026-08-31T06:54:04Z</time>
      </trkpt>
      <trkpt lat="44.34234" lon="4.85423">
        <ele>129.13</ele>
        <time>2026-08-31T06:54:13Z</time>
      </trkpt>
      <trkpt lat="44.34215" lon="4.85427">
        <ele>128.7</ele>
        <time>2026-08-31T06:54:22Z</time>
      </trkpt>
      <trkpt lat="44.34206" lon="4.85432">
        <ele>127.96</ele>
        <time>2026-08-31T06:54:25Z</time>
      </trkpt>
      <trkpt lat="44.34205" lon="4.85434">
        <ele>127.75</ele>
        <time>2026-08-31T06:54:26Z</time>
      </trkpt>
      <trkpt lat="44.34203" lon="4.85436">
        <ele>127.72</ele>
        <time>2026-08-31T06:54:29Z</time>
      </trkpt>
      <trkpt lat="44.34203" lon="4.85438">
        <ele>127.78</ele>
        <time>2026-08-31T06:54:30Z</time>
      </trkpt>
      <trkpt lat="44.34205" lon="4.8544">
        <ele>127.95</ele>
        <time>2026-08-31T06:54:31Z</time>
      </trkpt>
      <trkpt lat="44.34207" lon="4.85442">
        <ele>128.06</ele>
        <time>2026-08-31T06:54:32Z</time>
      </trkpt>
      <trkpt lat="44.3421" lon="4.85441">
        <ele>128.1</ele>
        <time>2026-08-31T06:54:33Z</time>
      </trkpt>
      <trkpt lat="44.34212" lon="4.85441">
        <ele>127.91</ele>
        <time>2026-08-31T06:54:34Z</time>
      </trkpt>
      <trkpt lat="44.34215" lon="4.85441">
        <ele>127.94</ele>
        <time>2026-08-31T06:54:35Z</time>
      </trkpt>
      <trkpt lat="44.34217" lon="4.85442">
        <ele>127.89</ele>
        <time>2026-08-31T06:54:36Z</time>
      </trkpt>
      <trkpt lat="44.34219" lon="4.85444">
        <ele>128.02</ele>
        <time>2026-08-31T06:54:37Z</time>
      </trkpt>
      <trkpt lat="44.34221" lon="4.85445">
        <ele>128.2</ele>
        <time>2026-08-31T06:54:38Z</time>
      </trkpt>
      <trkpt lat="44.34223" lon="4.85447">
        <ele>128.25</ele>
        <time>2026-08-31T06:54:39Z</time>
      </trkpt>
      <trkpt lat="44.34225" lon="4.8545">
        <ele>128.32</ele>
        <time>2026-08-31T06:54:40Z</time>
      </trkpt>
      <trkpt lat="44.34227" lon="4.85452">
        <ele>128.57</ele>
        <time>2026-08-31T06:54:41Z</time>
      </trkpt>
      <trkpt lat="44.34239" lon="4.85462">
        <ele>129</ele>
        <time>2026-08-31T06:54:46Z</time>
      </trkpt>
      <trkpt lat="44.34241" lon="4.85462">
        <ele>129</ele>
        <time>2026-08-31T06:54:47Z</time>
      </trkpt>
      <trkpt lat="44.34244" lon="4.85462">
        <ele>129.3</ele>
        <time>2026-08-31T06:54:48Z</time>
      </trkpt>
      <trkpt lat="44.34254" lon="4.85465">
        <ele>129.86</ele>
        <time>2026-08-31T06:54:52Z</time>
      </trkpt>
      <trkpt lat="44.34256" lon="4.85464">
        <ele>130.07</ele>
        <time>2026-08-31T06:54:53Z</time>
      </trkpt>
      <trkpt lat="44.34265" lon="4.85461">
        <ele>130.42</ele>
        <time>2026-08-31T06:54:56Z</time>
      </trkpt>
      <trkpt lat="44.34267" lon="4.85462">
        <ele>130.68</ele>
        <time>2026-08-31T06:54:57Z</time>
      </trkpt>
      <trkpt lat="44.34269" lon="4.85465">
        <ele>130.86</ele>
        <time>2026-08-31T06:54:58Z</time>
      </trkpt>
      <trkpt lat="44.3427" lon="4.85469">
        <ele>130.82</ele>
        <time>2026-08-31T06:54:59Z</time>
      </trkpt>
      <trkpt lat="44.34271" lon="4.85473">
        <ele>131</ele>
        <time>2026-08-31T06:55:00Z</time>
      </trkpt>
      <trkpt lat="44.34273" lon="4.85475">
        <ele>131.17</ele>
        <time>2026-08-31T06:55:01Z</time>
      </trkpt>
      <trkpt lat="44.34276" lon="4.85476">
        <ele>131.26</ele>
        <time>2026-08-31T06:55:02Z</time>
      </trkpt>
      <trkpt lat="44.34279" lon="4.85477">
        <ele>131.5</ele>
        <time>2026-08-31T06:55:03Z</time>
      </trkpt>
      <trkpt lat="44.34282" lon="4.85477">
        <ele>131.54</ele>
        <time>2026-08-31T06:55:04Z</time>
      </trkpt>
      <trkpt lat="44.34298" lon="4.85471">
        <ele>133.59</ele>
        <time>2026-08-31T06:55:11Z</time>
      </trkpt>
      <trkpt lat="44.343" lon="4.85472">
        <ele>133.64</ele>
        <time>2026-08-31T06:55:12Z</time>
      </trkpt>
      <trkpt lat="44.34301" lon="4.85472">
        <ele>133.87</ele>
        <time>2026-08-31T06:55:13Z</time>
      </trkpt>
      <trkpt lat="44.34303" lon="4.85472">
        <ele>133.98</ele>
        <time>2026-08-31T06:55:14Z</time>
      </trkpt>
      <trkpt lat="44.34304" lon="4.85473">
        <ele>134.04</ele>
        <time>2026-08-31T06:55:15Z</time>
      </trkpt>
      <trkpt lat="44.34305" lon="4.85464">
        <ele>134.15</ele>
        <time>2026-08-31T06:55:20Z</time>
      </trkpt>
      <trkpt lat="44.34309" lon="4.85466">
        <ele>134.41</ele>
        <time>2026-08-31T06:55:23Z</time>
      </trkpt>
      <trkpt lat="44.34319" lon="4.85465">
        <ele>134.99</ele>
        <time>2026-08-31T06:55:28Z</time>
      </trkpt>
      <trkpt lat="44.34333" lon="4.85464">
        <ele>135.2</ele>
        <time>2026-08-31T06:55:35Z</time>
      </trkpt>
      <trkpt lat="44.34344" lon="4.8547">
        <ele>135.71</ele>
        <time>2026-08-31T06:55:44Z</time>
      </trkpt>
      <trkpt lat="44.34346" lon="4.85471">
        <ele>135.74</ele>
        <time>2026-08-31T06:55:47Z</time>
      </trkpt>
      <trkpt lat="44.34357" lon="4.8547">
        <ele>133.19</ele>
        <time>2026-08-31T06:55:52Z</time>
      </trkpt>
      <trkpt lat="44.34363" lon="4.85476">
        <ele>131.85</ele>
        <time>2026-08-31T06:55:55Z</time>
      </trkpt>
      <trkpt lat="44.3438" lon="4.85487">
        <ele>128.67</ele>
        <time>2026-08-31T06:56:02Z</time>
      </trkpt>
      <trkpt lat="44.34382" lon="4.85488">
        <ele>127.77</ele>
        <time>2026-08-31T06:56:03Z</time>
      </trkpt>
      <trkpt lat="44.34399" lon="4.85481">
        <ele>124.08</ele>
        <time>2026-08-31T06:56:08Z</time>
      </trkpt>
      <trkpt lat="44.34409" lon="4.8547">
        <ele>121.11</ele>
        <time>2026-08-31T06:56:14Z</time>
      </trkpt>
      <trkpt lat="44.34413" lon="4.8547">
        <ele>121.6</ele>
        <time>2026-08-31T06:56:25Z</time>
      </trkpt>
      <trkpt lat="44.34408" lon="4.85463">
        <ele>122.04</ele>
        <time>2026-08-31T06:56:29Z</time>
      </trkpt>
      <trkpt lat="44.34394" lon="4.85447">
        <ele>122.59</ele>
        <time>2026-08-31T06:56:37Z</time>
      </trkpt>
      <trkpt lat="44.34389" lon="4.85434">
        <ele>123.06</ele>
        <time>2026-08-31T06:56:45Z</time>
      </trkpt>
      <trkpt lat="44.34386" lon="4.85429">
        <ele>123.25</ele>
        <time>2026-08-31T06:56:49Z</time>
      </trkpt>
      <trkpt lat="44.34383" lon="4.85415">
        <ele>122.41</ele>
        <time>2026-08-31T06:56:56Z</time>
      </trkpt>
      <trkpt lat="44.3439" lon="4.85374">
        <ele>120.27</ele>
        <time>2026-08-31T06:57:05Z</time>
      </trkpt>
      <trkpt lat="44.34389" lon="4.8537">
        <ele>119.97</ele>
        <time>2026-08-31T06:57:06Z</time>
      </trkpt>
      <trkpt lat="44.34389" lon="4.85367">
        <ele>119.79</ele>
        <time>2026-08-31T06:57:07Z</time>
      </trkpt>
      <trkpt lat="44.34388" lon="4.85364">
        <ele>119.76</ele>
        <time>2026-08-31T06:57:08Z</time>
      </trkpt>
      <trkpt lat="44.34388" lon="4.85362">
        <ele>119.6</ele>
        <time>2026-08-31T06:57:09Z</time>
      </trkpt>
      <trkpt lat="44.34391" lon="4.85361">
        <ele>118.46</ele>
        <time>2026-08-31T06:57:13Z</time>
      </trkpt>
      <trkpt lat="44.34409" lon="4.85393">
        <ele>119.04</ele>
        <time>2026-08-31T06:57:30Z</time>
      </trkpt>
      <trkpt lat="44.34421" lon="4.85402">
        <ele>118.65</ele>
        <time>2026-08-31T06:57:34Z</time>
      </trkpt>
      <trkpt lat="44.3443" lon="4.8539">
        <ele>117.77</ele>
        <time>2026-08-31T06:57:37Z</time>
      </trkpt>
      <trkpt lat="44.34439" lon="4.85371">
        <ele>116.77</ele>
        <time>2026-08-31T06:57:40Z</time>
      </trkpt>
      <trkpt lat="44.34458" lon="4.85338">
        <ele>115.41</ele>
        <time>2026-08-31T06:57:46Z</time>
      </trkpt>
      <trkpt lat="44.3446" lon="4.85311">
        <ele>114.97</ele>
        <time>2026-08-31T06:57:52Z</time>
      </trkpt>
      <trkpt lat="44.34426" lon="4.85278">
        <ele>115.09</ele>
        <time>2026-08-31T06:58:07Z</time>
      </trkpt>
      <trkpt lat="44.34433" lon="4.85207">
        <ele>115.99</ele>
        <time>2026-08-31T06:58:24Z</time>
      </trkpt>
      <trkpt lat="44.34439" lon="4.85158">
        <ele>118.23</ele>
        <time>2026-08-31T06:58:36Z</time>
      </trkpt>
      <trkpt lat="44.34441" lon="4.85136">
        <ele>120.25</ele>
        <time>2026-08-31T06:58:46Z</time>
      </trkpt>
      <trkpt lat="44.34442" lon="4.85135">
        <ele>120.11</ele>
        <time>2026-08-31T06:59:06Z</time>
      </trkpt>
      <trkpt lat="44.34441" lon="4.85133">
        <ele>120.41</ele>
        <time>2026-08-31T07:00:16Z</time>
      </trkpt>
      <trkpt lat="44.34442" lon="4.85133">
        <ele>120.79</ele>
        <time>2026-08-31T07:01:26Z</time>
      </trkpt>
      <trkpt lat="44.34442" lon="4.85133">
        <ele>121.3</ele>
        <time>2026-08-31T07:02:40Z</time>
      </trkpt>
      <trkpt lat="44.34444" lon="4.85135">
        <ele>122.03</ele>
        <time>2026-08-31T07:03:50Z</time>
      </trkpt>
      <trkpt lat="44.34444" lon="4.85137">
        <ele>122.68</ele>
        <time>2026-08-31T07:04:41Z</time>
      </trkpt>
      <trkpt lat="44.34449" lon="4.85135">
        <ele>123.44</ele>
        <time>2026-08-31T07:04:44Z</time>
      </trkpt>
      <trkpt lat="44.34461" lon="4.85127">
        <ele>124.54</ele>
        <time>2026-08-31T07:04:51Z</time>
      </trkpt>
      <trkpt lat="44.34487" lon="4.85123">
        <ele>125.05</ele>
        <time>2026-08-31T07:05:01Z</time>
      </trkpt>
      <trkpt lat="44.34508" lon="4.85101">
        <ele>128.21</ele>
        <time>2026-08-31T07:05:14Z</time>
      </trkpt>
      <trkpt lat="44.34516" lon="4.85091">
        <ele>129.67</ele>
        <time>2026-08-31T07:05:20Z</time>
      </trkpt>
      <trkpt lat="44.34519" lon="4.85081">
        <ele>130.97</ele>
        <time>2026-08-31T07:05:25Z</time>
      </trkpt>
      <trkpt lat="44.34523" lon="4.85071">
        <ele>132.38</ele>
        <time>2026-08-31T07:05:29Z</time>
      </trkpt>
      <trkpt lat="44.34519" lon="4.85064">
        <ele>133.29</ele>
        <time>2026-08-31T07:05:33Z</time>
      </trkpt>
      <trkpt lat="44.34501" lon="4.85061">
        <ele>136.73</ele>
        <time>2026-08-31T07:05:41Z</time>
      </trkpt>
      <trkpt lat="44.34484" lon="4.85059">
        <ele>139.11</ele>
        <time>2026-08-31T07:05:52Z</time>
      </trkpt>
      <trkpt lat="44.34483" lon="4.85059">
        <ele>139.2</ele>
        <time>2026-08-31T07:06:04Z</time>
      </trkpt>
      <trkpt lat="44.34456" lon="4.8505">
        <ele>138.05</ele>
        <time>2026-08-31T07:06:13Z</time>
      </trkpt>
      <trkpt lat="44.34437" lon="4.8505">
        <ele>135.97</ele>
        <time>2026-08-31T07:06:19Z</time>
      </trkpt>
      <trkpt lat="44.34426" lon="4.85056">
        <ele>135.21</ele>
        <time>2026-08-31T07:06:22Z</time>
      </trkpt>
      <trkpt lat="44.3441" lon="4.8505">
        <ele>133.66</ele>
        <time>2026-08-31T07:06:26Z</time>
      </trkpt>
      <trkpt lat="44.34391" lon="4.85046">
        <ele>131.15</ele>
        <time>2026-08-31T07:06:31Z</time>
      </trkpt>
      <trkpt lat="44.34388" lon="4.85053">
        <ele>131.03</ele>
        <time>2026-08-31T07:06:33Z</time>
      </trkpt>
      <trkpt lat="44.34381" lon="4.85069">
        <ele>130.34</ele>
        <time>2026-08-31T07:06:37Z</time>
      </trkpt>
      <trkpt lat="44.34374" lon="4.8507">
        <ele>129.97</ele>
        <time>2026-08-31T07:06:39Z</time>
      </trkpt>
      <trkpt lat="44.34367" lon="4.85074">
        <ele>129.37</ele>
        <time>2026-08-31T07:06:41Z</time>
      </trkpt>
      <trkpt lat="44.34344" lon="4.85073">
        <ele>128.05</ele>
        <time>2026-08-31T07:06:46Z</time>
      </trkpt>
      <trkpt lat="44.34336" lon="4.85063">
        <ele>127.23</ele>
        <time>2026-08-31T07:06:49Z</time>
      </trkpt>
      <trkpt lat="44.34336" lon="4.85059">
        <ele>126.72</ele>
        <time>2026-08-31T07:06:50Z</time>
      </trkpt>
      <trkpt lat="44.34335" lon="4.85055">
        <ele>126.7</ele>
        <time>2026-08-31T07:06:51Z</time>
      </trkpt>
      <trkpt lat="44.34333" lon="4.85052">
        <ele>126.47</ele>
        <time>2026-08-31T07:06:52Z</time>
      </trkpt>
      <trkpt lat="44.34332" lon="4.85049">
        <ele>126.22</ele>
        <time>2026-08-31T07:06:53Z</time>
      </trkpt>
      <trkpt lat="44.34332" lon="4.85048">
        <ele>126.18</ele>
        <time>2026-08-31T07:06:54Z</time>
      </trkpt>
      <trkpt lat="44.3433" lon="4.85048">
        <ele>126.87</ele>
        <time>2026-08-31T07:07:09Z</time>
      </trkpt>
      <trkpt lat="44.3433" lon="4.85047">
        <ele>126.55</ele>
        <time>2026-08-31T07:07:21Z</time>
      </trkpt>
      <trkpt lat="44.34331" lon="4.85044">
        <ele>126.58</ele>
        <time>2026-08-31T07:07:26Z</time>
      </trkpt>
      <trkpt lat="44.34332" lon="4.85041">
        <ele>126.37</ele>
        <time>2026-08-31T07:07:28Z</time>
      </trkpt>
      <trkpt lat="44.34331" lon="4.85037">
        <ele>126.12</ele>
        <time>2026-08-31T07:07:30Z</time>
      </trkpt>
      <trkpt lat="44.3433" lon="4.85034">
        <ele>125.77</ele>
        <time>2026-08-31T07:07:31Z</time>
      </trkpt>
      <trkpt lat="44.34328" lon="4.85032">
        <ele>125.57</ele>
        <time>2026-08-31T07:07:32Z</time>
      </trkpt>
      <trkpt lat="44.34325" lon="4.85032">
        <ele>125.58</ele>
        <time>2026-08-31T07:07:33Z</time>
      </trkpt>
      <trkpt lat="44.34323" lon="4.85033">
        <ele>125.45</ele>
        <time>2026-08-31T07:07:34Z</time>
      </trkpt>
      <trkpt lat="44.34321" lon="4.85035">
        <ele>125.37</ele>
        <time>2026-08-31T07:07:35Z</time>
      </trkpt>
      <trkpt lat="44.3432" lon="4.85037">
        <ele>125.6</ele>
        <time>2026-08-31T07:07:36Z</time>
      </trkpt>
      <trkpt lat="44.3432" lon="4.85041">
        <ele>125.65</ele>
        <time>2026-08-31T07:07:37Z</time>
      </trkpt>
      <trkpt lat="44.34321" lon="4.85045">
        <ele>125.45</ele>
        <time>2026-08-31T07:07:38Z</time>
      </trkpt>
      <trkpt lat="44.34321" lon="4.85049">
        <ele>125.62</ele>
        <time>2026-08-31T07:07:39Z</time>
      </trkpt>
      <trkpt lat="44.34321" lon="4.85051">
        <ele>125.56</ele>
        <time>2026-08-31T07:07:40Z</time>
      </trkpt>
      <trkpt lat="44.34322" lon="4.85054">
        <ele>125.54</ele>
        <time>2026-08-31T07:07:41Z</time>
      </trkpt>
      <trkpt lat="44.34322" lon="4.85061">
        <ele>125.98</ele>
        <time>2026-08-31T07:07:43Z</time>
      </trkpt>
      <trkpt lat="44.34322" lon="4.85064">
        <ele>126.24</ele>
        <time>2026-08-31T07:07:44Z</time>
      </trkpt>
      <trkpt lat="44.34322" lon="4.85067">
        <ele>126.59</ele>
        <time>2026-08-31T07:07:45Z</time>
      </trkpt>
      <trkpt lat="44.34322" lon="4.85071">
        <ele>126.53</ele>
        <time>2026-08-31T07:07:46Z</time>
      </trkpt>
      <trkpt lat="44.34323" lon="4.85075">
        <ele>126.54</ele>
        <time>2026-08-31T07:07:47Z</time>
      </trkpt>
      <trkpt lat="44.34321" lon="4.85123">
        <ele>124.53</ele>
        <time>2026-08-31T07:07:57Z</time>
      </trkpt>
      <trkpt lat="44.34311" lon="4.85157">
        <ele>122.59</ele>
        <time>2026-08-31T07:08:05Z</time>
      </trkpt>
      <trkpt lat="44.34312" lon="4.85162">
        <ele>122.17</ele>
        <time>2026-08-31T07:08:06Z</time>
      </trkpt>
      <trkpt lat="44.34313" lon="4.85166">
        <ele>122.09</ele>
        <time>2026-08-31T07:08:07Z</time>
      </trkpt>
      <trkpt lat="44.34312" lon="4.8517">
        <ele>121.68</ele>
        <time>2026-08-31T07:08:08Z</time>
      </trkpt>
      <trkpt lat="44.34311" lon="4.85174">
        <ele>121.35</ele>
        <time>2026-08-31T07:08:09Z</time>
      </trkpt>
      <trkpt lat="44.3431" lon="4.85178">
        <ele>120.82</ele>
        <time>2026-08-31T07:08:10Z</time>
      </trkpt>
      <trkpt lat="44.34308" lon="4.85183">
        <ele>120.7</ele>
        <time>2026-08-31T07:08:11Z</time>
      </trkpt>
      <trkpt lat="44.34306" lon="4.85187">
        <ele>120.81</ele>
        <time>2026-08-31T07:08:12Z</time>
      </trkpt>
      <trkpt lat="44.34304" lon="4.85192">
        <ele>120.54</ele>
        <time>2026-08-31T07:08:13Z</time>
      </trkpt>
      <trkpt lat="44.34302" lon="4.85197">
        <ele>120.51</ele>
        <time>2026-08-31T07:08:14Z</time>
      </trkpt>
      <trkpt lat="44.343" lon="4.85202">
        <ele>120.65</ele>
        <time>2026-08-31T07:08:15Z</time>
      </trkpt>
      <trkpt lat="44.34296" lon="4.85213">
        <ele>120.27</ele>
        <time>2026-08-31T07:08:17Z</time>
      </trkpt>
      <trkpt lat="44.34277" lon="4.85264">
        <ele>123.29</ele>
        <time>2026-08-31T07:08:29Z</time>
      </trkpt>
      <trkpt lat="44.34243" lon="4.85265">
        <ele>126.24</ele>
        <time>2026-08-31T07:08:41Z</time>
      </trkpt>
      <trkpt lat="44.34237" lon="4.85265">
        <ele>127.15</ele>
        <time>2026-08-31T07:08:43Z</time>
      </trkpt>
      <trkpt lat="44.34187" lon="4.85276">
        <ele>129.32</ele>
        <time>2026-08-31T07:09:01Z</time>
      </trkpt>
      <trkpt lat="44.34141" lon="4.85297">
        <ele>129.08</ele>
        <time>2026-08-31T07:09:16Z</time>
      </trkpt>
      <trkpt lat="44.34097" lon="4.85324">
        <ele>128.85</ele>
        <time>2026-08-31T07:09:31Z</time>
      </trkpt>
      <trkpt lat="44.34083" lon="4.85326">
        <ele>128.07</ele>
        <time>2026-08-31T07:09:39Z</time>
      </trkpt>
      <trkpt lat="44.3402" lon="4.85344">
        <ele>124.87</ele>
        <time>2026-08-31T07:09:51Z</time>
      </trkpt>
      <trkpt lat="44.3396" lon="4.85363">
        <ele>121.8</ele>
        <time>2026-08-31T07:09:59Z</time>
      </trkpt>
      <trkpt lat="44.33906" lon="4.85385">
        <ele>118.82</ele>
        <time>2026-08-31T07:10:06Z</time>
      </trkpt>
      <trkpt lat="44.339" lon="4.85386">
        <ele>118.4</ele>
        <time>2026-08-31T07:10:07Z</time>
      </trkpt>
      <trkpt lat="44.33894" lon="4.85384">
        <ele>118.45</ele>
        <time>2026-08-31T07:10:08Z</time>
      </trkpt>
      <trkpt lat="44.33889" lon="4.8538">
        <ele>118.24</ele>
        <time>2026-08-31T07:10:09Z</time>
      </trkpt>
      <trkpt lat="44.33884" lon="4.85375">
        <ele>118.1</ele>
        <time>2026-08-31T07:10:10Z</time>
      </trkpt>
      <trkpt lat="44.33879" lon="4.85369">
        <ele>118.02</ele>
        <time>2026-08-31T07:10:11Z</time>
      </trkpt>
      <trkpt lat="44.33875" lon="4.85363">
        <ele>117.74</ele>
        <time>2026-08-31T07:10:12Z</time>
      </trkpt>
      <trkpt lat="44.33848" lon="4.85326">
        <ele>117.09</ele>
        <time>2026-08-31T07:10:19Z</time>
      </trkpt>
      <trkpt lat="44.33846" lon="4.85322">
        <ele>117.17</ele>
        <time>2026-08-31T07:10:20Z</time>
      </trkpt>
      <trkpt lat="44.33844" lon="4.85317">
        <ele>117.04</ele>
        <time>2026-08-31T07:10:21Z</time>
      </trkpt>
      <trkpt lat="44.33842" lon="4.85312">
        <ele>117.09</ele>
        <time>2026-08-31T07:10:22Z</time>
      </trkpt>
      <trkpt lat="44.33841" lon="4.85306">
        <ele>118</ele>
        <time>2026-08-31T07:10:23Z</time>
      </trkpt>
      <trkpt lat="44.33815" lon="4.85232">
        <ele>119.45</ele>
        <time>2026-08-31T07:10:39Z</time>
      </trkpt>
      <trkpt lat="44.33779" lon="4.85174">
        <ele>119.76</ele>
        <time>2026-08-31T07:10:54Z</time>
      </trkpt>
      <trkpt lat="44.33777" lon="4.85174">
        <ele>119.78</ele>
        <time>2026-08-31T07:10:55Z</time>
      </trkpt>
      <trkpt lat="44.33765" lon="4.85173">
        <ele>119.52</ele>
        <time>2026-08-31T07:10:58Z</time>
      </trkpt>
      <trkpt lat="44.3376" lon="4.85173">
        <ele>119.47</ele>
        <time>2026-08-31T07:10:59Z</time>
      </trkpt>
      <trkpt lat="44.33756" lon="4.85173">
        <ele>118.97</ele>
        <time>2026-08-31T07:11:00Z</time>
      </trkpt>
      <trkpt lat="44.33752" lon="4.85176">
        <ele>118.97</ele>
        <time>2026-08-31T07:11:01Z</time>
      </trkpt>
      <trkpt lat="44.33748" lon="4.8518">
        <ele>118.51</ele>
        <time>2026-08-31T07:11:02Z</time>
      </trkpt>
      <trkpt lat="44.33744" lon="4.85185">
        <ele>117.86</ele>
        <time>2026-08-31T07:11:03Z</time>
      </trkpt>
      <trkpt lat="44.33743" lon="4.8519">
        <ele>117.42</ele>
        <time>2026-08-31T07:11:04Z</time>
      </trkpt>
      <trkpt lat="44.33742" lon="4.85194">
        <ele>117.29</ele>
        <time>2026-08-31T07:11:05Z</time>
      </trkpt>
      <trkpt lat="44.3374" lon="4.85198">
        <ele>116.98</ele>
        <time>2026-08-31T07:11:06Z</time>
      </trkpt>
      <trkpt lat="44.33737" lon="4.852">
        <ele>116.61</ele>
        <time>2026-08-31T07:11:07Z</time>
      </trkpt>
      <trkpt lat="44.33734" lon="4.85201">
        <ele>116.43</ele>
        <time>2026-08-31T07:11:08Z</time>
      </trkpt>
      <trkpt lat="44.33732" lon="4.85203">
        <ele>116.28</ele>
        <time>2026-08-31T07:11:09Z</time>
      </trkpt>
      <trkpt lat="44.33726" lon="4.85205">
        <ele>116.04</ele>
        <time>2026-08-31T07:11:11Z</time>
      </trkpt>
      <trkpt lat="44.33695" lon="4.85195">
        <ele>114.84</ele>
        <time>2026-08-31T07:11:21Z</time>
      </trkpt>
      <trkpt lat="44.33658" lon="4.85172">
        <ele>113.83</ele>
        <time>2026-08-31T07:11:33Z</time>
      </trkpt>
      <trkpt lat="44.33625" lon="4.85165">
        <ele>112.46</ele>
        <time>2026-08-31T07:11:43Z</time>
      </trkpt>
      <trkpt lat="44.33624" lon="4.85165">
        <ele>112.22</ele>
        <time>2026-08-31T07:11:44Z</time>
      </trkpt>
      <trkpt lat="44.33623" lon="4.85163">
        <ele>112.33</ele>
        <time>2026-08-31T07:11:45Z</time>
      </trkpt>
      <trkpt lat="44.33623" lon="4.85161">
        <ele>112.37</ele>
        <time>2026-08-31T07:11:46Z</time>
      </trkpt>
      <trkpt lat="44.33622" lon="4.85158">
        <ele>112.47</ele>
        <time>2026-08-31T07:11:49Z</time>
      </trkpt>
      <trkpt lat="44.33624" lon="4.85141">
        <ele>112.84</ele>
        <time>2026-08-31T07:11:55Z</time>
      </trkpt>
      <trkpt lat="44.33639" lon="4.85101">
        <ele>115.27</ele>
        <time>2026-08-31T07:12:07Z</time>
      </trkpt>
      <trkpt lat="44.33647" lon="4.85052">
        <ele>117.05</ele>
        <time>2026-08-31T07:12:20Z</time>
      </trkpt>
      <trkpt lat="44.33666" lon="4.85026">
        <ele>118.58</ele>
        <time>2026-08-31T07:12:30Z</time>
      </trkpt>
      <trkpt lat="44.33693" lon="4.84993">
        <ele>121.7</ele>
        <time>2026-08-31T07:12:44Z</time>
      </trkpt>
      <trkpt lat="44.33707" lon="4.84973">
        <ele>122.68</ele>
        <time>2026-08-31T07:12:51Z</time>
      </trkpt>
      <trkpt lat="44.33734" lon="4.84939">
        <ele>124.77</ele>
        <time>2026-08-31T07:13:05Z</time>
      </trkpt>
      <trkpt lat="44.3374" lon="4.84927">
        <ele>125.39</ele>
        <time>2026-08-31T07:13:15Z</time>
      </trkpt>
      <trkpt lat="44.33742" lon="4.84924">
        <ele>125.47</ele>
        <time>2026-08-31T07:13:20Z</time>
      </trkpt>
      <trkpt lat="44.33734" lon="4.84917">
        <ele>125.39</ele>
        <time>2026-08-31T07:13:26Z</time>
      </trkpt>
      <trkpt lat="44.33697" lon="4.84918">
        <ele>124.01</ele>
        <time>2026-08-31T07:13:38Z</time>
      </trkpt>
      <trkpt lat="44.33668" lon="4.84911">
        <ele>123.35</ele>
        <time>2026-08-31T07:13:47Z</time>
      </trkpt>
      <trkpt lat="44.33639" lon="4.8489">
        <ele>122.55</ele>
        <time>2026-08-31T07:13:57Z</time>
      </trkpt>
      <trkpt lat="44.33613" lon="4.84854">
        <ele>122.74</ele>
        <time>2026-08-31T07:14:10Z</time>
      </trkpt>
      <trkpt lat="44.33612" lon="4.84851">
        <ele>122.67</ele>
        <time>2026-08-31T07:14:11Z</time>
      </trkpt>
      <trkpt lat="44.33612" lon="4.84847">
        <ele>122.99</ele>
        <time>2026-08-31T07:14:12Z</time>
      </trkpt>
      <trkpt lat="44.33613" lon="4.84839">
        <ele>123.79</ele>
        <time>2026-08-31T07:14:14Z</time>
      </trkpt>
      <trkpt lat="44.33604" lon="4.84784">
        <ele>125.5</ele>
        <time>2026-08-31T07:14:31Z</time>
      </trkpt>
      <trkpt lat="44.33602" lon="4.84757">
        <ele>126.72</ele>
        <time>2026-08-31T07:14:39Z</time>
      </trkpt>
      <trkpt lat="44.33578" lon="4.84749">
        <ele>126.53</ele>
        <time>2026-08-31T07:14:48Z</time>
      </trkpt>
      <trkpt lat="44.33572" lon="4.84753">
        <ele>126.14</ele>
        <time>2026-08-31T07:14:50Z</time>
      </trkpt>
      <trkpt lat="44.3357" lon="4.84756">
        <ele>125.75</ele>
        <time>2026-08-31T07:14:51Z</time>
      </trkpt>
      <trkpt lat="44.33568" lon="4.84758">
        <ele>125.28</ele>
        <time>2026-08-31T07:14:52Z</time>
      </trkpt>
      <trkpt lat="44.33565" lon="4.84758">
        <ele>125</ele>
        <time>2026-08-31T07:14:53Z</time>
      </trkpt>
      <trkpt lat="44.33563" lon="4.84756">
        <ele>125.16</ele>
        <time>2026-08-31T07:14:54Z</time>
      </trkpt>
      <trkpt lat="44.33562" lon="4.84754">
        <ele>124.93</ele>
        <time>2026-08-31T07:14:55Z</time>
      </trkpt>
      <trkpt lat="44.3356" lon="4.84753">
        <ele>125.02</ele>
        <time>2026-08-31T07:14:56Z</time>
      </trkpt>
      <trkpt lat="44.33558" lon="4.84751">
        <ele>125.03</ele>
        <time>2026-08-31T07:14:57Z</time>
      </trkpt>
      <trkpt lat="44.33556" lon="4.84748">
        <ele>125.16</ele>
        <time>2026-08-31T07:14:58Z</time>
      </trkpt>
      <trkpt lat="44.33554" lon="4.84746">
        <ele>125.24</ele>
        <time>2026-08-31T07:14:59Z</time>
      </trkpt>
      <trkpt lat="44.33534" lon="4.84713">
        <ele>126.45</ele>
        <time>2026-08-31T07:15:12Z</time>
      </trkpt>
      <trkpt lat="44.33528" lon="4.84674">
        <ele>127.14</ele>
        <time>2026-08-31T07:15:23Z</time>
      </trkpt>
      <trkpt lat="44.3353" lon="4.8463">
        <ele>127.97</ele>
        <time>2026-08-31T07:15:36Z</time>
      </trkpt>
      <trkpt lat="44.33536" lon="4.84588">
        <ele>129.24</ele>
        <time>2026-08-31T07:15:48Z</time>
      </trkpt>
      <trkpt lat="44.33534" lon="4.84564">
        <ele>130.34</ele>
        <time>2026-08-31T07:15:55Z</time>
      </trkpt>
      <trkpt lat="44.33533" lon="4.8456">
        <ele>130.36</ele>
        <time>2026-08-31T07:15:56Z</time>
      </trkpt>
      <trkpt lat="44.33531" lon="4.84557">
        <ele>130.53</ele>
        <time>2026-08-31T07:15:57Z</time>
      </trkpt>
      <trkpt lat="44.3353" lon="4.84554">
        <ele>130.72</ele>
        <time>2026-08-31T07:15:58Z</time>
      </trkpt>
      <trkpt lat="44.33528" lon="4.8455">
        <ele>130.7</ele>
        <time>2026-08-31T07:15:59Z</time>
      </trkpt>
      <trkpt lat="44.33527" lon="4.84548">
        <ele>130.65</ele>
        <time>2026-08-31T07:16:00Z</time>
      </trkpt>
      <trkpt lat="44.33525" lon="4.84545">
        <ele>130.46</ele>
        <time>2026-08-31T07:16:01Z</time>
      </trkpt>
      <trkpt lat="44.33523" lon="4.84542">
        <ele>130.41</ele>
        <time>2026-08-31T07:16:02Z</time>
      </trkpt>
      <trkpt lat="44.33501" lon="4.84509">
        <ele>130.87</ele>
        <time>2026-08-31T07:16:14Z</time>
      </trkpt>
      <trkpt lat="44.33499" lon="4.84504">
        <ele>130.94</ele>
        <time>2026-08-31T07:16:16Z</time>
      </trkpt>
      <trkpt lat="44.33497" lon="4.84503">
        <ele>131.07</ele>
        <time>2026-08-31T07:16:17Z</time>
      </trkpt>
      <trkpt lat="44.33495" lon="4.84503">
        <ele>131.1</ele>
        <time>2026-08-31T07:16:18Z</time>
      </trkpt>
      <trkpt lat="44.33493" lon="4.84503">
        <ele>131.03</ele>
        <time>2026-08-31T07:16:19Z</time>
      </trkpt>
      <trkpt lat="44.33492" lon="4.84503">
        <ele>130.78</ele>
        <time>2026-08-31T07:16:20Z</time>
      </trkpt>
      <trkpt lat="44.33491" lon="4.84502">
        <ele>130.58</ele>
        <time>2026-08-31T07:16:21Z</time>
      </trkpt>
      <trkpt lat="44.3349" lon="4.84501">
        <ele>130.65</ele>
        <time>2026-08-31T07:16:22Z</time>
      </trkpt>
      <trkpt lat="44.33489" lon="4.84499">
        <ele>130.66</ele>
        <time>2026-08-31T07:16:23Z</time>
      </trkpt>
      <trkpt lat="44.33487" lon="4.84497">
        <ele>130.61</ele>
        <time>2026-08-31T07:16:24Z</time>
      </trkpt>
      <trkpt lat="44.33487" lon="4.84493">
        <ele>130.73</ele>
        <time>2026-08-31T07:16:25Z</time>
      </trkpt>
      <trkpt lat="44.33487" lon="4.8449">
        <ele>130.78</ele>
        <time>2026-08-31T07:16:26Z</time>
      </trkpt>
      <trkpt lat="44.33488" lon="4.84488">
        <ele>131.05</ele>
        <time>2026-08-31T07:16:27Z</time>
      </trkpt>
      <trkpt lat="44.33489" lon="4.84487">
        <ele>131.04</ele>
        <time>2026-08-31T07:16:28Z</time>
      </trkpt>
      <trkpt lat="44.33491" lon="4.84488">
        <ele>131.21</ele>
        <time>2026-08-31T07:16:29Z</time>
      </trkpt>
      <trkpt lat="44.33492" lon="4.84488">
        <ele>131.29</ele>
        <time>2026-08-31T07:16:30Z</time>
      </trkpt>
      <trkpt lat="44.33498" lon="4.8449">
        <ele>131.26</ele>
        <time>2026-08-31T07:16:39Z</time>
      </trkpt>
      <trkpt lat="44.33522" lon="4.84481">
        <ele>133.46</ele>
        <time>2026-08-31T07:16:51Z</time>
      </trkpt>
      <trkpt lat="44.33548" lon="4.84457">
        <ele>134.89</ele>
        <time>2026-08-31T07:17:05Z</time>
      </trkpt>
      <trkpt lat="44.33577" lon="4.84445">
        <ele>136.56</ele>
        <time>2026-08-31T07:17:18Z</time>
      </trkpt>
      <trkpt lat="44.33578" lon="4.84443">
        <ele>136.82</ele>
        <time>2026-08-31T07:17:19Z</time>
      </trkpt>
      <trkpt lat="44.3358" lon="4.84441">
        <ele>136.97</ele>
        <time>2026-08-31T07:17:20Z</time>
      </trkpt>
      <trkpt lat="44.33582" lon="4.8444">
        <ele>137.13</ele>
        <time>2026-08-31T07:17:21Z</time>
      </trkpt>
      <trkpt lat="44.3361" lon="4.84429">
        <ele>137.91</ele>
        <time>2026-08-31T07:17:34Z</time>
      </trkpt>
      <trkpt lat="44.3362" lon="4.84424">
        <ele>137.99</ele>
        <time>2026-08-31T07:17:39Z</time>
      </trkpt>
      <trkpt lat="44.33622" lon="4.84424">
        <ele>138.08</ele>
        <time>2026-08-31T07:17:40Z</time>
      </trkpt>
      <trkpt lat="44.33623" lon="4.84423">
        <ele>138.22</ele>
        <time>2026-08-31T07:17:41Z</time>
      </trkpt>
      <trkpt lat="44.33625" lon="4.84422">
        <ele>138.24</ele>
        <time>2026-08-31T07:17:42Z</time>
      </trkpt>
      <trkpt lat="44.33627" lon="4.84421">
        <ele>138.42</ele>
        <time>2026-08-31T07:17:43Z</time>
      </trkpt>
      <trkpt lat="44.3363" lon="4.8442">
        <ele>138.4</ele>
        <time>2026-08-31T07:17:44Z</time>
      </trkpt>
      <trkpt lat="44.33654" lon="4.84415">
        <ele>139.07</ele>
        <time>2026-08-31T07:17:55Z</time>
      </trkpt>
      <trkpt lat="44.33655" lon="4.84413">
        <ele>139.25</ele>
        <time>2026-08-31T07:17:56Z</time>
      </trkpt>
      <trkpt lat="44.33655" lon="4.8441">
        <ele>139.18</ele>
        <time>2026-08-31T07:17:57Z</time>
      </trkpt>
      <trkpt lat="44.33655" lon="4.84407">
        <ele>139.35</ele>
        <time>2026-08-31T07:17:58Z</time>
      </trkpt>
      <trkpt lat="44.33655" lon="4.84404">
        <ele>139.23</ele>
        <time>2026-08-31T07:17:59Z</time>
      </trkpt>
      <trkpt lat="44.33654" lon="4.84401">
        <ele>139.35</ele>
        <time>2026-08-31T07:18:00Z</time>
      </trkpt>
      <trkpt lat="44.33651" lon="4.84365">
        <ele>139.02</ele>
        <time>2026-08-31T07:18:10Z</time>
      </trkpt>
      <trkpt lat="44.33639" lon="4.84309">
        <ele>139.56</ele>
        <time>2026-08-31T07:18:25Z</time>
      </trkpt>
      <trkpt lat="44.3361" lon="4.84295">
        <ele>138.05</ele>
        <time>2026-08-31T07:18:34Z</time>
      </trkpt>
      <trkpt lat="44.33607" lon="4.84293">
        <ele>137.99</ele>
        <time>2026-08-31T07:18:35Z</time>
      </trkpt>
      <trkpt lat="44.33604" lon="4.84289">
        <ele>137.8</ele>
        <time>2026-08-31T07:18:36Z</time>
      </trkpt>
      <trkpt lat="44.336" lon="4.84286">
        <ele>137.57</ele>
        <time>2026-08-31T07:18:37Z</time>
      </trkpt>
      <trkpt lat="44.33596" lon="4.84283">
        <ele>137.03</ele>
        <time>2026-08-31T07:18:38Z</time>
      </trkpt>
      <trkpt lat="44.33592" lon="4.84279">
        <ele>136.97</ele>
        <time>2026-08-31T07:18:39Z</time>
      </trkpt>
      <trkpt lat="44.33588" lon="4.84277">
        <ele>136.84</ele>
        <time>2026-08-31T07:18:40Z</time>
      </trkpt>
      <trkpt lat="44.33583" lon="4.84274">
        <ele>136.46</ele>
        <time>2026-08-31T07:18:41Z</time>
      </trkpt>
      <trkpt lat="44.33579" lon="4.8427">
        <ele>136.16</ele>
        <time>2026-08-31T07:18:42Z</time>
      </trkpt>
      <trkpt lat="44.33575" lon="4.84267">
        <ele>136.13</ele>
        <time>2026-08-31T07:18:43Z</time>
      </trkpt>
      <trkpt lat="44.33571" lon="4.84264">
        <ele>135.42</ele>
        <time>2026-08-31T07:18:44Z</time>
      </trkpt>
      <trkpt lat="44.33568" lon="4.8426">
        <ele>134.8</ele>
        <time>2026-08-31T07:18:45Z</time>
      </trkpt>
      <trkpt lat="44.33564" lon="4.84255">
        <ele>134.47</ele>
        <time>2026-08-31T07:18:46Z</time>
      </trkpt>
      <trkpt lat="44.3356" lon="4.84252">
        <ele>134.06</ele>
        <time>2026-08-31T07:18:47Z</time>
      </trkpt>
      <trkpt lat="44.33556" lon="4.84248">
        <ele>133.82</ele>
        <time>2026-08-31T07:18:48Z</time>
      </trkpt>
      <trkpt lat="44.33552" lon="4.84244">
        <ele>133.77</ele>
        <time>2026-08-31T07:18:49Z</time>
      </trkpt>
      <trkpt lat="44.33544" lon="4.84235">
        <ele>132.63</ele>
        <time>2026-08-31T07:18:51Z</time>
      </trkpt>
      <trkpt lat="44.33534" lon="4.8423">
        <ele>131.93</ele>
        <time>2026-08-31T07:18:53Z</time>
      </trkpt>
      <trkpt lat="44.33511" lon="4.84216">
        <ele>129.58</ele>
        <time>2026-08-31T07:19:01Z</time>
      </trkpt>
      <trkpt lat="44.33506" lon="4.8421">
        <ele>129.66</ele>
        <time>2026-08-31T07:19:08Z</time>
      </trkpt>
      <trkpt lat="44.33503" lon="4.84207">
        <ele>129.32</ele>
        <time>2026-08-31T07:19:09Z</time>
      </trkpt>
      <trkpt lat="44.33499" lon="4.84204">
        <ele>129.45</ele>
        <time>2026-08-31T07:19:10Z</time>
      </trkpt>
      <trkpt lat="44.33495" lon="4.84201">
        <ele>129.03</ele>
        <time>2026-08-31T07:19:11Z</time>
      </trkpt>
      <trkpt lat="44.33491" lon="4.842">
        <ele>128.82</ele>
        <time>2026-08-31T07:19:12Z</time>
      </trkpt>
      <trkpt lat="44.33488" lon="4.842">
        <ele>128.87</ele>
        <time>2026-08-31T07:19:13Z</time>
      </trkpt>
      <trkpt lat="44.33485" lon="4.84203">
        <ele>128.83</ele>
        <time>2026-08-31T07:19:14Z</time>
      </trkpt>
      <trkpt lat="44.33482" lon="4.84207">
        <ele>128.6</ele>
        <time>2026-08-31T07:19:15Z</time>
      </trkpt>
      <trkpt lat="44.33481" lon="4.84212">
        <ele>128.46</ele>
        <time>2026-08-31T07:19:16Z</time>
      </trkpt>
      <trkpt lat="44.33479" lon="4.84214">
        <ele>128.08</ele>
        <time>2026-08-31T07:19:17Z</time>
      </trkpt>
      <trkpt lat="44.33477" lon="4.84214">
        <ele>128.18</ele>
        <time>2026-08-31T07:19:18Z</time>
      </trkpt>
      <trkpt lat="44.33475" lon="4.84213">
        <ele>127.75</ele>
        <time>2026-08-31T07:19:19Z</time>
      </trkpt>
      <trkpt lat="44.33472" lon="4.84212">
        <ele>127.72</ele>
        <time>2026-08-31T07:19:20Z</time>
      </trkpt>
      <trkpt lat="44.3347" lon="4.8421">
        <ele>127.28</ele>
        <time>2026-08-31T07:19:23Z</time>
      </trkpt>
      <trkpt lat="44.33469" lon="4.84208">
        <ele>127.17</ele>
        <time>2026-08-31T07:19:24Z</time>
      </trkpt>
      <trkpt lat="44.33465" lon="4.84201">
        <ele>127.01</ele>
        <time>2026-08-31T07:19:26Z</time>
      </trkpt>
      <trkpt lat="44.33462" lon="4.84196">
        <ele>126.71</ele>
        <time>2026-08-31T07:19:27Z</time>
      </trkpt>
      <trkpt lat="44.33445" lon="4.8417">
        <ele>125.41</ele>
        <time>2026-08-31T07:19:33Z</time>
      </trkpt>
      <trkpt lat="44.33442" lon="4.84165">
        <ele>125.4</ele>
        <time>2026-08-31T07:19:34Z</time>
      </trkpt>
      <trkpt lat="44.33416" lon="4.84106">
        <ele>124.65</ele>
        <time>2026-08-31T07:19:46Z</time>
      </trkpt>
      <trkpt lat="44.33413" lon="4.84102">
        <ele>124.81</ele>
        <time>2026-08-31T07:19:47Z</time>
      </trkpt>
      <trkpt lat="44.33407" lon="4.84095">
        <ele>124.39</ele>
        <time>2026-08-31T07:19:49Z</time>
      </trkpt>
      <trkpt lat="44.33404" lon="4.84091">
        <ele>123.95</ele>
        <time>2026-08-31T07:19:50Z</time>
      </trkpt>
      <trkpt lat="44.334" lon="4.84089">
        <ele>124.16</ele>
        <time>2026-08-31T07:19:51Z</time>
      </trkpt>
      <trkpt lat="44.33396" lon="4.84088">
        <ele>123.92</ele>
        <time>2026-08-31T07:19:52Z</time>
      </trkpt>
      <trkpt lat="44.33392" lon="4.84088">
        <ele>123.86</ele>
        <time>2026-08-31T07:19:53Z</time>
      </trkpt>
      <trkpt lat="44.33388" lon="4.84087">
        <ele>123.47</ele>
        <time>2026-08-31T07:19:54Z</time>
      </trkpt>
      <trkpt lat="44.33368" lon="4.84083">
        <ele>121.95</ele>
        <time>2026-08-31T07:19:58Z</time>
      </trkpt>
      <trkpt lat="44.33353" lon="4.84081">
        <ele>121.51</ele>
        <time>2026-08-31T07:20:01Z</time>
      </trkpt>
      <trkpt lat="44.33348" lon="4.84079">
        <ele>121.36</ele>
        <time>2026-08-31T07:20:02Z</time>
      </trkpt>
      <trkpt lat="44.33321" lon="4.84076">
        <ele>120.57</ele>
        <time>2026-08-31T07:20:11Z</time>
      </trkpt>
      <trkpt lat="44.33306" lon="4.84072">
        <ele>120.08</ele>
        <time>2026-08-31T07:20:15Z</time>
      </trkpt>
      <trkpt lat="44.33302" lon="4.84068">
        <ele>119.88</ele>
        <time>2026-08-31T07:20:16Z</time>
      </trkpt>
      <trkpt lat="44.33289" lon="4.84062">
        <ele>119.71</ele>
        <time>2026-08-31T07:20:19Z</time>
      </trkpt>
      <trkpt lat="44.33285" lon="4.8406">
        <ele>119.13</ele>
        <time>2026-08-31T07:20:20Z</time>
      </trkpt>
      <trkpt lat="44.33275" lon="4.84058">
        <ele>118.84</ele>
        <time>2026-08-31T07:20:22Z</time>
      </trkpt>
      <trkpt lat="44.33271" lon="4.84059">
        <ele>118.26</ele>
        <time>2026-08-31T07:20:23Z</time>
      </trkpt>
      <trkpt lat="44.33266" lon="4.84059">
        <ele>117.72</ele>
        <time>2026-08-31T07:20:24Z</time>
      </trkpt>
      <trkpt lat="44.33262" lon="4.84059">
        <ele>117.44</ele>
        <time>2026-08-31T07:20:25Z</time>
      </trkpt>
      <trkpt lat="44.33257" lon="4.8406">
        <ele>116.96</ele>
        <time>2026-08-31T07:20:26Z</time>
      </trkpt>
      <trkpt lat="44.33253" lon="4.84062">
        <ele>116.58</ele>
        <time>2026-08-31T07:20:27Z</time>
      </trkpt>
      <trkpt lat="44.33248" lon="4.84065">
        <ele>116.46</ele>
        <time>2026-08-31T07:20:28Z</time>
      </trkpt>
      <trkpt lat="44.33239" lon="4.84071">
        <ele>115.76</ele>
        <time>2026-08-31T07:20:30Z</time>
      </trkpt>
      <trkpt lat="44.33228" lon="4.84084">
        <ele>114.21</ele>
        <time>2026-08-31T07:20:33Z</time>
      </trkpt>
      <trkpt lat="44.33225" lon="4.8409">
        <ele>114.08</ele>
        <time>2026-08-31T07:20:34Z</time>
      </trkpt>
      <trkpt lat="44.33224" lon="4.84096">
        <ele>113.69</ele>
        <time>2026-08-31T07:20:35Z</time>
      </trkpt>
      <trkpt lat="44.33224" lon="4.84101">
        <ele>113.77</ele>
        <time>2026-08-31T07:20:36Z</time>
      </trkpt>
      <trkpt lat="44.33224" lon="4.84107">
        <ele>113.76</ele>
        <time>2026-08-31T07:20:37Z</time>
      </trkpt>
      <trkpt lat="44.33222" lon="4.84117">
        <ele>114.03</ele>
        <time>2026-08-31T07:20:39Z</time>
      </trkpt>
      <trkpt lat="44.3322" lon="4.84121">
        <ele>113.97</ele>
        <time>2026-08-31T07:20:40Z</time>
      </trkpt>
      <trkpt lat="44.33217" lon="4.84123">
        <ele>113.72</ele>
        <time>2026-08-31T07:20:41Z</time>
      </trkpt>
      <trkpt lat="44.33214" lon="4.84123">
        <ele>113.7</ele>
        <time>2026-08-31T07:20:42Z</time>
      </trkpt>
      <trkpt lat="44.33211" lon="4.84124">
        <ele>113.74</ele>
        <time>2026-08-31T07:20:43Z</time>
      </trkpt>
      <trkpt lat="44.3318" lon="4.84132">
        <ele>114.55</ele>
        <time>2026-08-31T07:20:56Z</time>
      </trkpt>
      <trkpt lat="44.33155" lon="4.84147">
        <ele>114.2</ele>
        <time>2026-08-31T07:21:04Z</time>
      </trkpt>
      <trkpt lat="44.33115" lon="4.84194">
        <ele>111.88</ele>
        <time>2026-08-31T07:21:17Z</time>
      </trkpt>
      <trkpt lat="44.33112" lon="4.84197">
        <ele>111.41</ele>
        <time>2026-08-31T07:21:18Z</time>
      </trkpt>
      <trkpt lat="44.33108" lon="4.84201">
        <ele>111.34</ele>
        <time>2026-08-31T07:21:19Z</time>
      </trkpt>
      <trkpt lat="44.33098" lon="4.84212">
        <ele>110.84</ele>
        <time>2026-08-31T07:21:22Z</time>
      </trkpt>
      <trkpt lat="44.33094" lon="4.84217">
        <ele>110.65</ele>
        <time>2026-08-31T07:21:23Z</time>
      </trkpt>
      <trkpt lat="44.33091" lon="4.84221">
        <ele>110.7</ele>
        <time>2026-08-31T07:21:24Z</time>
      </trkpt>
      <trkpt lat="44.33086" lon="4.84231">
        <ele>110.22</ele>
        <time>2026-08-31T07:21:26Z</time>
      </trkpt>
      <trkpt lat="44.33083" lon="4.84235">
        <ele>110.4</ele>
        <time>2026-08-31T07:21:27Z</time>
      </trkpt>
      <trkpt lat="44.33042" lon="4.84275">
        <ele>107.47</ele>
        <time>2026-08-31T07:21:40Z</time>
      </trkpt>
      <trkpt lat="44.33006" lon="4.84304">
        <ele>104.91</ele>
        <time>2026-08-31T07:21:51Z</time>
      </trkpt>
      <trkpt lat="44.33003" lon="4.84307">
        <ele>104.46</ele>
        <time>2026-08-31T07:21:52Z</time>
      </trkpt>
      <trkpt lat="44.33001" lon="4.8431">
        <ele>104.31</ele>
        <time>2026-08-31T07:21:53Z</time>
      </trkpt>
      <trkpt lat="44.32998" lon="4.84311">
        <ele>104.21</ele>
        <time>2026-08-31T07:21:54Z</time>
      </trkpt>
      <trkpt lat="44.32996" lon="4.84312">
        <ele>103.93</ele>
        <time>2026-08-31T07:21:55Z</time>
      </trkpt>
      <trkpt lat="44.32987" lon="4.84317">
        <ele>103.77</ele>
        <time>2026-08-31T07:22:05Z</time>
      </trkpt>
      <trkpt lat="44.32983" lon="4.84318">
        <ele>103.61</ele>
        <time>2026-08-31T07:22:06Z</time>
      </trkpt>
      <trkpt lat="44.3298" lon="4.8432">
        <ele>103.68</ele>
        <time>2026-08-31T07:22:07Z</time>
      </trkpt>
      <trkpt lat="44.32977" lon="4.84321">
        <ele>103.56</ele>
        <time>2026-08-31T07:22:08Z</time>
      </trkpt>
      <trkpt lat="44.32973" lon="4.84323">
        <ele>103.53</ele>
        <time>2026-08-31T07:22:09Z</time>
      </trkpt>
      <trkpt lat="44.3297" lon="4.84325">
        <ele>103.39</ele>
        <time>2026-08-31T07:22:10Z</time>
      </trkpt>
      <trkpt lat="44.32967" lon="4.84328">
        <ele>103.1</ele>
        <time>2026-08-31T07:22:11Z</time>
      </trkpt>
      <trkpt lat="44.32926" lon="4.84366">
        <ele>102.67</ele>
        <time>2026-08-31T07:22:24Z</time>
      </trkpt>
      <trkpt lat="44.32914" lon="4.84373">
        <ele>103</ele>
        <time>2026-08-31T07:22:27Z</time>
      </trkpt>
      <trkpt lat="44.3291" lon="4.84375">
        <ele>102.91</ele>
        <time>2026-08-31T07:22:28Z</time>
      </trkpt>
      <trkpt lat="44.32906" lon="4.84377">
        <ele>102.87</ele>
        <time>2026-08-31T07:22:29Z</time>
      </trkpt>
      <trkpt lat="44.32901" lon="4.84379">
        <ele>102.8</ele>
        <time>2026-08-31T07:22:30Z</time>
      </trkpt>
      <trkpt lat="44.32897" lon="4.84382">
        <ele>102.71</ele>
        <time>2026-08-31T07:22:31Z</time>
      </trkpt>
      <trkpt lat="44.32893" lon="4.84386">
        <ele>102.73</ele>
        <time>2026-08-31T07:22:32Z</time>
      </trkpt>
      <trkpt lat="44.32889" lon="4.84389">
        <ele>102.9</ele>
        <time>2026-08-31T07:22:33Z</time>
      </trkpt>
      <trkpt lat="44.32885" lon="4.84391">
        <ele>102.82</ele>
        <time>2026-08-31T07:22:34Z</time>
      </trkpt>
      <trkpt lat="44.32881" lon="4.84393">
        <ele>103</ele>
        <time>2026-08-31T07:22:35Z</time>
      </trkpt>
      <trkpt lat="44.32877" lon="4.84395">
        <ele>103.2</ele>
        <time>2026-08-31T07:22:36Z</time>
      </trkpt>
      <trkpt lat="44.32873" lon="4.84398">
        <ele>102.97</ele>
        <time>2026-08-31T07:22:37Z</time>
      </trkpt>
      <trkpt lat="44.32869" lon="4.84401">
        <ele>103.17</ele>
        <time>2026-08-31T07:22:38Z</time>
      </trkpt>
      <trkpt lat="44.32854" lon="4.84426">
        <ele>102.63</ele>
        <time>2026-08-31T07:22:44Z</time>
      </trkpt>
      <trkpt lat="44.32853" lon="4.84432">
        <ele>102.52</ele>
        <time>2026-08-31T07:22:45Z</time>
      </trkpt>
      <trkpt lat="44.32852" lon="4.84461">
        <ele>101.44</ele>
        <time>2026-08-31T07:22:50Z</time>
      </trkpt>
      <trkpt lat="44.3285" lon="4.84466">
        <ele>101.33</ele>
        <time>2026-08-31T07:22:51Z</time>
      </trkpt>
      <trkpt lat="44.32847" lon="4.8447">
        <ele>101.26</ele>
        <time>2026-08-31T07:22:52Z</time>
      </trkpt>
      <trkpt lat="44.32843" lon="4.84473">
        <ele>101.29</ele>
        <time>2026-08-31T07:22:53Z</time>
      </trkpt>
      <trkpt lat="44.3284" lon="4.84475">
        <ele>101.33</ele>
        <time>2026-08-31T07:22:54Z</time>
      </trkpt>
      <trkpt lat="44.32837" lon="4.84478">
        <ele>101.56</ele>
        <time>2026-08-31T07:22:55Z</time>
      </trkpt>
      <trkpt lat="44.3283" lon="4.84482">
        <ele>101.66</ele>
        <time>2026-08-31T07:22:57Z</time>
      </trkpt>
      <trkpt lat="44.32789" lon="4.84493">
        <ele>102.25</ele>
        <time>2026-08-31T07:23:08Z</time>
      </trkpt>
      <trkpt lat="44.32782" lon="4.84496">
        <ele>102.18</ele>
        <time>2026-08-31T07:23:10Z</time>
      </trkpt>
      <trkpt lat="44.32779" lon="4.84498">
        <ele>102.12</ele>
        <time>2026-08-31T07:23:11Z</time>
      </trkpt>
      <trkpt lat="44.32776" lon="4.84499">
        <ele>102.13</ele>
        <time>2026-08-31T07:23:12Z</time>
      </trkpt>
      <trkpt lat="44.32771" lon="4.84499">
        <ele>102.19</ele>
        <time>2026-08-31T07:23:13Z</time>
      </trkpt>
      <trkpt lat="44.32767" lon="4.84499">
        <ele>102.12</ele>
        <time>2026-08-31T07:23:14Z</time>
      </trkpt>
      <trkpt lat="44.32713" lon="4.84521">
        <ele>102.08</ele>
        <time>2026-08-31T07:23:29Z</time>
      </trkpt>
      <trkpt lat="44.32665" lon="4.84553">
        <ele>103.24</ele>
        <time>2026-08-31T07:23:44Z</time>
      </trkpt>
      <trkpt lat="44.32662" lon="4.84553">
        <ele>103.25</ele>
        <time>2026-08-31T07:23:45Z</time>
      </trkpt>
      <trkpt lat="44.3266" lon="4.8455">
        <ele>103.97</ele>
        <time>2026-08-31T07:23:46Z</time>
      </trkpt>
      <trkpt lat="44.32658" lon="4.84546">
        <ele>104.26</ele>
        <time>2026-08-31T07:23:47Z</time>
      </trkpt>
      <trkpt lat="44.32657" lon="4.84543">
        <ele>104.69</ele>
        <time>2026-08-31T07:23:48Z</time>
      </trkpt>
      <trkpt lat="44.3263" lon="4.84534">
        <ele>105.13</ele>
        <time>2026-08-31T07:23:58Z</time>
      </trkpt>
      <trkpt lat="44.32577" lon="4.84521">
        <ele>104.81</ele>
        <time>2026-08-31T07:24:12Z</time>
      </trkpt>
      <trkpt lat="44.32569" lon="4.84519">
        <ele>104.09</ele>
        <time>2026-08-31T07:24:14Z</time>
      </trkpt>
      <trkpt lat="44.32559" lon="4.84518">
        <ele>103.67</ele>
        <time>2026-08-31T07:24:16Z</time>
      </trkpt>
      <trkpt lat="44.3254" lon="4.84511">
        <ele>103.03</ele>
        <time>2026-08-31T07:24:20Z</time>
      </trkpt>
      <trkpt lat="44.32535" lon="4.8451">
        <ele>103.01</ele>
        <time>2026-08-31T07:24:21Z</time>
      </trkpt>
      <trkpt lat="44.32521" lon="4.84506">
        <ele>102.53</ele>
        <time>2026-08-31T07:24:24Z</time>
      </trkpt>
      <trkpt lat="44.32514" lon="4.84501">
        <ele>102.45</ele>
        <time>2026-08-31T07:24:26Z</time>
      </trkpt>
      <trkpt lat="44.3251" lon="4.84498">
        <ele>102.24</ele>
        <time>2026-08-31T07:24:27Z</time>
      </trkpt>
      <trkpt lat="44.32507" lon="4.84494">
        <ele>102.2</ele>
        <time>2026-08-31T07:24:28Z</time>
      </trkpt>
      <trkpt lat="44.32505" lon="4.8449">
        <ele>102.17</ele>
        <time>2026-08-31T07:24:29Z</time>
      </trkpt>
      <trkpt lat="44.32503" lon="4.84486">
        <ele>102.24</ele>
        <time>2026-08-31T07:24:30Z</time>
      </trkpt>
      <trkpt lat="44.32502" lon="4.84482">
        <ele>102.2</ele>
        <time>2026-08-31T07:24:31Z</time>
      </trkpt>
      <trkpt lat="44.32501" lon="4.84477">
        <ele>102.11</ele>
        <time>2026-08-31T07:24:32Z</time>
      </trkpt>
      <trkpt lat="44.32501" lon="4.84472">
        <ele>102.08</ele>
        <time>2026-08-31T07:24:33Z</time>
      </trkpt>
      <trkpt lat="44.32502" lon="4.84468">
        <ele>102.1</ele>
        <time>2026-08-31T07:24:34Z</time>
      </trkpt>
      <trkpt lat="44.32503" lon="4.84463">
        <ele>102.28</ele>
        <time>2026-08-31T07:24:35Z</time>
      </trkpt>
      <trkpt lat="44.32504" lon="4.84459">
        <ele>102.28</ele>
        <time>2026-08-31T07:24:36Z</time>
      </trkpt>
      <trkpt lat="44.32505" lon="4.84455">
        <ele>102.36</ele>
        <time>2026-08-31T07:24:37Z</time>
      </trkpt>
      <trkpt lat="44.32506" lon="4.84451">
        <ele>102.43</ele>
        <time>2026-08-31T07:24:38Z</time>
      </trkpt>
      <trkpt lat="44.32502" lon="4.84425">
        <ele>103.1</ele>
        <time>2026-08-31T07:24:45Z</time>
      </trkpt>
      <trkpt lat="44.32499" lon="4.84423">
        <ele>103.05</ele>
        <time>2026-08-31T07:24:46Z</time>
      </trkpt>
      <trkpt lat="44.32496" lon="4.84421">
        <ele>102.96</ele>
        <time>2026-08-31T07:24:47Z</time>
      </trkpt>
      <trkpt lat="44.32444" lon="4.84396">
        <ele>102.54</ele>
        <time>2026-08-31T07:25:02Z</time>
      </trkpt>
      <trkpt lat="44.32376" lon="4.84366">
        <ele>101.44</ele>
        <time>2026-08-31T07:25:18Z</time>
      </trkpt>
      <trkpt lat="44.3231" lon="4.84338">
        <ele>101.38</ele>
        <time>2026-08-31T07:25:33Z</time>
      </trkpt>
      <trkpt lat="44.32287" lon="4.8433">
        <ele>100.9</ele>
        <time>2026-08-31T07:25:38Z</time>
      </trkpt>
      <trkpt lat="44.32278" lon="4.84326">
        <ele>100.3</ele>
        <time>2026-08-31T07:25:40Z</time>
      </trkpt>
      <trkpt lat="44.32274" lon="4.84325">
        <ele>100.28</ele>
        <time>2026-08-31T07:25:41Z</time>
      </trkpt>
      <trkpt lat="44.32271" lon="4.84321">
        <ele>100.13</ele>
        <time>2026-08-31T07:25:42Z</time>
      </trkpt>
      <trkpt lat="44.32269" lon="4.84316">
        <ele>100.23</ele>
        <time>2026-08-31T07:25:43Z</time>
      </trkpt>
      <trkpt lat="44.32268" lon="4.84311">
        <ele>100.27</ele>
        <time>2026-08-31T07:25:44Z</time>
      </trkpt>
      <trkpt lat="44.32268" lon="4.84307">
        <ele>100.35</ele>
        <time>2026-08-31T07:25:45Z</time>
      </trkpt>
      <trkpt lat="44.32272" lon="4.84258">
        <ele>101.85</ele>
        <time>2026-08-31T07:25:58Z</time>
      </trkpt>
      <trkpt lat="44.32275" lon="4.84198">
        <ele>103.55</ele>
        <time>2026-08-31T07:26:12Z</time>
      </trkpt>
      <trkpt lat="44.32262" lon="4.84166">
        <ele>105.33</ele>
        <time>2026-08-31T07:26:21Z</time>
      </trkpt>
      <trkpt lat="44.32249" lon="4.84165">
        <ele>105.5</ele>
        <time>2026-08-31T07:26:26Z</time>
      </trkpt>
      <trkpt lat="44.32227" lon="4.84157">
        <ele>104.99</ele>
        <time>2026-08-31T07:26:35Z</time>
      </trkpt>
      <trkpt lat="44.32218" lon="4.84134">
        <ele>105.19</ele>
        <time>2026-08-31T07:26:44Z</time>
      </trkpt>
      <trkpt lat="44.32215" lon="4.84129">
        <ele>105.29</ele>
        <time>2026-08-31T07:26:46Z</time>
      </trkpt>
      <trkpt lat="44.32213" lon="4.84115">
        <ele>105.7</ele>
        <time>2026-08-31T07:26:51Z</time>
      </trkpt>
      <trkpt lat="44.32195" lon="4.84085">
        <ele>105.55</ele>
        <time>2026-08-31T07:27:02Z</time>
      </trkpt>
      <trkpt lat="44.32189" lon="4.84065">
        <ele>104.28</ele>
        <time>2026-08-31T07:27:09Z</time>
      </trkpt>
      <trkpt lat="44.32181" lon="4.84058">
        <ele>102.17</ele>
        <time>2026-08-31T07:27:12Z</time>
      </trkpt>
      <trkpt lat="44.32168" lon="4.8404">
        <ele>102.39</ele>
        <time>2026-08-31T07:27:19Z</time>
      </trkpt>
      <trkpt lat="44.32167" lon="4.84038">
        <ele>102.62</ele>
        <time>2026-08-31T07:27:20Z</time>
      </trkpt>
      <trkpt lat="44.32163" lon="4.84034">
        <ele>102.16</ele>
        <time>2026-08-31T07:27:22Z</time>
      </trkpt>
      <trkpt lat="44.32158" lon="4.84015">
        <ele>102</ele>
        <time>2026-08-31T07:27:28Z</time>
      </trkpt>
      <trkpt lat="44.32148" lon="4.83995">
        <ele>104.82</ele>
        <time>2026-08-31T07:27:36Z</time>
      </trkpt>
      <trkpt lat="44.32147" lon="4.83985">
        <ele>104.3</ele>
        <time>2026-08-31T07:27:43Z</time>
      </trkpt>
      <trkpt lat="44.3214" lon="4.83955">
        <ele>104.3</ele>
        <time>2026-08-31T07:27:52Z</time>
      </trkpt>
      <trkpt lat="44.3213" lon="4.83938">
        <ele>104.15</ele>
        <time>2026-08-31T07:28:00Z</time>
      </trkpt>
      <trkpt lat="44.32124" lon="4.83933">
        <ele>103.95</ele>
        <time>2026-08-31T07:28:04Z</time>
      </trkpt>
      <trkpt lat="44.32117" lon="4.8392">
        <ele>103.45</ele>
        <time>2026-08-31T07:28:08Z</time>
      </trkpt>
      <trkpt lat="44.32103" lon="4.83919">
        <ele>102.51</ele>
        <time>2026-08-31T07:28:14Z</time>
      </trkpt>
      <trkpt lat="44.32096" lon="4.83921">
        <ele>101.44</ele>
        <time>2026-08-31T07:28:16Z</time>
      </trkpt>
      <trkpt lat="44.32086" lon="4.83908">
        <ele>97.85</ele>
        <time>2026-08-31T07:28:22Z</time>
      </trkpt>
      <trkpt lat="44.32081" lon="4.83903">
        <ele>97.2</ele>
        <time>2026-08-31T07:28:24Z</time>
      </trkpt>
      <trkpt lat="44.32067" lon="4.83897">
        <ele>97</ele>
        <time>2026-08-31T07:28:33Z</time>
      </trkpt>
      <trkpt lat="44.32066" lon="4.8388">
        <ele>96.63</ele>
        <time>2026-08-31T07:28:42Z</time>
      </trkpt>
      <trkpt lat="44.32061" lon="4.83872">
        <ele>96.53</ele>
        <time>2026-08-31T07:29:38Z</time>
      </trkpt>
      <trkpt lat="44.32062" lon="4.83871">
        <ele>97.38</ele>
        <time>2026-08-31T07:30:25Z</time>
      </trkpt>
      <trkpt lat="44.32062" lon="4.83871">
        <ele>97.43</ele>
        <time>2026-08-31T07:30:47Z</time>
      </trkpt>
      <trkpt lat="44.32071" lon="4.83853">
        <ele>98.02</ele>
        <time>2026-08-31T07:31:02Z</time>
      </trkpt>
      <trkpt lat="44.32085" lon="4.83805">
        <ele>98.59</ele>
        <time>2026-08-31T07:31:15Z</time>
      </trkpt>
      <trkpt lat="44.32106" lon="4.837">
        <ele>98.49</ele>
        <time>2026-08-31T07:31:35Z</time>
      </trkpt>
      <trkpt lat="44.32115" lon="4.83656">
        <ele>97.59</ele>
        <time>2026-08-31T07:31:43Z</time>
      </trkpt>
      <trkpt lat="44.32122" lon="4.83576">
        <ele>94.71</ele>
        <time>2026-08-31T07:31:54Z</time>
      </trkpt>
      <trkpt lat="44.32123" lon="4.83561">
        <ele>94.5</ele>
        <time>2026-08-31T07:31:56Z</time>
      </trkpt>
      <trkpt lat="44.32123" lon="4.83555">
        <ele>94.11</ele>
        <time>2026-08-31T07:31:57Z</time>
      </trkpt>
      <trkpt lat="44.32123" lon="4.83551">
        <ele>93.81</ele>
        <time>2026-08-31T07:31:58Z</time>
      </trkpt>
      <trkpt lat="44.32121" lon="4.83548">
        <ele>93.98</ele>
        <time>2026-08-31T07:31:59Z</time>
      </trkpt>
      <trkpt lat="44.32119" lon="4.83546">
        <ele>93.94</ele>
        <time>2026-08-31T07:32:00Z</time>
      </trkpt>
      <trkpt lat="44.32116" lon="4.83545">
        <ele>93.78</ele>
        <time>2026-08-31T07:32:01Z</time>
      </trkpt>
      <trkpt lat="44.32114" lon="4.83545">
        <ele>93.92</ele>
        <time>2026-08-31T07:32:02Z</time>
      </trkpt>
      <trkpt lat="44.3211" lon="4.83546">
        <ele>93.9</ele>
        <time>2026-08-31T07:32:04Z</time>
      </trkpt>
      <trkpt lat="44.32107" lon="4.83547">
        <ele>93.99</ele>
        <time>2026-08-31T07:32:05Z</time>
      </trkpt>
      <trkpt lat="44.32099" lon="4.83564">
        <ele>94.85</ele>
        <time>2026-08-31T07:32:12Z</time>
      </trkpt>
      <trkpt lat="44.32098" lon="4.83566">
        <ele>95.08</ele>
        <time>2026-08-31T07:32:13Z</time>
      </trkpt>
      <trkpt lat="44.32097" lon="4.83569">
        <ele>95.31</ele>
        <time>2026-08-31T07:32:14Z</time>
      </trkpt>
      <trkpt lat="44.32096" lon="4.83571">
        <ele>95.63</ele>
        <time>2026-08-31T07:32:15Z</time>
      </trkpt>
      <trkpt lat="44.32095" lon="4.83573">
        <ele>95.79</ele>
        <time>2026-08-31T07:32:16Z</time>
      </trkpt>
      <trkpt lat="44.32094" lon="4.83575">
        <ele>95.96</ele>
        <time>2026-08-31T07:32:17Z</time>
      </trkpt>
      <trkpt lat="44.32092" lon="4.83576">
        <ele>96.34</ele>
        <time>2026-08-31T07:32:18Z</time>
      </trkpt>
      <trkpt lat="44.32091" lon="4.83578">
        <ele>96.6</ele>
        <time>2026-08-31T07:32:19Z</time>
      </trkpt>
      <trkpt lat="44.3209" lon="4.83581">
        <ele>96.92</ele>
        <time>2026-08-31T07:32:20Z</time>
      </trkpt>
      <trkpt lat="44.32089" lon="4.83584">
        <ele>97.26</ele>
        <time>2026-08-31T07:32:21Z</time>
      </trkpt>
      <trkpt lat="44.32088" lon="4.83587">
        <ele>97.38</ele>
        <time>2026-08-31T07:32:22Z</time>
      </trkpt>
      <trkpt lat="44.32088" lon="4.83589">
        <ele>97.6</ele>
        <time>2026-08-31T07:32:23Z</time>
      </trkpt>
      <trkpt lat="44.32084" lon="4.83596">
        <ele>98.25</ele>
        <time>2026-08-31T07:32:27Z</time>
      </trkpt>
      <trkpt lat="44.32083" lon="4.83599">
        <ele>98.34</ele>
        <time>2026-08-31T07:32:28Z</time>
      </trkpt>
      <trkpt lat="44.32082" lon="4.83601">
        <ele>98.54</ele>
        <time>2026-08-31T07:32:29Z</time>
      </trkpt>
      <trkpt lat="44.32073" lon="4.83612">
        <ele>99.51</ele>
        <time>2026-08-31T07:32:39Z</time>
      </trkpt>
      <trkpt lat="44.32065" lon="4.83619">
        <ele>99.91</ele>
        <time>2026-08-31T07:32:43Z</time>
      </trkpt>
      <trkpt lat="44.32063" lon="4.83621">
        <ele>99.96</ele>
        <time>2026-08-31T07:32:44Z</time>
      </trkpt>
      <trkpt lat="44.32061" lon="4.83622">
        <ele>100.23</ele>
        <time>2026-08-31T07:32:45Z</time>
      </trkpt>
      <trkpt lat="44.32059" lon="4.83624">
        <ele>100.33</ele>
        <time>2026-08-31T07:32:46Z</time>
      </trkpt>
      <trkpt lat="44.32057" lon="4.83626">
        <ele>100.4</ele>
        <time>2026-08-31T07:32:47Z</time>
      </trkpt>
      <trkpt lat="44.32055" lon="4.83628">
        <ele>100.37</ele>
        <time>2026-08-31T07:32:48Z</time>
      </trkpt>
      <trkpt lat="44.32053" lon="4.83629">
        <ele>100.48</ele>
        <time>2026-08-31T07:32:49Z</time>
      </trkpt>
      <trkpt lat="44.32033" lon="4.83644">
        <ele>101.31</ele>
        <time>2026-08-31T07:32:58Z</time>
      </trkpt>
      <trkpt lat="44.32018" lon="4.83663">
        <ele>102.79</ele>
        <time>2026-08-31T07:33:07Z</time>
      </trkpt>
      <trkpt lat="44.32016" lon="4.83665">
        <ele>102.72</ele>
        <time>2026-08-31T07:33:08Z</time>
      </trkpt>
      <trkpt lat="44.32014" lon="4.83667">
        <ele>102.73</ele>
        <time>2026-08-31T07:33:09Z</time>
      </trkpt>
      <trkpt lat="44.32012" lon="4.8367">
        <ele>102.83</ele>
        <time>2026-08-31T07:33:12Z</time>
      </trkpt>
      <trkpt lat="44.3201" lon="4.83671">
        <ele>102.78</ele>
        <time>2026-08-31T07:33:13Z</time>
      </trkpt>
      <trkpt lat="44.32008" lon="4.83673">
        <ele>102.81</ele>
        <time>2026-08-31T07:33:14Z</time>
      </trkpt>
      <trkpt lat="44.32006" lon="4.83674">
        <ele>103.04</ele>
        <time>2026-08-31T07:33:15Z</time>
      </trkpt>
      <trkpt lat="44.32004" lon="4.83675">
        <ele>103</ele>
        <time>2026-08-31T07:33:16Z</time>
      </trkpt>
      <trkpt lat="44.32002" lon="4.83675">
        <ele>103.23</ele>
        <time>2026-08-31T07:33:17Z</time>
      </trkpt>
      <trkpt lat="44.32001" lon="4.83675">
        <ele>103.36</ele>
        <time>2026-08-31T07:33:18Z</time>
      </trkpt>
      <trkpt lat="44.31999" lon="4.83676">
        <ele>103.49</ele>
        <time>2026-08-31T07:33:19Z</time>
      </trkpt>
      <trkpt lat="44.31997" lon="4.83676">
        <ele>103.57</ele>
        <time>2026-08-31T07:33:20Z</time>
      </trkpt>
      <trkpt lat="44.3197" lon="4.8368">
        <ele>106.39</ele>
        <time>2026-08-31T07:33:33Z</time>
      </trkpt>
      <trkpt lat="44.31946" lon="4.83673">
        <ele>107.02</ele>
        <time>2026-08-31T07:33:44Z</time>
      </trkpt>
      <trkpt lat="44.3192" lon="4.83662">
        <ele>108.41</ele>
        <time>2026-08-31T07:33:55Z</time>
      </trkpt>
      <trkpt lat="44.31885" lon="4.83643">
        <ele>107.46</ele>
        <time>2026-08-31T07:34:08Z</time>
      </trkpt>
      <trkpt lat="44.31849" lon="4.83633">
        <ele>107.12</ele>
        <time>2026-08-31T07:34:18Z</time>
      </trkpt>
      <trkpt lat="44.31823" lon="4.83634">
        <ele>107.66</ele>
        <time>2026-08-31T07:34:27Z</time>
      </trkpt>
      <trkpt lat="44.31821" lon="4.83637">
        <ele>107.81</ele>
        <time>2026-08-31T07:34:28Z</time>
      </trkpt>
      <trkpt lat="44.31811" lon="4.83648">
        <ele>107.86</ele>
        <time>2026-08-31T07:34:32Z</time>
      </trkpt>
      <trkpt lat="44.31807" lon="4.8365">
        <ele>107.85</ele>
        <time>2026-08-31T07:34:33Z</time>
      </trkpt>
      <trkpt lat="44.31778" lon="4.83667">
        <ele>108.41</ele>
        <time>2026-08-31T07:34:43Z</time>
      </trkpt>
      <trkpt lat="44.31743" lon="4.83688">
        <ele>107.07</ele>
        <time>2026-08-31T07:34:52Z</time>
      </trkpt>
      <trkpt lat="44.31739" lon="4.83692">
        <ele>106.58</ele>
        <time>2026-08-31T07:34:53Z</time>
      </trkpt>
      <trkpt lat="44.31735" lon="4.83696">
        <ele>106.32</ele>
        <time>2026-08-31T07:34:54Z</time>
      </trkpt>
      <trkpt lat="44.31731" lon="4.837">
        <ele>105.83</ele>
        <time>2026-08-31T07:34:55Z</time>
      </trkpt>
      <trkpt lat="44.31726" lon="4.83704">
        <ele>105.53</ele>
        <time>2026-08-31T07:34:56Z</time>
      </trkpt>
      <trkpt lat="44.31717" lon="4.8371">
        <ele>104.83</ele>
        <time>2026-08-31T07:34:58Z</time>
      </trkpt>
      <trkpt lat="44.31704" lon="4.83715">
        <ele>103.88</ele>
        <time>2026-08-31T07:35:01Z</time>
      </trkpt>
      <trkpt lat="44.31699" lon="4.83715">
        <ele>103.81</ele>
        <time>2026-08-31T07:35:02Z</time>
      </trkpt>
      <trkpt lat="44.31665" lon="4.83724">
        <ele>104.17</ele>
        <time>2026-08-31T07:35:12Z</time>
      </trkpt>
      <trkpt lat="44.31627" lon="4.83732">
        <ele>104</ele>
        <time>2026-08-31T07:35:23Z</time>
      </trkpt>
      <trkpt lat="44.31607" lon="4.83736">
        <ele>103.83</ele>
        <time>2026-08-31T07:35:28Z</time>
      </trkpt>
      <trkpt lat="44.31602" lon="4.83737">
        <ele>103.57</ele>
        <time>2026-08-31T07:35:29Z</time>
      </trkpt>
      <trkpt lat="44.31554" lon="4.83741">
        <ele>102.13</ele>
        <time>2026-08-31T07:35:41Z</time>
      </trkpt>
      <trkpt lat="44.31513" lon="4.83735">
        <ele>101.49</ele>
        <time>2026-08-31T07:35:51Z</time>
      </trkpt>
      <trkpt lat="44.3149" lon="4.83716">
        <ele>101.82</ele>
        <time>2026-08-31T07:36:01Z</time>
      </trkpt>
      <trkpt lat="44.3149" lon="4.83714">
        <ele>101.98</ele>
        <time>2026-08-31T07:36:02Z</time>
      </trkpt>
      <trkpt lat="44.3149" lon="4.83713">
        <ele>102.08</ele>
        <time>2026-08-31T07:36:03Z</time>
      </trkpt>
      <trkpt lat="44.31491" lon="4.83712">
        <ele>102.24</ele>
        <time>2026-08-31T07:36:04Z</time>
      </trkpt>
      <trkpt lat="44.31491" lon="4.83711">
        <ele>102.35</ele>
        <time>2026-08-31T07:36:05Z</time>
      </trkpt>
      <trkpt lat="44.31492" lon="4.83711">
        <ele>102.63</ele>
        <time>2026-08-31T07:36:06Z</time>
      </trkpt>
      <trkpt lat="44.31501" lon="4.83704">
        <ele>105.98</ele>
        <time>2026-08-31T07:36:15Z</time>
      </trkpt>
      <trkpt lat="44.31512" lon="4.83704">
        <ele>109.1</ele>
        <time>2026-08-31T07:36:21Z</time>
      </trkpt>
      <trkpt lat="44.31514" lon="4.83704">
        <ele>109.39</ele>
        <time>2026-08-31T07:36:22Z</time>
      </trkpt>
      <trkpt lat="44.31522" lon="4.83707">
        <ele>110.21</ele>
        <time>2026-08-31T07:36:27Z</time>
      </trkpt>
      <trkpt lat="44.31546" lon="4.8371">
        <ele>111.11</ele>
        <time>2026-08-31T07:36:38Z</time>
      </trkpt>
      <trkpt lat="44.31578" lon="4.83704">
        <ele>113.75</ele>
        <time>2026-08-31T07:36:51Z</time>
      </trkpt>
      <trkpt lat="44.31598" lon="4.83696">
        <ele>114.94</ele>
        <time>2026-08-31T07:36:59Z</time>
      </trkpt>
      <trkpt lat="44.31616" lon="4.83672">
        <ele>118.08</ele>
        <time>2026-08-31T07:37:08Z</time>
      </trkpt>
      <trkpt lat="44.31638" lon="4.83662">
        <ele>121.24</ele>
        <time>2026-08-31T07:37:19Z</time>
      </trkpt>
      <trkpt lat="44.31655" lon="4.83651">
        <ele>122.67</ele>
        <time>2026-08-31T07:37:29Z</time>
      </trkpt>
      <trkpt lat="44.31663" lon="4.83649">
        <ele>122.91</ele>
        <time>2026-08-31T07:38:05Z</time>
      </trkpt>
      <trkpt lat="44.31676" lon="4.83643">
        <ele>121.82</ele>
        <time>2026-08-31T07:38:37Z</time>
      </trkpt>
      <trkpt lat="44.31679" lon="4.83641">
        <ele>121.48</ele>
        <time>2026-08-31T07:38:38Z</time>
      </trkpt>
      <trkpt lat="44.317" lon="4.83636">
        <ele>117.64</ele>
        <time>2026-08-31T07:38:44Z</time>
      </trkpt>
      <trkpt lat="44.31704" lon="4.83631">
        <ele>116.99</ele>
        <time>2026-08-31T07:38:46Z</time>
      </trkpt>
      <trkpt lat="44.31705" lon="4.83619">
        <ele>116.46</ele>
        <time>2026-08-31T07:38:49Z</time>
      </trkpt>
      <trkpt lat="44.31699" lon="4.83602">
        <ele>114.46</ele>
        <time>2026-08-31T07:38:53Z</time>
      </trkpt>
      <trkpt lat="44.31688" lon="4.83586">
        <ele>113.1</ele>
        <time>2026-08-31T07:38:56Z</time>
      </trkpt>
      <trkpt lat="44.3168" lon="4.83576">
        <ele>112.36</ele>
        <time>2026-08-31T07:38:58Z</time>
      </trkpt>
      <trkpt lat="44.31663" lon="4.83557">
        <ele>111.24</ele>
        <time>2026-08-31T07:39:02Z</time>
      </trkpt>
      <trkpt lat="44.31632" lon="4.83535">
        <ele>108.92</ele>
        <time>2026-08-31T07:39:08Z</time>
      </trkpt>
      <trkpt lat="44.31585" lon="4.83507">
        <ele>106.17</ele>
        <time>2026-08-31T07:39:16Z</time>
      </trkpt>
      <trkpt lat="44.31573" lon="4.83503">
        <ele>105.91</ele>
        <time>2026-08-31T07:39:18Z</time>
      </trkpt>
      <trkpt lat="44.3155" lon="4.83507">
        <ele>104.54</ele>
        <time>2026-08-31T07:39:22Z</time>
      </trkpt>
      <trkpt lat="44.31503" lon="4.8353">
        <ele>103.22</ele>
        <time>2026-08-31T07:39:31Z</time>
      </trkpt>
      <trkpt lat="44.31486" lon="4.83541">
        <ele>101.76</ele>
        <time>2026-08-31T07:39:38Z</time>
      </trkpt>
      <trkpt lat="44.31483" lon="4.83539">
        <ele>101.46</ele>
        <time>2026-08-31T07:39:59Z</time>
      </trkpt>
      <trkpt lat="44.3148" lon="4.83543">
        <ele>101.29</ele>
        <time>2026-08-31T07:40:01Z</time>
      </trkpt>
      <trkpt lat="44.3148" lon="4.83545">
        <ele>101.26</ele>
        <time>2026-08-31T07:40:02Z</time>
      </trkpt>
      <trkpt lat="44.31479" lon="4.83547">
        <ele>101.28</ele>
        <time>2026-08-31T07:40:03Z</time>
      </trkpt>
      <trkpt lat="44.31479" lon="4.83549">
        <ele>101.39</ele>
        <time>2026-08-31T07:40:04Z</time>
      </trkpt>
      <trkpt lat="44.31479" lon="4.83551">
        <ele>101.38</ele>
        <time>2026-08-31T07:40:05Z</time>
      </trkpt>
      <trkpt lat="44.31478" lon="4.83553">
        <ele>101.56</ele>
        <time>2026-08-31T07:40:06Z</time>
      </trkpt>
      <trkpt lat="44.31473" lon="4.83594">
        <ele>102.62</ele>
        <time>2026-08-31T07:40:18Z</time>
      </trkpt>
      <trkpt lat="44.31458" lon="4.83648">
        <ele>102.66</ele>
        <time>2026-08-31T07:40:32Z</time>
      </trkpt>
      <trkpt lat="44.31452" lon="4.83656">
        <ele>102.36</ele>
        <time>2026-08-31T07:40:34Z</time>
      </trkpt>
      <trkpt lat="44.31436" lon="4.8367">
        <ele>101.81</ele>
        <time>2026-08-31T07:40:39Z</time>
      </trkpt>
      <trkpt lat="44.31434" lon="4.83673">
        <ele>101.73</ele>
        <time>2026-08-31T07:40:40Z</time>
      </trkpt>
      <trkpt lat="44.31434" lon="4.83676">
        <ele>101.61</ele>
        <time>2026-08-31T07:40:41Z</time>
      </trkpt>
      <trkpt lat="44.31433" lon="4.8368">
        <ele>101.54</ele>
        <time>2026-08-31T07:40:42Z</time>
      </trkpt>
      <trkpt lat="44.31433" lon="4.83683">
        <ele>101.4</ele>
        <time>2026-08-31T07:40:43Z</time>
      </trkpt>
      <trkpt lat="44.31432" lon="4.83687">
        <ele>101.24</ele>
        <time>2026-08-31T07:40:44Z</time>
      </trkpt>
      <trkpt lat="44.31432" lon="4.83691">
        <ele>101.2</ele>
        <time>2026-08-31T07:40:45Z</time>
      </trkpt>
      <trkpt lat="44.31431" lon="4.83695">
        <ele>100.98</ele>
        <time>2026-08-31T07:40:46Z</time>
      </trkpt>
      <trkpt lat="44.31432" lon="4.83699">
        <ele>100.92</ele>
        <time>2026-08-31T07:40:47Z</time>
      </trkpt>
      <trkpt lat="44.31433" lon="4.83703">
        <ele>100.85</ele>
        <time>2026-08-31T07:40:48Z</time>
      </trkpt>
      <trkpt lat="44.31436" lon="4.83707">
        <ele>100.8</ele>
        <time>2026-08-31T07:40:49Z</time>
      </trkpt>
      <trkpt lat="44.31438" lon="4.83709">
        <ele>100.58</ele>
        <time>2026-08-31T07:40:50Z</time>
      </trkpt>
      <trkpt lat="44.31441" lon="4.83712">
        <ele>100.13</ele>
        <time>2026-08-31T07:40:51Z</time>
      </trkpt>
      <trkpt lat="44.31444" lon="4.83715">
        <ele>100.01</ele>
        <time>2026-08-31T07:40:52Z</time>
      </trkpt>
      <trkpt lat="44.31462" lon="4.83748">
        <ele>98.88</ele>
        <time>2026-08-31T07:41:01Z</time>
      </trkpt>
      <trkpt lat="44.31462" lon="4.83751">
        <ele>98.52</ele>
        <time>2026-08-31T07:41:02Z</time>
      </trkpt>
      <trkpt lat="44.3146" lon="4.83754">
        <ele>98.45</ele>
        <time>2026-08-31T07:41:03Z</time>
      </trkpt>
      <trkpt lat="44.31458" lon="4.83756">
        <ele>98.51</ele>
        <time>2026-08-31T07:41:04Z</time>
      </trkpt>
      <trkpt lat="44.31455" lon="4.83757">
        <ele>99.13</ele>
        <time>2026-08-31T07:41:05Z</time>
      </trkpt>
      <trkpt lat="44.31453" lon="4.83757">
        <ele>99.59</ele>
        <time>2026-08-31T07:41:06Z</time>
      </trkpt>
      <trkpt lat="44.31452" lon="4.83757">
        <ele>99.9</ele>
        <time>2026-08-31T07:41:07Z</time>
      </trkpt>
      <trkpt lat="44.31451" lon="4.83756">
        <ele>100</ele>
        <time>2026-08-31T07:41:08Z</time>
      </trkpt>
      <trkpt lat="44.31451" lon="4.83756">
        <ele>100.12</ele>
        <time>2026-08-31T07:41:09Z</time>
      </trkpt>
      <trkpt lat="44.31449" lon="4.83757">
        <ele>100.33</ele>
        <time>2026-08-31T07:41:12Z</time>
      </trkpt>
      <trkpt lat="44.31448" lon="4.83758">
        <ele>100.22</ele>
        <time>2026-08-31T07:41:13Z</time>
      </trkpt>
      <trkpt lat="44.31446" lon="4.83759">
        <ele>100.36</ele>
        <time>2026-08-31T07:41:14Z</time>
      </trkpt>
      <trkpt lat="44.31444" lon="4.83761">
        <ele>100.77</ele>
        <time>2026-08-31T07:41:15Z</time>
      </trkpt>
      <trkpt lat="44.31443" lon="4.83763">
        <ele>100.99</ele>
        <time>2026-08-31T07:41:16Z</time>
      </trkpt>
      <trkpt lat="44.31441" lon="4.83765">
        <ele>101.18</ele>
        <time>2026-08-31T07:41:17Z</time>
      </trkpt>
      <trkpt lat="44.31439" lon="4.83765">
        <ele>101.41</ele>
        <time>2026-08-31T07:41:18Z</time>
      </trkpt>
      <trkpt lat="44.31438" lon="4.83766">
        <ele>101.76</ele>
        <time>2026-08-31T07:41:19Z</time>
      </trkpt>
      <trkpt lat="44.3143" lon="4.83767">
        <ele>102.42</ele>
        <time>2026-08-31T07:41:23Z</time>
      </trkpt>
      <trkpt lat="44.31428" lon="4.83768">
        <ele>102.64</ele>
        <time>2026-08-31T07:41:24Z</time>
      </trkpt>
      <trkpt lat="44.31427" lon="4.8377">
        <ele>102.7</ele>
        <time>2026-08-31T07:41:25Z</time>
      </trkpt>
      <trkpt lat="44.31425" lon="4.83772">
        <ele>102.93</ele>
        <time>2026-08-31T07:41:26Z</time>
      </trkpt>
      <trkpt lat="44.31423" lon="4.83773">
        <ele>103.23</ele>
        <time>2026-08-31T07:41:27Z</time>
      </trkpt>
      <trkpt lat="44.31421" lon="4.83775">
        <ele>103.51</ele>
        <time>2026-08-31T07:41:28Z</time>
      </trkpt>
      <trkpt lat="44.3142" lon="4.83776">
        <ele>103.75</ele>
        <time>2026-08-31T07:41:29Z</time>
      </trkpt>
      <trkpt lat="44.31418" lon="4.83777">
        <ele>104.11</ele>
        <time>2026-08-31T07:41:30Z</time>
      </trkpt>
      <trkpt lat="44.31416" lon="4.83779">
        <ele>104.39</ele>
        <time>2026-08-31T07:41:31Z</time>
      </trkpt>
      <trkpt lat="44.31414" lon="4.8378">
        <ele>104.78</ele>
        <time>2026-08-31T07:41:32Z</time>
      </trkpt>
      <trkpt lat="44.31414" lon="4.83783">
        <ele>105.07</ele>
        <time>2026-08-31T07:41:33Z</time>
      </trkpt>
      <trkpt lat="44.31413" lon="4.83785">
        <ele>105.41</ele>
        <time>2026-08-31T07:41:34Z</time>
      </trkpt>
      <trkpt lat="44.31413" lon="4.83788">
        <ele>105.72</ele>
        <time>2026-08-31T07:41:35Z</time>
      </trkpt>
      <trkpt lat="44.31412" lon="4.8379">
        <ele>105.9</ele>
        <time>2026-08-31T07:41:36Z</time>
      </trkpt>
      <trkpt lat="44.31411" lon="4.83793">
        <ele>105.92</ele>
        <time>2026-08-31T07:41:37Z</time>
      </trkpt>
      <trkpt lat="44.3141" lon="4.83796">
        <ele>106.28</ele>
        <time>2026-08-31T07:41:38Z</time>
      </trkpt>
      <trkpt lat="44.3141" lon="4.83799">
        <ele>106.41</ele>
        <time>2026-08-31T07:41:39Z</time>
      </trkpt>
      <trkpt lat="44.31409" lon="4.83802">
        <ele>106.56</ele>
        <time>2026-08-31T07:41:40Z</time>
      </trkpt>
      <trkpt lat="44.31408" lon="4.83804">
        <ele>106.61</ele>
        <time>2026-08-31T07:41:41Z</time>
      </trkpt>
      <trkpt lat="44.31405" lon="4.83809">
        <ele>106.17</ele>
        <time>2026-08-31T07:41:43Z</time>
      </trkpt>
      <trkpt lat="44.31404" lon="4.83811">
        <ele>106.28</ele>
        <time>2026-08-31T07:41:44Z</time>
      </trkpt>
      <trkpt lat="44.31401" lon="4.83813">
        <ele>106.08</ele>
        <time>2026-08-31T07:41:45Z</time>
      </trkpt>
      <trkpt lat="44.31399" lon="4.83815">
        <ele>106.06</ele>
        <time>2026-08-31T07:41:46Z</time>
      </trkpt>
      <trkpt lat="44.31397" lon="4.83817">
        <ele>105.92</ele>
        <time>2026-08-31T07:41:47Z</time>
      </trkpt>
      <trkpt lat="44.31393" lon="4.83819">
        <ele>105.77</ele>
        <time>2026-08-31T07:41:48Z</time>
      </trkpt>
      <trkpt lat="44.31391" lon="4.83821">
        <ele>105.66</ele>
        <time>2026-08-31T07:41:49Z</time>
      </trkpt>
      <trkpt lat="44.31388" lon="4.83823">
        <ele>105.64</ele>
        <time>2026-08-31T07:41:50Z</time>
      </trkpt>
      <trkpt lat="44.31355" lon="4.83843">
        <ele>105.34</ele>
        <time>2026-08-31T07:42:00Z</time>
      </trkpt>
      <trkpt lat="44.31348" lon="4.83848">
        <ele>105.4</ele>
        <time>2026-08-31T07:42:02Z</time>
      </trkpt>
      <trkpt lat="44.31313" lon="4.83879">
        <ele>103.96</ele>
        <time>2026-08-31T07:42:12Z</time>
      </trkpt>
      <trkpt lat="44.31309" lon="4.83884">
        <ele>103.85</ele>
        <time>2026-08-31T07:42:13Z</time>
      </trkpt>
      <trkpt lat="44.31306" lon="4.83888">
        <ele>103.8</ele>
        <time>2026-08-31T07:42:14Z</time>
      </trkpt>
      <trkpt lat="44.31303" lon="4.83892">
        <ele>103.5</ele>
        <time>2026-08-31T07:42:15Z</time>
      </trkpt>
      <trkpt lat="44.31299" lon="4.83896">
        <ele>103.33</ele>
        <time>2026-08-31T07:42:16Z</time>
      </trkpt>
      <trkpt lat="44.31267" lon="4.83923">
        <ele>102.2</ele>
        <time>2026-08-31T07:42:27Z</time>
      </trkpt>
      <trkpt lat="44.31235" lon="4.83924">
        <ele>101.6</ele>
        <time>2026-08-31T07:42:37Z</time>
      </trkpt>
      <trkpt lat="44.31224" lon="4.83921">
        <ele>101.5</ele>
        <time>2026-08-31T07:42:40Z</time>
      </trkpt>
      <trkpt lat="44.31186" lon="4.83923">
        <ele>100.92</ele>
        <time>2026-08-31T07:42:51Z</time>
      </trkpt>
      <trkpt lat="44.31184" lon="4.83922">
        <ele>101.03</ele>
        <time>2026-08-31T07:42:52Z</time>
      </trkpt>
      <trkpt lat="44.31182" lon="4.8392">
        <ele>101.07</ele>
        <time>2026-08-31T07:42:53Z</time>
      </trkpt>
      <trkpt lat="44.3118" lon="4.83919">
        <ele>100.99</ele>
        <time>2026-08-31T07:42:54Z</time>
      </trkpt>
      <trkpt lat="44.31179" lon="4.83918">
        <ele>101.13</ele>
        <time>2026-08-31T07:42:55Z</time>
      </trkpt>
      <trkpt lat="44.31177" lon="4.83917">
        <ele>101.21</ele>
        <time>2026-08-31T07:42:56Z</time>
      </trkpt>
      <trkpt lat="44.31175" lon="4.83919">
        <ele>101.21</ele>
        <time>2026-08-31T07:42:57Z</time>
      </trkpt>
      <trkpt lat="44.31172" lon="4.8392">
        <ele>101.31</ele>
        <time>2026-08-31T07:42:58Z</time>
      </trkpt>
      <trkpt lat="44.31169" lon="4.83922">
        <ele>101.27</ele>
        <time>2026-08-31T07:42:59Z</time>
      </trkpt>
      <trkpt lat="44.31166" lon="4.83922">
        <ele>101.07</ele>
        <time>2026-08-31T07:43:00Z</time>
      </trkpt>
      <trkpt lat="44.31163" lon="4.83921">
        <ele>101.32</ele>
        <time>2026-08-31T07:43:01Z</time>
      </trkpt>
      <trkpt lat="44.31159" lon="4.83921">
        <ele>101.44</ele>
        <time>2026-08-31T07:43:02Z</time>
      </trkpt>
      <trkpt lat="44.31156" lon="4.83921">
        <ele>101.29</ele>
        <time>2026-08-31T07:43:03Z</time>
      </trkpt>
      <trkpt lat="44.31153" lon="4.8392">
        <ele>100.91</ele>
        <time>2026-08-31T07:43:04Z</time>
      </trkpt>
      <trkpt lat="44.3115" lon="4.83918">
        <ele>100.89</ele>
        <time>2026-08-31T07:43:05Z</time>
      </trkpt>
      <trkpt lat="44.31138" lon="4.83916">
        <ele>99.82</ele>
        <time>2026-08-31T07:43:08Z</time>
      </trkpt>
      <trkpt lat="44.31133" lon="4.83917">
        <ele>99.63</ele>
        <time>2026-08-31T07:43:09Z</time>
      </trkpt>
      <trkpt lat="44.31102" lon="4.8392">
        <ele>98.23</ele>
        <time>2026-08-31T07:43:18Z</time>
      </trkpt>
      <trkpt lat="44.31083" lon="4.83913">
        <ele>97.4</ele>
        <time>2026-08-31T07:43:23Z</time>
      </trkpt>
      <trkpt lat="44.31075" lon="4.83908">
        <ele>96.43</ele>
        <time>2026-08-31T07:43:25Z</time>
      </trkpt>
      <trkpt lat="44.31066" lon="4.83903">
        <ele>96.06</ele>
        <time>2026-08-31T07:43:27Z</time>
      </trkpt>
      <trkpt lat="44.31061" lon="4.83901">
        <ele>95.82</ele>
        <time>2026-08-31T07:43:28Z</time>
      </trkpt>
      <trkpt lat="44.31057" lon="4.839">
        <ele>95.56</ele>
        <time>2026-08-31T07:43:29Z</time>
      </trkpt>
      <trkpt lat="44.31053" lon="4.839">
        <ele>95.5</ele>
        <time>2026-08-31T07:43:30Z</time>
      </trkpt>
      <trkpt lat="44.31051" lon="4.83901">
        <ele>95.33</ele>
        <time>2026-08-31T07:43:31Z</time>
      </trkpt>
      <trkpt lat="44.31048" lon="4.839">
        <ele>95.33</ele>
        <time>2026-08-31T07:43:32Z</time>
      </trkpt>
      <trkpt lat="44.31045" lon="4.83898">
        <ele>95.29</ele>
        <time>2026-08-31T07:43:33Z</time>
      </trkpt>
      <trkpt lat="44.31035" lon="4.83892">
        <ele>94.8</ele>
        <time>2026-08-31T07:43:36Z</time>
      </trkpt>
      <trkpt lat="44.31031" lon="4.83893">
        <ele>94.69</ele>
        <time>2026-08-31T07:43:37Z</time>
      </trkpt>
      <trkpt lat="44.31027" lon="4.83894">
        <ele>94.73</ele>
        <time>2026-08-31T07:43:38Z</time>
      </trkpt>
      <trkpt lat="44.31025" lon="4.83896">
        <ele>94.69</ele>
        <time>2026-08-31T07:43:39Z</time>
      </trkpt>
      <trkpt lat="44.31023" lon="4.83898">
        <ele>94.56</ele>
        <time>2026-08-31T07:43:40Z</time>
      </trkpt>
      <trkpt lat="44.31021" lon="4.83899">
        <ele>94.54</ele>
        <time>2026-08-31T07:43:41Z</time>
      </trkpt>
      <trkpt lat="44.3102" lon="4.839">
        <ele>94.72</ele>
        <time>2026-08-31T07:43:42Z</time>
      </trkpt>
      <trkpt lat="44.31018" lon="4.83902">
        <ele>94.79</ele>
        <time>2026-08-31T07:43:43Z</time>
      </trkpt>
      <trkpt lat="44.31017" lon="4.83905">
        <ele>94.85</ele>
        <time>2026-08-31T07:43:44Z</time>
      </trkpt>
      <trkpt lat="44.30992" lon="4.83918">
        <ele>97.76</ele>
        <time>2026-08-31T07:43:55Z</time>
      </trkpt>
      <trkpt lat="44.30981" lon="4.83916">
        <ele>98.16</ele>
        <time>2026-08-31T07:44:00Z</time>
      </trkpt>
      <trkpt lat="44.30972" lon="4.83918">
        <ele>98.07</ele>
        <time>2026-08-31T07:44:10Z</time>
      </trkpt>
      <trkpt lat="44.30969" lon="4.83917">
        <ele>98.12</ele>
        <time>2026-08-31T07:44:12Z</time>
      </trkpt>
      <trkpt lat="44.30968" lon="4.83917">
        <ele>98.08</ele>
        <time>2026-08-31T07:44:13Z</time>
      </trkpt>
      <trkpt lat="44.30967" lon="4.83916">
        <ele>98.1</ele>
        <time>2026-08-31T07:44:14Z</time>
      </trkpt>
      <trkpt lat="44.30965" lon="4.83915">
        <ele>98.13</ele>
        <time>2026-08-31T07:44:15Z</time>
      </trkpt>
      <trkpt lat="44.30964" lon="4.83915">
        <ele>98.23</ele>
        <time>2026-08-31T07:44:16Z</time>
      </trkpt>
      <trkpt lat="44.30939" lon="4.83908">
        <ele>98.21</ele>
        <time>2026-08-31T07:44:31Z</time>
      </trkpt>
      <trkpt lat="44.30911" lon="4.83902">
        <ele>98.33</ele>
        <time>2026-08-31T07:44:43Z</time>
      </trkpt>
      <trkpt lat="44.30872" lon="4.8389">
        <ele>99.12</ele>
        <time>2026-08-31T07:44:56Z</time>
      </trkpt>
      <trkpt lat="44.3084" lon="4.83875">
        <ele>99.22</ele>
        <time>2026-08-31T07:45:06Z</time>
      </trkpt>
      <trkpt lat="44.30816" lon="4.83839">
        <ele>99.53</ele>
        <time>2026-08-31T07:45:18Z</time>
      </trkpt>
      <trkpt lat="44.30772" lon="4.83817">
        <ele>99.14</ele>
        <time>2026-08-31T07:45:31Z</time>
      </trkpt>
      <trkpt lat="44.30754" lon="4.83805">
        <ele>101.26</ele>
        <time>2026-08-31T07:45:38Z</time>
      </trkpt>
      <trkpt lat="44.30754" lon="4.83801">
        <ele>101.27</ele>
        <time>2026-08-31T07:45:39Z</time>
      </trkpt>
      <trkpt lat="44.30761" lon="4.83757">
        <ele>103.41</ele>
        <time>2026-08-31T07:45:53Z</time>
      </trkpt>
      <trkpt lat="44.3076" lon="4.8371">
        <ele>104.39</ele>
        <time>2026-08-31T07:46:06Z</time>
      </trkpt>
      <trkpt lat="44.30753" lon="4.83661">
        <ele>104.54</ele>
        <time>2026-08-31T07:46:19Z</time>
      </trkpt>
      <trkpt lat="44.3074" lon="4.83597">
        <ele>105.36</ele>
        <time>2026-08-31T07:46:34Z</time>
      </trkpt>
      <trkpt lat="44.30715" lon="4.83581">
        <ele>106.89</ele>
        <time>2026-08-31T07:46:43Z</time>
      </trkpt>
      <trkpt lat="44.30662" lon="4.83533">
        <ele>108.26</ele>
        <time>2026-08-31T07:47:03Z</time>
      </trkpt>
      <trkpt lat="44.30662" lon="4.83528">
        <ele>108.32</ele>
        <time>2026-08-31T07:47:04Z</time>
      </trkpt>
      <trkpt lat="44.30663" lon="4.83522">
        <ele>108.39</ele>
        <time>2026-08-31T07:47:05Z</time>
      </trkpt>
      <trkpt lat="44.30667" lon="4.83511">
        <ele>107.89</ele>
        <time>2026-08-31T07:47:07Z</time>
      </trkpt>
      <trkpt lat="44.30669" lon="4.83504">
        <ele>107.63</ele>
        <time>2026-08-31T07:47:08Z</time>
      </trkpt>
      <trkpt lat="44.30672" lon="4.83498">
        <ele>107.08</ele>
        <time>2026-08-31T07:47:09Z</time>
      </trkpt>
      <trkpt lat="44.3068" lon="4.8348">
        <ele>106.41</ele>
        <time>2026-08-31T07:47:12Z</time>
      </trkpt>
      <trkpt lat="44.30683" lon="4.8347">
        <ele>105.89</ele>
        <time>2026-08-31T07:47:14Z</time>
      </trkpt>
      <trkpt lat="44.30682" lon="4.83467">
        <ele>105.2</ele>
        <time>2026-08-31T07:47:15Z</time>
      </trkpt>
      <trkpt lat="44.3068" lon="4.83465">
        <ele>105.2</ele>
        <time>2026-08-31T07:47:16Z</time>
      </trkpt>
      <trkpt lat="44.30678" lon="4.83463">
        <ele>105.21</ele>
        <time>2026-08-31T07:47:17Z</time>
      </trkpt>
      <trkpt lat="44.30676" lon="4.83461">
        <ele>105.31</ele>
        <time>2026-08-31T07:47:18Z</time>
      </trkpt>
      <trkpt lat="44.30673" lon="4.83459">
        <ele>105.3</ele>
        <time>2026-08-31T07:47:19Z</time>
      </trkpt>
      <trkpt lat="44.30637" lon="4.83419">
        <ele>106.02</ele>
        <time>2026-08-31T07:47:33Z</time>
      </trkpt>
      <trkpt lat="44.30603" lon="4.83383">
        <ele>104.77</ele>
        <time>2026-08-31T07:47:45Z</time>
      </trkpt>
      <trkpt lat="44.30581" lon="4.83364">
        <ele>103.9</ele>
        <time>2026-08-31T07:47:53Z</time>
      </trkpt>
      <trkpt lat="44.30581" lon="4.83363">
        <ele>103.86</ele>
        <time>2026-08-31T07:47:54Z</time>
      </trkpt>
      <trkpt lat="44.30582" lon="4.83362">
        <ele>103.68</ele>
        <time>2026-08-31T07:47:55Z</time>
      </trkpt>
      <trkpt lat="44.30583" lon="4.83362">
        <ele>103.57</ele>
        <time>2026-08-31T07:47:56Z</time>
      </trkpt>
      <trkpt lat="44.30585" lon="4.83363">
        <ele>103.7</ele>
        <time>2026-08-31T07:47:57Z</time>
      </trkpt>
      <trkpt lat="44.30587" lon="4.83363">
        <ele>103.7</ele>
        <time>2026-08-31T07:47:58Z</time>
      </trkpt>
      <trkpt lat="44.3059" lon="4.83363">
        <ele>103.75</ele>
        <time>2026-08-31T07:47:59Z</time>
      </trkpt>
      <trkpt lat="44.30593" lon="4.83364">
        <ele>103.77</ele>
        <time>2026-08-31T07:48:00Z</time>
      </trkpt>
      <trkpt lat="44.30596" lon="4.83364">
        <ele>103.87</ele>
        <time>2026-08-31T07:48:01Z</time>
      </trkpt>
      <trkpt lat="44.30599" lon="4.83364">
        <ele>104.09</ele>
        <time>2026-08-31T07:48:02Z</time>
      </trkpt>
      <trkpt lat="44.30637" lon="4.83361">
        <ele>104.71</ele>
        <time>2026-08-31T07:48:14Z</time>
      </trkpt>
      <trkpt lat="44.30669" lon="4.83359">
        <ele>104.67</ele>
        <time>2026-08-31T07:48:23Z</time>
      </trkpt>
      <trkpt lat="44.30688" lon="4.8336">
        <ele>105.47</ele>
        <time>2026-08-31T07:48:29Z</time>
      </trkpt>
      <trkpt lat="44.30691" lon="4.83358">
        <ele>105.57</ele>
        <time>2026-08-31T07:48:30Z</time>
      </trkpt>
      <trkpt lat="44.30692" lon="4.83356">
        <ele>105.86</ele>
        <time>2026-08-31T07:48:31Z</time>
      </trkpt>
      <trkpt lat="44.30694" lon="4.83353">
        <ele>105.86</ele>
        <time>2026-08-31T07:48:32Z</time>
      </trkpt>
      <trkpt lat="44.30695" lon="4.83351">
        <ele>105.85</ele>
        <time>2026-08-31T07:48:33Z</time>
      </trkpt>
      <trkpt lat="44.30697" lon="4.8335">
        <ele>105.84</ele>
        <time>2026-08-31T07:48:34Z</time>
      </trkpt>
      <trkpt lat="44.30699" lon="4.83349">
        <ele>105.79</ele>
        <time>2026-08-31T07:48:35Z</time>
      </trkpt>
      <trkpt lat="44.30701" lon="4.83347">
        <ele>105.75</ele>
        <time>2026-08-31T07:48:36Z</time>
      </trkpt>
      <trkpt lat="44.30703" lon="4.83345">
        <ele>105.84</ele>
        <time>2026-08-31T07:48:37Z</time>
      </trkpt>
      <trkpt lat="44.30706" lon="4.83344">
        <ele>105.71</ele>
        <time>2026-08-31T07:48:38Z</time>
      </trkpt>
      <trkpt lat="44.30709" lon="4.83343">
        <ele>105.74</ele>
        <time>2026-08-31T07:48:39Z</time>
      </trkpt>
      <trkpt lat="44.30712" lon="4.83342">
        <ele>105.66</ele>
        <time>2026-08-31T07:48:40Z</time>
      </trkpt>
      <trkpt lat="44.30716" lon="4.83341">
        <ele>105.74</ele>
        <time>2026-08-31T07:48:41Z</time>
      </trkpt>
      <trkpt lat="44.30719" lon="4.8334">
        <ele>105.67</ele>
        <time>2026-08-31T07:48:42Z</time>
      </trkpt>
      <trkpt lat="44.30722" lon="4.83338">
        <ele>105.78</ele>
        <time>2026-08-31T07:48:43Z</time>
      </trkpt>
      <trkpt lat="44.30725" lon="4.83336">
        <ele>105.78</ele>
        <time>2026-08-31T07:48:44Z</time>
      </trkpt>
      <trkpt lat="44.30765" lon="4.83324">
        <ele>106.63</ele>
        <time>2026-08-31T07:48:56Z</time>
      </trkpt>
      <trkpt lat="44.30799" lon="4.83308">
        <ele>105.89</ele>
        <time>2026-08-31T07:49:06Z</time>
      </trkpt>
      <trkpt lat="44.30807" lon="4.83297">
        <ele>105.54</ele>
        <time>2026-08-31T07:49:09Z</time>
      </trkpt>
      <trkpt lat="44.3081" lon="4.83272">
        <ele>104.07</ele>
        <time>2026-08-31T07:49:16Z</time>
      </trkpt>
      <trkpt lat="44.30811" lon="4.83268">
        <ele>104.04</ele>
        <time>2026-08-31T07:49:17Z</time>
      </trkpt>
      <trkpt lat="44.30813" lon="4.83264">
        <ele>103.99</ele>
        <time>2026-08-31T07:49:18Z</time>
      </trkpt>
      <trkpt lat="44.3082" lon="4.83242">
        <ele>103.73</ele>
        <time>2026-08-31T07:49:24Z</time>
      </trkpt>
      <trkpt lat="44.30823" lon="4.8324">
        <ele>103.89</ele>
        <time>2026-08-31T07:49:25Z</time>
      </trkpt>
      <trkpt lat="44.30825" lon="4.83238">
        <ele>103.91</ele>
        <time>2026-08-31T07:49:26Z</time>
      </trkpt>
      <trkpt lat="44.30827" lon="4.83237">
        <ele>103.86</ele>
        <time>2026-08-31T07:49:27Z</time>
      </trkpt>
      <trkpt lat="44.30829" lon="4.83236">
        <ele>103.79</ele>
        <time>2026-08-31T07:49:28Z</time>
      </trkpt>
      <trkpt lat="44.30852" lon="4.8321">
        <ele>102.5</ele>
        <time>2026-08-31T07:49:37Z</time>
      </trkpt>
      <trkpt lat="44.30866" lon="4.83192">
        <ele>100.9</ele>
        <time>2026-08-31T07:49:42Z</time>
      </trkpt>
      <trkpt lat="44.30871" lon="4.83191">
        <ele>100.53</ele>
        <time>2026-08-31T07:49:43Z</time>
      </trkpt>
      <trkpt lat="44.30876" lon="4.83192">
        <ele>100.04</ele>
        <time>2026-08-31T07:49:44Z</time>
      </trkpt>
      <trkpt lat="44.3091" lon="4.832">
        <ele>99.74</ele>
        <time>2026-08-31T07:49:55Z</time>
      </trkpt>
      <trkpt lat="44.30915" lon="4.83201">
        <ele>100.15</ele>
        <time>2026-08-31T07:49:58Z</time>
      </trkpt>
      <trkpt lat="44.30918" lon="4.83204">
        <ele>100.18</ele>
        <time>2026-08-31T07:49:59Z</time>
      </trkpt>
      <trkpt lat="44.30925" lon="4.83208">
        <ele>99.48</ele>
        <time>2026-08-31T07:50:02Z</time>
      </trkpt>
      <trkpt lat="44.30926" lon="4.83208">
        <ele>98.79</ele>
        <time>2026-08-31T07:50:03Z</time>
      </trkpt>
      <trkpt lat="44.30928" lon="4.83207">
        <ele>98</ele>
        <time>2026-08-31T07:50:04Z</time>
      </trkpt>
      <trkpt lat="44.3093" lon="4.83207">
        <ele>97.28</ele>
        <time>2026-08-31T07:50:05Z</time>
      </trkpt>
      <trkpt lat="44.30932" lon="4.83208">
        <ele>96.84</ele>
        <time>2026-08-31T07:50:06Z</time>
      </trkpt>
      <trkpt lat="44.30935" lon="4.83211">
        <ele>96.49</ele>
        <time>2026-08-31T07:50:07Z</time>
      </trkpt>
      <trkpt lat="44.30937" lon="4.83214">
        <ele>95.65</ele>
        <time>2026-08-31T07:50:08Z</time>
      </trkpt>
      <trkpt lat="44.30937" lon="4.83216">
        <ele>95.2</ele>
        <time>2026-08-31T07:50:09Z</time>
      </trkpt>
      <trkpt lat="44.30937" lon="4.83217">
        <ele>94.92</ele>
        <time>2026-08-31T07:50:10Z</time>
      </trkpt>
      <trkpt lat="44.3094" lon="4.8322">
        <ele>94.62</ele>
        <time>2026-08-31T07:50:39Z</time>
      </trkpt>
      <trkpt lat="44.30942" lon="4.83222">
        <ele>95.21</ele>
        <time>2026-08-31T07:51:07Z</time>
      </trkpt>
      <trkpt lat="44.30943" lon="4.83225">
        <ele>95.6</ele>
        <time>2026-08-31T07:51:15Z</time>
      </trkpt>
      <trkpt lat="44.30944" lon="4.83227">
        <ele>95.72</ele>
        <time>2026-08-31T07:51:16Z</time>
      </trkpt>
      <trkpt lat="44.30945" lon="4.83231">
        <ele>95.86</ele>
        <time>2026-08-31T07:51:17Z</time>
      </trkpt>
      <trkpt lat="44.30946" lon="4.83234">
        <ele>96.05</ele>
        <time>2026-08-31T07:51:18Z</time>
      </trkpt>
      <trkpt lat="44.30946" lon="4.83237">
        <ele>96.23</ele>
        <time>2026-08-31T07:51:19Z</time>
      </trkpt>
      <trkpt lat="44.30952" lon="4.83295">
        <ele>97.53</ele>
        <time>2026-08-31T07:51:35Z</time>
      </trkpt>
      <trkpt lat="44.30942" lon="4.83344">
        <ele>99.58</ele>
        <time>2026-08-31T07:51:48Z</time>
      </trkpt>
      <trkpt lat="44.30945" lon="4.83393">
        <ele>102.44</ele>
        <time>2026-08-31T07:52:01Z</time>
      </trkpt>
      <trkpt lat="44.30952" lon="4.83408">
        <ele>105.73</ele>
        <time>2026-08-31T07:52:06Z</time>
      </trkpt>
      <trkpt lat="44.30958" lon="4.83417">
        <ele>107.72</ele>
        <time>2026-08-31T07:52:10Z</time>
      </trkpt>
      <trkpt lat="44.30966" lon="4.83437">
        <ele>110.8</ele>
        <time>2026-08-31T07:52:18Z</time>
      </trkpt>
      <trkpt lat="44.30984" lon="4.83479">
        <ele>111.77</ele>
        <time>2026-08-31T07:52:32Z</time>
      </trkpt>
      <trkpt lat="44.31004" lon="4.83524">
        <ele>108.65</ele>
        <time>2026-08-31T07:52:44Z</time>
      </trkpt>
      <trkpt lat="44.3101" lon="4.83537">
        <ele>105.42</ele>
        <time>2026-08-31T07:52:48Z</time>
      </trkpt>
      <trkpt lat="44.31015" lon="4.83545">
        <ele>102.11</ele>
        <time>2026-08-31T07:52:51Z</time>
      </trkpt>
      <trkpt lat="44.31017" lon="4.83548">
        <ele>101.61</ele>
        <time>2026-08-31T07:52:52Z</time>
      </trkpt>
      <trkpt lat="44.3102" lon="4.83549">
        <ele>101.47</ele>
        <time>2026-08-31T07:52:53Z</time>
      </trkpt>
      <trkpt lat="44.31023" lon="4.8355">
        <ele>101.15</ele>
        <time>2026-08-31T07:52:54Z</time>
      </trkpt>
      <trkpt lat="44.31026" lon="4.83551">
        <ele>100.9</ele>
        <time>2026-08-31T07:52:55Z</time>
      </trkpt>
      <trkpt lat="44.31028" lon="4.83555">
        <ele>100.98</ele>
        <time>2026-08-31T07:53:07Z</time>
      </trkpt>
      <trkpt lat="44.3105" lon="4.83559">
        <ele>101.16</ele>
        <time>2026-08-31T07:53:17Z</time>
      </trkpt>
      <trkpt lat="44.31068" lon="4.83562">
        <ele>101.62</ele>
        <time>2026-08-31T07:53:24Z</time>
      </trkpt>
      <trkpt lat="44.3107" lon="4.8356">
        <ele>101.75</ele>
        <time>2026-08-31T07:53:25Z</time>
      </trkpt>
      <trkpt lat="44.31072" lon="4.83559">
        <ele>102.27</ele>
        <time>2026-08-31T07:53:26Z</time>
      </trkpt>
      <trkpt lat="44.31075" lon="4.83558">
        <ele>102.74</ele>
        <time>2026-08-31T07:53:27Z</time>
      </trkpt>
      <trkpt lat="44.31077" lon="4.83557">
        <ele>103.2</ele>
        <time>2026-08-31T07:53:28Z</time>
      </trkpt>
      <trkpt lat="44.3108" lon="4.83556">
        <ele>103.43</ele>
        <time>2026-08-31T07:53:29Z</time>
      </trkpt>
      <trkpt lat="44.31082" lon="4.83554">
        <ele>103.77</ele>
        <time>2026-08-31T07:53:30Z</time>
      </trkpt>
      <trkpt lat="44.31084" lon="4.83553">
        <ele>103.95</ele>
        <time>2026-08-31T07:53:31Z</time>
      </trkpt>
      <trkpt lat="44.31086" lon="4.83552">
        <ele>104.2</ele>
        <time>2026-08-31T07:53:32Z</time>
      </trkpt>
      <trkpt lat="44.31108" lon="4.83535">
        <ele>105.75</ele>
        <time>2026-08-31T07:53:44Z</time>
      </trkpt>
      <trkpt lat="44.31119" lon="4.8353">
        <ele>106.31</ele>
        <time>2026-08-31T07:53:49Z</time>
      </trkpt>
      <trkpt lat="44.31121" lon="4.8353">
        <ele>106.31</ele>
        <time>2026-08-31T07:53:50Z</time>
      </trkpt>
      <trkpt lat="44.31143" lon="4.83519">
        <ele>106.01</ele>
        <time>2026-08-31T07:53:59Z</time>
      </trkpt>
      <trkpt lat="44.31147" lon="4.83512">
        <ele>105.67</ele>
        <time>2026-08-31T07:54:01Z</time>
      </trkpt>
      <trkpt lat="44.31148" lon="4.83509">
        <ele>105.39</ele>
        <time>2026-08-31T07:54:02Z</time>
      </trkpt>
      <trkpt lat="44.3115" lon="4.83503">
        <ele>105.15</ele>
        <time>2026-08-31T07:54:06Z</time>
      </trkpt>
      <trkpt lat="44.31153" lon="4.83501">
        <ele>104.64</ele>
        <time>2026-08-31T07:54:08Z</time>
      </trkpt>
      <trkpt lat="44.31155" lon="4.83499">
        <ele>103.92</ele>
        <time>2026-08-31T07:54:09Z</time>
      </trkpt>
      <trkpt lat="44.31157" lon="4.83497">
        <ele>103.47</ele>
        <time>2026-08-31T07:54:10Z</time>
      </trkpt>
      <trkpt lat="44.3116" lon="4.83496">
        <ele>103.18</ele>
        <time>2026-08-31T07:54:11Z</time>
      </trkpt>
      <trkpt lat="44.31162" lon="4.83495">
        <ele>102.92</ele>
        <time>2026-08-31T07:54:12Z</time>
      </trkpt>
      <trkpt lat="44.31164" lon="4.83492">
        <ele>102.69</ele>
        <time>2026-08-31T07:54:13Z</time>
      </trkpt>
      <trkpt lat="44.31166" lon="4.83488">
        <ele>102.65</ele>
        <time>2026-08-31T07:54:14Z</time>
      </trkpt>
      <trkpt lat="44.31169" lon="4.83485">
        <ele>102.38</ele>
        <time>2026-08-31T07:54:15Z</time>
      </trkpt>
      <trkpt lat="44.31171" lon="4.8348">
        <ele>102.18</ele>
        <time>2026-08-31T07:54:16Z</time>
      </trkpt>
      <trkpt lat="44.31172" lon="4.83476">
        <ele>101.91</ele>
        <time>2026-08-31T07:54:17Z</time>
      </trkpt>
      <trkpt lat="44.31173" lon="4.83472">
        <ele>101.68</ele>
        <time>2026-08-31T07:54:18Z</time>
      </trkpt>
      <trkpt lat="44.31178" lon="4.83453">
        <ele>100.1</ele>
        <time>2026-08-31T07:54:22Z</time>
      </trkpt>
      <trkpt lat="44.31181" lon="4.83446">
        <ele>99.73</ele>
        <time>2026-08-31T07:54:23Z</time>
      </trkpt>
      <trkpt lat="44.31183" lon="4.83438">
        <ele>99.57</ele>
        <time>2026-08-31T07:54:24Z</time>
      </trkpt>
      <trkpt lat="44.31196" lon="4.83395">
        <ele>97.73</ele>
        <time>2026-08-31T07:54:29Z</time>
      </trkpt>
      <trkpt lat="44.312" lon="4.83387">
        <ele>97.78</ele>
        <time>2026-08-31T07:54:30Z</time>
      </trkpt>
      <trkpt lat="44.31204" lon="4.83381">
        <ele>97.42</ele>
        <time>2026-08-31T07:54:31Z</time>
      </trkpt>
      <trkpt lat="44.31221" lon="4.83347">
        <ele>97.85</ele>
        <time>2026-08-31T07:54:40Z</time>
      </trkpt>
      <trkpt lat="44.31228" lon="4.83322">
        <ele>99.41</ele>
        <time>2026-08-31T07:54:49Z</time>
      </trkpt>
      <trkpt lat="44.31228" lon="4.8332">
        <ele>99.67</ele>
        <time>2026-08-31T07:54:50Z</time>
      </trkpt>
      <trkpt lat="44.31224" lon="4.83286">
        <ele>100.09</ele>
        <time>2026-08-31T07:55:02Z</time>
      </trkpt>
      <trkpt lat="44.31223" lon="4.83283">
        <ele>99.87</ele>
        <time>2026-08-31T07:55:03Z</time>
      </trkpt>
      <trkpt lat="44.31221" lon="4.8328">
        <ele>99.59</ele>
        <time>2026-08-31T07:55:04Z</time>
      </trkpt>
      <trkpt lat="44.3122" lon="4.83277">
        <ele>99.58</ele>
        <time>2026-08-31T07:55:05Z</time>
      </trkpt>
      <trkpt lat="44.3122" lon="4.83273">
        <ele>99.27</ele>
        <time>2026-08-31T07:55:06Z</time>
      </trkpt>
      <trkpt lat="44.3122" lon="4.83269">
        <ele>98.9</ele>
        <time>2026-08-31T07:55:07Z</time>
      </trkpt>
      <trkpt lat="44.3122" lon="4.83265">
        <ele>98.83</ele>
        <time>2026-08-31T07:55:08Z</time>
      </trkpt>
      <trkpt lat="44.31219" lon="4.8326">
        <ele>98.86</ele>
        <time>2026-08-31T07:55:09Z</time>
      </trkpt>
      <trkpt lat="44.31219" lon="4.83255">
        <ele>98.51</ele>
        <time>2026-08-31T07:55:10Z</time>
      </trkpt>
      <trkpt lat="44.31219" lon="4.83251">
        <ele>98.26</ele>
        <time>2026-08-31T07:55:11Z</time>
      </trkpt>
      <trkpt lat="44.31219" lon="4.83246">
        <ele>97.92</ele>
        <time>2026-08-31T07:55:12Z</time>
      </trkpt>
      <trkpt lat="44.31224" lon="4.83233">
        <ele>97.7</ele>
        <time>2026-08-31T07:55:15Z</time>
      </trkpt>
      <trkpt lat="44.31239" lon="4.8321">
        <ele>96.78</ele>
        <time>2026-08-31T07:55:21Z</time>
      </trkpt>
      <trkpt lat="44.31249" lon="4.83205">
        <ele>95.87</ele>
        <time>2026-08-31T07:55:25Z</time>
      </trkpt>
      <trkpt lat="44.31271" lon="4.832">
        <ele>93.91</ele>
        <time>2026-08-31T07:55:30Z</time>
      </trkpt>
      <trkpt lat="44.31273" lon="4.83199">
        <ele>93.51</ele>
        <time>2026-08-31T07:55:31Z</time>
      </trkpt>
      <trkpt lat="44.31282" lon="4.83189">
        <ele>93.35</ele>
        <time>2026-08-31T07:55:45Z</time>
      </trkpt>
      <trkpt lat="44.31328" lon="4.83187">
        <ele>92.84</ele>
        <time>2026-08-31T07:55:58Z</time>
      </trkpt>
      <trkpt lat="44.31365" lon="4.83196">
        <ele>91.32</ele>
        <time>2026-08-31T07:56:07Z</time>
      </trkpt>
      <trkpt lat="44.31373" lon="4.832">
        <ele>90.62</ele>
        <time>2026-08-31T07:56:09Z</time>
      </trkpt>
      <trkpt lat="44.3143" lon="4.83249">
        <ele>91.25</ele>
        <time>2026-08-31T07:56:26Z</time>
      </trkpt>
      <trkpt lat="44.31443" lon="4.83258">
        <ele>90.96</ele>
        <time>2026-08-31T07:56:29Z</time>
      </trkpt>
      <trkpt lat="44.31483" lon="4.8329">
        <ele>89.85</ele>
        <time>2026-08-31T07:56:40Z</time>
      </trkpt>
      <trkpt lat="44.31487" lon="4.83291">
        <ele>89.81</ele>
        <time>2026-08-31T07:56:41Z</time>
      </trkpt>
      <trkpt lat="44.31496" lon="4.83294">
        <ele>89.56</ele>
        <time>2026-08-31T07:56:43Z</time>
      </trkpt>
      <trkpt lat="44.315" lon="4.83296">
        <ele>89.22</ele>
        <time>2026-08-31T07:56:44Z</time>
      </trkpt>
      <trkpt lat="44.31504" lon="4.83299">
        <ele>89.16</ele>
        <time>2026-08-31T07:56:45Z</time>
      </trkpt>
      <trkpt lat="44.3155" lon="4.83358">
        <ele>87.98</ele>
        <time>2026-08-31T07:57:01Z</time>
      </trkpt>
      <trkpt lat="44.31611" lon="4.83416">
        <ele>87.61</ele>
        <time>2026-08-31T07:57:20Z</time>
      </trkpt>
      <trkpt lat="44.31641" lon="4.83428">
        <ele>87.59</ele>
        <time>2026-08-31T07:57:28Z</time>
      </trkpt>
      <trkpt lat="44.31649" lon="4.83431">
        <ele>87.41</ele>
        <time>2026-08-31T07:57:30Z</time>
      </trkpt>
      <trkpt lat="44.31719" lon="4.83436">
        <ele>86.42</ele>
        <time>2026-08-31T07:57:46Z</time>
      </trkpt>
      <trkpt lat="44.31793" lon="4.83427">
        <ele>86.19</ele>
        <time>2026-08-31T07:58:05Z</time>
      </trkpt>
      <trkpt lat="44.31852" lon="4.83403">
        <ele>86.5</ele>
        <time>2026-08-31T07:58:21Z</time>
      </trkpt>
      <trkpt lat="44.31894" lon="4.83376">
        <ele>87.49</ele>
        <time>2026-08-31T07:58:34Z</time>
      </trkpt>
      <trkpt lat="44.31906" lon="4.83328">
        <ele>87.26</ele>
        <time>2026-08-31T07:58:43Z</time>
      </trkpt>
      <trkpt lat="44.31903" lon="4.83271">
        <ele>85.9</ele>
        <time>2026-08-31T07:58:54Z</time>
      </trkpt>
      <trkpt lat="44.31891" lon="4.83225">
        <ele>86.05</ele>
        <time>2026-08-31T07:59:03Z</time>
      </trkpt>
      <trkpt lat="44.31892" lon="4.83222">
        <ele>86.3</ele>
        <time>2026-08-31T07:59:04Z</time>
      </trkpt>
      <trkpt lat="44.31894" lon="4.8322">
        <ele>86.38</ele>
        <time>2026-08-31T07:59:05Z</time>
      </trkpt>
      <trkpt lat="44.31897" lon="4.8322">
        <ele>85.89</ele>
        <time>2026-08-31T07:59:06Z</time>
      </trkpt>
      <trkpt lat="44.31899" lon="4.83221">
        <ele>85.72</ele>
        <time>2026-08-31T07:59:07Z</time>
      </trkpt>
      <trkpt lat="44.31902" lon="4.83223">
        <ele>85.8</ele>
        <time>2026-08-31T07:59:08Z</time>
      </trkpt>
      <trkpt lat="44.31905" lon="4.83225">
        <ele>85.72</ele>
        <time>2026-08-31T07:59:09Z</time>
      </trkpt>
      <trkpt lat="44.31907" lon="4.83228">
        <ele>85.75</ele>
        <time>2026-08-31T07:59:10Z</time>
      </trkpt>
      <trkpt lat="44.3191" lon="4.8323">
        <ele>85.79</ele>
        <time>2026-08-31T07:59:11Z</time>
      </trkpt>
      <trkpt lat="44.31912" lon="4.83232">
        <ele>85.73</ele>
        <time>2026-08-31T07:59:12Z</time>
      </trkpt>
      <trkpt lat="44.31956" lon="4.8326">
        <ele>86.75</ele>
        <time>2026-08-31T07:59:28Z</time>
      </trkpt>
      <trkpt lat="44.31978" lon="4.83226">
        <ele>89.87</ele>
        <time>2026-08-31T07:59:39Z</time>
      </trkpt>
      <trkpt lat="44.31994" lon="4.83192">
        <ele>93.14</ele>
        <time>2026-08-31T07:59:49Z</time>
      </trkpt>
      <trkpt lat="44.3202" lon="4.83144">
        <ele>92.9</ele>
        <time>2026-08-31T08:00:03Z</time>
      </trkpt>
      <trkpt lat="44.32063" lon="4.83122">
        <ele>94.82</ele>
        <time>2026-08-31T08:00:19Z</time>
      </trkpt>
      <trkpt lat="44.32107" lon="4.83104">
        <ele>96.85</ele>
        <time>2026-08-31T08:00:34Z</time>
      </trkpt>
      <trkpt lat="44.32134" lon="4.83126">
        <ele>97.54</ele>
        <time>2026-08-31T08:00:45Z</time>
      </trkpt>
      <trkpt lat="44.3214" lon="4.83149">
        <ele>96.16</ele>
        <time>2026-08-31T08:00:49Z</time>
      </trkpt>
      <trkpt lat="44.32143" lon="4.83155">
        <ele>95.92</ele>
        <time>2026-08-31T08:00:50Z</time>
      </trkpt>
      <trkpt lat="44.32146" lon="4.8316">
        <ele>95.38</ele>
        <time>2026-08-31T08:00:51Z</time>
      </trkpt>
      <trkpt lat="44.32149" lon="4.83161">
        <ele>95.23</ele>
        <time>2026-08-31T08:00:52Z</time>
      </trkpt>
      <trkpt lat="44.32153" lon="4.83161">
        <ele>94.84</ele>
        <time>2026-08-31T08:00:53Z</time>
      </trkpt>
      <trkpt lat="44.32156" lon="4.83159">
        <ele>94.49</ele>
        <time>2026-08-31T08:00:54Z</time>
      </trkpt>
      <trkpt lat="44.32158" lon="4.83156">
        <ele>93.86</ele>
        <time>2026-08-31T08:00:55Z</time>
      </trkpt>
      <trkpt lat="44.3216" lon="4.83153">
        <ele>92.9</ele>
        <time>2026-08-31T08:00:56Z</time>
      </trkpt>
      <trkpt lat="44.32162" lon="4.83149">
        <ele>92.61</ele>
        <time>2026-08-31T08:00:57Z</time>
      </trkpt>
      <trkpt lat="44.32166" lon="4.83145">
        <ele>91.96</ele>
        <time>2026-08-31T08:00:58Z</time>
      </trkpt>
      <trkpt lat="44.32169" lon="4.83143">
        <ele>91.46</ele>
        <time>2026-08-31T08:00:59Z</time>
      </trkpt>
      <trkpt lat="44.32172" lon="4.8314">
        <ele>91.18</ele>
        <time>2026-08-31T08:01:00Z</time>
      </trkpt>
      <trkpt lat="44.32176" lon="4.83133">
        <ele>91.3</ele>
        <time>2026-08-31T08:01:02Z</time>
      </trkpt>
      <trkpt lat="44.32176" lon="4.8313">
        <ele>91.41</ele>
        <time>2026-08-31T08:01:03Z</time>
      </trkpt>
      <trkpt lat="44.32177" lon="4.83127">
        <ele>91.43</ele>
        <time>2026-08-31T08:01:04Z</time>
      </trkpt>
      <trkpt lat="44.32182" lon="4.83119">
        <ele>91.4</ele>
        <time>2026-08-31T08:01:18Z</time>
      </trkpt>
      <trkpt lat="44.3219" lon="4.83115">
        <ele>90.87</ele>
        <time>2026-08-31T08:01:21Z</time>
      </trkpt>
      <trkpt lat="44.32194" lon="4.83115">
        <ele>90.92</ele>
        <time>2026-08-31T08:01:22Z</time>
      </trkpt>
      <trkpt lat="44.32198" lon="4.83115">
        <ele>90.47</ele>
        <time>2026-08-31T08:01:23Z</time>
      </trkpt>
      <trkpt lat="44.32203" lon="4.83116">
        <ele>90.21</ele>
        <time>2026-08-31T08:01:24Z</time>
      </trkpt>
      <trkpt lat="44.32207" lon="4.83117">
        <ele>89.89</ele>
        <time>2026-08-31T08:01:25Z</time>
      </trkpt>
      <trkpt lat="44.32212" lon="4.83117">
        <ele>89.85</ele>
        <time>2026-08-31T08:01:26Z</time>
      </trkpt>
      <trkpt lat="44.32216" lon="4.83115">
        <ele>89.2</ele>
        <time>2026-08-31T08:01:27Z</time>
      </trkpt>
      <trkpt lat="44.3222" lon="4.83114">
        <ele>89.09</ele>
        <time>2026-08-31T08:01:28Z</time>
      </trkpt>
      <trkpt lat="44.32223" lon="4.83114">
        <ele>88.59</ele>
        <time>2026-08-31T08:01:29Z</time>
      </trkpt>
      <trkpt lat="44.32225" lon="4.83115">
        <ele>88.42</ele>
        <time>2026-08-31T08:01:30Z</time>
      </trkpt>
      <trkpt lat="44.32229" lon="4.83117">
        <ele>88.15</ele>
        <time>2026-08-31T08:01:32Z</time>
      </trkpt>
      <trkpt lat="44.32231" lon="4.83119">
        <ele>88.01</ele>
        <time>2026-08-31T08:01:33Z</time>
      </trkpt>
      <trkpt lat="44.32231" lon="4.83121">
        <ele>87.89</ele>
        <time>2026-08-31T08:01:34Z</time>
      </trkpt>
      <trkpt lat="44.32226" lon="4.8315">
        <ele>86.69</ele>
        <time>2026-08-31T08:01:46Z</time>
      </trkpt>
      <trkpt lat="44.32226" lon="4.83153">
        <ele>86.53</ele>
        <time>2026-08-31T08:01:47Z</time>
      </trkpt>
      <trkpt lat="44.32226" lon="4.83156">
        <ele>86.67</ele>
        <time>2026-08-31T08:01:48Z</time>
      </trkpt>
      <trkpt lat="44.32228" lon="4.8316">
        <ele>86.61</ele>
        <time>2026-08-31T08:01:49Z</time>
      </trkpt>
      <trkpt lat="44.32229" lon="4.83163">
        <ele>86.55</ele>
        <time>2026-08-31T08:01:50Z</time>
      </trkpt>
      <trkpt lat="44.32231" lon="4.83166">
        <ele>86.51</ele>
        <time>2026-08-31T08:01:51Z</time>
      </trkpt>
      <trkpt lat="44.32234" lon="4.83173">
        <ele>86.05</ele>
        <time>2026-08-31T08:01:53Z</time>
      </trkpt>
      <trkpt lat="44.32236" lon="4.83176">
        <ele>86.05</ele>
        <time>2026-08-31T08:01:54Z</time>
      </trkpt>
      <trkpt lat="44.32239" lon="4.83179">
        <ele>86.05</ele>
        <time>2026-08-31T08:01:55Z</time>
      </trkpt>
      <trkpt lat="44.32241" lon="4.83182">
        <ele>85.81</ele>
        <time>2026-08-31T08:01:56Z</time>
      </trkpt>
      <trkpt lat="44.32243" lon="4.83184">
        <ele>85.77</ele>
        <time>2026-08-31T08:01:57Z</time>
      </trkpt>
      <trkpt lat="44.32246" lon="4.83193">
        <ele>85.7</ele>
        <time>2026-08-31T08:02:00Z</time>
      </trkpt>
      <trkpt lat="44.32247" lon="4.83195">
        <ele>85.61</ele>
        <time>2026-08-31T08:02:01Z</time>
      </trkpt>
      <trkpt lat="44.32248" lon="4.83197">
        <ele>85.64</ele>
        <time>2026-08-31T08:02:02Z</time>
      </trkpt>
      <trkpt lat="44.3225" lon="4.83199">
        <ele>85.67</ele>
        <time>2026-08-31T08:02:03Z</time>
      </trkpt>
      <trkpt lat="44.32252" lon="4.83201">
        <ele>85.74</ele>
        <time>2026-08-31T08:02:04Z</time>
      </trkpt>
      <trkpt lat="44.32254" lon="4.83203">
        <ele>85.65</ele>
        <time>2026-08-31T08:02:05Z</time>
      </trkpt>
      <trkpt lat="44.32276" lon="4.83243">
        <ele>84.96</ele>
        <time>2026-08-31T08:02:17Z</time>
      </trkpt>
      <trkpt lat="44.32278" lon="4.83249">
        <ele>84.79</ele>
        <time>2026-08-31T08:02:19Z</time>
      </trkpt>
      <trkpt lat="44.32297" lon="4.833">
        <ele>83.86</ele>
        <time>2026-08-31T08:02:30Z</time>
      </trkpt>
      <trkpt lat="44.32304" lon="4.83326">
        <ele>83.83</ele>
        <time>2026-08-31T08:02:38Z</time>
      </trkpt>
      <trkpt lat="44.32303" lon="4.83328">
        <ele>84.08</ele>
        <time>2026-08-31T08:02:39Z</time>
      </trkpt>
      <trkpt lat="44.32301" lon="4.83331">
        <ele>84.22</ele>
        <time>2026-08-31T08:02:40Z</time>
      </trkpt>
      <trkpt lat="44.32301" lon="4.83334">
        <ele>84.36</ele>
        <time>2026-08-31T08:02:41Z</time>
      </trkpt>
      <trkpt lat="44.32301" lon="4.83337">
        <ele>84.27</ele>
        <time>2026-08-31T08:02:42Z</time>
      </trkpt>
      <trkpt lat="44.32302" lon="4.8334">
        <ele>84.27</ele>
        <time>2026-08-31T08:02:43Z</time>
      </trkpt>
      <trkpt lat="44.32303" lon="4.83343">
        <ele>84.2</ele>
        <time>2026-08-31T08:02:44Z</time>
      </trkpt>
      <trkpt lat="44.32303" lon="4.83347">
        <ele>84.19</ele>
        <time>2026-08-31T08:02:45Z</time>
      </trkpt>
      <trkpt lat="44.32303" lon="4.8335">
        <ele>84.25</ele>
        <time>2026-08-31T08:02:46Z</time>
      </trkpt>
      <trkpt lat="44.32303" lon="4.83354">
        <ele>84.32</ele>
        <time>2026-08-31T08:02:47Z</time>
      </trkpt>
      <trkpt lat="44.32304" lon="4.83358">
        <ele>84.31</ele>
        <time>2026-08-31T08:02:48Z</time>
      </trkpt>
      <trkpt lat="44.32305" lon="4.83361">
        <ele>84.42</ele>
        <time>2026-08-31T08:02:49Z</time>
      </trkpt>
      <trkpt lat="44.32305" lon="4.83365">
        <ele>84.42</ele>
        <time>2026-08-31T08:02:50Z</time>
      </trkpt>
      <trkpt lat="44.32332" lon="4.8341">
        <ele>84.62</ele>
        <time>2026-08-31T08:03:05Z</time>
      </trkpt>
      <trkpt lat="44.32358" lon="4.83453">
        <ele>84.07</ele>
        <time>2026-08-31T08:03:19Z</time>
      </trkpt>
      <trkpt lat="44.32377" lon="4.83491">
        <ele>84.59</ele>
        <time>2026-08-31T08:03:31Z</time>
      </trkpt>
      <trkpt lat="44.32413" lon="4.83541">
        <ele>84.2</ele>
        <time>2026-08-31T08:03:44Z</time>
      </trkpt>
      <trkpt lat="44.32427" lon="4.83563">
        <ele>84.11</ele>
        <time>2026-08-31T08:03:55Z</time>
      </trkpt>
      <trkpt lat="44.3243" lon="4.83573">
        <ele>84.61</ele>
        <time>2026-08-31T08:04:07Z</time>
      </trkpt>
      <trkpt lat="44.32431" lon="4.83575">
        <ele>84.64</ele>
        <time>2026-08-31T08:04:08Z</time>
      </trkpt>
      <trkpt lat="44.32431" lon="4.83577">
        <ele>84.81</ele>
        <time>2026-08-31T08:04:09Z</time>
      </trkpt>
      <trkpt lat="44.32432" lon="4.83579">
        <ele>85</ele>
        <time>2026-08-31T08:04:10Z</time>
      </trkpt>
      <trkpt lat="44.32434" lon="4.83581">
        <ele>85.08</ele>
        <time>2026-08-31T08:04:11Z</time>
      </trkpt>
      <trkpt lat="44.32455" lon="4.83606">
        <ele>84.9</ele>
        <time>2026-08-31T08:04:22Z</time>
      </trkpt>
      <trkpt lat="44.32476" lon="4.83624">
        <ele>84.47</ele>
        <time>2026-08-31T08:04:30Z</time>
      </trkpt>
      <trkpt lat="44.32479" lon="4.83625">
        <ele>84.49</ele>
        <time>2026-08-31T08:04:31Z</time>
      </trkpt>
      <trkpt lat="44.32482" lon="4.83626">
        <ele>84.5</ele>
        <time>2026-08-31T08:04:32Z</time>
      </trkpt>
      <trkpt lat="44.32494" lon="4.8363">
        <ele>84.49</ele>
        <time>2026-08-31T08:04:36Z</time>
      </trkpt>
      <trkpt lat="44.32496" lon="4.83628">
        <ele>84.56</ele>
        <time>2026-08-31T08:04:37Z</time>
      </trkpt>
      <trkpt lat="44.325" lon="4.83628">
        <ele>84.54</ele>
        <time>2026-08-31T08:04:38Z</time>
      </trkpt>
      <trkpt lat="44.32503" lon="4.83627">
        <ele>84.42</ele>
        <time>2026-08-31T08:04:39Z</time>
      </trkpt>
      <trkpt lat="44.32506" lon="4.83627">
        <ele>84.27</ele>
        <time>2026-08-31T08:04:40Z</time>
      </trkpt>
      <trkpt lat="44.32509" lon="4.83627">
        <ele>84.28</ele>
        <time>2026-08-31T08:04:41Z</time>
      </trkpt>
      <trkpt lat="44.32511" lon="4.83629">
        <ele>84.35</ele>
        <time>2026-08-31T08:04:42Z</time>
      </trkpt>
      <trkpt lat="44.32513" lon="4.8363">
        <ele>84.31</ele>
        <time>2026-08-31T08:04:43Z</time>
      </trkpt>
      <trkpt lat="44.32514" lon="4.8363">
        <ele>84.56</ele>
        <time>2026-08-31T08:04:44Z</time>
      </trkpt>
      <trkpt lat="44.32516" lon="4.83632">
        <ele>84.5</ele>
        <time>2026-08-31T08:04:45Z</time>
      </trkpt>
      <trkpt lat="44.32518" lon="4.83633">
        <ele>84.61</ele>
        <time>2026-08-31T08:04:46Z</time>
      </trkpt>
      <trkpt lat="44.3252" lon="4.83634">
        <ele>84.73</ele>
        <time>2026-08-31T08:04:47Z</time>
      </trkpt>
      <trkpt lat="44.32523" lon="4.83636">
        <ele>84.72</ele>
        <time>2026-08-31T08:04:48Z</time>
      </trkpt>
      <trkpt lat="44.32525" lon="4.83637">
        <ele>84.84</ele>
        <time>2026-08-31T08:04:49Z</time>
      </trkpt>
      <trkpt lat="44.32527" lon="4.83638">
        <ele>84.75</ele>
        <time>2026-08-31T08:04:50Z</time>
      </trkpt>
      <trkpt lat="44.32557" lon="4.83634">
        <ele>85.47</ele>
        <time>2026-08-31T08:05:03Z</time>
      </trkpt>
      <trkpt lat="44.32573" lon="4.83641">
        <ele>86.39</ele>
        <time>2026-08-31T08:05:13Z</time>
      </trkpt>
      <trkpt lat="44.32575" lon="4.83641">
        <ele>86.29</ele>
        <time>2026-08-31T08:05:14Z</time>
      </trkpt>
      <trkpt lat="44.32577" lon="4.8364">
        <ele>86.37</ele>
        <time>2026-08-31T08:05:15Z</time>
      </trkpt>
      <trkpt lat="44.32578" lon="4.8364">
        <ele>86.36</ele>
        <time>2026-08-31T08:05:16Z</time>
      </trkpt>
      <trkpt lat="44.3258" lon="4.83639">
        <ele>86.37</ele>
        <time>2026-08-31T08:05:17Z</time>
      </trkpt>
      <trkpt lat="44.32582" lon="4.83639">
        <ele>86.5</ele>
        <time>2026-08-31T08:05:18Z</time>
      </trkpt>
      <trkpt lat="44.32584" lon="4.83639">
        <ele>86.56</ele>
        <time>2026-08-31T08:05:19Z</time>
      </trkpt>
      <trkpt lat="44.32586" lon="4.83639">
        <ele>86.74</ele>
        <time>2026-08-31T08:05:20Z</time>
      </trkpt>
      <trkpt lat="44.32588" lon="4.8364">
        <ele>86.68</ele>
        <time>2026-08-31T08:05:21Z</time>
      </trkpt>
      <trkpt lat="44.32591" lon="4.83641">
        <ele>86.85</ele>
        <time>2026-08-31T08:05:22Z</time>
      </trkpt>
      <trkpt lat="44.32593" lon="4.83642">
        <ele>86.8</ele>
        <time>2026-08-31T08:05:23Z</time>
      </trkpt>
      <trkpt lat="44.32601" lon="4.83645">
        <ele>87.09</ele>
        <time>2026-08-31T08:05:26Z</time>
      </trkpt>
      <trkpt lat="44.32604" lon="4.83644">
        <ele>87.14</ele>
        <time>2026-08-31T08:05:27Z</time>
      </trkpt>
      <trkpt lat="44.32606" lon="4.83643">
        <ele>87.32</ele>
        <time>2026-08-31T08:05:28Z</time>
      </trkpt>
      <trkpt lat="44.32608" lon="4.83642">
        <ele>87.31</ele>
        <time>2026-08-31T08:05:29Z</time>
      </trkpt>
      <trkpt lat="44.3261" lon="4.83642">
        <ele>87.52</ele>
        <time>2026-08-31T08:05:30Z</time>
      </trkpt>
      <trkpt lat="44.32613" lon="4.83642">
        <ele>87.6</ele>
        <time>2026-08-31T08:05:31Z</time>
      </trkpt>
      <trkpt lat="44.32616" lon="4.83642">
        <ele>87.5</ele>
        <time>2026-08-31T08:05:32Z</time>
      </trkpt>
      <trkpt lat="44.32623" lon="4.83639">
        <ele>87.64</ele>
        <time>2026-08-31T08:05:35Z</time>
      </trkpt>
      <trkpt lat="44.32625" lon="4.83636">
        <ele>87.67</ele>
        <time>2026-08-31T08:05:36Z</time>
      </trkpt>
      <trkpt lat="44.32627" lon="4.83633">
        <ele>87.62</ele>
        <time>2026-08-31T08:05:37Z</time>
      </trkpt>
      <trkpt lat="44.32629" lon="4.8363">
        <ele>87.66</ele>
        <time>2026-08-31T08:05:38Z</time>
      </trkpt>
      <trkpt lat="44.3263" lon="4.83627">
        <ele>87.57</ele>
        <time>2026-08-31T08:05:39Z</time>
      </trkpt>
      <trkpt lat="44.32632" lon="4.83624">
        <ele>87.64</ele>
        <time>2026-08-31T08:05:40Z</time>
      </trkpt>
      <trkpt lat="44.32633" lon="4.83621">
        <ele>87.59</ele>
        <time>2026-08-31T08:05:41Z</time>
      </trkpt>
      <trkpt lat="44.32635" lon="4.83617">
        <ele>87.49</ele>
        <time>2026-08-31T08:05:42Z</time>
      </trkpt>
      <trkpt lat="44.32638" lon="4.83614">
        <ele>87.3</ele>
        <time>2026-08-31T08:05:43Z</time>
      </trkpt>
      <trkpt lat="44.32656" lon="4.83576">
        <ele>87.62</ele>
        <time>2026-08-31T08:05:53Z</time>
      </trkpt>
      <trkpt lat="44.32677" lon="4.83547">
        <ele>87.08</ele>
        <time>2026-08-31T08:06:03Z</time>
      </trkpt>
      <trkpt lat="44.32701" lon="4.83503">
        <ele>86.62</ele>
        <time>2026-08-31T08:06:14Z</time>
      </trkpt>
      <trkpt lat="44.32717" lon="4.83476">
        <ele>86.17</ele>
        <time>2026-08-31T08:06:21Z</time>
      </trkpt>
      <trkpt lat="44.32717" lon="4.83472">
        <ele>86.02</ele>
        <time>2026-08-31T08:06:22Z</time>
      </trkpt>
      <trkpt lat="44.32718" lon="4.83469">
        <ele>85.9</ele>
        <time>2026-08-31T08:06:23Z</time>
      </trkpt>
      <trkpt lat="44.32718" lon="4.83465">
        <ele>85.9</ele>
        <time>2026-08-31T08:06:24Z</time>
      </trkpt>
      <trkpt lat="44.32719" lon="4.83461">
        <ele>85.76</ele>
        <time>2026-08-31T08:06:25Z</time>
      </trkpt>
      <trkpt lat="44.32726" lon="4.83437">
        <ele>85.68</ele>
        <time>2026-08-31T08:06:32Z</time>
      </trkpt>
      <trkpt lat="44.32728" lon="4.83433">
        <ele>85.89</ele>
        <time>2026-08-31T08:06:33Z</time>
      </trkpt>
      <trkpt lat="44.32731" lon="4.83429">
        <ele>85.93</ele>
        <time>2026-08-31T08:06:34Z</time>
      </trkpt>
      <trkpt lat="44.32733" lon="4.83426">
        <ele>86.11</ele>
        <time>2026-08-31T08:06:35Z</time>
      </trkpt>
      <trkpt lat="44.32735" lon="4.83423">
        <ele>86.12</ele>
        <time>2026-08-31T08:06:36Z</time>
      </trkpt>
      <trkpt lat="44.32741" lon="4.83416">
        <ele>85.94</ele>
        <time>2026-08-31T08:06:40Z</time>
      </trkpt>
      <trkpt lat="44.32742" lon="4.83413">
        <ele>85.66</ele>
        <time>2026-08-31T08:06:41Z</time>
      </trkpt>
      <trkpt lat="44.32758" lon="4.83395">
        <ele>85.64</ele>
        <time>2026-08-31T08:06:49Z</time>
      </trkpt>
      <trkpt lat="44.32769" lon="4.83381">
        <ele>85.76</ele>
        <time>2026-08-31T08:06:53Z</time>
      </trkpt>
      <trkpt lat="44.32774" lon="4.83377">
        <ele>85.88</ele>
        <time>2026-08-31T08:06:55Z</time>
      </trkpt>
      <trkpt lat="44.32777" lon="4.83376">
        <ele>86.01</ele>
        <time>2026-08-31T08:06:56Z</time>
      </trkpt>
      <trkpt lat="44.32779" lon="4.83372">
        <ele>85.88</ele>
        <time>2026-08-31T08:06:57Z</time>
      </trkpt>
      <trkpt lat="44.32792" lon="4.83359">
        <ele>85.36</ele>
        <time>2026-08-31T08:07:01Z</time>
      </trkpt>
      <trkpt lat="44.32794" lon="4.83355">
        <ele>85.59</ele>
        <time>2026-08-31T08:07:02Z</time>
      </trkpt>
      <trkpt lat="44.32795" lon="4.83351">
        <ele>85.45</ele>
        <time>2026-08-31T08:07:03Z</time>
      </trkpt>
      <trkpt lat="44.32798" lon="4.83347">
        <ele>85.44</ele>
        <time>2026-08-31T08:07:04Z</time>
      </trkpt>
      <trkpt lat="44.328" lon="4.83343">
        <ele>85.3</ele>
        <time>2026-08-31T08:07:05Z</time>
      </trkpt>
      <trkpt lat="44.32802" lon="4.8334">
        <ele>85.06</ele>
        <time>2026-08-31T08:07:06Z</time>
      </trkpt>
      <trkpt lat="44.32805" lon="4.83336">
        <ele>85.13</ele>
        <time>2026-08-31T08:07:07Z</time>
      </trkpt>
      <trkpt lat="44.32825" lon="4.83317">
        <ele>84.98</ele>
        <time>2026-08-31T08:07:15Z</time>
      </trkpt>
      <trkpt lat="44.32827" lon="4.83316">
        <ele>84.82</ele>
        <time>2026-08-31T08:07:16Z</time>
      </trkpt>
      <trkpt lat="44.32831" lon="4.83316">
        <ele>84.98</ele>
        <time>2026-08-31T08:07:17Z</time>
      </trkpt>
      <trkpt lat="44.32833" lon="4.83316">
        <ele>85.17</ele>
        <time>2026-08-31T08:07:18Z</time>
      </trkpt>
      <trkpt lat="44.32836" lon="4.83315">
        <ele>85.2</ele>
        <time>2026-08-31T08:07:19Z</time>
      </trkpt>
      <trkpt lat="44.32839" lon="4.83314">
        <ele>85.23</ele>
        <time>2026-08-31T08:07:20Z</time>
      </trkpt>
      <trkpt lat="44.32842" lon="4.83313">
        <ele>85.17</ele>
        <time>2026-08-31T08:07:21Z</time>
      </trkpt>
      <trkpt lat="44.32844" lon="4.83311">
        <ele>85.23</ele>
        <time>2026-08-31T08:07:22Z</time>
      </trkpt>
      <trkpt lat="44.32847" lon="4.8331">
        <ele>85.26</ele>
        <time>2026-08-31T08:07:23Z</time>
      </trkpt>
      <trkpt lat="44.32849" lon="4.83308">
        <ele>85.32</ele>
        <time>2026-08-31T08:07:24Z</time>
      </trkpt>
      <trkpt lat="44.32854" lon="4.83305">
        <ele>85.28</ele>
        <time>2026-08-31T08:07:26Z</time>
      </trkpt>
      <trkpt lat="44.32856" lon="4.83304">
        <ele>85.34</ele>
        <time>2026-08-31T08:07:27Z</time>
      </trkpt>
      <trkpt lat="44.32857" lon="4.83303">
        <ele>85.51</ele>
        <time>2026-08-31T08:07:28Z</time>
      </trkpt>
      <trkpt lat="44.3286" lon="4.83302">
        <ele>85.61</ele>
        <time>2026-08-31T08:07:29Z</time>
      </trkpt>
      <trkpt lat="44.32863" lon="4.83301">
        <ele>85.8</ele>
        <time>2026-08-31T08:07:30Z</time>
      </trkpt>
      <trkpt lat="44.32865" lon="4.833">
        <ele>85.82</ele>
        <time>2026-08-31T08:07:31Z</time>
      </trkpt>
      <trkpt lat="44.32868" lon="4.83299">
        <ele>86</ele>
        <time>2026-08-31T08:07:32Z</time>
      </trkpt>
      <trkpt lat="44.32871" lon="4.83297">
        <ele>86.09</ele>
        <time>2026-08-31T08:07:33Z</time>
      </trkpt>
      <trkpt lat="44.32875" lon="4.83296">
        <ele>86.54</ele>
        <time>2026-08-31T08:07:34Z</time>
      </trkpt>
      <trkpt lat="44.32878" lon="4.83296">
        <ele>86.63</ele>
        <time>2026-08-31T08:07:35Z</time>
      </trkpt>
      <trkpt lat="44.32881" lon="4.83298">
        <ele>86.83</ele>
        <time>2026-08-31T08:07:36Z</time>
      </trkpt>
      <trkpt lat="44.32883" lon="4.833">
        <ele>87.07</ele>
        <time>2026-08-31T08:07:37Z</time>
      </trkpt>
      <trkpt lat="44.32885" lon="4.83302">
        <ele>87.14</ele>
        <time>2026-08-31T08:07:38Z</time>
      </trkpt>
      <trkpt lat="44.32885" lon="4.83304">
        <ele>87.34</ele>
        <time>2026-08-31T08:07:39Z</time>
      </trkpt>
      <trkpt lat="44.32888" lon="4.83302">
        <ele>87.21</ele>
        <time>2026-08-31T08:07:55Z</time>
      </trkpt>
      <trkpt lat="44.32875" lon="4.8334">
        <ele>88.35</ele>
        <time>2026-08-31T08:08:06Z</time>
      </trkpt>
      <trkpt lat="44.32847" lon="4.83388">
        <ele>88.73</ele>
        <time>2026-08-31T08:08:20Z</time>
      </trkpt>
      <trkpt lat="44.32817" lon="4.83433">
        <ele>89.19</ele>
        <time>2026-08-31T08:08:32Z</time>
      </trkpt>
      <trkpt lat="44.32785" lon="4.83483">
        <ele>90.32</ele>
        <time>2026-08-31T08:08:46Z</time>
      </trkpt>
      <trkpt lat="44.32756" lon="4.83524">
        <ele>91.96</ele>
        <time>2026-08-31T08:08:59Z</time>
      </trkpt>
      <trkpt lat="44.32738" lon="4.8357">
        <ele>94.06</ele>
        <time>2026-08-31T08:09:12Z</time>
      </trkpt>
      <trkpt lat="44.32725" lon="4.83617">
        <ele>95.62</ele>
        <time>2026-08-31T08:09:26Z</time>
      </trkpt>
      <trkpt lat="44.32727" lon="4.83669">
        <ele>97.21</ele>
        <time>2026-08-31T08:09:40Z</time>
      </trkpt>
      <trkpt lat="44.32729" lon="4.83687">
        <ele>97.67</ele>
        <time>2026-08-31T08:09:45Z</time>
      </trkpt>
      <trkpt lat="44.3273" lon="4.8369">
        <ele>98.03</ele>
        <time>2026-08-31T08:09:46Z</time>
      </trkpt>
      <trkpt lat="44.32733" lon="4.83692">
        <ele>98.16</ele>
        <time>2026-08-31T08:09:47Z</time>
      </trkpt>
      <trkpt lat="44.32735" lon="4.83694">
        <ele>98.75</ele>
        <time>2026-08-31T08:09:48Z</time>
      </trkpt>
      <trkpt lat="44.32737" lon="4.83697">
        <ele>99.1</ele>
        <time>2026-08-31T08:09:49Z</time>
      </trkpt>
      <trkpt lat="44.32738" lon="4.837">
        <ele>99.69</ele>
        <time>2026-08-31T08:09:50Z</time>
      </trkpt>
      <trkpt lat="44.32739" lon="4.83703">
        <ele>100.18</ele>
        <time>2026-08-31T08:09:51Z</time>
      </trkpt>
      <trkpt lat="44.32741" lon="4.83706">
        <ele>100.42</ele>
        <time>2026-08-31T08:09:52Z</time>
      </trkpt>
      <trkpt lat="44.32742" lon="4.83709">
        <ele>100.79</ele>
        <time>2026-08-31T08:09:53Z</time>
      </trkpt>
      <trkpt lat="44.32744" lon="4.83711">
        <ele>101.12</ele>
        <time>2026-08-31T08:09:54Z</time>
      </trkpt>
      <trkpt lat="44.32746" lon="4.83713">
        <ele>101.52</ele>
        <time>2026-08-31T08:09:55Z</time>
      </trkpt>
      <trkpt lat="44.32749" lon="4.83714">
        <ele>102.03</ele>
        <time>2026-08-31T08:09:56Z</time>
      </trkpt>
      <trkpt lat="44.32757" lon="4.83715">
        <ele>103.17</ele>
        <time>2026-08-31T08:10:05Z</time>
      </trkpt>
      <trkpt lat="44.32758" lon="4.83713">
        <ele>103.27</ele>
        <time>2026-08-31T08:10:12Z</time>
      </trkpt>
      <trkpt lat="44.3276" lon="4.83711">
        <ele>103.35</ele>
        <time>2026-08-31T08:10:13Z</time>
      </trkpt>
      <trkpt lat="44.32761" lon="4.83708">
        <ele>103.49</ele>
        <time>2026-08-31T08:10:14Z</time>
      </trkpt>
      <trkpt lat="44.32765" lon="4.837">
        <ele>103.64</ele>
        <time>2026-08-31T08:10:17Z</time>
      </trkpt>
      <trkpt lat="44.32766" lon="4.83696">
        <ele>103.69</ele>
        <time>2026-08-31T08:10:18Z</time>
      </trkpt>
      <trkpt lat="44.32767" lon="4.83693">
        <ele>104.04</ele>
        <time>2026-08-31T08:10:19Z</time>
      </trkpt>
      <trkpt lat="44.32787" lon="4.83674">
        <ele>104.75</ele>
        <time>2026-08-31T08:10:29Z</time>
      </trkpt>
      <trkpt lat="44.3279" lon="4.83672">
        <ele>104.87</ele>
        <time>2026-08-31T08:10:30Z</time>
      </trkpt>
      <trkpt lat="44.3282" lon="4.83655">
        <ele>105.81</ele>
        <time>2026-08-31T08:10:43Z</time>
      </trkpt>
      <trkpt lat="44.32846" lon="4.83626">
        <ele>106.69</ele>
        <time>2026-08-31T08:10:54Z</time>
      </trkpt>
      <trkpt lat="44.32894" lon="4.83583">
        <ele>107.7</ele>
        <time>2026-08-31T08:11:11Z</time>
      </trkpt>
      <trkpt lat="44.32924" lon="4.83549">
        <ele>108.9</ele>
        <time>2026-08-31T08:11:25Z</time>
      </trkpt>
      <trkpt lat="44.32929" lon="4.83546">
        <ele>109.3</ele>
        <time>2026-08-31T08:11:28Z</time>
      </trkpt>
      <trkpt lat="44.3293" lon="4.83544">
        <ele>109.5</ele>
        <time>2026-08-31T08:11:29Z</time>
      </trkpt>
      <trkpt lat="44.32931" lon="4.83541">
        <ele>109.56</ele>
        <time>2026-08-31T08:11:30Z</time>
      </trkpt>
      <trkpt lat="44.32932" lon="4.83539">
        <ele>109.89</ele>
        <time>2026-08-31T08:11:31Z</time>
      </trkpt>
      <trkpt lat="44.32934" lon="4.83537">
        <ele>110.13</ele>
        <time>2026-08-31T08:11:32Z</time>
      </trkpt>
      <trkpt lat="44.32939" lon="4.83532">
        <ele>110.15</ele>
        <time>2026-08-31T08:11:35Z</time>
      </trkpt>
      <trkpt lat="44.3294" lon="4.83529">
        <ele>110.3</ele>
        <time>2026-08-31T08:11:36Z</time>
      </trkpt>
      <trkpt lat="44.3294" lon="4.83526">
        <ele>110.42</ele>
        <time>2026-08-31T08:11:37Z</time>
      </trkpt>
      <trkpt lat="44.32941" lon="4.83523">
        <ele>110.65</ele>
        <time>2026-08-31T08:11:38Z</time>
      </trkpt>
      <trkpt lat="44.32942" lon="4.83519">
        <ele>110.68</ele>
        <time>2026-08-31T08:11:39Z</time>
      </trkpt>
      <trkpt lat="44.32943" lon="4.83516">
        <ele>110.81</ele>
        <time>2026-08-31T08:11:40Z</time>
      </trkpt>
      <trkpt lat="44.32944" lon="4.83513">
        <ele>110.82</ele>
        <time>2026-08-31T08:11:41Z</time>
      </trkpt>
      <trkpt lat="44.32945" lon="4.8351">
        <ele>110.8</ele>
        <time>2026-08-31T08:11:42Z</time>
      </trkpt>
      <trkpt lat="44.32946" lon="4.83507">
        <ele>111.03</ele>
        <time>2026-08-31T08:11:43Z</time>
      </trkpt>
      <trkpt lat="44.32946" lon="4.83504">
        <ele>111.05</ele>
        <time>2026-08-31T08:11:44Z</time>
      </trkpt>
      <trkpt lat="44.32961" lon="4.83475">
        <ele>112.16</ele>
        <time>2026-08-31T08:11:54Z</time>
      </trkpt>
      <trkpt lat="44.32962" lon="4.83471">
        <ele>112.4</ele>
        <time>2026-08-31T08:11:55Z</time>
      </trkpt>
      <trkpt lat="44.32963" lon="4.83468">
        <ele>112.65</ele>
        <time>2026-08-31T08:11:56Z</time>
      </trkpt>
      <trkpt lat="44.32964" lon="4.83464">
        <ele>112.69</ele>
        <time>2026-08-31T08:11:57Z</time>
      </trkpt>
      <trkpt lat="44.32964" lon="4.83461">
        <ele>112.95</ele>
        <time>2026-08-31T08:11:58Z</time>
      </trkpt>
      <trkpt lat="44.32966" lon="4.83451">
        <ele>113.1</ele>
        <time>2026-08-31T08:12:01Z</time>
      </trkpt>
      <trkpt lat="44.32968" lon="4.83448">
        <ele>113.25</ele>
        <time>2026-08-31T08:12:02Z</time>
      </trkpt>
      <trkpt lat="44.3297" lon="4.83446">
        <ele>113.3</ele>
        <time>2026-08-31T08:12:03Z</time>
      </trkpt>
      <trkpt lat="44.32972" lon="4.83443">
        <ele>113.49</ele>
        <time>2026-08-31T08:12:04Z</time>
      </trkpt>
      <trkpt lat="44.32973" lon="4.83441">
        <ele>113.67</ele>
        <time>2026-08-31T08:12:05Z</time>
      </trkpt>
      <trkpt lat="44.32974" lon="4.83438">
        <ele>114.07</ele>
        <time>2026-08-31T08:12:06Z</time>
      </trkpt>
      <trkpt lat="44.32975" lon="4.83435">
        <ele>114.27</ele>
        <time>2026-08-31T08:12:07Z</time>
      </trkpt>
      <trkpt lat="44.32976" lon="4.83432">
        <ele>114.63</ele>
        <time>2026-08-31T08:12:08Z</time>
      </trkpt>
      <trkpt lat="44.32972" lon="4.83401">
        <ele>115.47</ele>
        <time>2026-08-31T08:12:18Z</time>
      </trkpt>
      <trkpt lat="44.32975" lon="4.83379">
        <ele>116.12</ele>
        <time>2026-08-31T08:12:25Z</time>
      </trkpt>
      <trkpt lat="44.32997" lon="4.83335">
        <ele>117.81</ele>
        <time>2026-08-31T08:12:40Z</time>
      </trkpt>
      <trkpt lat="44.33018" lon="4.83294">
        <ele>118.82</ele>
        <time>2026-08-31T08:12:54Z</time>
      </trkpt>
      <trkpt lat="44.33049" lon="4.83246">
        <ele>119.16</ele>
        <time>2026-08-31T08:13:08Z</time>
      </trkpt>
      <trkpt lat="44.33065" lon="4.83204">
        <ele>120.05</ele>
        <time>2026-08-31T08:13:18Z</time>
      </trkpt>
      <trkpt lat="44.33065" lon="4.83152">
        <ele>120.75</ele>
        <time>2026-08-31T08:13:30Z</time>
      </trkpt>
      <trkpt lat="44.33076" lon="4.8312">
        <ele>121.59</ele>
        <time>2026-08-31T08:13:40Z</time>
      </trkpt>
      <trkpt lat="44.33095" lon="4.83092">
        <ele>121.63</ele>
        <time>2026-08-31T08:13:51Z</time>
      </trkpt>
      <trkpt lat="44.33096" lon="4.83089">
        <ele>121.71</ele>
        <time>2026-08-31T08:13:52Z</time>
      </trkpt>
      <trkpt lat="44.33115" lon="4.83032">
        <ele>122.19</ele>
        <time>2026-08-31T08:14:06Z</time>
      </trkpt>
      <trkpt lat="44.33129" lon="4.82983">
        <ele>122.16</ele>
        <time>2026-08-31T08:14:17Z</time>
      </trkpt>
      <trkpt lat="44.33141" lon="4.82928">
        <ele>122.2</ele>
        <time>2026-08-31T08:14:29Z</time>
      </trkpt>
      <trkpt lat="44.33158" lon="4.82869">
        <ele>121.7</ele>
        <time>2026-08-31T08:14:42Z</time>
      </trkpt>
      <trkpt lat="44.33173" lon="4.82817">
        <ele>120.71</ele>
        <time>2026-08-31T08:14:53Z</time>
      </trkpt>
      <trkpt lat="44.3318" lon="4.82799">
        <ele>120.48</ele>
        <time>2026-08-31T08:14:58Z</time>
      </trkpt>
      <trkpt lat="44.33182" lon="4.82797">
        <ele>120.3</ele>
        <time>2026-08-31T08:14:59Z</time>
      </trkpt>
      <trkpt lat="44.33185" lon="4.82795">
        <ele>120.09</ele>
        <time>2026-08-31T08:15:01Z</time>
      </trkpt>
      <trkpt lat="44.33187" lon="4.82792">
        <ele>120.01</ele>
        <time>2026-08-31T08:15:02Z</time>
      </trkpt>
      <trkpt lat="44.33187" lon="4.8279">
        <ele>119.84</ele>
        <time>2026-08-31T08:15:03Z</time>
      </trkpt>
      <trkpt lat="44.33186" lon="4.82788">
        <ele>119.76</ele>
        <time>2026-08-31T08:15:04Z</time>
      </trkpt>
      <trkpt lat="44.33186" lon="4.82785">
        <ele>119.84</ele>
        <time>2026-08-31T08:15:05Z</time>
      </trkpt>
      <trkpt lat="44.33186" lon="4.82782">
        <ele>119.69</ele>
        <time>2026-08-31T08:15:06Z</time>
      </trkpt>
      <trkpt lat="44.33187" lon="4.82779">
        <ele>119.72</ele>
        <time>2026-08-31T08:15:07Z</time>
      </trkpt>
      <trkpt lat="44.33188" lon="4.82775">
        <ele>119.74</ele>
        <time>2026-08-31T08:15:08Z</time>
      </trkpt>
      <trkpt lat="44.33189" lon="4.8277">
        <ele>119.49</ele>
        <time>2026-08-31T08:15:09Z</time>
      </trkpt>
      <trkpt lat="44.33189" lon="4.82765">
        <ele>119.28</ele>
        <time>2026-08-31T08:15:10Z</time>
      </trkpt>
      <trkpt lat="44.33191" lon="4.82761">
        <ele>119.13</ele>
        <time>2026-08-31T08:15:11Z</time>
      </trkpt>
      <trkpt lat="44.33193" lon="4.82757">
        <ele>118.99</ele>
        <time>2026-08-31T08:15:12Z</time>
      </trkpt>
      <trkpt lat="44.33194" lon="4.82752">
        <ele>119.03</ele>
        <time>2026-08-31T08:15:13Z</time>
      </trkpt>
      <trkpt lat="44.33195" lon="4.82748">
        <ele>118.81</ele>
        <time>2026-08-31T08:15:14Z</time>
      </trkpt>
      <trkpt lat="44.33196" lon="4.82744">
        <ele>118.79</ele>
        <time>2026-08-31T08:15:15Z</time>
      </trkpt>
      <trkpt lat="44.33197" lon="4.8274">
        <ele>118.66</ele>
        <time>2026-08-31T08:15:16Z</time>
      </trkpt>
      <trkpt lat="44.332" lon="4.82699">
        <ele>117.83</ele>
        <time>2026-08-31T08:15:25Z</time>
      </trkpt>
      <trkpt lat="44.33201" lon="4.82695">
        <ele>117.44</ele>
        <time>2026-08-31T08:15:26Z</time>
      </trkpt>
      <trkpt lat="44.33202" lon="4.82691">
        <ele>117.41</ele>
        <time>2026-08-31T08:15:27Z</time>
      </trkpt>
      <trkpt lat="44.33204" lon="4.82687">
        <ele>117.44</ele>
        <time>2026-08-31T08:15:28Z</time>
      </trkpt>
      <trkpt lat="44.33204" lon="4.82682">
        <ele>117.32</ele>
        <time>2026-08-31T08:15:29Z</time>
      </trkpt>
      <trkpt lat="44.33205" lon="4.82677">
        <ele>116.77</ele>
        <time>2026-08-31T08:15:30Z</time>
      </trkpt>
      <trkpt lat="44.33204" lon="4.82673">
        <ele>116.67</ele>
        <time>2026-08-31T08:15:31Z</time>
      </trkpt>
      <trkpt lat="44.33204" lon="4.8267">
        <ele>116.53</ele>
        <time>2026-08-31T08:15:32Z</time>
      </trkpt>
      <trkpt lat="44.33204" lon="4.82666">
        <ele>116.81</ele>
        <time>2026-08-31T08:15:33Z</time>
      </trkpt>
      <trkpt lat="44.33206" lon="4.82663">
        <ele>116.76</ele>
        <time>2026-08-31T08:15:34Z</time>
      </trkpt>
      <trkpt lat="44.33207" lon="4.8266">
        <ele>116.67</ele>
        <time>2026-08-31T08:15:35Z</time>
      </trkpt>
      <trkpt lat="44.33209" lon="4.82657">
        <ele>116.36</ele>
        <time>2026-08-31T08:15:36Z</time>
      </trkpt>
      <trkpt lat="44.33209" lon="4.82653">
        <ele>116.28</ele>
        <time>2026-08-31T08:15:37Z</time>
      </trkpt>
      <trkpt lat="44.33209" lon="4.82649">
        <ele>116.11</ele>
        <time>2026-08-31T08:15:38Z</time>
      </trkpt>
      <trkpt lat="44.33209" lon="4.82644">
        <ele>115.84</ele>
        <time>2026-08-31T08:15:39Z</time>
      </trkpt>
      <trkpt lat="44.33209" lon="4.82602">
        <ele>114.9</ele>
        <time>2026-08-31T08:15:47Z</time>
      </trkpt>
      <trkpt lat="44.33215" lon="4.82538">
        <ele>112.92</ele>
        <time>2026-08-31T08:16:00Z</time>
      </trkpt>
      <trkpt lat="44.33216" lon="4.82529">
        <ele>112.39</ele>
        <time>2026-08-31T08:16:02Z</time>
      </trkpt>
      <trkpt lat="44.33218" lon="4.82525">
        <ele>112.03</ele>
        <time>2026-08-31T08:16:03Z</time>
      </trkpt>
      <trkpt lat="44.3322" lon="4.82521">
        <ele>111.97</ele>
        <time>2026-08-31T08:16:04Z</time>
      </trkpt>
      <trkpt lat="44.33222" lon="4.82516">
        <ele>111.71</ele>
        <time>2026-08-31T08:16:05Z</time>
      </trkpt>
      <trkpt lat="44.33225" lon="4.82512">
        <ele>111.35</ele>
        <time>2026-08-31T08:16:06Z</time>
      </trkpt>
      <trkpt lat="44.33228" lon="4.82508">
        <ele>111.13</ele>
        <time>2026-08-31T08:16:07Z</time>
      </trkpt>
      <trkpt lat="44.33231" lon="4.82504">
        <ele>111.05</ele>
        <time>2026-08-31T08:16:08Z</time>
      </trkpt>
      <trkpt lat="44.33234" lon="4.825">
        <ele>111.03</ele>
        <time>2026-08-31T08:16:09Z</time>
      </trkpt>
      <trkpt lat="44.33237" lon="4.82498">
        <ele>110.99</ele>
        <time>2026-08-31T08:16:10Z</time>
      </trkpt>
      <trkpt lat="44.3324" lon="4.82496">
        <ele>110.9</ele>
        <time>2026-08-31T08:16:11Z</time>
      </trkpt>
      <trkpt lat="44.33264" lon="4.82484">
        <ele>110.73</ele>
        <time>2026-08-31T08:16:20Z</time>
      </trkpt>
      <trkpt lat="44.33278" lon="4.82442">
        <ele>109.81</ele>
        <time>2026-08-31T08:16:29Z</time>
      </trkpt>
      <trkpt lat="44.33283" lon="4.82422">
        <ele>108.82</ele>
        <time>2026-08-31T08:16:32Z</time>
      </trkpt>
      <trkpt lat="44.33284" lon="4.82415">
        <ele>108.63</ele>
        <time>2026-08-31T08:16:33Z</time>
      </trkpt>
      <trkpt lat="44.33283" lon="4.82407">
        <ele>108.12</ele>
        <time>2026-08-31T08:16:34Z</time>
      </trkpt>
      <trkpt lat="44.33282" lon="4.824">
        <ele>107.64</ele>
        <time>2026-08-31T08:16:35Z</time>
      </trkpt>
      <trkpt lat="44.33281" lon="4.82394">
        <ele>107.04</ele>
        <time>2026-08-31T08:16:36Z</time>
      </trkpt>
      <trkpt lat="44.33282" lon="4.82389">
        <ele>106.34</ele>
        <time>2026-08-31T08:16:37Z</time>
      </trkpt>
      <trkpt lat="44.33282" lon="4.82385">
        <ele>106.02</ele>
        <time>2026-08-31T08:16:38Z</time>
      </trkpt>
      <trkpt lat="44.33283" lon="4.82382">
        <ele>105.67</ele>
        <time>2026-08-31T08:16:39Z</time>
      </trkpt>
      <trkpt lat="44.33284" lon="4.82379">
        <ele>105.23</ele>
        <time>2026-08-31T08:16:40Z</time>
      </trkpt>
      <trkpt lat="44.33287" lon="4.82378">
        <ele>104.82</ele>
        <time>2026-08-31T08:16:41Z</time>
      </trkpt>
      <trkpt lat="44.3331" lon="4.82385">
        <ele>105.79</ele>
        <time>2026-08-31T08:16:50Z</time>
      </trkpt>
      <trkpt lat="44.33339" lon="4.824">
        <ele>107.21</ele>
        <time>2026-08-31T08:17:02Z</time>
      </trkpt>
      <trkpt lat="44.33342" lon="4.824">
        <ele>106.88</ele>
        <time>2026-08-31T08:17:11Z</time>
      </trkpt>
      <trkpt lat="44.33349" lon="4.82403">
        <ele>107.7</ele>
        <time>2026-08-31T08:17:37Z</time>
      </trkpt>
      <trkpt lat="44.33352" lon="4.82404">
        <ele>108.1</ele>
        <time>2026-08-31T08:17:38Z</time>
      </trkpt>
      <trkpt lat="44.33391" lon="4.82412">
        <ele>110.09</ele>
        <time>2026-08-31T08:17:52Z</time>
      </trkpt>
      <trkpt lat="44.33431" lon="4.82446">
        <ele>110.32</ele>
        <time>2026-08-31T08:18:05Z</time>
      </trkpt>
      <trkpt lat="44.33448" lon="4.82461">
        <ele>109.54</ele>
        <time>2026-08-31T08:18:09Z</time>
      </trkpt>
      <trkpt lat="44.33458" lon="4.82468">
        <ele>108.6</ele>
        <time>2026-08-31T08:18:11Z</time>
      </trkpt>
      <trkpt lat="44.33483" lon="4.82488">
        <ele>107.4</ele>
        <time>2026-08-31T08:18:16Z</time>
      </trkpt>
      <trkpt lat="44.33492" lon="4.82496">
        <ele>106.76</ele>
        <time>2026-08-31T08:18:18Z</time>
      </trkpt>
      <trkpt lat="44.33496" lon="4.825">
        <ele>106.7</ele>
        <time>2026-08-31T08:18:19Z</time>
      </trkpt>
      <trkpt lat="44.33501" lon="4.82504">
        <ele>106.39</ele>
        <time>2026-08-31T08:18:20Z</time>
      </trkpt>
      <trkpt lat="44.33515" lon="4.82513">
        <ele>105.96</ele>
        <time>2026-08-31T08:18:23Z</time>
      </trkpt>
      <trkpt lat="44.33559" lon="4.82543">
        <ele>105.97</ele>
        <time>2026-08-31T08:18:35Z</time>
      </trkpt>
      <trkpt lat="44.33587" lon="4.82551">
        <ele>107.52</ele>
        <time>2026-08-31T08:18:45Z</time>
      </trkpt>
      <trkpt lat="44.33596" lon="4.82553">
        <ele>107.06</ele>
        <time>2026-08-31T08:18:48Z</time>
      </trkpt>
      <trkpt lat="44.33614" lon="4.82569">
        <ele>105.19</ele>
        <time>2026-08-31T08:18:53Z</time>
      </trkpt>
      <trkpt lat="44.33619" lon="4.82571">
        <ele>105.22</ele>
        <time>2026-08-31T08:18:54Z</time>
      </trkpt>
      <trkpt lat="44.33645" lon="4.8258">
        <ele>103.62</ele>
        <time>2026-08-31T08:19:00Z</time>
      </trkpt>
      <trkpt lat="44.33649" lon="4.8258">
        <ele>103.19</ele>
        <time>2026-08-31T08:19:01Z</time>
      </trkpt>
      <trkpt lat="44.33651" lon="4.82579">
        <ele>102.91</ele>
        <time>2026-08-31T08:19:02Z</time>
      </trkpt>
      <trkpt lat="44.33651" lon="4.82577">
        <ele>102.7</ele>
        <time>2026-08-31T08:19:03Z</time>
      </trkpt>
      <trkpt lat="44.33656" lon="4.82574">
        <ele>102.44</ele>
        <time>2026-08-31T08:19:13Z</time>
      </trkpt>
      <trkpt lat="44.33657" lon="4.82572">
        <ele>102.33</ele>
        <time>2026-08-31T08:19:14Z</time>
      </trkpt>
      <trkpt lat="44.33659" lon="4.8257">
        <ele>102.31</ele>
        <time>2026-08-31T08:19:15Z</time>
      </trkpt>
      <trkpt lat="44.33661" lon="4.82569">
        <ele>102.22</ele>
        <time>2026-08-31T08:19:16Z</time>
      </trkpt>
      <trkpt lat="44.33664" lon="4.82569">
        <ele>102.25</ele>
        <time>2026-08-31T08:19:17Z</time>
      </trkpt>
      <trkpt lat="44.33666" lon="4.82569">
        <ele>102.29</ele>
        <time>2026-08-31T08:19:18Z</time>
      </trkpt>
      <trkpt lat="44.33669" lon="4.8257">
        <ele>102.48</ele>
        <time>2026-08-31T08:19:19Z</time>
      </trkpt>
      <trkpt lat="44.33671" lon="4.82571">
        <ele>101.12</ele>
        <time>2026-08-31T08:19:20Z</time>
      </trkpt>
      <trkpt lat="44.33673" lon="4.82573">
        <ele>101.13</ele>
        <time>2026-08-31T08:19:21Z</time>
      </trkpt>
      <trkpt lat="44.33687" lon="4.82582">
        <ele>103.57</ele>
        <time>2026-08-31T08:19:26Z</time>
      </trkpt>
      <trkpt lat="44.33719" lon="4.826">
        <ele>105.72</ele>
        <time>2026-08-31T08:19:38Z</time>
      </trkpt>
      <trkpt lat="44.33739" lon="4.82618">
        <ele>105.15</ele>
        <time>2026-08-31T08:19:47Z</time>
      </trkpt>
      <trkpt lat="44.33739" lon="4.82621">
        <ele>105.11</ele>
        <time>2026-08-31T08:19:48Z</time>
      </trkpt>
      <trkpt lat="44.33739" lon="4.82625">
        <ele>105.16</ele>
        <time>2026-08-31T08:19:49Z</time>
      </trkpt>
      <trkpt lat="44.33738" lon="4.82628">
        <ele>105.34</ele>
        <time>2026-08-31T08:19:50Z</time>
      </trkpt>
      <trkpt lat="44.33737" lon="4.82631">
        <ele>104.92</ele>
        <time>2026-08-31T08:20:00Z</time>
      </trkpt>
      <trkpt lat="44.33741" lon="4.82634">
        <ele>104.92</ele>
        <time>2026-08-31T08:20:07Z</time>
      </trkpt>
      <trkpt lat="44.33743" lon="4.82634">
        <ele>104.81</ele>
        <time>2026-08-31T08:20:08Z</time>
      </trkpt>
      <trkpt lat="44.33746" lon="4.82635">
        <ele>104.78</ele>
        <time>2026-08-31T08:20:09Z</time>
      </trkpt>
      <trkpt lat="44.33748" lon="4.82636">
        <ele>104.59</ele>
        <time>2026-08-31T08:20:10Z</time>
      </trkpt>
      <trkpt lat="44.33749" lon="4.82641">
        <ele>104.68</ele>
        <time>2026-08-31T08:20:12Z</time>
      </trkpt>
      <trkpt lat="44.33748" lon="4.82643">
        <ele>104.81</ele>
        <time>2026-08-31T08:20:13Z</time>
      </trkpt>
      <trkpt lat="44.33746" lon="4.82645">
        <ele>105.05</ele>
        <time>2026-08-31T08:20:14Z</time>
      </trkpt>
      <trkpt lat="44.33746" lon="4.82648">
        <ele>105.09</ele>
        <time>2026-08-31T08:20:15Z</time>
      </trkpt>
      <trkpt lat="44.33745" lon="4.82651">
        <ele>105.29</ele>
        <time>2026-08-31T08:20:16Z</time>
      </trkpt>
      <trkpt lat="44.33745" lon="4.82654">
        <ele>105.46</ele>
        <time>2026-08-31T08:20:17Z</time>
      </trkpt>
      <trkpt lat="44.33744" lon="4.82656">
        <ele>105.43</ele>
        <time>2026-08-31T08:20:18Z</time>
      </trkpt>
      <trkpt lat="44.33742" lon="4.82656">
        <ele>105.69</ele>
        <time>2026-08-31T08:20:19Z</time>
      </trkpt>
      <trkpt lat="44.33741" lon="4.82654">
        <ele>105.64</ele>
        <time>2026-08-31T08:20:20Z</time>
      </trkpt>
      <trkpt lat="44.33737" lon="4.82652">
        <ele>105.76</ele>
        <time>2026-08-31T08:20:22Z</time>
      </trkpt>
      <trkpt lat="44.33734" lon="4.82651">
        <ele>105.88</ele>
        <time>2026-08-31T08:20:23Z</time>
      </trkpt>
      <trkpt lat="44.33732" lon="4.82651">
        <ele>105.99</ele>
        <time>2026-08-31T08:20:24Z</time>
      </trkpt>
      <trkpt lat="44.3373" lon="4.82652">
        <ele>106.13</ele>
        <time>2026-08-31T08:20:25Z</time>
      </trkpt>
      <trkpt lat="44.3373" lon="4.82655">
        <ele>106.15</ele>
        <time>2026-08-31T08:20:31Z</time>
      </trkpt>
      <trkpt lat="44.3373" lon="4.82657">
        <ele>106.38</ele>
        <time>2026-08-31T08:20:32Z</time>
      </trkpt>
      <trkpt lat="44.33731" lon="4.82661">
        <ele>106.53</ele>
        <time>2026-08-31T08:20:33Z</time>
      </trkpt>
      <trkpt lat="44.33732" lon="4.82664">
        <ele>106.23</ele>
        <time>2026-08-31T08:20:34Z</time>
      </trkpt>
      <trkpt lat="44.33732" lon="4.82668">
        <ele>106.43</ele>
        <time>2026-08-31T08:20:35Z</time>
      </trkpt>
      <trkpt lat="44.33734" lon="4.82671">
        <ele>106.6</ele>
        <time>2026-08-31T08:20:36Z</time>
      </trkpt>
      <trkpt lat="44.33736" lon="4.82674">
        <ele>106.67</ele>
        <time>2026-08-31T08:20:37Z</time>
      </trkpt>
      <trkpt lat="44.33738" lon="4.82676">
        <ele>106.82</ele>
        <time>2026-08-31T08:20:38Z</time>
      </trkpt>
      <trkpt lat="44.33741" lon="4.82678">
        <ele>106.43</ele>
        <time>2026-08-31T08:20:39Z</time>
      </trkpt>
      <trkpt lat="44.33756" lon="4.82686">
        <ele>106.21</ele>
        <time>2026-08-31T08:20:44Z</time>
      </trkpt>
      <trkpt lat="44.33759" lon="4.82683">
        <ele>105.95</ele>
        <time>2026-08-31T08:20:48Z</time>
      </trkpt>
      <trkpt lat="44.33761" lon="4.8268">
        <ele>105.84</ele>
        <time>2026-08-31T08:20:49Z</time>
      </trkpt>
      <trkpt lat="44.33763" lon="4.82676">
        <ele>105.61</ele>
        <time>2026-08-31T08:20:50Z</time>
      </trkpt>
      <trkpt lat="44.33767" lon="4.82666">
        <ele>104.79</ele>
        <time>2026-08-31T08:20:52Z</time>
      </trkpt>
      <trkpt lat="44.33767" lon="4.82661">
        <ele>104.72</ele>
        <time>2026-08-31T08:20:53Z</time>
      </trkpt>
      <trkpt lat="44.33767" lon="4.82655">
        <ele>104.38</ele>
        <time>2026-08-31T08:20:54Z</time>
      </trkpt>
      <trkpt lat="44.33769" lon="4.82651">
        <ele>104.47</ele>
        <time>2026-08-31T08:20:55Z</time>
      </trkpt>
      <trkpt lat="44.33774" lon="4.82653">
        <ele>103.31</ele>
        <time>2026-08-31T08:21:00Z</time>
      </trkpt>
      <trkpt lat="44.33773" lon="4.8266">
        <ele>103.73</ele>
        <time>2026-08-31T08:21:02Z</time>
      </trkpt>
      <trkpt lat="44.33774" lon="4.82663">
        <ele>104.04</ele>
        <time>2026-08-31T08:21:03Z</time>
      </trkpt>
      <trkpt lat="44.33779" lon="4.82672">
        <ele>103.59</ele>
        <time>2026-08-31T08:21:06Z</time>
      </trkpt>
      <trkpt lat="44.33779" lon="4.82674">
        <ele>103.52</ele>
        <time>2026-08-31T08:21:07Z</time>
      </trkpt>
      <trkpt lat="44.33778" lon="4.82676">
        <ele>103.56</ele>
        <time>2026-08-31T08:21:08Z</time>
      </trkpt>
      <trkpt lat="44.33768" lon="4.82687">
        <ele>104.6</ele>
        <time>2026-08-31T08:21:16Z</time>
      </trkpt>
      <trkpt lat="44.33745" lon="4.82707">
        <ele>106.51</ele>
        <time>2026-08-31T08:21:26Z</time>
      </trkpt>
      <trkpt lat="44.33742" lon="4.82712">
        <ele>107</ele>
        <time>2026-08-31T08:21:28Z</time>
      </trkpt>
      <trkpt lat="44.33741" lon="4.82715">
        <ele>107.33</ele>
        <time>2026-08-31T08:21:29Z</time>
      </trkpt>
      <trkpt lat="44.33739" lon="4.82718">
        <ele>107.51</ele>
        <time>2026-08-31T08:21:30Z</time>
      </trkpt>
      <trkpt lat="44.33737" lon="4.82721">
        <ele>107.98</ele>
        <time>2026-08-31T08:21:31Z</time>
      </trkpt>
      <trkpt lat="44.33736" lon="4.82722">
        <ele>108.43</ele>
        <time>2026-08-31T08:21:32Z</time>
      </trkpt>
      <trkpt lat="44.33737" lon="4.82724">
        <ele>108.5</ele>
        <time>2026-08-31T08:21:33Z</time>
      </trkpt>
      <trkpt lat="44.33738" lon="4.82726">
        <ele>108.49</ele>
        <time>2026-08-31T08:21:34Z</time>
      </trkpt>
      <trkpt lat="44.33739" lon="4.82729">
        <ele>108.43</ele>
        <time>2026-08-31T08:21:35Z</time>
      </trkpt>
      <trkpt lat="44.3374" lon="4.82734">
        <ele>108.58</ele>
        <time>2026-08-31T08:21:45Z</time>
      </trkpt>
      <trkpt lat="44.33741" lon="4.82736">
        <ele>108.52</ele>
        <time>2026-08-31T08:21:47Z</time>
      </trkpt>
      <trkpt lat="44.33742" lon="4.82739">
        <ele>108.75</ele>
        <time>2026-08-31T08:21:48Z</time>
      </trkpt>
      <trkpt lat="44.33743" lon="4.82742">
        <ele>108.85</ele>
        <time>2026-08-31T08:21:49Z</time>
      </trkpt>
      <trkpt lat="44.33771" lon="4.82793">
        <ele>108.37</ele>
        <time>2026-08-31T08:22:03Z</time>
      </trkpt>
      <trkpt lat="44.33792" lon="4.82842">
        <ele>108.66</ele>
        <time>2026-08-31T08:22:15Z</time>
      </trkpt>
      <trkpt lat="44.3381" lon="4.82881">
        <ele>109.21</ele>
        <time>2026-08-31T08:22:26Z</time>
      </trkpt>
      <trkpt lat="44.33826" lon="4.82934">
        <ele>110.92</ele>
        <time>2026-08-31T08:22:39Z</time>
      </trkpt>
      <trkpt lat="44.33843" lon="4.82996">
        <ele>111.96</ele>
        <time>2026-08-31T08:22:55Z</time>
      </trkpt>
      <trkpt lat="44.33848" lon="4.83012">
        <ele>111.73</ele>
        <time>2026-08-31T08:23:00Z</time>
      </trkpt>
      <trkpt lat="44.33847" lon="4.83015">
        <ele>111.91</ele>
        <time>2026-08-31T08:23:01Z</time>
      </trkpt>
      <trkpt lat="44.33838" lon="4.83026">
        <ele>115.45</ele>
        <time>2026-08-31T08:23:07Z</time>
      </trkpt>
      <trkpt lat="44.33839" lon="4.83029">
        <ele>115.91</ele>
        <time>2026-08-31T08:23:08Z</time>
      </trkpt>
      <trkpt lat="44.33841" lon="4.83045">
        <ele>116.06</ele>
        <time>2026-08-31T08:23:20Z</time>
      </trkpt>
      <trkpt lat="44.33841" lon="4.83051">
        <ele>116.32</ele>
        <time>2026-08-31T08:23:55Z</time>
      </trkpt>
      <trkpt lat="44.33846" lon="4.8307">
        <ele>116.72</ele>
        <time>2026-08-31T08:24:02Z</time>
      </trkpt>
      <trkpt lat="44.33847" lon="4.83076">
        <ele>116.6</ele>
        <time>2026-08-31T08:24:04Z</time>
      </trkpt>
      <trkpt lat="44.33843" lon="4.83083">
        <ele>118.17</ele>
        <time>2026-08-31T08:24:08Z</time>
      </trkpt>
      <trkpt lat="44.33838" lon="4.83091">
        <ele>120.75</ele>
        <time>2026-08-31T08:24:13Z</time>
      </trkpt>
      <trkpt lat="44.33836" lon="4.8311">
        <ele>122.29</ele>
        <time>2026-08-31T08:24:21Z</time>
      </trkpt>
      <trkpt lat="44.33832" lon="4.83118">
        <ele>123.59</ele>
        <time>2026-08-31T08:24:25Z</time>
      </trkpt>
      <trkpt lat="44.33831" lon="4.83131">
        <ele>125.35</ele>
        <time>2026-08-31T08:24:34Z</time>
      </trkpt>
      <trkpt lat="44.33834" lon="4.83143">
        <ele>123.55</ele>
        <time>2026-08-31T08:24:40Z</time>
      </trkpt>
      <trkpt lat="44.33834" lon="4.83145">
        <ele>123.2</ele>
        <time>2026-08-31T08:24:44Z</time>
      </trkpt>
      <trkpt lat="44.33841" lon="4.83155">
        <ele>122.72</ele>
        <time>2026-08-31T08:24:50Z</time>
      </trkpt>
      <trkpt lat="44.33845" lon="4.83158">
        <ele>121.96</ele>
        <time>2026-08-31T08:24:52Z</time>
      </trkpt>
      <trkpt lat="44.33854" lon="4.83174">
        <ele>120.01</ele>
        <time>2026-08-31T08:24:56Z</time>
      </trkpt>
      <trkpt lat="44.33858" lon="4.83179">
        <ele>119.18</ele>
        <time>2026-08-31T08:24:57Z</time>
      </trkpt>
      <trkpt lat="44.33862" lon="4.83183">
        <ele>118.44</ele>
        <time>2026-08-31T08:24:58Z</time>
      </trkpt>
      <trkpt lat="44.33867" lon="4.8319">
        <ele>117.23</ele>
        <time>2026-08-31T08:25:00Z</time>
      </trkpt>
      <trkpt lat="44.33868" lon="4.83192">
        <ele>117.13</ele>
        <time>2026-08-31T08:25:01Z</time>
      </trkpt>
      <trkpt lat="44.33868" lon="4.83195">
        <ele>117.01</ele>
        <time>2026-08-31T08:25:02Z</time>
      </trkpt>
      <trkpt lat="44.33867" lon="4.83196">
        <ele>117.06</ele>
        <time>2026-08-31T08:25:03Z</time>
      </trkpt>
      <trkpt lat="44.33867" lon="4.83199">
        <ele>117.2</ele>
        <time>2026-08-31T08:25:07Z</time>
      </trkpt>
      <trkpt lat="44.33868" lon="4.83201">
        <ele>117</ele>
        <time>2026-08-31T08:25:08Z</time>
      </trkpt>
      <trkpt lat="44.33868" lon="4.83204">
        <ele>116.91</ele>
        <time>2026-08-31T08:25:09Z</time>
      </trkpt>
      <trkpt lat="44.33869" lon="4.83207">
        <ele>116.91</ele>
        <time>2026-08-31T08:25:10Z</time>
      </trkpt>
      <trkpt lat="44.33869" lon="4.8321">
        <ele>117.7</ele>
        <time>2026-08-31T08:25:21Z</time>
      </trkpt>
      <trkpt lat="44.33869" lon="4.83207">
        <ele>117.43</ele>
        <time>2026-08-31T08:25:31Z</time>
      </trkpt>
      <trkpt lat="44.33871" lon="4.83204">
        <ele>117.15</ele>
        <time>2026-08-31T08:25:33Z</time>
      </trkpt>
      <trkpt lat="44.33873" lon="4.83203">
        <ele>116.84</ele>
        <time>2026-08-31T08:25:34Z</time>
      </trkpt>
      <trkpt lat="44.33876" lon="4.83204">
        <ele>116.56</ele>
        <time>2026-08-31T08:25:35Z</time>
      </trkpt>
      <trkpt lat="44.33878" lon="4.83206">
        <ele>116.13</ele>
        <time>2026-08-31T08:25:36Z</time>
      </trkpt>
      <trkpt lat="44.33879" lon="4.83209">
        <ele>115.83</ele>
        <time>2026-08-31T08:25:37Z</time>
      </trkpt>
      <trkpt lat="44.33882" lon="4.83215">
        <ele>115.54</ele>
        <time>2026-08-31T08:25:43Z</time>
      </trkpt>
      <trkpt lat="44.33887" lon="4.83225">
        <ele>115.04</ele>
        <time>2026-08-31T08:25:46Z</time>
      </trkpt>
      <trkpt lat="44.33887" lon="4.83229">
        <ele>114.41</ele>
        <time>2026-08-31T08:25:47Z</time>
      </trkpt>
      <trkpt lat="44.33887" lon="4.83232">
        <ele>114.21</ele>
        <time>2026-08-31T08:25:48Z</time>
      </trkpt>
      <trkpt lat="44.33885" lon="4.83235">
        <ele>114.14</ele>
        <time>2026-08-31T08:25:49Z</time>
      </trkpt>
      <trkpt lat="44.33884" lon="4.83237">
        <ele>114.51</ele>
        <time>2026-08-31T08:25:50Z</time>
      </trkpt>
      <trkpt lat="44.33882" lon="4.83241">
        <ele>115.14</ele>
        <time>2026-08-31T08:25:52Z</time>
      </trkpt>
      <trkpt lat="44.33881" lon="4.83244">
        <ele>115.53</ele>
        <time>2026-08-31T08:25:53Z</time>
      </trkpt>
      <trkpt lat="44.3388" lon="4.83247">
        <ele>116.01</ele>
        <time>2026-08-31T08:25:54Z</time>
      </trkpt>
      <trkpt lat="44.3388" lon="4.83249">
        <ele>116.52</ele>
        <time>2026-08-31T08:25:55Z</time>
      </trkpt>
      <trkpt lat="44.33879" lon="4.83252">
        <ele>117.21</ele>
        <time>2026-08-31T08:25:56Z</time>
      </trkpt>
      <trkpt lat="44.33878" lon="4.83254">
        <ele>117.64</ele>
        <time>2026-08-31T08:25:57Z</time>
      </trkpt>
      <trkpt lat="44.33877" lon="4.83257">
        <ele>117.56</ele>
        <time>2026-08-31T08:25:58Z</time>
      </trkpt>
      <trkpt lat="44.33878" lon="4.83268">
        <ele>116.43</ele>
        <time>2026-08-31T08:26:00Z</time>
      </trkpt>
      <trkpt lat="44.33883" lon="4.83297">
        <ele>116.71</ele>
        <time>2026-08-31T08:26:07Z</time>
      </trkpt>
      <trkpt lat="44.33883" lon="4.83301">
        <ele>116.79</ele>
        <time>2026-08-31T08:26:08Z</time>
      </trkpt>
      <trkpt lat="44.33882" lon="4.83304">
        <ele>116.88</ele>
        <time>2026-08-31T08:26:09Z</time>
      </trkpt>
      <trkpt lat="44.33881" lon="4.83308">
        <ele>117.12</ele>
        <time>2026-08-31T08:26:10Z</time>
      </trkpt>
      <trkpt lat="44.33881" lon="4.83311">
        <ele>117.55</ele>
        <time>2026-08-31T08:26:11Z</time>
      </trkpt>
      <trkpt lat="44.33881" lon="4.83313">
        <ele>117.77</ele>
        <time>2026-08-31T08:26:12Z</time>
      </trkpt>
      <trkpt lat="44.33882" lon="4.83316">
        <ele>117.76</ele>
        <time>2026-08-31T08:26:13Z</time>
      </trkpt>
      <trkpt lat="44.33883" lon="4.83321">
        <ele>117.22</ele>
        <time>2026-08-31T08:26:14Z</time>
      </trkpt>
      <trkpt lat="44.33886" lon="4.83331">
        <ele>116.74</ele>
        <time>2026-08-31T08:26:16Z</time>
      </trkpt>
      <trkpt lat="44.33889" lon="4.83334">
        <ele>116.77</ele>
        <time>2026-08-31T08:26:17Z</time>
      </trkpt>
      <trkpt lat="44.33891" lon="4.83338">
        <ele>116.56</ele>
        <time>2026-08-31T08:26:18Z</time>
      </trkpt>
      <trkpt lat="44.33892" lon="4.83344">
        <ele>116.03</ele>
        <time>2026-08-31T08:26:19Z</time>
      </trkpt>
      <trkpt lat="44.33892" lon="4.83351">
        <ele>115.85</ele>
        <time>2026-08-31T08:26:20Z</time>
      </trkpt>
      <trkpt lat="44.33892" lon="4.83357">
        <ele>116.09</ele>
        <time>2026-08-31T08:26:21Z</time>
      </trkpt>
      <trkpt lat="44.33893" lon="4.83362">
        <ele>116.31</ele>
        <time>2026-08-31T08:26:22Z</time>
      </trkpt>
      <trkpt lat="44.33907" lon="4.83408">
        <ele>116.42</ele>
        <time>2026-08-31T08:26:32Z</time>
      </trkpt>
      <trkpt lat="44.33911" lon="4.83443">
        <ele>116</ele>
        <time>2026-08-31T08:26:39Z</time>
      </trkpt>
      <trkpt lat="44.33911" lon="4.83449">
        <ele>115.73</ele>
        <time>2026-08-31T08:26:40Z</time>
      </trkpt>
      <trkpt lat="44.33911" lon="4.83455">
        <ele>115.99</ele>
        <time>2026-08-31T08:26:41Z</time>
      </trkpt>
      <trkpt lat="44.33911" lon="4.83458">
        <ele>116.72</ele>
        <time>2026-08-31T08:26:42Z</time>
      </trkpt>
      <trkpt lat="44.33911" lon="4.83461">
        <ele>116.98</ele>
        <time>2026-08-31T08:26:43Z</time>
      </trkpt>
      <trkpt lat="44.3391" lon="4.83465">
        <ele>117.2</ele>
        <time>2026-08-31T08:26:44Z</time>
      </trkpt>
      <trkpt lat="44.33909" lon="4.83469">
        <ele>117.25</ele>
        <time>2026-08-31T08:26:45Z</time>
      </trkpt>
      <trkpt lat="44.33908" lon="4.83472">
        <ele>117.62</ele>
        <time>2026-08-31T08:26:46Z</time>
      </trkpt>
      <trkpt lat="44.33908" lon="4.83475">
        <ele>117.64</ele>
        <time>2026-08-31T08:26:47Z</time>
      </trkpt>
      <trkpt lat="44.33909" lon="4.83477">
        <ele>117.72</ele>
        <time>2026-08-31T08:26:48Z</time>
      </trkpt>
      <trkpt lat="44.33911" lon="4.8348">
        <ele>117.57</ele>
        <time>2026-08-31T08:26:49Z</time>
      </trkpt>
      <trkpt lat="44.33912" lon="4.83484">
        <ele>117.46</ele>
        <time>2026-08-31T08:26:50Z</time>
      </trkpt>
      <trkpt lat="44.33913" lon="4.83488">
        <ele>117.26</ele>
        <time>2026-08-31T08:26:51Z</time>
      </trkpt>
      <trkpt lat="44.33913" lon="4.83492">
        <ele>117.24</ele>
        <time>2026-08-31T08:26:52Z</time>
      </trkpt>
      <trkpt lat="44.33913" lon="4.83496">
        <ele>117.24</ele>
        <time>2026-08-31T08:26:53Z</time>
      </trkpt>
      <trkpt lat="44.33911" lon="4.835">
        <ele>117.5</ele>
        <time>2026-08-31T08:26:54Z</time>
      </trkpt>
      <trkpt lat="44.3391" lon="4.83502">
        <ele>118.05</ele>
        <time>2026-08-31T08:26:55Z</time>
      </trkpt>
      <trkpt lat="44.33908" lon="4.83504">
        <ele>118.57</ele>
        <time>2026-08-31T08:26:56Z</time>
      </trkpt>
      <trkpt lat="44.33906" lon="4.83505">
        <ele>118.78</ele>
        <time>2026-08-31T08:26:57Z</time>
      </trkpt>
      <trkpt lat="44.33904" lon="4.83506">
        <ele>118.97</ele>
        <time>2026-08-31T08:26:58Z</time>
      </trkpt>
      <trkpt lat="44.33902" lon="4.83507">
        <ele>119.33</ele>
        <time>2026-08-31T08:26:59Z</time>
      </trkpt>
      <trkpt lat="44.339" lon="4.8351">
        <ele>119.58</ele>
        <time>2026-08-31T08:27:00Z</time>
      </trkpt>
      <trkpt lat="44.33898" lon="4.83513">
        <ele>119.88</ele>
        <time>2026-08-31T08:27:01Z</time>
      </trkpt>
      <trkpt lat="44.33897" lon="4.83516">
        <ele>120.24</ele>
        <time>2026-08-31T08:27:02Z</time>
      </trkpt>
      <trkpt lat="44.33896" lon="4.83519">
        <ele>120.56</ele>
        <time>2026-08-31T08:27:03Z</time>
      </trkpt>
      <trkpt lat="44.33895" lon="4.83524">
        <ele>120.58</ele>
        <time>2026-08-31T08:27:04Z</time>
      </trkpt>
      <trkpt lat="44.33894" lon="4.83528">
        <ele>120.71</ele>
        <time>2026-08-31T08:27:05Z</time>
      </trkpt>
      <trkpt lat="44.33894" lon="4.83534">
        <ele>120.76</ele>
        <time>2026-08-31T08:27:07Z</time>
      </trkpt>
      <trkpt lat="44.33896" lon="4.83537">
        <ele>120.53</ele>
        <time>2026-08-31T08:27:16Z</time>
      </trkpt>
      <trkpt lat="44.33898" lon="4.83538">
        <ele>120.3</ele>
        <time>2026-08-31T08:27:17Z</time>
      </trkpt>
      <trkpt lat="44.33904" lon="4.83541">
        <ele>119.45</ele>
        <time>2026-08-31T08:27:19Z</time>
      </trkpt>
      <trkpt lat="44.33914" lon="4.83543">
        <ele>117.8</ele>
        <time>2026-08-31T08:27:22Z</time>
      </trkpt>
      <trkpt lat="44.33917" lon="4.8354">
        <ele>117.17</ele>
        <time>2026-08-31T08:27:23Z</time>
      </trkpt>
      <trkpt lat="44.3393" lon="4.83525">
        <ele>114.61</ele>
        <time>2026-08-31T08:27:28Z</time>
      </trkpt>
      <trkpt lat="44.33932" lon="4.83526">
        <ele>114.28</ele>
        <time>2026-08-31T08:27:29Z</time>
      </trkpt>
      <trkpt lat="44.33933" lon="4.83528">
        <ele>114.09</ele>
        <time>2026-08-31T08:27:30Z</time>
      </trkpt>
      <trkpt lat="44.33933" lon="4.83531">
        <ele>113.58</ele>
        <time>2026-08-31T08:27:31Z</time>
      </trkpt>
      <trkpt lat="44.33933" lon="4.83539">
        <ele>113.29</ele>
        <time>2026-08-31T08:27:36Z</time>
      </trkpt>
      <trkpt lat="44.33932" lon="4.83543">
        <ele>113.16</ele>
        <time>2026-08-31T08:27:37Z</time>
      </trkpt>
      <trkpt lat="44.33912" lon="4.83589">
        <ele>112.8</ele>
        <time>2026-08-31T08:27:49Z</time>
      </trkpt>
      <trkpt lat="44.33873" lon="4.83605">
        <ele>114.39</ele>
        <time>2026-08-31T08:28:02Z</time>
      </trkpt>
      <trkpt lat="44.33831" lon="4.83612">
        <ele>114.46</ele>
        <time>2026-08-31T08:28:15Z</time>
      </trkpt>
      <trkpt lat="44.33815" lon="4.83613">
        <ele>114.6</ele>
        <time>2026-08-31T08:28:21Z</time>
      </trkpt>
      <trkpt lat="44.33814" lon="4.83615">
        <ele>114.37</ele>
        <time>2026-08-31T08:28:22Z</time>
      </trkpt>
      <trkpt lat="44.33813" lon="4.83618">
        <ele>114.18</ele>
        <time>2026-08-31T08:28:23Z</time>
      </trkpt>
      <trkpt lat="44.33811" lon="4.83621">
        <ele>114.01</ele>
        <time>2026-08-31T08:28:24Z</time>
      </trkpt>
      <trkpt lat="44.33809" lon="4.83624">
        <ele>114.01</ele>
        <time>2026-08-31T08:28:25Z</time>
      </trkpt>
      <trkpt lat="44.33801" lon="4.83651">
        <ele>114.79</ele>
        <time>2026-08-31T08:28:33Z</time>
      </trkpt>
      <trkpt lat="44.33802" lon="4.83663">
        <ele>114.79</ele>
        <time>2026-08-31T08:28:36Z</time>
      </trkpt>
      <trkpt lat="44.33802" lon="4.83666">
        <ele>114.73</ele>
        <time>2026-08-31T08:28:37Z</time>
      </trkpt>
      <trkpt lat="44.33803" lon="4.83669">
        <ele>114.71</ele>
        <time>2026-08-31T08:28:38Z</time>
      </trkpt>
      <trkpt lat="44.33804" lon="4.83672">
        <ele>114.88</ele>
        <time>2026-08-31T08:28:39Z</time>
      </trkpt>
      <trkpt lat="44.33806" lon="4.83674">
        <ele>114.84</ele>
        <time>2026-08-31T08:28:40Z</time>
      </trkpt>
      <trkpt lat="44.33808" lon="4.83676">
        <ele>114.65</ele>
        <time>2026-08-31T08:28:41Z</time>
      </trkpt>
      <trkpt lat="44.3381" lon="4.83677">
        <ele>114.55</ele>
        <time>2026-08-31T08:28:42Z</time>
      </trkpt>
      <trkpt lat="44.33812" lon="4.83677">
        <ele>114.49</ele>
        <time>2026-08-31T08:28:43Z</time>
      </trkpt>
      <trkpt lat="44.33815" lon="4.83678">
        <ele>114.43</ele>
        <time>2026-08-31T08:28:44Z</time>
      </trkpt>
      <trkpt lat="44.33817" lon="4.83679">
        <ele>114.37</ele>
        <time>2026-08-31T08:28:45Z</time>
      </trkpt>
      <trkpt lat="44.3382" lon="4.83679">
        <ele>114.21</ele>
        <time>2026-08-31T08:28:46Z</time>
      </trkpt>
      <trkpt lat="44.33861" lon="4.83678">
        <ele>113.63</ele>
        <time>2026-08-31T08:29:00Z</time>
      </trkpt>
      <trkpt lat="44.3391" lon="4.83678">
        <ele>112.02</ele>
        <time>2026-08-31T08:29:13Z</time>
      </trkpt>
      <trkpt lat="44.3399" lon="4.83675">
        <ele>111.88</ele>
        <time>2026-08-31T08:29:31Z</time>
      </trkpt>
      <trkpt lat="44.34039" lon="4.83675">
        <ele>111.53</ele>
        <time>2026-08-31T08:29:42Z</time>
      </trkpt>
      <trkpt lat="44.34044" lon="4.83675">
        <ele>111.48</ele>
        <time>2026-08-31T08:29:43Z</time>
      </trkpt>
      <trkpt lat="44.3411" lon="4.83679">
        <ele>110</ele>
        <time>2026-08-31T08:29:59Z</time>
      </trkpt>
      <trkpt lat="44.34113" lon="4.8368">
        <ele>109.58</ele>
        <time>2026-08-31T08:30:10Z</time>
      </trkpt>
      <trkpt lat="44.34133" lon="4.83682">
        <ele>109.95</ele>
        <time>2026-08-31T08:30:19Z</time>
      </trkpt>
      <trkpt lat="44.34191" lon="4.83685">
        <ele>110.78</ele>
        <time>2026-08-31T08:30:35Z</time>
      </trkpt>
      <trkpt lat="44.34242" lon="4.83694">
        <ele>111.46</ele>
        <time>2026-08-31T08:30:50Z</time>
      </trkpt>
      <trkpt lat="44.34278" lon="4.83691">
        <ele>110.7</ele>
        <time>2026-08-31T08:31:02Z</time>
      </trkpt>
      <trkpt lat="44.3428" lon="4.83687">
        <ele>110.78</ele>
        <time>2026-08-31T08:31:03Z</time>
      </trkpt>
      <trkpt lat="44.34281" lon="4.83683">
        <ele>110.71</ele>
        <time>2026-08-31T08:31:04Z</time>
      </trkpt>
      <trkpt lat="44.34295" lon="4.83582">
        <ele>110.19</ele>
        <time>2026-08-31T08:31:23Z</time>
      </trkpt>
      <trkpt lat="44.34297" lon="4.83572">
        <ele>109.93</ele>
        <time>2026-08-31T08:31:25Z</time>
      </trkpt>
      <trkpt lat="44.34302" lon="4.83561">
        <ele>109.79</ele>
        <time>2026-08-31T08:31:27Z</time>
      </trkpt>
      <trkpt lat="44.34312" lon="4.83537">
        <ele>109.09</ele>
        <time>2026-08-31T08:31:31Z</time>
      </trkpt>
      <trkpt lat="44.34313" lon="4.8353">
        <ele>109.2</ele>
        <time>2026-08-31T08:31:32Z</time>
      </trkpt>
      <trkpt lat="44.34315" lon="4.83516">
        <ele>109.02</ele>
        <time>2026-08-31T08:31:34Z</time>
      </trkpt>
      <trkpt lat="44.34316" lon="4.835">
        <ele>108.35</ele>
        <time>2026-08-31T08:31:36Z</time>
      </trkpt>
      <trkpt lat="44.34315" lon="4.83492">
        <ele>107.89</ele>
        <time>2026-08-31T08:31:37Z</time>
      </trkpt>
      <trkpt lat="44.34312" lon="4.8347">
        <ele>106.58</ele>
        <time>2026-08-31T08:31:40Z</time>
      </trkpt>
      <trkpt lat="44.34312" lon="4.83463">
        <ele>106.54</ele>
        <time>2026-08-31T08:31:41Z</time>
      </trkpt>
      <trkpt lat="44.3431" lon="4.83437">
        <ele>105.08</ele>
        <time>2026-08-31T08:31:44Z</time>
      </trkpt>
      <trkpt lat="44.34308" lon="4.83428">
        <ele>104.72</ele>
        <time>2026-08-31T08:31:45Z</time>
      </trkpt>
      <trkpt lat="44.34307" lon="4.8342">
        <ele>104.46</ele>
        <time>2026-08-31T08:31:46Z</time>
      </trkpt>
      <trkpt lat="44.34302" lon="4.8339">
        <ele>103.12</ele>
        <time>2026-08-31T08:31:50Z</time>
      </trkpt>
      <trkpt lat="44.34302" lon="4.83381">
        <ele>102.23</ele>
        <time>2026-08-31T08:31:51Z</time>
      </trkpt>
      <trkpt lat="44.34302" lon="4.83372">
        <ele>101.08</ele>
        <time>2026-08-31T08:31:52Z</time>
      </trkpt>
      <trkpt lat="44.34301" lon="4.83362">
        <ele>100.9</ele>
        <time>2026-08-31T08:31:53Z</time>
      </trkpt>
      <trkpt lat="44.343" lon="4.83351">
        <ele>100.46</ele>
        <time>2026-08-31T08:31:54Z</time>
      </trkpt>
      <trkpt lat="44.34295" lon="4.83313">
        <ele>98.8</ele>
        <time>2026-08-31T08:31:58Z</time>
      </trkpt>
      <trkpt lat="44.34294" lon="4.83303">
        <ele>98.76</ele>
        <time>2026-08-31T08:31:59Z</time>
      </trkpt>
      <trkpt lat="44.34274" lon="4.83182">
        <ele>96.11</ele>
        <time>2026-08-31T08:32:14Z</time>
      </trkpt>
      <trkpt lat="44.34273" lon="4.83162">
        <ele>95.21</ele>
        <time>2026-08-31T08:32:23Z</time>
      </trkpt>
      <trkpt lat="44.34275" lon="4.8316">
        <ele>94.81</ele>
        <time>2026-08-31T08:32:29Z</time>
      </trkpt>
      <trkpt lat="44.3428" lon="4.83159">
        <ele>94.45</ele>
        <time>2026-08-31T08:32:31Z</time>
      </trkpt>
      <trkpt lat="44.34283" lon="4.83159">
        <ele>94.45</ele>
        <time>2026-08-31T08:32:32Z</time>
      </trkpt>
      <trkpt lat="44.34286" lon="4.8316">
        <ele>94.58</ele>
        <time>2026-08-31T08:32:33Z</time>
      </trkpt>
      <trkpt lat="44.34305" lon="4.83157">
        <ele>93.63</ele>
        <time>2026-08-31T08:32:39Z</time>
      </trkpt>
      <trkpt lat="44.34306" lon="4.83153">
        <ele>93.91</ele>
        <time>2026-08-31T08:32:40Z</time>
      </trkpt>
      <trkpt lat="44.34306" lon="4.83148">
        <ele>93.43</ele>
        <time>2026-08-31T08:32:41Z</time>
      </trkpt>
      <trkpt lat="44.34305" lon="4.83143">
        <ele>93.39</ele>
        <time>2026-08-31T08:32:42Z</time>
      </trkpt>
      <trkpt lat="44.34305" lon="4.83137">
        <ele>93.16</ele>
        <time>2026-08-31T08:32:43Z</time>
      </trkpt>
      <trkpt lat="44.34288" lon="4.83088">
        <ele>92.46</ele>
        <time>2026-08-31T08:32:53Z</time>
      </trkpt>
      <trkpt lat="44.34286" lon="4.83082">
        <ele>92.25</ele>
        <time>2026-08-31T08:32:54Z</time>
      </trkpt>
      <trkpt lat="44.34276" lon="4.83009">
        <ele>93.25</ele>
        <time>2026-08-31T08:33:07Z</time>
      </trkpt>
      <trkpt lat="44.34301" lon="4.82942">
        <ele>94.49</ele>
        <time>2026-08-31T08:33:22Z</time>
      </trkpt>
      <trkpt lat="44.34326" lon="4.82872">
        <ele>95.22</ele>
        <time>2026-08-31T08:33:38Z</time>
      </trkpt>
      <trkpt lat="44.34344" lon="4.82838">
        <ele>97.29</ele>
        <time>2026-08-31T08:33:47Z</time>
      </trkpt>
      <trkpt lat="44.34347" lon="4.82837">
        <ele>97.31</ele>
        <time>2026-08-31T08:33:48Z</time>
      </trkpt>
      <trkpt lat="44.34351" lon="4.82837">
        <ele>97.5</ele>
        <time>2026-08-31T08:33:49Z</time>
      </trkpt>
      <trkpt lat="44.34397" lon="4.82803">
        <ele>98.38</ele>
        <time>2026-08-31T08:34:05Z</time>
      </trkpt>
      <trkpt lat="44.34422" lon="4.82739">
        <ele>97.04</ele>
        <time>2026-08-31T08:34:20Z</time>
      </trkpt>
      <trkpt lat="44.34454" lon="4.82651">
        <ele>98.31</ele>
        <time>2026-08-31T08:34:40Z</time>
      </trkpt>
      <trkpt lat="44.34491" lon="4.82549">
        <ele>99.48</ele>
        <time>2026-08-31T08:35:03Z</time>
      </trkpt>
      <trkpt lat="44.34527" lon="4.82502">
        <ele>99.55</ele>
        <time>2026-08-31T08:35:18Z</time>
      </trkpt>
      <trkpt lat="44.34568" lon="4.82505">
        <ele>102.15</ele>
        <time>2026-08-31T08:35:31Z</time>
      </trkpt>
      <trkpt lat="44.3457" lon="4.82502">
        <ele>102.53</ele>
        <time>2026-08-31T08:35:32Z</time>
      </trkpt>
      <trkpt lat="44.3457" lon="4.82499">
        <ele>102.71</ele>
        <time>2026-08-31T08:35:33Z</time>
      </trkpt>
      <trkpt lat="44.34571" lon="4.82495">
        <ele>102.83</ele>
        <time>2026-08-31T08:35:34Z</time>
      </trkpt>
      <trkpt lat="44.34571" lon="4.82491">
        <ele>102.99</ele>
        <time>2026-08-31T08:35:35Z</time>
      </trkpt>
      <trkpt lat="44.34572" lon="4.82464">
        <ele>102.59</ele>
        <time>2026-08-31T08:35:42Z</time>
      </trkpt>
      <trkpt lat="44.34574" lon="4.82461">
        <ele>102.55</ele>
        <time>2026-08-31T08:35:43Z</time>
      </trkpt>
      <trkpt lat="44.34576" lon="4.82461">
        <ele>102.89</ele>
        <time>2026-08-31T08:35:44Z</time>
      </trkpt>
      <trkpt lat="44.34578" lon="4.82463">
        <ele>102.94</ele>
        <time>2026-08-31T08:35:45Z</time>
      </trkpt>
      <trkpt lat="44.3458" lon="4.82466">
        <ele>102.74</ele>
        <time>2026-08-31T08:35:46Z</time>
      </trkpt>
      <trkpt lat="44.3459" lon="4.82479">
        <ele>102.63</ele>
        <time>2026-08-31T08:35:51Z</time>
      </trkpt>
      <trkpt lat="44.34592" lon="4.82477">
        <ele>102.91</ele>
        <time>2026-08-31T08:35:57Z</time>
      </trkpt>
      <trkpt lat="44.34593" lon="4.82472">
        <ele>102.95</ele>
        <time>2026-08-31T08:35:59Z</time>
      </trkpt>
      <trkpt lat="44.34592" lon="4.82468">
        <ele>102.7</ele>
        <time>2026-08-31T08:36:00Z</time>
      </trkpt>
      <trkpt lat="44.3459" lon="4.82464">
        <ele>102.64</ele>
        <time>2026-08-31T08:36:01Z</time>
      </trkpt>
      <trkpt lat="44.34577" lon="4.82414">
        <ele>102.41</ele>
        <time>2026-08-31T08:36:13Z</time>
      </trkpt>
      <trkpt lat="44.34582" lon="4.82386">
        <ele>102.19</ele>
        <time>2026-08-31T08:36:20Z</time>
      </trkpt>
      <trkpt lat="44.34584" lon="4.82385">
        <ele>102.36</ele>
        <time>2026-08-31T08:36:21Z</time>
      </trkpt>
      <trkpt lat="44.34585" lon="4.82386">
        <ele>102.17</ele>
        <time>2026-08-31T08:36:22Z</time>
      </trkpt>
      <trkpt lat="44.34587" lon="4.82389">
        <ele>102.15</ele>
        <time>2026-08-31T08:36:23Z</time>
      </trkpt>
      <trkpt lat="44.34589" lon="4.82391">
        <ele>102.17</ele>
        <time>2026-08-31T08:36:24Z</time>
      </trkpt>
      <trkpt lat="44.34618" lon="4.82428">
        <ele>102.91</ele>
        <time>2026-08-31T08:36:37Z</time>
      </trkpt>
      <trkpt lat="44.34671" lon="4.82453">
        <ele>103.3</ele>
        <time>2026-08-31T08:36:53Z</time>
      </trkpt>
      <trkpt lat="44.34716" lon="4.8246">
        <ele>103.88</ele>
        <time>2026-08-31T08:37:06Z</time>
      </trkpt>
      <trkpt lat="44.34788" lon="4.82475">
        <ele>104.56</ele>
        <time>2026-08-31T08:37:26Z</time>
      </trkpt>
      <trkpt lat="44.34808" lon="4.82526">
        <ele>105.11</ele>
        <time>2026-08-31T08:37:39Z</time>
      </trkpt>
      <trkpt lat="44.34808" lon="4.82531">
        <ele>105.47</ele>
        <time>2026-08-31T08:37:40Z</time>
      </trkpt>
      <trkpt lat="44.34808" lon="4.82536">
        <ele>105.75</ele>
        <time>2026-08-31T08:37:41Z</time>
      </trkpt>
      <trkpt lat="44.34809" lon="4.8254">
        <ele>105.79</ele>
        <time>2026-08-31T08:37:42Z</time>
      </trkpt>
      <trkpt lat="44.3481" lon="4.82545">
        <ele>106.16</ele>
        <time>2026-08-31T08:37:43Z</time>
      </trkpt>
      <trkpt lat="44.34811" lon="4.82548">
        <ele>106.34</ele>
        <time>2026-08-31T08:37:44Z</time>
      </trkpt>
      <trkpt lat="44.34813" lon="4.82551">
        <ele>106.91</ele>
        <time>2026-08-31T08:37:45Z</time>
      </trkpt>
      <trkpt lat="44.34816" lon="4.82553">
        <ele>106.85</ele>
        <time>2026-08-31T08:37:46Z</time>
      </trkpt>
      <trkpt lat="44.34819" lon="4.82555">
        <ele>106.91</ele>
        <time>2026-08-31T08:37:47Z</time>
      </trkpt>
      <trkpt lat="44.34822" lon="4.82555">
        <ele>106.75</ele>
        <time>2026-08-31T08:37:48Z</time>
      </trkpt>
      <trkpt lat="44.34826" lon="4.82556">
        <ele>106.68</ele>
        <time>2026-08-31T08:37:49Z</time>
      </trkpt>
      <trkpt lat="44.3485" lon="4.82558">
        <ele>106.02</ele>
        <time>2026-08-31T08:37:56Z</time>
      </trkpt>
      <trkpt lat="44.34852" lon="4.82561">
        <ele>105.92</ele>
        <time>2026-08-31T08:37:57Z</time>
      </trkpt>
      <trkpt lat="44.34855" lon="4.82564">
        <ele>105.87</ele>
        <time>2026-08-31T08:37:58Z</time>
      </trkpt>
      <trkpt lat="44.34889" lon="4.82607">
        <ele>107.59</ele>
        <time>2026-08-31T08:38:11Z</time>
      </trkpt>
      <trkpt lat="44.34921" lon="4.82645">
        <ele>108.68</ele>
        <time>2026-08-31T08:38:24Z</time>
      </trkpt>
      <trkpt lat="44.34956" lon="4.82678">
        <ele>109.47</ele>
        <time>2026-08-31T08:38:39Z</time>
      </trkpt>
      <trkpt lat="44.34968" lon="4.82684">
        <ele>109.68</ele>
        <time>2026-08-31T08:38:52Z</time>
      </trkpt>
      <trkpt lat="44.34972" lon="4.82684">
        <ele>109.26</ele>
        <time>2026-08-31T08:39:25Z</time>
      </trkpt>
      <trkpt lat="44.34973" lon="4.82682">
        <ele>109.39</ele>
        <time>2026-08-31T08:39:26Z</time>
      </trkpt>
      <trkpt lat="44.34972" lon="4.82679">
        <ele>109.28</ele>
        <time>2026-08-31T08:39:27Z</time>
      </trkpt>
      <trkpt lat="44.34972" lon="4.82676">
        <ele>109.25</ele>
        <time>2026-08-31T08:39:28Z</time>
      </trkpt>
      <trkpt lat="44.34971" lon="4.82672">
        <ele>109.29</ele>
        <time>2026-08-31T08:39:29Z</time>
      </trkpt>
      <trkpt lat="44.34969" lon="4.82668">
        <ele>109.4</ele>
        <time>2026-08-31T08:39:30Z</time>
      </trkpt>
      <trkpt lat="44.34968" lon="4.82664">
        <ele>109.4</ele>
        <time>2026-08-31T08:39:31Z</time>
      </trkpt>
      <trkpt lat="44.34967" lon="4.8266">
        <ele>109.4</ele>
        <time>2026-08-31T08:39:32Z</time>
      </trkpt>
      <trkpt lat="44.34966" lon="4.82656">
        <ele>109.4</ele>
        <time>2026-08-31T08:39:33Z</time>
      </trkpt>
      <trkpt lat="44.34966" lon="4.82653">
        <ele>109.41</ele>
        <time>2026-08-31T08:39:34Z</time>
      </trkpt>
      <trkpt lat="44.34966" lon="4.82649">
        <ele>109.42</ele>
        <time>2026-08-31T08:39:35Z</time>
      </trkpt>
      <trkpt lat="44.34967" lon="4.82646">
        <ele>109.24</ele>
        <time>2026-08-31T08:39:36Z</time>
      </trkpt>
      <trkpt lat="44.34968" lon="4.82642">
        <ele>109.15</ele>
        <time>2026-08-31T08:39:37Z</time>
      </trkpt>
      <trkpt lat="44.34969" lon="4.8264">
        <ele>109.25</ele>
        <time>2026-08-31T08:39:38Z</time>
      </trkpt>
      <trkpt lat="44.3497" lon="4.82638">
        <ele>109.45</ele>
        <time>2026-08-31T08:39:39Z</time>
      </trkpt>
      <trkpt lat="44.34972" lon="4.82637">
        <ele>109.32</ele>
        <time>2026-08-31T08:39:40Z</time>
      </trkpt>
      <trkpt lat="44.34973" lon="4.82636">
        <ele>109.17</ele>
        <time>2026-08-31T08:39:41Z</time>
      </trkpt>
      <trkpt lat="44.34975" lon="4.82635">
        <ele>108.85</ele>
        <time>2026-08-31T08:39:42Z</time>
      </trkpt>
      <trkpt lat="44.34978" lon="4.82634">
        <ele>109.26</ele>
        <time>2026-08-31T08:39:43Z</time>
      </trkpt>
      <trkpt lat="44.34981" lon="4.82633">
        <ele>109.88</ele>
        <time>2026-08-31T08:39:44Z</time>
      </trkpt>
      <trkpt lat="44.34984" lon="4.82633">
        <ele>110.22</ele>
        <time>2026-08-31T08:39:45Z</time>
      </trkpt>
      <trkpt lat="44.34987" lon="4.82633">
        <ele>110.22</ele>
        <time>2026-08-31T08:39:46Z</time>
      </trkpt>
      <trkpt lat="44.35024" lon="4.82628">
        <ele>112.16</ele>
        <time>2026-08-31T08:39:58Z</time>
      </trkpt>
      <trkpt lat="44.35028" lon="4.82628">
        <ele>112.31</ele>
        <time>2026-08-31T08:39:59Z</time>
      </trkpt>
      <trkpt lat="44.35051" lon="4.82624">
        <ele>115.14</ele>
        <time>2026-08-31T08:40:06Z</time>
      </trkpt>
      <trkpt lat="44.35118" lon="4.82613">
        <ele>117.31</ele>
        <time>2026-08-31T08:40:27Z</time>
      </trkpt>
      <trkpt lat="44.3517" lon="4.8261">
        <ele>120.32</ele>
        <time>2026-08-31T08:40:43Z</time>
      </trkpt>
      <trkpt lat="44.35211" lon="4.82611">
        <ele>123.6</ele>
        <time>2026-08-31T08:40:56Z</time>
      </trkpt>
      <trkpt lat="44.35264" lon="4.82596">
        <ele>126.53</ele>
        <time>2026-08-31T08:41:13Z</time>
      </trkpt>
      <trkpt lat="44.35303" lon="4.82559">
        <ele>130.98</ele>
        <time>2026-08-31T08:41:27Z</time>
      </trkpt>
      <trkpt lat="44.35341" lon="4.82527">
        <ele>134.13</ele>
        <time>2026-08-31T08:41:41Z</time>
      </trkpt>
      <trkpt lat="44.35375" lon="4.82514">
        <ele>137.33</ele>
        <time>2026-08-31T08:41:52Z</time>
      </trkpt>
      <trkpt lat="44.35402" lon="4.82511">
        <ele>141.21</ele>
        <time>2026-08-31T08:42:01Z</time>
      </trkpt>
      <trkpt lat="44.35423" lon="4.82505">
        <ele>144.39</ele>
        <time>2026-08-31T08:42:09Z</time>
      </trkpt>
      <trkpt lat="44.3544" lon="4.82494">
        <ele>147.68</ele>
        <time>2026-08-31T08:42:16Z</time>
      </trkpt>
      <trkpt lat="44.35461" lon="4.82476">
        <ele>151.2</ele>
        <time>2026-08-31T08:42:25Z</time>
      </trkpt>
      <trkpt lat="44.35466" lon="4.82472">
        <ele>152.01</ele>
        <time>2026-08-31T08:42:27Z</time>
      </trkpt>
      <trkpt lat="44.3548" lon="4.82458">
        <ele>155.19</ele>
        <time>2026-08-31T08:42:33Z</time>
      </trkpt>
      <trkpt lat="44.35496" lon="4.82444">
        <ele>158.3</ele>
        <time>2026-08-31T08:42:40Z</time>
      </trkpt>
      <trkpt lat="44.35518" lon="4.82426">
        <ele>161.59</ele>
        <time>2026-08-31T08:42:49Z</time>
      </trkpt>
      <trkpt lat="44.35531" lon="4.8241">
        <ele>164.9</ele>
        <time>2026-08-31T08:42:55Z</time>
      </trkpt>
      <trkpt lat="44.35549" lon="4.82386">
        <ele>168.01</ele>
        <time>2026-08-31T08:43:04Z</time>
      </trkpt>
      <trkpt lat="44.35573" lon="4.82356">
        <ele>171.11</ele>
        <time>2026-08-31T08:43:15Z</time>
      </trkpt>
      <trkpt lat="44.35593" lon="4.82333">
        <ele>174.11</ele>
        <time>2026-08-31T08:43:24Z</time>
      </trkpt>
      <trkpt lat="44.3561" lon="4.82313">
        <ele>177.38</ele>
        <time>2026-08-31T08:43:32Z</time>
      </trkpt>
      <trkpt lat="44.35626" lon="4.82292">
        <ele>180.45</ele>
        <time>2026-08-31T08:43:40Z</time>
      </trkpt>
      <trkpt lat="44.35642" lon="4.82268">
        <ele>183.68</ele>
        <time>2026-08-31T08:43:48Z</time>
      </trkpt>
      <trkpt lat="44.3565" lon="4.82233">
        <ele>186.62</ele>
        <time>2026-08-31T08:43:57Z</time>
      </trkpt>
      <trkpt lat="44.35647" lon="4.82176">
        <ele>189.16</ele>
        <time>2026-08-31T08:44:08Z</time>
      </trkpt>
      <trkpt lat="44.35643" lon="4.82107">
        <ele>190.02</ele>
        <time>2026-08-31T08:44:22Z</time>
      </trkpt>
      <trkpt lat="44.35645" lon="4.82095">
        <ele>189.75</ele>
        <time>2026-08-31T08:44:32Z</time>
      </trkpt>
      <trkpt lat="44.35646" lon="4.82094">
        <ele>189.84</ele>
        <time>2026-08-31T08:44:42Z</time>
      </trkpt>
      <trkpt lat="44.35647" lon="4.82093">
        <ele>189.86</ele>
        <time>2026-08-31T08:44:43Z</time>
      </trkpt>
      <trkpt lat="44.35648" lon="4.8209">
        <ele>190.17</ele>
        <time>2026-08-31T08:44:44Z</time>
      </trkpt>
      <trkpt lat="44.35666" lon="4.82049">
        <ele>193.87</ele>
        <time>2026-08-31T08:44:54Z</time>
      </trkpt>
      <trkpt lat="44.35675" lon="4.82019">
        <ele>197.08</ele>
        <time>2026-08-31T08:45:01Z</time>
      </trkpt>
      <trkpt lat="44.35678" lon="4.81987">
        <ele>200.61</ele>
        <time>2026-08-31T08:45:08Z</time>
      </trkpt>
      <trkpt lat="44.35687" lon="4.81969">
        <ele>203.51</ele>
        <time>2026-08-31T08:45:13Z</time>
      </trkpt>
      <trkpt lat="44.3569" lon="4.81968">
        <ele>204.05</ele>
        <time>2026-08-31T08:45:14Z</time>
      </trkpt>
      <trkpt lat="44.35693" lon="4.81969">
        <ele>205.04</ele>
        <time>2026-08-31T08:45:15Z</time>
      </trkpt>
      <trkpt lat="44.35696" lon="4.81971">
        <ele>205.56</ele>
        <time>2026-08-31T08:45:16Z</time>
      </trkpt>
      <trkpt lat="44.35699" lon="4.81974">
        <ele>205.92</ele>
        <time>2026-08-31T08:45:17Z</time>
      </trkpt>
      <trkpt lat="44.35707" lon="4.81982">
        <ele>207.35</ele>
        <time>2026-08-31T08:45:20Z</time>
      </trkpt>
      <trkpt lat="44.35721" lon="4.81993">
        <ele>209.27</ele>
        <time>2026-08-31T08:45:25Z</time>
      </trkpt>
      <trkpt lat="44.35746" lon="4.82007">
        <ele>212.35</ele>
        <time>2026-08-31T08:45:33Z</time>
      </trkpt>
      <trkpt lat="44.35748" lon="4.82009">
        <ele>212.61</ele>
        <time>2026-08-31T08:45:34Z</time>
      </trkpt>
      <trkpt lat="44.35771" lon="4.82028">
        <ele>215.74</ele>
        <time>2026-08-31T08:45:42Z</time>
      </trkpt>
      <trkpt lat="44.35802" lon="4.82025">
        <ele>219.37</ele>
        <time>2026-08-31T08:45:52Z</time>
      </trkpt>
      <trkpt lat="44.35821" lon="4.82004">
        <ele>222.86</ele>
        <time>2026-08-31T08:45:59Z</time>
      </trkpt>
      <trkpt lat="44.35837" lon="4.81988">
        <ele>226.34</ele>
        <time>2026-08-31T08:46:04Z</time>
      </trkpt>
      <trkpt lat="44.35841" lon="4.81985">
        <ele>226.56</ele>
        <time>2026-08-31T08:46:05Z</time>
      </trkpt>
      <trkpt lat="44.35862" lon="4.81969">
        <ele>230.12</ele>
        <time>2026-08-31T08:46:12Z</time>
      </trkpt>
      <trkpt lat="44.35895" lon="4.81936">
        <ele>233.49</ele>
        <time>2026-08-31T08:46:25Z</time>
      </trkpt>
      <trkpt lat="44.35933" lon="4.81907">
        <ele>236.1</ele>
        <time>2026-08-31T08:46:38Z</time>
      </trkpt>
      <trkpt lat="44.35937" lon="4.81906">
        <ele>235.91</ele>
        <time>2026-08-31T08:46:39Z</time>
      </trkpt>
      <trkpt lat="44.35966" lon="4.81911">
        <ele>237.84</ele>
        <time>2026-08-31T08:46:49Z</time>
      </trkpt>
      <trkpt lat="44.36008" lon="4.81917">
        <ele>241.14</ele>
        <time>2026-08-31T08:46:58Z</time>
      </trkpt>
      <trkpt lat="44.36026" lon="4.81919">
        <ele>243.5</ele>
        <time>2026-08-31T08:47:02Z</time>
      </trkpt>
      <trkpt lat="44.36031" lon="4.81918">
        <ele>243.8</ele>
        <time>2026-08-31T08:47:03Z</time>
      </trkpt>
      <trkpt lat="44.36035" lon="4.81917">
        <ele>244.33</ele>
        <time>2026-08-31T08:47:04Z</time>
      </trkpt>
      <trkpt lat="44.36039" lon="4.81916">
        <ele>244.82</ele>
        <time>2026-08-31T08:47:05Z</time>
      </trkpt>
      <trkpt lat="44.36042" lon="4.81914">
        <ele>245.16</ele>
        <time>2026-08-31T08:47:06Z</time>
      </trkpt>
      <trkpt lat="44.36084" lon="4.81901">
        <ele>245.57</ele>
        <time>2026-08-31T08:47:17Z</time>
      </trkpt>
      <trkpt lat="44.36122" lon="4.81883">
        <ele>246.17</ele>
        <time>2026-08-31T08:47:29Z</time>
      </trkpt>
      <trkpt lat="44.36125" lon="4.81884">
        <ele>246.28</ele>
        <time>2026-08-31T08:47:30Z</time>
      </trkpt>
      <trkpt lat="44.36127" lon="4.81886">
        <ele>246.59</ele>
        <time>2026-08-31T08:47:31Z</time>
      </trkpt>
      <trkpt lat="44.36128" lon="4.8189">
        <ele>246.42</ele>
        <time>2026-08-31T08:47:42Z</time>
      </trkpt>
      <trkpt lat="44.36128" lon="4.8189">
        <ele>246.43</ele>
        <time>2026-08-31T08:48:06Z</time>
      </trkpt>
      <trkpt lat="44.3613" lon="4.81891">
        <ele>246.58</ele>
        <time>2026-08-31T08:48:14Z</time>
      </trkpt>
      <trkpt lat="44.36131" lon="4.81893">
        <ele>246.55</ele>
        <time>2026-08-31T08:48:15Z</time>
      </trkpt>
      <trkpt lat="44.36132" lon="4.81896">
        <ele>246.35</ele>
        <time>2026-08-31T08:48:16Z</time>
      </trkpt>
      <trkpt lat="44.36134" lon="4.81899">
        <ele>246.35</ele>
        <time>2026-08-31T08:48:17Z</time>
      </trkpt>
      <trkpt lat="44.36136" lon="4.81902">
        <ele>246.35</ele>
        <time>2026-08-31T08:48:18Z</time>
      </trkpt>
      <trkpt lat="44.36138" lon="4.81907">
        <ele>246.35</ele>
        <time>2026-08-31T08:48:19Z</time>
      </trkpt>
      <trkpt lat="44.36141" lon="4.81912">
        <ele>246.36</ele>
        <time>2026-08-31T08:48:20Z</time>
      </trkpt>
      <trkpt lat="44.36147" lon="4.81923">
        <ele>245.27</ele>
        <time>2026-08-31T08:48:22Z</time>
      </trkpt>
      <trkpt lat="44.3615" lon="4.8193">
        <ele>244.68</ele>
        <time>2026-08-31T08:48:23Z</time>
      </trkpt>
      <trkpt lat="44.36152" lon="4.81937">
        <ele>244.2</ele>
        <time>2026-08-31T08:48:24Z</time>
      </trkpt>
      <trkpt lat="44.36153" lon="4.81945">
        <ele>244.17</ele>
        <time>2026-08-31T08:48:25Z</time>
      </trkpt>
      <trkpt lat="44.36153" lon="4.81952">
        <ele>244</ele>
        <time>2026-08-31T08:48:26Z</time>
      </trkpt>
      <trkpt lat="44.36154" lon="4.81959">
        <ele>244.17</ele>
        <time>2026-08-31T08:48:27Z</time>
      </trkpt>
      <trkpt lat="44.36159" lon="4.81989">
        <ele>243.72</ele>
        <time>2026-08-31T08:48:31Z</time>
      </trkpt>
      <trkpt lat="44.36176" lon="4.82049">
        <ele>242.77</ele>
        <time>2026-08-31T08:48:41Z</time>
      </trkpt>
      <trkpt lat="44.36178" lon="4.82054">
        <ele>242.62</ele>
        <time>2026-08-31T08:48:42Z</time>
      </trkpt>
      <trkpt lat="44.3618" lon="4.82059">
        <ele>242.26</ele>
        <time>2026-08-31T08:48:43Z</time>
      </trkpt>
      <trkpt lat="44.36193" lon="4.8211">
        <ele>240.07</ele>
        <time>2026-08-31T08:49:48Z</time>
      </trkpt>
      <trkpt lat="44.36195" lon="4.82111">
        <ele>240.07</ele>
        <time>2026-08-31T08:49:49Z</time>
      </trkpt>
      <trkpt lat="44.36198" lon="4.82119">
        <ele>240.09</ele>
        <time>2026-08-31T08:49:57Z</time>
      </trkpt>
      <trkpt lat="44.36197" lon="4.82127">
        <ele>240.3</ele>
        <time>2026-08-31T08:50:04Z</time>
      </trkpt>
      <trkpt lat="44.36195" lon="4.82129">
        <ele>240.37</ele>
        <time>2026-08-31T08:50:05Z</time>
      </trkpt>
      <trkpt lat="44.36194" lon="4.82132">
        <ele>240.27</ele>
        <time>2026-08-31T08:50:06Z</time>
      </trkpt>
      <trkpt lat="44.36192" lon="4.82134">
        <ele>240.26</ele>
        <time>2026-08-31T08:50:07Z</time>
      </trkpt>
      <trkpt lat="44.36192" lon="4.82136">
        <ele>239.9</ele>
        <time>2026-08-31T08:50:08Z</time>
      </trkpt>
      <trkpt lat="44.36192" lon="4.8214">
        <ele>238.86</ele>
        <time>2026-08-31T08:50:17Z</time>
      </trkpt>
      <trkpt lat="44.36191" lon="4.82143">
        <ele>238.92</ele>
        <time>2026-08-31T08:50:18Z</time>
      </trkpt>
      <trkpt lat="44.36192" lon="4.82146">
        <ele>238.74</ele>
        <time>2026-08-31T08:50:19Z</time>
      </trkpt>
      <trkpt lat="44.36192" lon="4.82151">
        <ele>238.8</ele>
        <time>2026-08-31T08:50:20Z</time>
      </trkpt>
      <trkpt lat="44.36193" lon="4.82157">
        <ele>238.72</ele>
        <time>2026-08-31T08:50:21Z</time>
      </trkpt>
      <trkpt lat="44.36193" lon="4.82163">
        <ele>238.3</ele>
        <time>2026-08-31T08:50:22Z</time>
      </trkpt>
      <trkpt lat="44.36193" lon="4.8217">
        <ele>237.77</ele>
        <time>2026-08-31T08:50:23Z</time>
      </trkpt>
      <trkpt lat="44.36194" lon="4.82177">
        <ele>237.35</ele>
        <time>2026-08-31T08:50:24Z</time>
      </trkpt>
      <trkpt lat="44.36197" lon="4.82191">
        <ele>235.89</ele>
        <time>2026-08-31T08:50:26Z</time>
      </trkpt>
      <trkpt lat="44.36199" lon="4.82197">
        <ele>235.7</ele>
        <time>2026-08-31T08:50:27Z</time>
      </trkpt>
      <trkpt lat="44.36201" lon="4.82202">
        <ele>235.62</ele>
        <time>2026-08-31T08:50:28Z</time>
      </trkpt>
      <trkpt lat="44.36204" lon="4.82206">
        <ele>235.71</ele>
        <time>2026-08-31T08:50:29Z</time>
      </trkpt>
      <trkpt lat="44.36205" lon="4.8221">
        <ele>235.92</ele>
        <time>2026-08-31T08:50:30Z</time>
      </trkpt>
      <trkpt lat="44.36207" lon="4.82213">
        <ele>236.02</ele>
        <time>2026-08-31T08:50:31Z</time>
      </trkpt>
      <trkpt lat="44.36209" lon="4.82215">
        <ele>236.11</ele>
        <time>2026-08-31T08:50:32Z</time>
      </trkpt>
      <trkpt lat="44.36226" lon="4.82245">
        <ele>235.97</ele>
        <time>2026-08-31T08:50:39Z</time>
      </trkpt>
      <trkpt lat="44.36243" lon="4.8227">
        <ele>235.03</ele>
        <time>2026-08-31T08:50:50Z</time>
      </trkpt>
      <trkpt lat="44.36245" lon="4.82276">
        <ele>235.03</ele>
        <time>2026-08-31T08:50:53Z</time>
      </trkpt>
      <trkpt lat="44.36247" lon="4.82279">
        <ele>234.57</ele>
        <time>2026-08-31T08:50:54Z</time>
      </trkpt>
      <trkpt lat="44.36249" lon="4.82283">
        <ele>234.84</ele>
        <time>2026-08-31T08:50:55Z</time>
      </trkpt>
      <trkpt lat="44.36251" lon="4.82288">
        <ele>234.27</ele>
        <time>2026-08-31T08:50:56Z</time>
      </trkpt>
      <trkpt lat="44.36252" lon="4.82292">
        <ele>233.89</ele>
        <time>2026-08-31T08:50:57Z</time>
      </trkpt>
      <trkpt lat="44.36253" lon="4.82296">
        <ele>232.91</ele>
        <time>2026-08-31T08:50:58Z</time>
      </trkpt>
      <trkpt lat="44.36255" lon="4.82299">
        <ele>232.49</ele>
        <time>2026-08-31T08:50:59Z</time>
      </trkpt>
      <trkpt lat="44.36256" lon="4.82304">
        <ele>232.3</ele>
        <time>2026-08-31T08:51:00Z</time>
      </trkpt>
      <trkpt lat="44.36257" lon="4.82308">
        <ele>231.02</ele>
        <time>2026-08-31T08:51:01Z</time>
      </trkpt>
      <trkpt lat="44.36256" lon="4.82312">
        <ele>230.47</ele>
        <time>2026-08-31T08:51:02Z</time>
      </trkpt>
      <trkpt lat="44.36256" lon="4.82314">
        <ele>229.97</ele>
        <time>2026-08-31T08:51:03Z</time>
      </trkpt>
      <trkpt lat="44.36255" lon="4.82321">
        <ele>229.06</ele>
        <time>2026-08-31T08:51:05Z</time>
      </trkpt>
      <trkpt lat="44.36242" lon="4.82341">
        <ele>225.24</ele>
        <time>2026-08-31T08:51:10Z</time>
      </trkpt>
      <trkpt lat="44.36235" lon="4.82358">
        <ele>221.8</ele>
        <time>2026-08-31T08:51:14Z</time>
      </trkpt>
      <trkpt lat="44.3623" lon="4.82366">
        <ele>220.22</ele>
        <time>2026-08-31T08:51:16Z</time>
      </trkpt>
      <trkpt lat="44.3623" lon="4.82371">
        <ele>219.73</ele>
        <time>2026-08-31T08:51:17Z</time>
      </trkpt>
      <trkpt lat="44.3623" lon="4.82377">
        <ele>218.79</ele>
        <time>2026-08-31T08:51:18Z</time>
      </trkpt>
      <trkpt lat="44.36231" lon="4.82381">
        <ele>218.13</ele>
        <time>2026-08-31T08:51:19Z</time>
      </trkpt>
      <trkpt lat="44.36229" lon="4.82389">
        <ele>216.72</ele>
        <time>2026-08-31T08:51:29Z</time>
      </trkpt>
      <trkpt lat="44.36229" lon="4.82395">
        <ele>216.39</ele>
        <time>2026-08-31T08:51:36Z</time>
      </trkpt>
      <trkpt lat="44.36229" lon="4.82399">
        <ele>216.04</ele>
        <time>2026-08-31T08:51:37Z</time>
      </trkpt>
      <trkpt lat="44.3623" lon="4.82405">
        <ele>215.6</ele>
        <time>2026-08-31T08:51:38Z</time>
      </trkpt>
      <trkpt lat="44.36231" lon="4.82411">
        <ele>215.16</ele>
        <time>2026-08-31T08:51:39Z</time>
      </trkpt>
      <trkpt lat="44.36234" lon="4.82416">
        <ele>214.75</ele>
        <time>2026-08-31T08:51:40Z</time>
      </trkpt>
      <trkpt lat="44.36236" lon="4.82421">
        <ele>214.17</ele>
        <time>2026-08-31T08:51:41Z</time>
      </trkpt>
      <trkpt lat="44.36241" lon="4.82429">
        <ele>213.3</ele>
        <time>2026-08-31T08:51:43Z</time>
      </trkpt>
      <trkpt lat="44.36245" lon="4.82433">
        <ele>212.59</ele>
        <time>2026-08-31T08:51:44Z</time>
      </trkpt>
      <trkpt lat="44.36247" lon="4.82434">
        <ele>212.08</ele>
        <time>2026-08-31T08:51:45Z</time>
      </trkpt>
      <trkpt lat="44.36248" lon="4.82435">
        <ele>211.65</ele>
        <time>2026-08-31T08:51:46Z</time>
      </trkpt>
      <trkpt lat="44.36249" lon="4.82437">
        <ele>211.34</ele>
        <time>2026-08-31T08:51:47Z</time>
      </trkpt>
      <trkpt lat="44.36248" lon="4.82439">
        <ele>211.25</ele>
        <time>2026-08-31T08:51:48Z</time>
      </trkpt>
      <trkpt lat="44.36247" lon="4.82441">
        <ele>210.86</ele>
        <time>2026-08-31T08:51:49Z</time>
      </trkpt>
      <trkpt lat="44.36242" lon="4.82442">
        <ele>210.92</ele>
        <time>2026-08-31T08:51:51Z</time>
      </trkpt>
      <trkpt lat="44.3624" lon="4.82441">
        <ele>210.83</ele>
        <time>2026-08-31T08:51:52Z</time>
      </trkpt>
      <trkpt lat="44.36231" lon="4.82439">
        <ele>211.32</ele>
        <time>2026-08-31T08:52:00Z</time>
      </trkpt>
      <trkpt lat="44.36204" lon="4.82427">
        <ele>210.58</ele>
        <time>2026-08-31T08:52:08Z</time>
      </trkpt>
      <trkpt lat="44.36201" lon="4.82424">
        <ele>210.5</ele>
        <time>2026-08-31T08:52:09Z</time>
      </trkpt>
      <trkpt lat="44.36192" lon="4.82418">
        <ele>209.85</ele>
        <time>2026-08-31T08:52:11Z</time>
      </trkpt>
      <trkpt lat="44.36188" lon="4.82414">
        <ele>209.64</ele>
        <time>2026-08-31T08:52:12Z</time>
      </trkpt>
      <trkpt lat="44.36184" lon="4.82411">
        <ele>209.35</ele>
        <time>2026-08-31T08:52:13Z</time>
      </trkpt>
      <trkpt lat="44.36179" lon="4.82407">
        <ele>209.27</ele>
        <time>2026-08-31T08:52:14Z</time>
      </trkpt>
      <trkpt lat="44.36175" lon="4.82404">
        <ele>209.06</ele>
        <time>2026-08-31T08:52:15Z</time>
      </trkpt>
      <trkpt lat="44.36171" lon="4.824">
        <ele>208.86</ele>
        <time>2026-08-31T08:52:16Z</time>
      </trkpt>
      <trkpt lat="44.36169" lon="4.82397">
        <ele>208.74</ele>
        <time>2026-08-31T08:52:17Z</time>
      </trkpt>
      <trkpt lat="44.36167" lon="4.82394">
        <ele>209.04</ele>
        <time>2026-08-31T08:52:18Z</time>
      </trkpt>
      <trkpt lat="44.36165" lon="4.82391">
        <ele>209.15</ele>
        <time>2026-08-31T08:52:19Z</time>
      </trkpt>
      <trkpt lat="44.36164" lon="4.82389">
        <ele>209.29</ele>
        <time>2026-08-31T08:52:20Z</time>
      </trkpt>
      <trkpt lat="44.36141" lon="4.82357">
        <ele>208.5</ele>
        <time>2026-08-31T08:52:30Z</time>
      </trkpt>
      <trkpt lat="44.36102" lon="4.82314">
        <ele>207.5</ele>
        <time>2026-08-31T08:52:43Z</time>
      </trkpt>
      <trkpt lat="44.36081" lon="4.82272">
        <ele>209</ele>
        <time>2026-08-31T08:52:54Z</time>
      </trkpt>
      <trkpt lat="44.36078" lon="4.82264">
        <ele>209.3</ele>
        <time>2026-08-31T08:53:00Z</time>
      </trkpt>
      <trkpt lat="44.36076" lon="4.82261">
        <ele>209.42</ele>
        <time>2026-08-31T08:53:01Z</time>
      </trkpt>
      <trkpt lat="44.36074" lon="4.82257">
        <ele>209.46</ele>
        <time>2026-08-31T08:53:02Z</time>
      </trkpt>
      <trkpt lat="44.36046" lon="4.82239">
        <ele>208.63</ele>
        <time>2026-08-31T08:53:11Z</time>
      </trkpt>
      <trkpt lat="44.3602" lon="4.82237">
        <ele>206.81</ele>
        <time>2026-08-31T08:53:16Z</time>
      </trkpt>
      <trkpt lat="44.36014" lon="4.82238">
        <ele>206.94</ele>
        <time>2026-08-31T08:53:17Z</time>
      </trkpt>
      <trkpt lat="44.36009" lon="4.8224">
        <ele>206.66</ele>
        <time>2026-08-31T08:53:18Z</time>
      </trkpt>
      <trkpt lat="44.36005" lon="4.8224">
        <ele>206.55</ele>
        <time>2026-08-31T08:53:19Z</time>
      </trkpt>
      <trkpt lat="44.36" lon="4.8224">
        <ele>206.08</ele>
        <time>2026-08-31T08:53:20Z</time>
      </trkpt>
      <trkpt lat="44.35996" lon="4.82238">
        <ele>205.73</ele>
        <time>2026-08-31T08:53:21Z</time>
      </trkpt>
      <trkpt lat="44.35991" lon="4.82236">
        <ele>205.02</ele>
        <time>2026-08-31T08:53:22Z</time>
      </trkpt>
      <trkpt lat="44.35988" lon="4.82235">
        <ele>204.54</ele>
        <time>2026-08-31T08:53:23Z</time>
      </trkpt>
      <trkpt lat="44.35985" lon="4.82235">
        <ele>204.31</ele>
        <time>2026-08-31T08:53:24Z</time>
      </trkpt>
      <trkpt lat="44.35982" lon="4.82235">
        <ele>204.12</ele>
        <time>2026-08-31T08:53:25Z</time>
      </trkpt>
      <trkpt lat="44.35979" lon="4.82235">
        <ele>204.09</ele>
        <time>2026-08-31T08:53:26Z</time>
      </trkpt>
      <trkpt lat="44.35977" lon="4.82233">
        <ele>203.72</ele>
        <time>2026-08-31T08:53:27Z</time>
      </trkpt>
      <trkpt lat="44.35973" lon="4.82231">
        <ele>203.15</ele>
        <time>2026-08-31T08:53:28Z</time>
      </trkpt>
      <trkpt lat="44.35969" lon="4.82229">
        <ele>202.23</ele>
        <time>2026-08-31T08:53:29Z</time>
      </trkpt>
      <trkpt lat="44.35965" lon="4.82227">
        <ele>201.65</ele>
        <time>2026-08-31T08:53:30Z</time>
      </trkpt>
      <trkpt lat="44.35958" lon="4.82222">
        <ele>198.95</ele>
        <time>2026-08-31T08:53:34Z</time>
      </trkpt>
      <trkpt lat="44.35946" lon="4.82211">
        <ele>196.96</ele>
        <time>2026-08-31T08:53:48Z</time>
      </trkpt>
      <trkpt lat="44.35944" lon="4.82211">
        <ele>196.74</ele>
        <time>2026-08-31T08:53:49Z</time>
      </trkpt>
      <trkpt lat="44.35941" lon="4.82211">
        <ele>196.63</ele>
        <time>2026-08-31T08:53:50Z</time>
      </trkpt>
      <trkpt lat="44.35938" lon="4.82212">
        <ele>196</ele>
        <time>2026-08-31T08:53:51Z</time>
      </trkpt>
      <trkpt lat="44.35934" lon="4.82213">
        <ele>195.7</ele>
        <time>2026-08-31T08:53:52Z</time>
      </trkpt>
      <trkpt lat="44.35931" lon="4.82214">
        <ele>195.55</ele>
        <time>2026-08-31T08:53:53Z</time>
      </trkpt>
      <trkpt lat="44.35919" lon="4.82218">
        <ele>194.42</ele>
        <time>2026-08-31T08:53:56Z</time>
      </trkpt>
      <trkpt lat="44.35915" lon="4.82219">
        <ele>194.25</ele>
        <time>2026-08-31T08:53:57Z</time>
      </trkpt>
      <trkpt lat="44.35912" lon="4.82221">
        <ele>194.19</ele>
        <time>2026-08-31T08:53:58Z</time>
      </trkpt>
      <trkpt lat="44.35908" lon="4.82223">
        <ele>194.07</ele>
        <time>2026-08-31T08:53:59Z</time>
      </trkpt>
      <trkpt lat="44.35905" lon="4.82224">
        <ele>193.97</ele>
        <time>2026-08-31T08:54:00Z</time>
      </trkpt>
      <trkpt lat="44.35903" lon="4.82224">
        <ele>194.06</ele>
        <time>2026-08-31T08:54:01Z</time>
      </trkpt>
      <trkpt lat="44.35902" lon="4.82224">
        <ele>193.92</ele>
        <time>2026-08-31T08:54:02Z</time>
      </trkpt>
      <trkpt lat="44.35899" lon="4.82223">
        <ele>193.86</ele>
        <time>2026-08-31T08:54:09Z</time>
      </trkpt>
      <trkpt lat="44.35898" lon="4.82222">
        <ele>193.67</ele>
        <time>2026-08-31T08:54:10Z</time>
      </trkpt>
      <trkpt lat="44.35895" lon="4.82221">
        <ele>193.23</ele>
        <time>2026-08-31T08:54:11Z</time>
      </trkpt>
      <trkpt lat="44.3588" lon="4.82219">
        <ele>190.22</ele>
        <time>2026-08-31T08:54:16Z</time>
      </trkpt>
      <trkpt lat="44.3587" lon="4.82219">
        <ele>188.92</ele>
        <time>2026-08-31T08:54:18Z</time>
      </trkpt>
      <trkpt lat="44.35845" lon="4.82227">
        <ele>187.23</ele>
        <time>2026-08-31T08:54:26Z</time>
      </trkpt>
      <trkpt lat="44.35836" lon="4.82227">
        <ele>188.7</ele>
        <time>2026-08-31T08:54:30Z</time>
      </trkpt>
      <trkpt lat="44.35799" lon="4.82227">
        <ele>189.79</ele>
        <time>2026-08-31T08:54:47Z</time>
      </trkpt>
      <trkpt lat="44.35772" lon="4.8222">
        <ele>190.48</ele>
        <time>2026-08-31T08:54:59Z</time>
      </trkpt>
      <trkpt lat="44.35754" lon="4.82199">
        <ele>189.68</ele>
        <time>2026-08-31T08:55:06Z</time>
      </trkpt>
      <trkpt lat="44.3573" lon="4.8218">
        <ele>190.96</ele>
        <time>2026-08-31T08:55:16Z</time>
      </trkpt>
      <trkpt lat="44.35705" lon="4.82158">
        <ele>193.17</ele>
        <time>2026-08-31T08:55:28Z</time>
      </trkpt>
      <trkpt lat="44.35689" lon="4.82135">
        <ele>192.25</ele>
        <time>2026-08-31T08:55:39Z</time>
      </trkpt>
      <trkpt lat="44.35686" lon="4.82131">
        <ele>192.15</ele>
        <time>2026-08-31T08:55:41Z</time>
      </trkpt>
      <trkpt lat="44.35685" lon="4.82128">
        <ele>191.92</ele>
        <time>2026-08-31T08:55:42Z</time>
      </trkpt>
      <trkpt lat="44.3567" lon="4.82109">
        <ele>191.16</ele>
        <time>2026-08-31T08:55:50Z</time>
      </trkpt>
      <trkpt lat="44.35669" lon="4.82106">
        <ele>191.57</ele>
        <time>2026-08-31T08:55:51Z</time>
      </trkpt>
      <trkpt lat="44.35669" lon="4.82103">
        <ele>191.69</ele>
        <time>2026-08-31T08:55:52Z</time>
      </trkpt>
      <trkpt lat="44.35667" lon="4.821">
        <ele>192.03</ele>
        <time>2026-08-31T08:55:53Z</time>
      </trkpt>
      <trkpt lat="44.35666" lon="4.82097">
        <ele>192.22</ele>
        <time>2026-08-31T08:55:54Z</time>
      </trkpt>
      <trkpt lat="44.35664" lon="4.82094">
        <ele>192.18</ele>
        <time>2026-08-31T08:55:55Z</time>
      </trkpt>
      <trkpt lat="44.35662" lon="4.82092">
        <ele>192.05</ele>
        <time>2026-08-31T08:55:56Z</time>
      </trkpt>
      <trkpt lat="44.35659" lon="4.8209">
        <ele>191.9</ele>
        <time>2026-08-31T08:55:57Z</time>
      </trkpt>
      <trkpt lat="44.35656" lon="4.8209">
        <ele>191.87</ele>
        <time>2026-08-31T08:55:58Z</time>
      </trkpt>
      <trkpt lat="44.35654" lon="4.8209">
        <ele>191.64</ele>
        <time>2026-08-31T08:55:59Z</time>
      </trkpt>
      <trkpt lat="44.35652" lon="4.82091">
        <ele>191.72</ele>
        <time>2026-08-31T08:56:00Z</time>
      </trkpt>
      <trkpt lat="44.35649" lon="4.82092">
        <ele>191.63</ele>
        <time>2026-08-31T08:56:01Z</time>
      </trkpt>
      <trkpt lat="44.35647" lon="4.82093">
        <ele>191.5</ele>
        <time>2026-08-31T08:56:02Z</time>
      </trkpt>
      <trkpt lat="44.35644" lon="4.82095">
        <ele>191.56</ele>
        <time>2026-08-31T08:56:03Z</time>
      </trkpt>
      <trkpt lat="44.35639" lon="4.82094">
        <ele>191.64</ele>
        <time>2026-08-31T08:56:05Z</time>
      </trkpt>
      <trkpt lat="44.35636" lon="4.82093">
        <ele>191.65</ele>
        <time>2026-08-31T08:56:06Z</time>
      </trkpt>
      <trkpt lat="44.35628" lon="4.82088">
        <ele>191.85</ele>
        <time>2026-08-31T08:56:09Z</time>
      </trkpt>
      <trkpt lat="44.35619" lon="4.82081">
        <ele>190.9</ele>
        <time>2026-08-31T08:56:19Z</time>
      </trkpt>
      <trkpt lat="44.35615" lon="4.8208">
        <ele>191.72</ele>
        <time>2026-08-31T08:56:51Z</time>
      </trkpt>
      <trkpt lat="44.35613" lon="4.82082">
        <ele>191.8</ele>
        <time>2026-08-31T08:56:53Z</time>
      </trkpt>
      <trkpt lat="44.3561" lon="4.82084">
        <ele>191.62</ele>
        <time>2026-08-31T08:56:54Z</time>
      </trkpt>
      <trkpt lat="44.35608" lon="4.82086">
        <ele>191.41</ele>
        <time>2026-08-31T08:56:55Z</time>
      </trkpt>
      <trkpt lat="44.35606" lon="4.82088">
        <ele>191.44</ele>
        <time>2026-08-31T08:56:56Z</time>
      </trkpt>
      <trkpt lat="44.35605" lon="4.82091">
        <ele>191.11</ele>
        <time>2026-08-31T08:56:57Z</time>
      </trkpt>
      <trkpt lat="44.35603" lon="4.82094">
        <ele>190.95</ele>
        <time>2026-08-31T08:56:58Z</time>
      </trkpt>
      <trkpt lat="44.35601" lon="4.82097">
        <ele>190.88</ele>
        <time>2026-08-31T08:56:59Z</time>
      </trkpt>
      <trkpt lat="44.35599" lon="4.821">
        <ele>190.44</ele>
        <time>2026-08-31T08:57:00Z</time>
      </trkpt>
      <trkpt lat="44.35597" lon="4.82103">
        <ele>190.1</ele>
        <time>2026-08-31T08:57:01Z</time>
      </trkpt>
      <trkpt lat="44.35595" lon="4.82106">
        <ele>190.07</ele>
        <time>2026-08-31T08:57:02Z</time>
      </trkpt>
      <trkpt lat="44.35594" lon="4.82108">
        <ele>189.54</ele>
        <time>2026-08-31T08:57:03Z</time>
      </trkpt>
      <trkpt lat="44.35592" lon="4.82111">
        <ele>189.51</ele>
        <time>2026-08-31T08:57:04Z</time>
      </trkpt>
      <trkpt lat="44.35591" lon="4.82114">
        <ele>189.24</ele>
        <time>2026-08-31T08:57:05Z</time>
      </trkpt>
      <trkpt lat="44.35589" lon="4.82116">
        <ele>189.03</ele>
        <time>2026-08-31T08:57:06Z</time>
      </trkpt>
      <trkpt lat="44.35588" lon="4.82119">
        <ele>189.35</ele>
        <time>2026-08-31T08:57:07Z</time>
      </trkpt>
      <trkpt lat="44.35586" lon="4.82122">
        <ele>188.94</ele>
        <time>2026-08-31T08:57:08Z</time>
      </trkpt>
      <trkpt lat="44.35583" lon="4.82125">
        <ele>188.72</ele>
        <time>2026-08-31T08:57:09Z</time>
      </trkpt>
      <trkpt lat="44.35581" lon="4.82128">
        <ele>188.54</ele>
        <time>2026-08-31T08:57:10Z</time>
      </trkpt>
      <trkpt lat="44.35579" lon="4.82131">
        <ele>188.16</ele>
        <time>2026-08-31T08:57:11Z</time>
      </trkpt>
      <trkpt lat="44.35577" lon="4.82133">
        <ele>187.78</ele>
        <time>2026-08-31T08:57:12Z</time>
      </trkpt>
      <trkpt lat="44.35576" lon="4.82136">
        <ele>187.58</ele>
        <time>2026-08-31T08:57:13Z</time>
      </trkpt>
      <trkpt lat="44.35563" lon="4.82173">
        <ele>184.11</ele>
        <time>2026-08-31T08:57:24Z</time>
      </trkpt>
      <trkpt lat="44.3556" lon="4.82181">
        <ele>183.35</ele>
        <time>2026-08-31T08:57:26Z</time>
      </trkpt>
      <trkpt lat="44.35551" lon="4.82197">
        <ele>180.83</ele>
        <time>2026-08-31T08:57:31Z</time>
      </trkpt>
      <trkpt lat="44.3554" lon="4.82218">
        <ele>177.76</ele>
        <time>2026-08-31T08:57:37Z</time>
      </trkpt>
      <trkpt lat="44.35539" lon="4.82224">
        <ele>177.08</ele>
        <time>2026-08-31T08:57:39Z</time>
      </trkpt>
      <trkpt lat="44.35538" lon="4.82225">
        <ele>176.6</ele>
        <time>2026-08-31T08:57:41Z</time>
      </trkpt>
      <trkpt lat="44.35537" lon="4.82226">
        <ele>176.72</ele>
        <time>2026-08-31T08:57:42Z</time>
      </trkpt>
      <trkpt lat="44.35532" lon="4.82227">
        <ele>177.26</ele>
        <time>2026-08-31T08:57:56Z</time>
      </trkpt>
      <trkpt lat="44.35531" lon="4.82227">
        <ele>177.05</ele>
        <time>2026-08-31T08:57:57Z</time>
      </trkpt>
      <trkpt lat="44.35514" lon="4.82215">
        <ele>173.29</ele>
        <time>2026-08-31T08:58:05Z</time>
      </trkpt>
      <trkpt lat="44.35512" lon="4.82216">
        <ele>172.48</ele>
        <time>2026-08-31T08:58:11Z</time>
      </trkpt>
      <trkpt lat="44.35498" lon="4.82223">
        <ele>171.47</ele>
        <time>2026-08-31T08:58:16Z</time>
      </trkpt>
      <trkpt lat="44.3549" lon="4.8223">
        <ele>168.92</ele>
        <time>2026-08-31T08:58:19Z</time>
      </trkpt>
      <trkpt lat="44.3549" lon="4.82233">
        <ele>168.61</ele>
        <time>2026-08-31T08:58:20Z</time>
      </trkpt>
      <trkpt lat="44.35491" lon="4.82237">
        <ele>168.25</ele>
        <time>2026-08-31T08:58:21Z</time>
      </trkpt>
      <trkpt lat="44.35492" lon="4.82242">
        <ele>168.34</ele>
        <time>2026-08-31T08:58:22Z</time>
      </trkpt>
      <trkpt lat="44.35493" lon="4.82245">
        <ele>168.32</ele>
        <time>2026-08-31T08:58:23Z</time>
      </trkpt>
      <trkpt lat="44.35493" lon="4.82252">
        <ele>168.33</ele>
        <time>2026-08-31T08:58:29Z</time>
      </trkpt>
      <trkpt lat="44.35494" lon="4.82256">
        <ele>168.41</ele>
        <time>2026-08-31T08:58:30Z</time>
      </trkpt>
      <trkpt lat="44.35494" lon="4.82259">
        <ele>168.48</ele>
        <time>2026-08-31T08:58:31Z</time>
      </trkpt>
      <trkpt lat="44.35492" lon="4.82275">
        <ele>169.03</ele>
        <time>2026-08-31T08:58:35Z</time>
      </trkpt>
      <trkpt lat="44.3549" lon="4.82276">
        <ele>168.9</ele>
        <time>2026-08-31T08:58:36Z</time>
      </trkpt>
      <trkpt lat="44.35488" lon="4.82277">
        <ele>168.82</ele>
        <time>2026-08-31T08:58:37Z</time>
      </trkpt>
      <trkpt lat="44.35485" lon="4.82279">
        <ele>168.47</ele>
        <time>2026-08-31T08:58:38Z</time>
      </trkpt>
      <trkpt lat="44.35483" lon="4.82281">
        <ele>168.02</ele>
        <time>2026-08-31T08:58:39Z</time>
      </trkpt>
      <trkpt lat="44.35482" lon="4.82282">
        <ele>167.57</ele>
        <time>2026-08-31T08:58:40Z</time>
      </trkpt>
      <trkpt lat="44.35481" lon="4.82283">
        <ele>167.24</ele>
        <time>2026-08-31T08:58:41Z</time>
      </trkpt>
      <trkpt lat="44.35479" lon="4.82287">
        <ele>166.76</ele>
        <time>2026-08-31T08:58:43Z</time>
      </trkpt>
      <trkpt lat="44.3548" lon="4.82297">
        <ele>166.87</ele>
        <time>2026-08-31T08:58:46Z</time>
      </trkpt>
      <trkpt lat="44.35479" lon="4.82301">
        <ele>166.57</ele>
        <time>2026-08-31T08:58:47Z</time>
      </trkpt>
      <trkpt lat="44.35477" lon="4.82305">
        <ele>166</ele>
        <time>2026-08-31T08:58:48Z</time>
      </trkpt>
      <trkpt lat="44.35475" lon="4.82309">
        <ele>165.64</ele>
        <time>2026-08-31T08:58:49Z</time>
      </trkpt>
      <trkpt lat="44.35473" lon="4.82313">
        <ele>165.41</ele>
        <time>2026-08-31T08:58:50Z</time>
      </trkpt>
      <trkpt lat="44.35471" lon="4.82314">
        <ele>164.94</ele>
        <time>2026-08-31T08:58:51Z</time>
      </trkpt>
      <trkpt lat="44.35468" lon="4.82316">
        <ele>164.5</ele>
        <time>2026-08-31T08:58:52Z</time>
      </trkpt>
      <trkpt lat="44.35467" lon="4.82317">
        <ele>164.1</ele>
        <time>2026-08-31T08:58:53Z</time>
      </trkpt>
      <trkpt lat="44.35462" lon="4.82329">
        <ele>163.51</ele>
        <time>2026-08-31T08:58:56Z</time>
      </trkpt>
      <trkpt lat="44.35454" lon="4.82334">
        <ele>162.59</ele>
        <time>2026-08-31T08:58:59Z</time>
      </trkpt>
      <trkpt lat="44.35438" lon="4.82338">
        <ele>159.02</ele>
        <time>2026-08-31T08:59:04Z</time>
      </trkpt>
      <trkpt lat="44.35424" lon="4.8234">
        <ele>155.84</ele>
        <time>2026-08-31T08:59:09Z</time>
      </trkpt>
      <trkpt lat="44.35423" lon="4.82339">
        <ele>155.68</ele>
        <time>2026-08-31T08:59:10Z</time>
      </trkpt>
      <trkpt lat="44.3542" lon="4.8234">
        <ele>155.56</ele>
        <time>2026-08-31T08:59:18Z</time>
      </trkpt>
      <trkpt lat="44.35418" lon="4.82339">
        <ele>155.5</ele>
        <time>2026-08-31T08:59:19Z</time>
      </trkpt>
      <trkpt lat="44.35416" lon="4.82339">
        <ele>155.13</ele>
        <time>2026-08-31T08:59:20Z</time>
      </trkpt>
      <trkpt lat="44.35413" lon="4.8234">
        <ele>154.68</ele>
        <time>2026-08-31T08:59:21Z</time>
      </trkpt>
      <trkpt lat="44.3541" lon="4.82341">
        <ele>153.86</ele>
        <time>2026-08-31T08:59:22Z</time>
      </trkpt>
      <trkpt lat="44.35407" lon="4.82342">
        <ele>153.42</ele>
        <time>2026-08-31T08:59:23Z</time>
      </trkpt>
      <trkpt lat="44.35405" lon="4.82345">
        <ele>152.53</ele>
        <time>2026-08-31T08:59:24Z</time>
      </trkpt>
      <trkpt lat="44.35403" lon="4.82349">
        <ele>152.12</ele>
        <time>2026-08-31T08:59:25Z</time>
      </trkpt>
      <trkpt lat="44.35401" lon="4.82354">
        <ele>151.8</ele>
        <time>2026-08-31T08:59:26Z</time>
      </trkpt>
      <trkpt lat="44.354" lon="4.82359">
        <ele>151.01</ele>
        <time>2026-08-31T08:59:27Z</time>
      </trkpt>
      <trkpt lat="44.35398" lon="4.82364">
        <ele>150.65</ele>
        <time>2026-08-31T08:59:28Z</time>
      </trkpt>
      <trkpt lat="44.35396" lon="4.82368">
        <ele>149.92</ele>
        <time>2026-08-31T08:59:29Z</time>
      </trkpt>
      <trkpt lat="44.35394" lon="4.82371">
        <ele>149.49</ele>
        <time>2026-08-31T08:59:30Z</time>
      </trkpt>
      <trkpt lat="44.35393" lon="4.82372">
        <ele>148.83</ele>
        <time>2026-08-31T08:59:31Z</time>
      </trkpt>
      <trkpt lat="44.3538" lon="4.82376">
        <ele>147.51</ele>
        <time>2026-08-31T08:59:43Z</time>
      </trkpt>
      <trkpt lat="44.35375" lon="4.82377">
        <ele>147.19</ele>
        <time>2026-08-31T08:59:44Z</time>
      </trkpt>
      <trkpt lat="44.35372" lon="4.82379">
        <ele>146.06</ele>
        <time>2026-08-31T08:59:45Z</time>
      </trkpt>
      <trkpt lat="44.3537" lon="4.82382">
        <ele>145.26</ele>
        <time>2026-08-31T08:59:46Z</time>
      </trkpt>
      <trkpt lat="44.35368" lon="4.82385">
        <ele>145</ele>
        <time>2026-08-31T08:59:47Z</time>
      </trkpt>
      <trkpt lat="44.35366" lon="4.82386">
        <ele>144.61</ele>
        <time>2026-08-31T08:59:48Z</time>
      </trkpt>
      <trkpt lat="44.35364" lon="4.82388">
        <ele>144.03</ele>
        <time>2026-08-31T08:59:49Z</time>
      </trkpt>
      <trkpt lat="44.35362" lon="4.82391">
        <ele>143.44</ele>
        <time>2026-08-31T08:59:50Z</time>
      </trkpt>
      <trkpt lat="44.3536" lon="4.82395">
        <ele>142.7</ele>
        <time>2026-08-31T08:59:51Z</time>
      </trkpt>
      <trkpt lat="44.35358" lon="4.82397">
        <ele>142.33</ele>
        <time>2026-08-31T08:59:52Z</time>
      </trkpt>
      <trkpt lat="44.35356" lon="4.82399">
        <ele>141.57</ele>
        <time>2026-08-31T08:59:53Z</time>
      </trkpt>
      <trkpt lat="44.35354" lon="4.82401">
        <ele>140.83</ele>
        <time>2026-08-31T08:59:54Z</time>
      </trkpt>
      <trkpt lat="44.35351" lon="4.82405">
        <ele>139.6</ele>
        <time>2026-08-31T08:59:57Z</time>
      </trkpt>
      <trkpt lat="44.35348" lon="4.82408">
        <ele>139.61</ele>
        <time>2026-08-31T09:00:02Z</time>
      </trkpt>
      <trkpt lat="44.35346" lon="4.8241">
        <ele>139.96</ele>
        <time>2026-08-31T09:00:03Z</time>
      </trkpt>
      <trkpt lat="44.35343" lon="4.82411">
        <ele>139.28</ele>
        <time>2026-08-31T09:00:04Z</time>
      </trkpt>
      <trkpt lat="44.35339" lon="4.82411">
        <ele>138.71</ele>
        <time>2026-08-31T09:00:05Z</time>
      </trkpt>
      <trkpt lat="44.35335" lon="4.82412">
        <ele>138.78</ele>
        <time>2026-08-31T09:00:06Z</time>
      </trkpt>
      <trkpt lat="44.35331" lon="4.82411">
        <ele>138.17</ele>
        <time>2026-08-31T09:00:07Z</time>
      </trkpt>
      <trkpt lat="44.35326" lon="4.82411">
        <ele>138.32</ele>
        <time>2026-08-31T09:00:08Z</time>
      </trkpt>
      <trkpt lat="44.35321" lon="4.82412">
        <ele>137.7</ele>
        <time>2026-08-31T09:00:09Z</time>
      </trkpt>
      <trkpt lat="44.35316" lon="4.82412">
        <ele>137.24</ele>
        <time>2026-08-31T09:00:10Z</time>
      </trkpt>
      <trkpt lat="44.3531" lon="4.8241">
        <ele>136.62</ele>
        <time>2026-08-31T09:00:11Z</time>
      </trkpt>
      <trkpt lat="44.35304" lon="4.82409">
        <ele>135.58</ele>
        <time>2026-08-31T09:00:12Z</time>
      </trkpt>
      <trkpt lat="44.35299" lon="4.82408">
        <ele>135.29</ele>
        <time>2026-08-31T09:00:13Z</time>
      </trkpt>
      <trkpt lat="44.35294" lon="4.82407">
        <ele>135.06</ele>
        <time>2026-08-31T09:00:14Z</time>
      </trkpt>
      <trkpt lat="44.3529" lon="4.82405">
        <ele>134.32</ele>
        <time>2026-08-31T09:00:15Z</time>
      </trkpt>
      <trkpt lat="44.35286" lon="4.82402">
        <ele>133.79</ele>
        <time>2026-08-31T09:00:16Z</time>
      </trkpt>
      <trkpt lat="44.35282" lon="4.82399">
        <ele>133.21</ele>
        <time>2026-08-31T09:00:17Z</time>
      </trkpt>
      <trkpt lat="44.35276" lon="4.82397">
        <ele>133.05</ele>
        <time>2026-08-31T09:00:18Z</time>
      </trkpt>
      <trkpt lat="44.35252" lon="4.82391">
        <ele>130.36</ele>
        <time>2026-08-31T09:00:22Z</time>
      </trkpt>
      <trkpt lat="44.35245" lon="4.82391">
        <ele>129.42</ele>
        <time>2026-08-31T09:00:23Z</time>
      </trkpt>
      <trkpt lat="44.35237" lon="4.82392">
        <ele>128.73</ele>
        <time>2026-08-31T09:00:24Z</time>
      </trkpt>
      <trkpt lat="44.3523" lon="4.82392">
        <ele>128.11</ele>
        <time>2026-08-31T09:00:25Z</time>
      </trkpt>
      <trkpt lat="44.35224" lon="4.82393">
        <ele>127.22</ele>
        <time>2026-08-31T09:00:26Z</time>
      </trkpt>
      <trkpt lat="44.35218" lon="4.82393">
        <ele>126.5</ele>
        <time>2026-08-31T09:00:27Z</time>
      </trkpt>
      <trkpt lat="44.35214" lon="4.82393">
        <ele>126.49</ele>
        <time>2026-08-31T09:00:28Z</time>
      </trkpt>
      <trkpt lat="44.3521" lon="4.82392">
        <ele>125.79</ele>
        <time>2026-08-31T09:00:29Z</time>
      </trkpt>
      <trkpt lat="44.35207" lon="4.82392">
        <ele>125.78</ele>
        <time>2026-08-31T09:00:30Z</time>
      </trkpt>
      <trkpt lat="44.35205" lon="4.8239">
        <ele>125.26</ele>
        <time>2026-08-31T09:00:31Z</time>
      </trkpt>
      <trkpt lat="44.35204" lon="4.82388">
        <ele>125.27</ele>
        <time>2026-08-31T09:00:32Z</time>
      </trkpt>
      <trkpt lat="44.35202" lon="4.82385">
        <ele>125.22</ele>
        <time>2026-08-31T09:00:33Z</time>
      </trkpt>
      <trkpt lat="44.35199" lon="4.82382">
        <ele>124.96</ele>
        <time>2026-08-31T09:00:34Z</time>
      </trkpt>
      <trkpt lat="44.35196" lon="4.8238">
        <ele>124.73</ele>
        <time>2026-08-31T09:00:35Z</time>
      </trkpt>
      <trkpt lat="44.35192" lon="4.8238">
        <ele>124.31</ele>
        <time>2026-08-31T09:00:36Z</time>
      </trkpt>
      <trkpt lat="44.35189" lon="4.82381">
        <ele>124.12</ele>
        <time>2026-08-31T09:00:37Z</time>
      </trkpt>
      <trkpt lat="44.35187" lon="4.82383">
        <ele>123.97</ele>
        <time>2026-08-31T09:00:38Z</time>
      </trkpt>
      <trkpt lat="44.35186" lon="4.82386">
        <ele>123.78</ele>
        <time>2026-08-31T09:00:39Z</time>
      </trkpt>
      <trkpt lat="44.35184" lon="4.82389">
        <ele>123.33</ele>
        <time>2026-08-31T09:00:40Z</time>
      </trkpt>
      <trkpt lat="44.35182" lon="4.8239">
        <ele>123.11</ele>
        <time>2026-08-31T09:00:41Z</time>
      </trkpt>
      <trkpt lat="44.3518" lon="4.8239">
        <ele>122.83</ele>
        <time>2026-08-31T09:00:42Z</time>
      </trkpt>
      <trkpt lat="44.35178" lon="4.82388">
        <ele>122.57</ele>
        <time>2026-08-31T09:00:43Z</time>
      </trkpt>
      <trkpt lat="44.35176" lon="4.82387">
        <ele>122.46</ele>
        <time>2026-08-31T09:00:44Z</time>
      </trkpt>
      <trkpt lat="44.35172" lon="4.82385">
        <ele>122.09</ele>
        <time>2026-08-31T09:00:45Z</time>
      </trkpt>
      <trkpt lat="44.35169" lon="4.82385">
        <ele>121.82</ele>
        <time>2026-08-31T09:00:46Z</time>
      </trkpt>
      <trkpt lat="44.35165" lon="4.82386">
        <ele>121.64</ele>
        <time>2026-08-31T09:00:47Z</time>
      </trkpt>
      <trkpt lat="44.35161" lon="4.82386">
        <ele>121.57</ele>
        <time>2026-08-31T09:00:48Z</time>
      </trkpt>
      <trkpt lat="44.35158" lon="4.82387">
        <ele>120.91</ele>
        <time>2026-08-31T09:00:49Z</time>
      </trkpt>
      <trkpt lat="44.35146" lon="4.82382">
        <ele>120.83</ele>
        <time>2026-08-31T09:01:02Z</time>
      </trkpt>
      <trkpt lat="44.35143" lon="4.8238">
        <ele>120.65</ele>
        <time>2026-08-31T09:01:03Z</time>
      </trkpt>
      <trkpt lat="44.35139" lon="4.8238">
        <ele>120.51</ele>
        <time>2026-08-31T09:01:04Z</time>
      </trkpt>
      <trkpt lat="44.35136" lon="4.8238">
        <ele>120.46</ele>
        <time>2026-08-31T09:01:05Z</time>
      </trkpt>
      <trkpt lat="44.35124" lon="4.82382">
        <ele>119.83</ele>
        <time>2026-08-31T09:01:08Z</time>
      </trkpt>
      <trkpt lat="44.35109" lon="4.82375">
        <ele>119.3</ele>
        <time>2026-08-31T09:01:12Z</time>
      </trkpt>
      <trkpt lat="44.35106" lon="4.82376">
        <ele>119.02</ele>
        <time>2026-08-31T09:01:13Z</time>
      </trkpt>
      <trkpt lat="44.35104" lon="4.82376">
        <ele>118.82</ele>
        <time>2026-08-31T09:01:14Z</time>
      </trkpt>
      <trkpt lat="44.35101" lon="4.82375">
        <ele>118.72</ele>
        <time>2026-08-31T09:01:15Z</time>
      </trkpt>
      <trkpt lat="44.35098" lon="4.82373">
        <ele>118.32</ele>
        <time>2026-08-31T09:01:16Z</time>
      </trkpt>
      <trkpt lat="44.35094" lon="4.82372">
        <ele>118.02</ele>
        <time>2026-08-31T09:01:17Z</time>
      </trkpt>
      <trkpt lat="44.3509" lon="4.82371">
        <ele>117.87</ele>
        <time>2026-08-31T09:01:18Z</time>
      </trkpt>
      <trkpt lat="44.35087" lon="4.82373">
        <ele>117.79</ele>
        <time>2026-08-31T09:01:19Z</time>
      </trkpt>
      <trkpt lat="44.35085" lon="4.82376">
        <ele>117.78</ele>
        <time>2026-08-31T09:01:20Z</time>
      </trkpt>
      <trkpt lat="44.35082" lon="4.82378">
        <ele>117.6</ele>
        <time>2026-08-31T09:01:21Z</time>
      </trkpt>
      <trkpt lat="44.35079" lon="4.8238">
        <ele>117.52</ele>
        <time>2026-08-31T09:01:22Z</time>
      </trkpt>
      <trkpt lat="44.35076" lon="4.82382">
        <ele>117.53</ele>
        <time>2026-08-31T09:01:23Z</time>
      </trkpt>
      <trkpt lat="44.35073" lon="4.82383">
        <ele>117.4</ele>
        <time>2026-08-31T09:01:24Z</time>
      </trkpt>
      <trkpt lat="44.3507" lon="4.82384">
        <ele>117.22</ele>
        <time>2026-08-31T09:01:25Z</time>
      </trkpt>
      <trkpt lat="44.35068" lon="4.82385">
        <ele>117.33</ele>
        <time>2026-08-31T09:01:26Z</time>
      </trkpt>
      <trkpt lat="44.35066" lon="4.82387">
        <ele>117.18</ele>
        <time>2026-08-31T09:01:27Z</time>
      </trkpt>
      <trkpt lat="44.35042" lon="4.82384">
        <ele>116.47</ele>
        <time>2026-08-31T09:01:35Z</time>
      </trkpt>
      <trkpt lat="44.35041" lon="4.82382">
        <ele>116.37</ele>
        <time>2026-08-31T09:01:36Z</time>
      </trkpt>
      <trkpt lat="44.3504" lon="4.8238">
        <ele>116.31</ele>
        <time>2026-08-31T09:01:37Z</time>
      </trkpt>
      <trkpt lat="44.3504" lon="4.82377">
        <ele>116.19</ele>
        <time>2026-08-31T09:01:38Z</time>
      </trkpt>
      <trkpt lat="44.35034" lon="4.82372">
        <ele>116.16</ele>
        <time>2026-08-31T09:01:43Z</time>
      </trkpt>
      <trkpt lat="44.35032" lon="4.82371">
        <ele>116.06</ele>
        <time>2026-08-31T09:01:44Z</time>
      </trkpt>
      <trkpt lat="44.35017" lon="4.82368">
        <ele>115.92</ele>
        <time>2026-08-31T09:01:53Z</time>
      </trkpt>
      <trkpt lat="44.35014" lon="4.8237">
        <ele>115.72</ele>
        <time>2026-08-31T09:01:54Z</time>
      </trkpt>
      <trkpt lat="44.35012" lon="4.82372">
        <ele>115.83</ele>
        <time>2026-08-31T09:01:55Z</time>
      </trkpt>
      <trkpt lat="44.3501" lon="4.82374">
        <ele>115.87</ele>
        <time>2026-08-31T09:01:56Z</time>
      </trkpt>
      <trkpt lat="44.35009" lon="4.82377">
        <ele>115.73</ele>
        <time>2026-08-31T09:01:57Z</time>
      </trkpt>
      <trkpt lat="44.35008" lon="4.8238">
        <ele>115.73</ele>
        <time>2026-08-31T09:01:58Z</time>
      </trkpt>
      <trkpt lat="44.35006" lon="4.82383">
        <ele>115.82</ele>
        <time>2026-08-31T09:01:59Z</time>
      </trkpt>
      <trkpt lat="44.34994" lon="4.82402">
        <ele>115.51</ele>
        <time>2026-08-31T09:02:05Z</time>
      </trkpt>
      <trkpt lat="44.34991" lon="4.82403">
        <ele>115.38</ele>
        <time>2026-08-31T09:02:06Z</time>
      </trkpt>
      <trkpt lat="44.34988" lon="4.82403">
        <ele>115.03</ele>
        <time>2026-08-31T09:02:07Z</time>
      </trkpt>
      <trkpt lat="44.34987" lon="4.82402">
        <ele>114.72</ele>
        <time>2026-08-31T09:02:08Z</time>
      </trkpt>
      <trkpt lat="44.34986" lon="4.82399">
        <ele>114.78</ele>
        <time>2026-08-31T09:02:09Z</time>
      </trkpt>
      <trkpt lat="44.34984" lon="4.82396">
        <ele>114.63</ele>
        <time>2026-08-31T09:02:10Z</time>
      </trkpt>
      <trkpt lat="44.34983" lon="4.82391">
        <ele>114.63</ele>
        <time>2026-08-31T09:02:11Z</time>
      </trkpt>
      <trkpt lat="44.34982" lon="4.82388">
        <ele>114.35</ele>
        <time>2026-08-31T09:02:12Z</time>
      </trkpt>
      <trkpt lat="44.3498" lon="4.82385">
        <ele>114.34</ele>
        <time>2026-08-31T09:02:13Z</time>
      </trkpt>
      <trkpt lat="44.34977" lon="4.82382">
        <ele>114.05</ele>
        <time>2026-08-31T09:02:14Z</time>
      </trkpt>
      <trkpt lat="44.34974" lon="4.82379">
        <ele>113.83</ele>
        <time>2026-08-31T09:02:15Z</time>
      </trkpt>
      <trkpt lat="44.34971" lon="4.82376">
        <ele>113.41</ele>
        <time>2026-08-31T09:02:16Z</time>
      </trkpt>
      <trkpt lat="44.34968" lon="4.82374">
        <ele>113.05</ele>
        <time>2026-08-31T09:02:17Z</time>
      </trkpt>
      <trkpt lat="44.34966" lon="4.82373">
        <ele>112.64</ele>
        <time>2026-08-31T09:02:18Z</time>
      </trkpt>
      <trkpt lat="44.34963" lon="4.82373">
        <ele>112.06</ele>
        <time>2026-08-31T09:02:20Z</time>
      </trkpt>
      <trkpt lat="44.34962" lon="4.82375">
        <ele>112.04</ele>
        <time>2026-08-31T09:02:21Z</time>
      </trkpt>
      <trkpt lat="44.34955" lon="4.82373">
        <ele>111.72</ele>
        <time>2026-08-31T09:02:33Z</time>
      </trkpt>
      <trkpt lat="44.34952" lon="4.82376">
        <ele>111.73</ele>
        <time>2026-08-31T09:02:48Z</time>
      </trkpt>
      <trkpt lat="44.34952" lon="4.82378">
        <ele>111.74</ele>
        <time>2026-08-31T09:02:52Z</time>
      </trkpt>
      <trkpt lat="44.34951" lon="4.82381">
        <ele>111.75</ele>
        <time>2026-08-31T09:02:53Z</time>
      </trkpt>
      <trkpt lat="44.34951" lon="4.82385">
        <ele>111.86</ele>
        <time>2026-08-31T09:02:54Z</time>
      </trkpt>
      <trkpt lat="44.34951" lon="4.8239">
        <ele>111.82</ele>
        <time>2026-08-31T09:02:55Z</time>
      </trkpt>
      <trkpt lat="44.34951" lon="4.82395">
        <ele>111.86</ele>
        <time>2026-08-31T09:02:56Z</time>
      </trkpt>
      <trkpt lat="44.34951" lon="4.82399">
        <ele>111.83</ele>
        <time>2026-08-31T09:02:57Z</time>
      </trkpt>
      <trkpt lat="44.3495" lon="4.82429">
        <ele>111.77</ele>
        <time>2026-08-31T09:03:03Z</time>
      </trkpt>
      <trkpt lat="44.3495" lon="4.82435">
        <ele>112.02</ele>
        <time>2026-08-31T09:03:04Z</time>
      </trkpt>
      <trkpt lat="44.3495" lon="4.82491">
        <ele>111.84</ele>
        <time>2026-08-31T09:03:13Z</time>
      </trkpt>
      <trkpt lat="44.3495" lon="4.82497">
        <ele>111.96</ele>
        <time>2026-08-31T09:03:14Z</time>
      </trkpt>
      <trkpt lat="44.3495" lon="4.82504">
        <ele>112.39</ele>
        <time>2026-08-31T09:03:15Z</time>
      </trkpt>
      <trkpt lat="44.34957" lon="4.82616">
        <ele>112.85</ele>
        <time>2026-08-31T09:03:31Z</time>
      </trkpt>
      <trkpt lat="44.34975" lon="4.82686">
        <ele>113.55</ele>
        <time>2026-08-31T09:03:42Z</time>
      </trkpt>
      <trkpt lat="44.35022" lon="4.8277">
        <ele>114.94</ele>
        <time>2026-08-31T09:03:59Z</time>
      </trkpt>
      <trkpt lat="44.35062" lon="4.82821">
        <ele>116.17</ele>
        <time>2026-08-31T09:04:12Z</time>
      </trkpt>
      <trkpt lat="44.35064" lon="4.82825">
        <ele>115.86</ele>
        <time>2026-08-31T09:04:13Z</time>
      </trkpt>
      <trkpt lat="44.35065" lon="4.8283">
        <ele>116.07</ele>
        <time>2026-08-31T09:04:14Z</time>
      </trkpt>
      <trkpt lat="44.35066" lon="4.82836">
        <ele>116.25</ele>
        <time>2026-08-31T09:04:15Z</time>
      </trkpt>
      <trkpt lat="44.35065" lon="4.82841">
        <ele>116.5</ele>
        <time>2026-08-31T09:04:16Z</time>
      </trkpt>
      <trkpt lat="44.35063" lon="4.82845">
        <ele>116.77</ele>
        <time>2026-08-31T09:04:17Z</time>
      </trkpt>
      <trkpt lat="44.35061" lon="4.82849">
        <ele>117.03</ele>
        <time>2026-08-31T09:04:18Z</time>
      </trkpt>
      <trkpt lat="44.35041" lon="4.82875">
        <ele>116.79</ele>
        <time>2026-08-31T09:04:26Z</time>
      </trkpt>
      <trkpt lat="44.3504" lon="4.8288">
        <ele>116.68</ele>
        <time>2026-08-31T09:04:27Z</time>
      </trkpt>
      <trkpt lat="44.35041" lon="4.82884">
        <ele>116.56</ele>
        <time>2026-08-31T09:04:28Z</time>
      </trkpt>
      <trkpt lat="44.35043" lon="4.82887">
        <ele>116.41</ele>
        <time>2026-08-31T09:04:29Z</time>
      </trkpt>
      <trkpt lat="44.35045" lon="4.82889">
        <ele>116.36</ele>
        <time>2026-08-31T09:04:30Z</time>
      </trkpt>
      <trkpt lat="44.35048" lon="4.8289">
        <ele>116.18</ele>
        <time>2026-08-31T09:04:31Z</time>
      </trkpt>
      <trkpt lat="44.35051" lon="4.82891">
        <ele>116.44</ele>
        <time>2026-08-31T09:04:32Z</time>
      </trkpt>
      <trkpt lat="44.35054" lon="4.82891">
        <ele>116.51</ele>
        <time>2026-08-31T09:04:33Z</time>
      </trkpt>
      <trkpt lat="44.35058" lon="4.82892">
        <ele>116.44</ele>
        <time>2026-08-31T09:04:34Z</time>
      </trkpt>
      <trkpt lat="44.35061" lon="4.82892">
        <ele>116.69</ele>
        <time>2026-08-31T09:04:35Z</time>
      </trkpt>
      <trkpt lat="44.35064" lon="4.82893">
        <ele>116.93</ele>
        <time>2026-08-31T09:04:36Z</time>
      </trkpt>
      <trkpt lat="44.35097" lon="4.82898">
        <ele>118.29</ele>
        <time>2026-08-31T09:04:48Z</time>
      </trkpt>
      <trkpt lat="44.35133" lon="4.82913">
        <ele>119.15</ele>
        <time>2026-08-31T09:05:01Z</time>
      </trkpt>
      <trkpt lat="44.35141" lon="4.82918">
        <ele>119.09</ele>
        <time>2026-08-31T09:05:10Z</time>
      </trkpt>
      <trkpt lat="44.35145" lon="4.82924">
        <ele>119.44</ele>
        <time>2026-08-31T09:05:30Z</time>
      </trkpt>
      <trkpt lat="44.35146" lon="4.82928">
        <ele>119.3</ele>
        <time>2026-08-31T09:05:31Z</time>
      </trkpt>
      <trkpt lat="44.35146" lon="4.82932">
        <ele>119.27</ele>
        <time>2026-08-31T09:05:32Z</time>
      </trkpt>
      <trkpt lat="44.35146" lon="4.82937">
        <ele>119.38</ele>
        <time>2026-08-31T09:05:33Z</time>
      </trkpt>
      <trkpt lat="44.35146" lon="4.82941">
        <ele>119.28</ele>
        <time>2026-08-31T09:05:34Z</time>
      </trkpt>
      <trkpt lat="44.35146" lon="4.82945">
        <ele>119.56</ele>
        <time>2026-08-31T09:05:35Z</time>
      </trkpt>
      <trkpt lat="44.35155" lon="4.82986">
        <ele>120.89</ele>
        <time>2026-08-31T09:05:45Z</time>
      </trkpt>
      <trkpt lat="44.35171" lon="4.83017">
        <ele>123.64</ele>
        <time>2026-08-31T09:05:55Z</time>
      </trkpt>
      <trkpt lat="44.35175" lon="4.83022">
        <ele>123.73</ele>
        <time>2026-08-31T09:05:57Z</time>
      </trkpt>
      <trkpt lat="44.35178" lon="4.83023">
        <ele>123.83</ele>
        <time>2026-08-31T09:05:58Z</time>
      </trkpt>
      <trkpt lat="44.35187" lon="4.83025">
        <ele>122.51</ele>
        <time>2026-08-31T09:06:01Z</time>
      </trkpt>
      <trkpt lat="44.35189" lon="4.83028">
        <ele>122.18</ele>
        <time>2026-08-31T09:06:02Z</time>
      </trkpt>
      <trkpt lat="44.35191" lon="4.83031">
        <ele>122.3</ele>
        <time>2026-08-31T09:06:03Z</time>
      </trkpt>
      <trkpt lat="44.35202" lon="4.83057">
        <ele>122.95</ele>
        <time>2026-08-31T09:06:13Z</time>
      </trkpt>
      <trkpt lat="44.35211" lon="4.83077">
        <ele>123.98</ele>
        <time>2026-08-31T09:06:20Z</time>
      </trkpt>
      <trkpt lat="44.35212" lon="4.8308">
        <ele>124.04</ele>
        <time>2026-08-31T09:06:21Z</time>
      </trkpt>
      <trkpt lat="44.35214" lon="4.83083">
        <ele>124.05</ele>
        <time>2026-08-31T09:06:22Z</time>
      </trkpt>
      <trkpt lat="44.35215" lon="4.83085">
        <ele>124.22</ele>
        <time>2026-08-31T09:06:23Z</time>
      </trkpt>
      <trkpt lat="44.35217" lon="4.83089">
        <ele>124.38</ele>
        <time>2026-08-31T09:06:24Z</time>
      </trkpt>
      <trkpt lat="44.35243" lon="4.83133">
        <ele>124.49</ele>
        <time>2026-08-31T09:06:36Z</time>
      </trkpt>
      <trkpt lat="44.35275" lon="4.83184">
        <ele>124.4</ele>
        <time>2026-08-31T09:06:48Z</time>
      </trkpt>
      <trkpt lat="44.35295" lon="4.83233">
        <ele>123.92</ele>
        <time>2026-08-31T09:06:58Z</time>
      </trkpt>
      <trkpt lat="44.35326" lon="4.83294">
        <ele>123.05</ele>
        <time>2026-08-31T09:07:10Z</time>
      </trkpt>
      <trkpt lat="44.35339" lon="4.83321">
        <ele>122.26</ele>
        <time>2026-08-31T09:07:15Z</time>
      </trkpt>
      <trkpt lat="44.35341" lon="4.83326">
        <ele>122</ele>
        <time>2026-08-31T09:07:16Z</time>
      </trkpt>
      <trkpt lat="44.35343" lon="4.83331">
        <ele>122.18</ele>
        <time>2026-08-31T09:07:17Z</time>
      </trkpt>
      <trkpt lat="44.35346" lon="4.83335">
        <ele>121.57</ele>
        <time>2026-08-31T09:07:18Z</time>
      </trkpt>
      <trkpt lat="44.35349" lon="4.8334">
        <ele>121.11</ele>
        <time>2026-08-31T09:07:19Z</time>
      </trkpt>
      <trkpt lat="44.35356" lon="4.83348">
        <ele>121.21</ele>
        <time>2026-08-31T09:07:21Z</time>
      </trkpt>
      <trkpt lat="44.3536" lon="4.83352">
        <ele>121.36</ele>
        <time>2026-08-31T09:07:22Z</time>
      </trkpt>
      <trkpt lat="44.35363" lon="4.83356">
        <ele>121.2</ele>
        <time>2026-08-31T09:07:23Z</time>
      </trkpt>
      <trkpt lat="44.35369" lon="4.83364">
        <ele>121.26</ele>
        <time>2026-08-31T09:07:25Z</time>
      </trkpt>
      <trkpt lat="44.3539" lon="4.83413">
        <ele>121.33</ele>
        <time>2026-08-31T09:07:36Z</time>
      </trkpt>
      <trkpt lat="44.35408" lon="4.83461">
        <ele>121.15</ele>
        <time>2026-08-31T09:07:48Z</time>
      </trkpt>
      <trkpt lat="44.35419" lon="4.83486">
        <ele>121.11</ele>
        <time>2026-08-31T09:07:54Z</time>
      </trkpt>
      <trkpt lat="44.35436" lon="4.83534">
        <ele>121.08</ele>
        <time>2026-08-31T09:08:04Z</time>
      </trkpt>
      <trkpt lat="44.35453" lon="4.83592">
        <ele>121.54</ele>
        <time>2026-08-31T09:08:16Z</time>
      </trkpt>
      <trkpt lat="44.3547" lon="4.83649">
        <ele>122.03</ele>
        <time>2026-08-31T09:08:28Z</time>
      </trkpt>
      <trkpt lat="44.35492" lon="4.83681">
        <ele>122.91</ele>
        <time>2026-08-31T09:08:37Z</time>
      </trkpt>
      <trkpt lat="44.35498" lon="4.83689">
        <ele>122.95</ele>
        <time>2026-08-31T09:08:40Z</time>
      </trkpt>
      <trkpt lat="44.355" lon="4.83691">
        <ele>123.04</ele>
        <time>2026-08-31T09:08:41Z</time>
      </trkpt>
      <trkpt lat="44.35508" lon="4.83692">
        <ele>123.48</ele>
        <time>2026-08-31T09:08:44Z</time>
      </trkpt>
      <trkpt lat="44.3551" lon="4.83691">
        <ele>123.65</ele>
        <time>2026-08-31T09:08:45Z</time>
      </trkpt>
      <trkpt lat="44.35512" lon="4.83691">
        <ele>123.87</ele>
        <time>2026-08-31T09:08:46Z</time>
      </trkpt>
      <trkpt lat="44.35514" lon="4.83693">
        <ele>123.71</ele>
        <time>2026-08-31T09:08:47Z</time>
      </trkpt>
      <trkpt lat="44.35516" lon="4.83695">
        <ele>123.93</ele>
        <time>2026-08-31T09:08:48Z</time>
      </trkpt>
      <trkpt lat="44.35518" lon="4.83696">
        <ele>124.09</ele>
        <time>2026-08-31T09:08:49Z</time>
      </trkpt>
      <trkpt lat="44.35519" lon="4.83696">
        <ele>124.54</ele>
        <time>2026-08-31T09:08:50Z</time>
      </trkpt>
      <trkpt lat="44.35521" lon="4.83695">
        <ele>124.77</ele>
        <time>2026-08-31T09:08:51Z</time>
      </trkpt>
      <trkpt lat="44.35523" lon="4.83694">
        <ele>124.71</ele>
        <time>2026-08-31T09:08:52Z</time>
      </trkpt>
      <trkpt lat="44.35526" lon="4.83693">
        <ele>125.03</ele>
        <time>2026-08-31T09:08:53Z</time>
      </trkpt>
      <trkpt lat="44.35528" lon="4.83691">
        <ele>125.22</ele>
        <time>2026-08-31T09:08:54Z</time>
      </trkpt>
      <trkpt lat="44.3553" lon="4.83688">
        <ele>125.45</ele>
        <time>2026-08-31T09:08:55Z</time>
      </trkpt>
      <trkpt lat="44.35532" lon="4.83686">
        <ele>125.21</ele>
        <time>2026-08-31T09:08:56Z</time>
      </trkpt>
      <trkpt lat="44.35535" lon="4.83684">
        <ele>125.43</ele>
        <time>2026-08-31T09:08:57Z</time>
      </trkpt>
      <trkpt lat="44.35537" lon="4.83682">
        <ele>125.62</ele>
        <time>2026-08-31T09:08:58Z</time>
      </trkpt>
      <trkpt lat="44.35539" lon="4.83681">
        <ele>125.97</ele>
        <time>2026-08-31T09:08:59Z</time>
      </trkpt>
      <trkpt lat="44.35541" lon="4.8368">
        <ele>126.23</ele>
        <time>2026-08-31T09:09:00Z</time>
      </trkpt>
      <trkpt lat="44.35565" lon="4.8366">
        <ele>128.96</ele>
        <time>2026-08-31T09:09:11Z</time>
      </trkpt>
      <trkpt lat="44.35584" lon="4.8364">
        <ele>131.79</ele>
        <time>2026-08-31T09:09:22Z</time>
      </trkpt>
      <trkpt lat="44.35604" lon="4.83653">
        <ele>132.88</ele>
        <time>2026-08-31T09:09:33Z</time>
      </trkpt>
      <trkpt lat="44.35605" lon="4.83655">
        <ele>132.74</ele>
        <time>2026-08-31T09:09:34Z</time>
      </trkpt>
      <trkpt lat="44.35606" lon="4.83658">
        <ele>132.7</ele>
        <time>2026-08-31T09:09:35Z</time>
      </trkpt>
      <trkpt lat="44.35607" lon="4.8366">
        <ele>132.73</ele>
        <time>2026-08-31T09:09:36Z</time>
      </trkpt>
      <trkpt lat="44.35608" lon="4.83662">
        <ele>132.95</ele>
        <time>2026-08-31T09:09:37Z</time>
      </trkpt>
      <trkpt lat="44.3561" lon="4.83664">
        <ele>132.96</ele>
        <time>2026-08-31T09:09:38Z</time>
      </trkpt>
      <trkpt lat="44.35613" lon="4.83665">
        <ele>133.11</ele>
        <time>2026-08-31T09:09:39Z</time>
      </trkpt>
      <trkpt lat="44.35615" lon="4.83666">
        <ele>133.28</ele>
        <time>2026-08-31T09:09:40Z</time>
      </trkpt>
      <trkpt lat="44.35618" lon="4.83667">
        <ele>133.62</ele>
        <time>2026-08-31T09:09:41Z</time>
      </trkpt>
      <trkpt lat="44.35619" lon="4.83669">
        <ele>133.88</ele>
        <time>2026-08-31T09:09:42Z</time>
      </trkpt>
      <trkpt lat="44.3562" lon="4.83671">
        <ele>134.05</ele>
        <time>2026-08-31T09:09:43Z</time>
      </trkpt>
      <trkpt lat="44.35622" lon="4.83674">
        <ele>134.19</ele>
        <time>2026-08-31T09:09:44Z</time>
      </trkpt>
      <trkpt lat="44.35623" lon="4.83675">
        <ele>134.18</ele>
        <time>2026-08-31T09:09:45Z</time>
      </trkpt>
      <trkpt lat="44.35625" lon="4.83676">
        <ele>134.18</ele>
        <time>2026-08-31T09:09:46Z</time>
      </trkpt>
      <trkpt lat="44.35627" lon="4.83676">
        <ele>134.17</ele>
        <time>2026-08-31T09:09:47Z</time>
      </trkpt>
      <trkpt lat="44.35629" lon="4.83676">
        <ele>134.21</ele>
        <time>2026-08-31T09:09:48Z</time>
      </trkpt>
      <trkpt lat="44.35631" lon="4.83676">
        <ele>134.45</ele>
        <time>2026-08-31T09:09:49Z</time>
      </trkpt>
      <trkpt lat="44.35633" lon="4.83677">
        <ele>134.55</ele>
        <time>2026-08-31T09:09:50Z</time>
      </trkpt>
      <trkpt lat="44.35634" lon="4.83678">
        <ele>134.7</ele>
        <time>2026-08-31T09:09:51Z</time>
      </trkpt>
      <trkpt lat="44.35636" lon="4.8368">
        <ele>134.73</ele>
        <time>2026-08-31T09:09:52Z</time>
      </trkpt>
      <trkpt lat="44.35638" lon="4.83681">
        <ele>135.21</ele>
        <time>2026-08-31T09:09:53Z</time>
      </trkpt>
      <trkpt lat="44.35641" lon="4.83682">
        <ele>135.63</ele>
        <time>2026-08-31T09:09:54Z</time>
      </trkpt>
      <trkpt lat="44.35643" lon="4.83682">
        <ele>136.01</ele>
        <time>2026-08-31T09:09:55Z</time>
      </trkpt>
      <trkpt lat="44.35648" lon="4.83683">
        <ele>136.29</ele>
        <time>2026-08-31T09:09:57Z</time>
      </trkpt>
      <trkpt lat="44.35649" lon="4.83682">
        <ele>136.49</ele>
        <time>2026-08-31T09:09:58Z</time>
      </trkpt>
      <trkpt lat="44.35651" lon="4.83681">
        <ele>136.67</ele>
        <time>2026-08-31T09:09:59Z</time>
      </trkpt>
      <trkpt lat="44.35652" lon="4.8368">
        <ele>136.91</ele>
        <time>2026-08-31T09:10:00Z</time>
      </trkpt>
      <trkpt lat="44.35654" lon="4.83679">
        <ele>137.08</ele>
        <time>2026-08-31T09:10:01Z</time>
      </trkpt>
      <trkpt lat="44.35672" lon="4.83667">
        <ele>140.35</ele>
        <time>2026-08-31T09:10:13Z</time>
      </trkpt>
      <trkpt lat="44.35697" lon="4.83676">
        <ele>143.03</ele>
        <time>2026-08-31T09:10:27Z</time>
      </trkpt>
      <trkpt lat="44.35699" lon="4.83676">
        <ele>143.48</ele>
        <time>2026-08-31T09:10:28Z</time>
      </trkpt>
      <trkpt lat="44.357" lon="4.83674">
        <ele>143.75</ele>
        <time>2026-08-31T09:10:29Z</time>
      </trkpt>
      <trkpt lat="44.35715" lon="4.83657">
        <ele>147.05</ele>
        <time>2026-08-31T09:10:39Z</time>
      </trkpt>
      <trkpt lat="44.35728" lon="4.8365">
        <ele>149.05</ele>
        <time>2026-08-31T09:10:51Z</time>
      </trkpt>
      <trkpt lat="44.35736" lon="4.83654">
        <ele>149.93</ele>
        <time>2026-08-31T09:10:57Z</time>
      </trkpt>
      <trkpt lat="44.35738" lon="4.83654">
        <ele>150.27</ele>
        <time>2026-08-31T09:10:58Z</time>
      </trkpt>
      <trkpt lat="44.3574" lon="4.83653">
        <ele>150.37</ele>
        <time>2026-08-31T09:10:59Z</time>
      </trkpt>
      <trkpt lat="44.35763" lon="4.83661">
        <ele>153.04</ele>
        <time>2026-08-31T09:11:12Z</time>
      </trkpt>
      <trkpt lat="44.35775" lon="4.83663">
        <ele>154.99</ele>
        <time>2026-08-31T09:11:19Z</time>
      </trkpt>
      <trkpt lat="44.35776" lon="4.83662">
        <ele>155.2</ele>
        <time>2026-08-31T09:11:20Z</time>
      </trkpt>
      <trkpt lat="44.35778" lon="4.83662">
        <ele>155.6</ele>
        <time>2026-08-31T09:11:21Z</time>
      </trkpt>
      <trkpt lat="44.3578" lon="4.83662">
        <ele>155.63</ele>
        <time>2026-08-31T09:11:22Z</time>
      </trkpt>
      <trkpt lat="44.35782" lon="4.83662">
        <ele>156.02</ele>
        <time>2026-08-31T09:11:23Z</time>
      </trkpt>
      <trkpt lat="44.35784" lon="4.83662">
        <ele>156.31</ele>
        <time>2026-08-31T09:11:24Z</time>
      </trkpt>
      <trkpt lat="44.35805" lon="4.83659">
        <ele>159.68</ele>
        <time>2026-08-31T09:11:35Z</time>
      </trkpt>
      <trkpt lat="44.35817" lon="4.8365">
        <ele>162.11</ele>
        <time>2026-08-31T09:11:42Z</time>
      </trkpt>
      <trkpt lat="44.35818" lon="4.83648">
        <ele>162.5</ele>
        <time>2026-08-31T09:11:43Z</time>
      </trkpt>
      <trkpt lat="44.35818" lon="4.83646">
        <ele>162.71</ele>
        <time>2026-08-31T09:11:44Z</time>
      </trkpt>
      <trkpt lat="44.35819" lon="4.83644">
        <ele>163</ele>
        <time>2026-08-31T09:11:45Z</time>
      </trkpt>
      <trkpt lat="44.3582" lon="4.83642">
        <ele>163.11</ele>
        <time>2026-08-31T09:11:46Z</time>
      </trkpt>
      <trkpt lat="44.35821" lon="4.8364">
        <ele>163.44</ele>
        <time>2026-08-31T09:11:47Z</time>
      </trkpt>
      <trkpt lat="44.35822" lon="4.83639">
        <ele>163.72</ele>
        <time>2026-08-31T09:11:48Z</time>
      </trkpt>
      <trkpt lat="44.35823" lon="4.83637">
        <ele>163.99</ele>
        <time>2026-08-31T09:11:49Z</time>
      </trkpt>
      <trkpt lat="44.35824" lon="4.83635">
        <ele>164.27</ele>
        <time>2026-08-31T09:11:50Z</time>
      </trkpt>
      <trkpt lat="44.35825" lon="4.83633">
        <ele>164.46</ele>
        <time>2026-08-31T09:11:51Z</time>
      </trkpt>
      <trkpt lat="44.35826" lon="4.83631">
        <ele>164.71</ele>
        <time>2026-08-31T09:11:52Z</time>
      </trkpt>
      <trkpt lat="44.35827" lon="4.83629">
        <ele>164.91</ele>
        <time>2026-08-31T09:11:53Z</time>
      </trkpt>
      <trkpt lat="44.35829" lon="4.83627">
        <ele>165.21</ele>
        <time>2026-08-31T09:12:01Z</time>
      </trkpt>
      <trkpt lat="44.3583" lon="4.83625">
        <ele>165.51</ele>
        <time>2026-08-31T09:12:02Z</time>
      </trkpt>
      <trkpt lat="44.35832" lon="4.83623">
        <ele>165.82</ele>
        <time>2026-08-31T09:12:03Z</time>
      </trkpt>
      <trkpt lat="44.35833" lon="4.83622">
        <ele>166.22</ele>
        <time>2026-08-31T09:12:04Z</time>
      </trkpt>
      <trkpt lat="44.35834" lon="4.8362">
        <ele>166.77</ele>
        <time>2026-08-31T09:12:05Z</time>
      </trkpt>
      <trkpt lat="44.35836" lon="4.83618">
        <ele>167.06</ele>
        <time>2026-08-31T09:12:06Z</time>
      </trkpt>
      <trkpt lat="44.35837" lon="4.83616">
        <ele>167.45</ele>
        <time>2026-08-31T09:12:07Z</time>
      </trkpt>
      <trkpt lat="44.35838" lon="4.83614">
        <ele>167.4</ele>
        <time>2026-08-31T09:12:08Z</time>
      </trkpt>
      <trkpt lat="44.35842" lon="4.83605">
        <ele>168.66</ele>
        <time>2026-08-31T09:12:12Z</time>
      </trkpt>
      <trkpt lat="44.35843" lon="4.83602">
        <ele>168.86</ele>
        <time>2026-08-31T09:12:13Z</time>
      </trkpt>
      <trkpt lat="44.35852" lon="4.83577">
        <ele>171.7</ele>
        <time>2026-08-31T09:12:23Z</time>
      </trkpt>
      <trkpt lat="44.35853" lon="4.83575">
        <ele>172.01</ele>
        <time>2026-08-31T09:12:24Z</time>
      </trkpt>
      <trkpt lat="44.35854" lon="4.83573">
        <ele>172.19</ele>
        <time>2026-08-31T09:12:25Z</time>
      </trkpt>
      <trkpt lat="44.35854" lon="4.8357">
        <ele>172.42</ele>
        <time>2026-08-31T09:12:26Z</time>
      </trkpt>
      <trkpt lat="44.35855" lon="4.83568">
        <ele>172.63</ele>
        <time>2026-08-31T09:12:27Z</time>
      </trkpt>
      <trkpt lat="44.35855" lon="4.83565">
        <ele>173.14</ele>
        <time>2026-08-31T09:12:28Z</time>
      </trkpt>
      <trkpt lat="44.35856" lon="4.83562">
        <ele>173.45</ele>
        <time>2026-08-31T09:12:29Z</time>
      </trkpt>
      <trkpt lat="44.35866" lon="4.83534">
        <ele>176.48</ele>
        <time>2026-08-31T09:12:41Z</time>
      </trkpt>
      <trkpt lat="44.35873" lon="4.83507">
        <ele>179.66</ele>
        <time>2026-08-31T09:12:52Z</time>
      </trkpt>
      <trkpt lat="44.35878" lon="4.83498">
        <ele>180.87</ele>
        <time>2026-08-31T09:12:56Z</time>
      </trkpt>
      <trkpt lat="44.35879" lon="4.83495">
        <ele>181.06</ele>
        <time>2026-08-31T09:12:57Z</time>
      </trkpt>
      <trkpt lat="44.3588" lon="4.83493">
        <ele>181.31</ele>
        <time>2026-08-31T09:12:58Z</time>
      </trkpt>
      <trkpt lat="44.35881" lon="4.8349">
        <ele>181.74</ele>
        <time>2026-08-31T09:12:59Z</time>
      </trkpt>
      <trkpt lat="44.35881" lon="4.83487">
        <ele>181.95</ele>
        <time>2026-08-31T09:13:00Z</time>
      </trkpt>
      <trkpt lat="44.35882" lon="4.83485">
        <ele>182.31</ele>
        <time>2026-08-31T09:13:01Z</time>
      </trkpt>
      <trkpt lat="44.35883" lon="4.83483">
        <ele>182.47</ele>
        <time>2026-08-31T09:13:02Z</time>
      </trkpt>
      <trkpt lat="44.35884" lon="4.8348">
        <ele>182.92</ele>
        <time>2026-08-31T09:13:03Z</time>
      </trkpt>
      <trkpt lat="44.35885" lon="4.83477">
        <ele>183.16</ele>
        <time>2026-08-31T09:13:04Z</time>
      </trkpt>
      <trkpt lat="44.35885" lon="4.83474">
        <ele>183.48</ele>
        <time>2026-08-31T09:13:05Z</time>
      </trkpt>
      <trkpt lat="44.35885" lon="4.83471">
        <ele>183.93</ele>
        <time>2026-08-31T09:13:06Z</time>
      </trkpt>
      <trkpt lat="44.35885" lon="4.83468">
        <ele>184.07</ele>
        <time>2026-08-31T09:13:07Z</time>
      </trkpt>
      <trkpt lat="44.35888" lon="4.83459">
        <ele>185.06</ele>
        <time>2026-08-31T09:13:11Z</time>
      </trkpt>
      <trkpt lat="44.35888" lon="4.83457">
        <ele>185.48</ele>
        <time>2026-08-31T09:13:12Z</time>
      </trkpt>
      <trkpt lat="44.35888" lon="4.83454">
        <ele>185.68</ele>
        <time>2026-08-31T09:13:13Z</time>
      </trkpt>
      <trkpt lat="44.35887" lon="4.83452">
        <ele>185.93</ele>
        <time>2026-08-31T09:13:14Z</time>
      </trkpt>
      <trkpt lat="44.35888" lon="4.8345">
        <ele>186.01</ele>
        <time>2026-08-31T09:13:15Z</time>
      </trkpt>
      <trkpt lat="44.35888" lon="4.83448">
        <ele>186.09</ele>
        <time>2026-08-31T09:13:16Z</time>
      </trkpt>
      <trkpt lat="44.35889" lon="4.83445">
        <ele>186.1</ele>
        <time>2026-08-31T09:13:17Z</time>
      </trkpt>
      <trkpt lat="44.3589" lon="4.83443">
        <ele>186.47</ele>
        <time>2026-08-31T09:13:18Z</time>
      </trkpt>
      <trkpt lat="44.35891" lon="4.8344">
        <ele>186.8</ele>
        <time>2026-08-31T09:13:19Z</time>
      </trkpt>
      <trkpt lat="44.35898" lon="4.83408">
        <ele>189.35</ele>
        <time>2026-08-31T09:13:32Z</time>
      </trkpt>
      <trkpt lat="44.35908" lon="4.83369">
        <ele>191.15</ele>
        <time>2026-08-31T09:13:45Z</time>
      </trkpt>
      <trkpt lat="44.35918" lon="4.8335">
        <ele>191.17</ele>
        <time>2026-08-31T09:13:53Z</time>
      </trkpt>
      <trkpt lat="44.3592" lon="4.83349">
        <ele>191.24</ele>
        <time>2026-08-31T09:13:54Z</time>
      </trkpt>
      <trkpt lat="44.35934" lon="4.83349">
        <ele>191.85</ele>
        <time>2026-08-31T09:14:06Z</time>
      </trkpt>
      <trkpt lat="44.35935" lon="4.83349">
        <ele>191.97</ele>
        <time>2026-08-31T09:15:08Z</time>
      </trkpt>
      <trkpt lat="44.35937" lon="4.83349">
        <ele>192.52</ele>
        <time>2026-08-31T09:15:59Z</time>
      </trkpt>
      <trkpt lat="44.35934" lon="4.8335">
        <ele>192.55</ele>
        <time>2026-08-31T09:17:02Z</time>
      </trkpt>
      <trkpt lat="44.35935" lon="4.83348">
        <ele>193.1</ele>
        <time>2026-08-31T09:18:01Z</time>
      </trkpt>
      <trkpt lat="44.35936" lon="4.83351">
        <ele>193.3</ele>
        <time>2026-08-31T09:19:05Z</time>
      </trkpt>
      <trkpt lat="44.35936" lon="4.83353">
        <ele>193.49</ele>
        <time>2026-08-31T09:20:07Z</time>
      </trkpt>
      <trkpt lat="44.35936" lon="4.83354">
        <ele>194.69</ele>
        <time>2026-08-31T09:21:08Z</time>
      </trkpt>
      <trkpt lat="44.35935" lon="4.83354">
        <ele>194.73</ele>
        <time>2026-08-31T09:22:07Z</time>
      </trkpt>
      <trkpt lat="44.35934" lon="4.83354">
        <ele>195.06</ele>
        <time>2026-08-31T09:23:06Z</time>
      </trkpt>
      <trkpt lat="44.35935" lon="4.83354">
        <ele>195.77</ele>
        <time>2026-08-31T09:24:06Z</time>
      </trkpt>
      <trkpt lat="44.35935" lon="4.83352">
        <ele>196.57</ele>
        <time>2026-08-31T09:25:14Z</time>
      </trkpt>
      <trkpt lat="44.35933" lon="4.83352">
        <ele>197.1</ele>
        <time>2026-08-31T09:26:25Z</time>
      </trkpt>
      <trkpt lat="44.35935" lon="4.83353">
        <ele>197.86</ele>
        <time>2026-08-31T09:27:34Z</time>
      </trkpt>
      <trkpt lat="44.35936" lon="4.83353">
        <ele>198.44</ele>
        <time>2026-08-31T09:28:26Z</time>
      </trkpt>
      <trkpt lat="44.35936" lon="4.83353">
        <ele>198.95</ele>
        <time>2026-08-31T09:29:17Z</time>
      </trkpt>
      <trkpt lat="44.35937" lon="4.8335">
        <ele>199.7</ele>
        <time>2026-08-31T09:30:09Z</time>
      </trkpt>
      <trkpt lat="44.35946" lon="4.83355">
        <ele>201.02</ele>
        <time>2026-08-31T09:30:28Z</time>
      </trkpt>
      <trkpt lat="44.35966" lon="4.83373">
        <ele>203.38</ele>
        <time>2026-08-31T09:30:40Z</time>
      </trkpt>
      <trkpt lat="44.35989" lon="4.83373">
        <ele>205.99</ele>
        <time>2026-08-31T09:30:52Z</time>
      </trkpt>
      <trkpt lat="44.36011" lon="4.83379">
        <ele>209.17</ele>
        <time>2026-08-31T09:31:03Z</time>
      </trkpt>
      <trkpt lat="44.36013" lon="4.83381">
        <ele>209.3</ele>
        <time>2026-08-31T09:31:04Z</time>
      </trkpt>
      <trkpt lat="44.3604" lon="4.83398">
        <ele>209.63</ele>
        <time>2026-08-31T09:31:16Z</time>
      </trkpt>
      <trkpt lat="44.36061" lon="4.8342">
        <ele>210.61</ele>
        <time>2026-08-31T09:31:27Z</time>
      </trkpt>
      <trkpt lat="44.36085" lon="4.83444">
        <ele>211.94</ele>
        <time>2026-08-31T09:31:38Z</time>
      </trkpt>
      <trkpt lat="44.36118" lon="4.83457">
        <ele>211.07</ele>
        <time>2026-08-31T09:31:50Z</time>
      </trkpt>
      <trkpt lat="44.36147" lon="4.83472">
        <ele>210.75</ele>
        <time>2026-08-31T09:32:00Z</time>
      </trkpt>
      <trkpt lat="44.36157" lon="4.83475">
        <ele>211.28</ele>
        <time>2026-08-31T09:32:06Z</time>
      </trkpt>
      <trkpt lat="44.36159" lon="4.83476">
        <ele>211.03</ele>
        <time>2026-08-31T09:32:07Z</time>
      </trkpt>
      <trkpt lat="44.36161" lon="4.83477">
        <ele>210.78</ele>
        <time>2026-08-31T09:32:08Z</time>
      </trkpt>
      <trkpt lat="44.36164" lon="4.8348">
        <ele>210.53</ele>
        <time>2026-08-31T09:32:09Z</time>
      </trkpt>
      <trkpt lat="44.36166" lon="4.83487">
        <ele>209.66</ele>
        <time>2026-08-31T09:32:11Z</time>
      </trkpt>
      <trkpt lat="44.36167" lon="4.83492">
        <ele>209.42</ele>
        <time>2026-08-31T09:32:12Z</time>
      </trkpt>
      <trkpt lat="44.36168" lon="4.83497">
        <ele>209.18</ele>
        <time>2026-08-31T09:32:13Z</time>
      </trkpt>
      <trkpt lat="44.36174" lon="4.83524">
        <ele>207.39</ele>
        <time>2026-08-31T09:32:18Z</time>
      </trkpt>
      <trkpt lat="44.36176" lon="4.8353">
        <ele>206.76</ele>
        <time>2026-08-31T09:32:19Z</time>
      </trkpt>
      <trkpt lat="44.36177" lon="4.83536">
        <ele>206.56</ele>
        <time>2026-08-31T09:32:20Z</time>
      </trkpt>
      <trkpt lat="44.36183" lon="4.83554">
        <ele>205.28</ele>
        <time>2026-08-31T09:32:27Z</time>
      </trkpt>
      <trkpt lat="44.36185" lon="4.83555">
        <ele>205.2</ele>
        <time>2026-08-31T09:32:28Z</time>
      </trkpt>
      <trkpt lat="44.36188" lon="4.83556">
        <ele>204.85</ele>
        <time>2026-08-31T09:32:29Z</time>
      </trkpt>
      <trkpt lat="44.36191" lon="4.83556">
        <ele>204.82</ele>
        <time>2026-08-31T09:32:30Z</time>
      </trkpt>
      <trkpt lat="44.36193" lon="4.83556">
        <ele>204.44</ele>
        <time>2026-08-31T09:32:31Z</time>
      </trkpt>
      <trkpt lat="44.36211" lon="4.83553">
        <ele>202.13</ele>
        <time>2026-08-31T09:32:36Z</time>
      </trkpt>
      <trkpt lat="44.36226" lon="4.83545">
        <ele>200.62</ele>
        <time>2026-08-31T09:32:44Z</time>
      </trkpt>
      <trkpt lat="44.36234" lon="4.83543">
        <ele>200.2</ele>
        <time>2026-08-31T09:32:52Z</time>
      </trkpt>
      <trkpt lat="44.36235" lon="4.83543">
        <ele>199.86</ele>
        <time>2026-08-31T09:32:53Z</time>
      </trkpt>
      <trkpt lat="44.36236" lon="4.83542">
        <ele>199.82</ele>
        <time>2026-08-31T09:32:54Z</time>
      </trkpt>
      <trkpt lat="44.36242" lon="4.83541">
        <ele>199.78</ele>
        <time>2026-08-31T09:32:57Z</time>
      </trkpt>
      <trkpt lat="44.36243" lon="4.83542">
        <ele>199.92</ele>
        <time>2026-08-31T09:32:58Z</time>
      </trkpt>
      <trkpt lat="44.36246" lon="4.83543">
        <ele>199.72</ele>
        <time>2026-08-31T09:33:00Z</time>
      </trkpt>
      <trkpt lat="44.36248" lon="4.83543">
        <ele>199.59</ele>
        <time>2026-08-31T09:33:01Z</time>
      </trkpt>
      <trkpt lat="44.3625" lon="4.83542">
        <ele>199.65</ele>
        <time>2026-08-31T09:33:02Z</time>
      </trkpt>
      <trkpt lat="44.36256" lon="4.83538">
        <ele>199.4</ele>
        <time>2026-08-31T09:33:18Z</time>
      </trkpt>
      <trkpt lat="44.36258" lon="4.83535">
        <ele>199.23</ele>
        <time>2026-08-31T09:33:20Z</time>
      </trkpt>
      <trkpt lat="44.3626" lon="4.83532">
        <ele>199.17</ele>
        <time>2026-08-31T09:33:21Z</time>
      </trkpt>
      <trkpt lat="44.36262" lon="4.83531">
        <ele>199.34</ele>
        <time>2026-08-31T09:33:22Z</time>
      </trkpt>
      <trkpt lat="44.36264" lon="4.8353">
        <ele>199.71</ele>
        <time>2026-08-31T09:33:23Z</time>
      </trkpt>
      <trkpt lat="44.36266" lon="4.8353">
        <ele>199.81</ele>
        <time>2026-08-31T09:33:24Z</time>
      </trkpt>
      <trkpt lat="44.36269" lon="4.83529">
        <ele>200.03</ele>
        <time>2026-08-31T09:33:25Z</time>
      </trkpt>
      <trkpt lat="44.36271" lon="4.83528">
        <ele>200.16</ele>
        <time>2026-08-31T09:33:26Z</time>
      </trkpt>
      <trkpt lat="44.36274" lon="4.83527">
        <ele>200.42</ele>
        <time>2026-08-31T09:33:27Z</time>
      </trkpt>
      <trkpt lat="44.36277" lon="4.83526">
        <ele>200.52</ele>
        <time>2026-08-31T09:33:28Z</time>
      </trkpt>
      <trkpt lat="44.3628" lon="4.83525">
        <ele>200.53</ele>
        <time>2026-08-31T09:33:29Z</time>
      </trkpt>
      <trkpt lat="44.36282" lon="4.83525">
        <ele>200.26</ele>
        <time>2026-08-31T09:33:30Z</time>
      </trkpt>
      <trkpt lat="44.36301" lon="4.83522">
        <ele>200</ele>
        <time>2026-08-31T09:33:37Z</time>
      </trkpt>
      <trkpt lat="44.36303" lon="4.83523">
        <ele>200.08</ele>
        <time>2026-08-31T09:33:38Z</time>
      </trkpt>
      <trkpt lat="44.36305" lon="4.83524">
        <ele>200.15</ele>
        <time>2026-08-31T09:33:39Z</time>
      </trkpt>
      <trkpt lat="44.36322" lon="4.83527">
        <ele>200.02</ele>
        <time>2026-08-31T09:33:45Z</time>
      </trkpt>
      <trkpt lat="44.36341" lon="4.83511">
        <ele>201.3</ele>
        <time>2026-08-31T09:33:54Z</time>
      </trkpt>
      <trkpt lat="44.36355" lon="4.83497">
        <ele>202.43</ele>
        <time>2026-08-31T09:34:03Z</time>
      </trkpt>
      <trkpt lat="44.36356" lon="4.83496">
        <ele>202.66</ele>
        <time>2026-08-31T09:34:04Z</time>
      </trkpt>
      <trkpt lat="44.36356" lon="4.83494">
        <ele>202.96</ele>
        <time>2026-08-31T09:34:05Z</time>
      </trkpt>
      <trkpt lat="44.36356" lon="4.83492">
        <ele>203.29</ele>
        <time>2026-08-31T09:34:06Z</time>
      </trkpt>
      <trkpt lat="44.36356" lon="4.8349">
        <ele>203.6</ele>
        <time>2026-08-31T09:34:07Z</time>
      </trkpt>
      <trkpt lat="44.36356" lon="4.83487">
        <ele>204.08</ele>
        <time>2026-08-31T09:34:08Z</time>
      </trkpt>
      <trkpt lat="44.36356" lon="4.83484">
        <ele>204.17</ele>
        <time>2026-08-31T09:34:09Z</time>
      </trkpt>
      <trkpt lat="44.36358" lon="4.8348">
        <ele>204.75</ele>
        <time>2026-08-31T09:34:10Z</time>
      </trkpt>
      <trkpt lat="44.36359" lon="4.83455">
        <ele>208.01</ele>
        <time>2026-08-31T09:34:17Z</time>
      </trkpt>
      <trkpt lat="44.36362" lon="4.83445">
        <ele>209.44</ele>
        <time>2026-08-31T09:34:20Z</time>
      </trkpt>
      <trkpt lat="44.36357" lon="4.8343">
        <ele>212</ele>
        <time>2026-08-31T09:34:25Z</time>
      </trkpt>
      <trkpt lat="44.36351" lon="4.83401">
        <ele>214.48</ele>
        <time>2026-08-31T09:34:37Z</time>
      </trkpt>
      <trkpt lat="44.3635" lon="4.83397">
        <ele>214.7</ele>
        <time>2026-08-31T09:34:43Z</time>
      </trkpt>
      <trkpt lat="44.36348" lon="4.83396">
        <ele>214.63</ele>
        <time>2026-08-31T09:34:44Z</time>
      </trkpt>
      <trkpt lat="44.36347" lon="4.83396">
        <ele>214.51</ele>
        <time>2026-08-31T09:34:45Z</time>
      </trkpt>
      <trkpt lat="44.36324" lon="4.83388">
        <ele>213.9</ele>
        <time>2026-08-31T09:34:56Z</time>
      </trkpt>
      <trkpt lat="44.36299" lon="4.83382">
        <ele>213.9</ele>
        <time>2026-08-31T09:35:05Z</time>
      </trkpt>
      <trkpt lat="44.36297" lon="4.83382">
        <ele>214.08</ele>
        <time>2026-08-31T09:35:06Z</time>
      </trkpt>
      <trkpt lat="44.36295" lon="4.83384">
        <ele>214.2</ele>
        <time>2026-08-31T09:35:07Z</time>
      </trkpt>
      <trkpt lat="44.36272" lon="4.83388">
        <ele>212.83</ele>
        <time>2026-08-31T09:35:14Z</time>
      </trkpt>
      <trkpt lat="44.36247" lon="4.8339">
        <ele>211.03</ele>
        <time>2026-08-31T09:35:19Z</time>
      </trkpt>
      <trkpt lat="44.36218" lon="4.83392">
        <ele>209.06</ele>
        <time>2026-08-31T09:35:27Z</time>
      </trkpt>
      <trkpt lat="44.36217" lon="4.8339">
        <ele>209.07</ele>
        <time>2026-08-31T09:35:28Z</time>
      </trkpt>
      <trkpt lat="44.36217" lon="4.83389">
        <ele>209.19</ele>
        <time>2026-08-31T09:35:29Z</time>
      </trkpt>
      <trkpt lat="44.36217" lon="4.83387">
        <ele>209.24</ele>
        <time>2026-08-31T09:35:30Z</time>
      </trkpt>
      <trkpt lat="44.36217" lon="4.83386">
        <ele>209.2</ele>
        <time>2026-08-31T09:35:31Z</time>
      </trkpt>
      <trkpt lat="44.3622" lon="4.83377">
        <ele>209.42</ele>
        <time>2026-08-31T09:35:36Z</time>
      </trkpt>
      <trkpt lat="44.3622" lon="4.83373">
        <ele>209.6</ele>
        <time>2026-08-31T09:35:37Z</time>
      </trkpt>
      <trkpt lat="44.36221" lon="4.83369">
        <ele>209.65</ele>
        <time>2026-08-31T09:35:38Z</time>
      </trkpt>
      <trkpt lat="44.36221" lon="4.83365">
        <ele>209.49</ele>
        <time>2026-08-31T09:35:39Z</time>
      </trkpt>
      <trkpt lat="44.36221" lon="4.83361">
        <ele>209.51</ele>
        <time>2026-08-31T09:35:40Z</time>
      </trkpt>
      <trkpt lat="44.36222" lon="4.83357">
        <ele>209.36</ele>
        <time>2026-08-31T09:35:41Z</time>
      </trkpt>
      <trkpt lat="44.36235" lon="4.83329">
        <ele>207.2</ele>
        <time>2026-08-31T09:35:49Z</time>
      </trkpt>
      <trkpt lat="44.36237" lon="4.83323">
        <ele>206.26</ele>
        <time>2026-08-31T09:35:50Z</time>
      </trkpt>
      <trkpt lat="44.36238" lon="4.83317">
        <ele>205.73</ele>
        <time>2026-08-31T09:35:51Z</time>
      </trkpt>
      <trkpt lat="44.3624" lon="4.83305">
        <ele>204.13</ele>
        <time>2026-08-31T09:35:53Z</time>
      </trkpt>
      <trkpt lat="44.36243" lon="4.83299">
        <ele>203.63</ele>
        <time>2026-08-31T09:35:54Z</time>
      </trkpt>
      <trkpt lat="44.36245" lon="4.83295">
        <ele>203.94</ele>
        <time>2026-08-31T09:35:55Z</time>
      </trkpt>
      <trkpt lat="44.36255" lon="4.83264">
        <ele>206.78</ele>
        <time>2026-08-31T09:36:06Z</time>
      </trkpt>
      <trkpt lat="44.36254" lon="4.83256">
        <ele>206.81</ele>
        <time>2026-08-31T09:36:11Z</time>
      </trkpt>
      <trkpt lat="44.36253" lon="4.83254">
        <ele>206.08</ele>
        <time>2026-08-31T09:36:12Z</time>
      </trkpt>
      <trkpt lat="44.36252" lon="4.8325">
        <ele>205.97</ele>
        <time>2026-08-31T09:36:13Z</time>
      </trkpt>
      <trkpt lat="44.3625" lon="4.83247">
        <ele>205.5</ele>
        <time>2026-08-31T09:36:14Z</time>
      </trkpt>
      <trkpt lat="44.36249" lon="4.83244">
        <ele>205.41</ele>
        <time>2026-08-31T09:36:15Z</time>
      </trkpt>
      <trkpt lat="44.36249" lon="4.83241">
        <ele>205.09</ele>
        <time>2026-08-31T09:36:16Z</time>
      </trkpt>
      <trkpt lat="44.36249" lon="4.83235">
        <ele>204.47</ele>
        <time>2026-08-31T09:36:18Z</time>
      </trkpt>
      <trkpt lat="44.36248" lon="4.83232">
        <ele>204.3</ele>
        <time>2026-08-31T09:36:19Z</time>
      </trkpt>
      <trkpt lat="44.36246" lon="4.83228">
        <ele>203.75</ele>
        <time>2026-08-31T09:36:20Z</time>
      </trkpt>
      <trkpt lat="44.36244" lon="4.83226">
        <ele>203.42</ele>
        <time>2026-08-31T09:36:21Z</time>
      </trkpt>
      <trkpt lat="44.36243" lon="4.83224">
        <ele>203.06</ele>
        <time>2026-08-31T09:36:22Z</time>
      </trkpt>
      <trkpt lat="44.36241" lon="4.83222">
        <ele>202.69</ele>
        <time>2026-08-31T09:36:23Z</time>
      </trkpt>
      <trkpt lat="44.36241" lon="4.8322">
        <ele>202.53</ele>
        <time>2026-08-31T09:36:24Z</time>
      </trkpt>
      <trkpt lat="44.36242" lon="4.83217">
        <ele>202.48</ele>
        <time>2026-08-31T09:36:25Z</time>
      </trkpt>
      <trkpt lat="44.36245" lon="4.83214">
        <ele>201.62</ele>
        <time>2026-08-31T09:36:27Z</time>
      </trkpt>
      <trkpt lat="44.36246" lon="4.83213">
        <ele>200.96</ele>
        <time>2026-08-31T09:36:28Z</time>
      </trkpt>
      <trkpt lat="44.36247" lon="4.83213">
        <ele>200.86</ele>
        <time>2026-08-31T09:36:29Z</time>
      </trkpt>
      <trkpt lat="44.36248" lon="4.83213">
        <ele>201.01</ele>
        <time>2026-08-31T09:36:30Z</time>
      </trkpt>
      <trkpt lat="44.36265" lon="4.8321">
        <ele>202.6</ele>
        <time>2026-08-31T09:36:40Z</time>
      </trkpt>
      <trkpt lat="44.36287" lon="4.83213">
        <ele>203.79</ele>
        <time>2026-08-31T09:36:53Z</time>
      </trkpt>
      <trkpt lat="44.36305" lon="4.8322">
        <ele>205.8</ele>
        <time>2026-08-31T09:37:03Z</time>
      </trkpt>
      <trkpt lat="44.36307" lon="4.8322">
        <ele>206</ele>
        <time>2026-08-31T09:37:04Z</time>
      </trkpt>
      <trkpt lat="44.36309" lon="4.83221">
        <ele>206.28</ele>
        <time>2026-08-31T09:37:05Z</time>
      </trkpt>
      <trkpt lat="44.3631" lon="4.83222">
        <ele>206.7</ele>
        <time>2026-08-31T09:37:06Z</time>
      </trkpt>
      <trkpt lat="44.36312" lon="4.83222">
        <ele>206.79</ele>
        <time>2026-08-31T09:37:07Z</time>
      </trkpt>
      <trkpt lat="44.36314" lon="4.83222">
        <ele>206.98</ele>
        <time>2026-08-31T09:37:08Z</time>
      </trkpt>
      <trkpt lat="44.36334" lon="4.8323">
        <ele>208.5</ele>
        <time>2026-08-31T09:37:18Z</time>
      </trkpt>
      <trkpt lat="44.36339" lon="4.83228">
        <ele>209.79</ele>
        <time>2026-08-31T09:37:21Z</time>
      </trkpt>
      <trkpt lat="44.3634" lon="4.83228">
        <ele>210.12</ele>
        <time>2026-08-31T09:37:22Z</time>
      </trkpt>
      <trkpt lat="44.36342" lon="4.83228">
        <ele>210.46</ele>
        <time>2026-08-31T09:37:23Z</time>
      </trkpt>
      <trkpt lat="44.36343" lon="4.83228">
        <ele>210.68</ele>
        <time>2026-08-31T09:37:24Z</time>
      </trkpt>
      <trkpt lat="44.36345" lon="4.83227">
        <ele>210.96</ele>
        <time>2026-08-31T09:37:25Z</time>
      </trkpt>
      <trkpt lat="44.36346" lon="4.83226">
        <ele>211.34</ele>
        <time>2026-08-31T09:37:26Z</time>
      </trkpt>
      <trkpt lat="44.36358" lon="4.83223">
        <ele>213.41</ele>
        <time>2026-08-31T09:37:34Z</time>
      </trkpt>
      <trkpt lat="44.3636" lon="4.83223">
        <ele>213.48</ele>
        <time>2026-08-31T09:37:35Z</time>
      </trkpt>
      <trkpt lat="44.36362" lon="4.83223">
        <ele>213.41</ele>
        <time>2026-08-31T09:37:36Z</time>
      </trkpt>
      <trkpt lat="44.36364" lon="4.83223">
        <ele>213.65</ele>
        <time>2026-08-31T09:37:37Z</time>
      </trkpt>
      <trkpt lat="44.36367" lon="4.83221">
        <ele>213.96</ele>
        <time>2026-08-31T09:37:38Z</time>
      </trkpt>
      <trkpt lat="44.36368" lon="4.83218">
        <ele>214.39</ele>
        <time>2026-08-31T09:37:39Z</time>
      </trkpt>
      <trkpt lat="44.3637" lon="4.83215">
        <ele>214.61</ele>
        <time>2026-08-31T09:37:40Z</time>
      </trkpt>
      <trkpt lat="44.36371" lon="4.83213">
        <ele>215.08</ele>
        <time>2026-08-31T09:37:41Z</time>
      </trkpt>
      <trkpt lat="44.36373" lon="4.83212">
        <ele>215.5</ele>
        <time>2026-08-31T09:37:42Z</time>
      </trkpt>
      <trkpt lat="44.36374" lon="4.8321">
        <ele>215.7</ele>
        <time>2026-08-31T09:37:43Z</time>
      </trkpt>
      <trkpt lat="44.36376" lon="4.83204">
        <ele>215.32</ele>
        <time>2026-08-31T09:37:54Z</time>
      </trkpt>
      <trkpt lat="44.36379" lon="4.83202">
        <ele>216.12</ele>
        <time>2026-08-31T09:38:58Z</time>
      </trkpt>
      <trkpt lat="44.3638" lon="4.83198">
        <ele>216.03</ele>
        <time>2026-08-31T09:39:10Z</time>
      </trkpt>
      <trkpt lat="44.36379" lon="4.83196">
        <ele>215.89</ele>
        <time>2026-08-31T09:39:11Z</time>
      </trkpt>
      <trkpt lat="44.36379" lon="4.83193">
        <ele>216.53</ele>
        <time>2026-08-31T09:39:12Z</time>
      </trkpt>
      <trkpt lat="44.36379" lon="4.83191">
        <ele>216.66</ele>
        <time>2026-08-31T09:39:13Z</time>
      </trkpt>
      <trkpt lat="44.36379" lon="4.83189">
        <ele>216.74</ele>
        <time>2026-08-31T09:39:14Z</time>
      </trkpt>
      <trkpt lat="44.36379" lon="4.83187">
        <ele>216.75</ele>
        <time>2026-08-31T09:39:15Z</time>
      </trkpt>
      <trkpt lat="44.36379" lon="4.83184">
        <ele>216.86</ele>
        <time>2026-08-31T09:39:16Z</time>
      </trkpt>
      <trkpt lat="44.3638" lon="4.83176">
        <ele>217.66</ele>
        <time>2026-08-31T09:39:19Z</time>
      </trkpt>
      <trkpt lat="44.36382" lon="4.83175">
        <ele>218.14</ele>
        <time>2026-08-31T09:39:20Z</time>
      </trkpt>
      <trkpt lat="44.36384" lon="4.83176">
        <ele>218.43</ele>
        <time>2026-08-31T09:39:21Z</time>
      </trkpt>
      <trkpt lat="44.3641" lon="4.83197">
        <ele>219.22</ele>
        <time>2026-08-31T09:39:34Z</time>
      </trkpt>
      <trkpt lat="44.3644" lon="4.83214">
        <ele>220.94</ele>
        <time>2026-08-31T09:39:49Z</time>
      </trkpt>
      <trkpt lat="44.36464" lon="4.83217">
        <ele>222.83</ele>
        <time>2026-08-31T09:40:00Z</time>
      </trkpt>
      <trkpt lat="44.36478" lon="4.83192">
        <ele>225.36</ele>
        <time>2026-08-31T09:40:11Z</time>
      </trkpt>
      <trkpt lat="44.36488" lon="4.83172">
        <ele>228.4</ele>
        <time>2026-08-31T09:40:19Z</time>
      </trkpt>
      <trkpt lat="44.36497" lon="4.83149">
        <ele>231.41</ele>
        <time>2026-08-31T09:40:27Z</time>
      </trkpt>
      <trkpt lat="44.3651" lon="4.83133">
        <ele>233.65</ele>
        <time>2026-08-31T09:40:37Z</time>
      </trkpt>
      <trkpt lat="44.36527" lon="4.83133">
        <ele>235.04</ele>
        <time>2026-08-31T09:40:49Z</time>
      </trkpt>
      <trkpt lat="44.36545" lon="4.83136">
        <ele>235.01</ele>
        <time>2026-08-31T09:40:58Z</time>
      </trkpt>
      <trkpt lat="44.3657" lon="4.83145">
        <ele>235.16</ele>
        <time>2026-08-31T09:41:09Z</time>
      </trkpt>
      <trkpt lat="44.36575" lon="4.83151">
        <ele>235.77</ele>
        <time>2026-08-31T09:41:12Z</time>
      </trkpt>
      <trkpt lat="44.36577" lon="4.83153">
        <ele>236.04</ele>
        <time>2026-08-31T09:41:13Z</time>
      </trkpt>
      <trkpt lat="44.36587" lon="4.83163">
        <ele>236.01</ele>
        <time>2026-08-31T09:41:19Z</time>
      </trkpt>
      <trkpt lat="44.36589" lon="4.83162">
        <ele>236.24</ele>
        <time>2026-08-31T09:41:21Z</time>
      </trkpt>
      <trkpt lat="44.36591" lon="4.83161">
        <ele>236.26</ele>
        <time>2026-08-31T09:41:22Z</time>
      </trkpt>
      <trkpt lat="44.36593" lon="4.83159">
        <ele>236.31</ele>
        <time>2026-08-31T09:41:23Z</time>
      </trkpt>
      <trkpt lat="44.36596" lon="4.83159">
        <ele>236.15</ele>
        <time>2026-08-31T09:41:24Z</time>
      </trkpt>
      <trkpt lat="44.36598" lon="4.83159">
        <ele>236.31</ele>
        <time>2026-08-31T09:41:25Z</time>
      </trkpt>
      <trkpt lat="44.366" lon="4.83159">
        <ele>236.37</ele>
        <time>2026-08-31T09:41:26Z</time>
      </trkpt>
      <trkpt lat="44.36602" lon="4.8316">
        <ele>236.63</ele>
        <time>2026-08-31T09:41:27Z</time>
      </trkpt>
      <trkpt lat="44.36604" lon="4.83161">
        <ele>236.67</ele>
        <time>2026-08-31T09:41:28Z</time>
      </trkpt>
      <trkpt lat="44.36607" lon="4.83162">
        <ele>236.87</ele>
        <time>2026-08-31T09:41:29Z</time>
      </trkpt>
      <trkpt lat="44.36609" lon="4.83162">
        <ele>237.03</ele>
        <time>2026-08-31T09:41:30Z</time>
      </trkpt>
      <trkpt lat="44.36623" lon="4.83165">
        <ele>237.31</ele>
        <time>2026-08-31T09:41:36Z</time>
      </trkpt>
      <trkpt lat="44.36625" lon="4.83167">
        <ele>237.42</ele>
        <time>2026-08-31T09:41:37Z</time>
      </trkpt>
      <trkpt lat="44.36629" lon="4.8317">
        <ele>238.15</ele>
        <time>2026-08-31T09:41:40Z</time>
      </trkpt>
      <trkpt lat="44.36631" lon="4.83171">
        <ele>238.35</ele>
        <time>2026-08-31T09:41:41Z</time>
      </trkpt>
      <trkpt lat="44.36634" lon="4.83171">
        <ele>238.53</ele>
        <time>2026-08-31T09:41:42Z</time>
      </trkpt>
      <trkpt lat="44.36637" lon="4.83171">
        <ele>238.37</ele>
        <time>2026-08-31T09:41:43Z</time>
      </trkpt>
      <trkpt lat="44.3664" lon="4.83172">
        <ele>237.99</ele>
        <time>2026-08-31T09:41:44Z</time>
      </trkpt>
      <trkpt lat="44.36642" lon="4.83175">
        <ele>237.99</ele>
        <time>2026-08-31T09:41:45Z</time>
      </trkpt>
      <trkpt lat="44.36644" lon="4.83177">
        <ele>238.32</ele>
        <time>2026-08-31T09:41:46Z</time>
      </trkpt>
      <trkpt lat="44.36645" lon="4.83179">
        <ele>238.99</ele>
        <time>2026-08-31T09:41:47Z</time>
      </trkpt>
      <trkpt lat="44.36647" lon="4.8318">
        <ele>238.92</ele>
        <time>2026-08-31T09:41:48Z</time>
      </trkpt>
      <trkpt lat="44.36649" lon="4.83183">
        <ele>239.26</ele>
        <time>2026-08-31T09:41:49Z</time>
      </trkpt>
      <trkpt lat="44.36651" lon="4.83185">
        <ele>239.16</ele>
        <time>2026-08-31T09:41:50Z</time>
      </trkpt>
      <trkpt lat="44.36652" lon="4.83187">
        <ele>239.44</ele>
        <time>2026-08-31T09:41:51Z</time>
      </trkpt>
      <trkpt lat="44.36654" lon="4.83189">
        <ele>239.65</ele>
        <time>2026-08-31T09:41:52Z</time>
      </trkpt>
      <trkpt lat="44.36656" lon="4.8319">
        <ele>239.91</ele>
        <time>2026-08-31T09:41:53Z</time>
      </trkpt>
      <trkpt lat="44.36657" lon="4.83192">
        <ele>240.11</ele>
        <time>2026-08-31T09:41:54Z</time>
      </trkpt>
      <trkpt lat="44.36658" lon="4.83193">
        <ele>240.35</ele>
        <time>2026-08-31T09:41:55Z</time>
      </trkpt>
      <trkpt lat="44.36659" lon="4.83196">
        <ele>240.37</ele>
        <time>2026-08-31T09:41:56Z</time>
      </trkpt>
      <trkpt lat="44.36661" lon="4.83198">
        <ele>240.23</ele>
        <time>2026-08-31T09:41:57Z</time>
      </trkpt>
      <trkpt lat="44.36662" lon="4.832">
        <ele>240.24</ele>
        <time>2026-08-31T09:41:58Z</time>
      </trkpt>
      <trkpt lat="44.36664" lon="4.83201">
        <ele>240.62</ele>
        <time>2026-08-31T09:41:59Z</time>
      </trkpt>
      <trkpt lat="44.36665" lon="4.83203">
        <ele>240.98</ele>
        <time>2026-08-31T09:42:00Z</time>
      </trkpt>
      <trkpt lat="44.36672" lon="4.8321">
        <ele>241.41</ele>
        <time>2026-08-31T09:42:04Z</time>
      </trkpt>
      <trkpt lat="44.36673" lon="4.83212">
        <ele>241.45</ele>
        <time>2026-08-31T09:42:05Z</time>
      </trkpt>
      <trkpt lat="44.36675" lon="4.83217">
        <ele>241.21</ele>
        <time>2026-08-31T09:42:07Z</time>
      </trkpt>
      <trkpt lat="44.36678" lon="4.83219">
        <ele>241.36</ele>
        <time>2026-08-31T09:42:08Z</time>
      </trkpt>
      <trkpt lat="44.3668" lon="4.8322">
        <ele>241.53</ele>
        <time>2026-08-31T09:42:09Z</time>
      </trkpt>
      <trkpt lat="44.36682" lon="4.83222">
        <ele>241.76</ele>
        <time>2026-08-31T09:42:10Z</time>
      </trkpt>
      <trkpt lat="44.36683" lon="4.83225">
        <ele>241.55</ele>
        <time>2026-08-31T09:42:11Z</time>
      </trkpt>
      <trkpt lat="44.36684" lon="4.83227">
        <ele>241.52</ele>
        <time>2026-08-31T09:42:12Z</time>
      </trkpt>
      <trkpt lat="44.36684" lon="4.83233">
        <ele>240.7</ele>
        <time>2026-08-31T09:42:20Z</time>
      </trkpt>
      <trkpt lat="44.36682" lon="4.83235">
        <ele>240.63</ele>
        <time>2026-08-31T09:42:21Z</time>
      </trkpt>
      <trkpt lat="44.3666" lon="4.8326">
        <ele>237.35</ele>
        <time>2026-08-31T09:42:29Z</time>
      </trkpt>
      <trkpt lat="44.36656" lon="4.83264">
        <ele>237.36</ele>
        <time>2026-08-31T09:42:30Z</time>
      </trkpt>
      <trkpt lat="44.36638" lon="4.83283">
        <ele>233.98</ele>
        <time>2026-08-31T09:42:35Z</time>
      </trkpt>
      <trkpt lat="44.36635" lon="4.83285">
        <ele>233.39</ele>
        <time>2026-08-31T09:42:36Z</time>
      </trkpt>
      <trkpt lat="44.36622" lon="4.83304">
        <ele>230.3</ele>
        <time>2026-08-31T09:42:41Z</time>
      </trkpt>
      <trkpt lat="44.36603" lon="4.83328">
        <ele>227.82</ele>
        <time>2026-08-31T09:42:47Z</time>
      </trkpt>
      <trkpt lat="44.36599" lon="4.83339">
        <ele>227.09</ele>
        <time>2026-08-31T09:42:49Z</time>
      </trkpt>
      <trkpt lat="44.36596" lon="4.83344">
        <ele>227.16</ele>
        <time>2026-08-31T09:42:50Z</time>
      </trkpt>
      <trkpt lat="44.36594" lon="4.8335">
        <ele>227.15</ele>
        <time>2026-08-31T09:42:51Z</time>
      </trkpt>
      <trkpt lat="44.36594" lon="4.83354">
        <ele>227.02</ele>
        <time>2026-08-31T09:42:52Z</time>
      </trkpt>
      <trkpt lat="44.36595" lon="4.83357">
        <ele>226.84</ele>
        <time>2026-08-31T09:42:53Z</time>
      </trkpt>
      <trkpt lat="44.36595" lon="4.8336">
        <ele>226.94</ele>
        <time>2026-08-31T09:42:54Z</time>
      </trkpt>
      <trkpt lat="44.36596" lon="4.83361">
        <ele>227.08</ele>
        <time>2026-08-31T09:42:55Z</time>
      </trkpt>
      <trkpt lat="44.36598" lon="4.83362">
        <ele>227.11</ele>
        <time>2026-08-31T09:42:56Z</time>
      </trkpt>
      <trkpt lat="44.36605" lon="4.83367">
        <ele>227.98</ele>
        <time>2026-08-31T09:43:08Z</time>
      </trkpt>
      <trkpt lat="44.36619" lon="4.8337">
        <ele>228.94</ele>
        <time>2026-08-31T09:43:15Z</time>
      </trkpt>
      <trkpt lat="44.36621" lon="4.83371">
        <ele>228.96</ele>
        <time>2026-08-31T09:43:16Z</time>
      </trkpt>
      <trkpt lat="44.36623" lon="4.83371">
        <ele>228.94</ele>
        <time>2026-08-31T09:43:17Z</time>
      </trkpt>
      <trkpt lat="44.36625" lon="4.83371">
        <ele>228.91</ele>
        <time>2026-08-31T09:43:18Z</time>
      </trkpt>
      <trkpt lat="44.36627" lon="4.83372">
        <ele>229.09</ele>
        <time>2026-08-31T09:43:19Z</time>
      </trkpt>
      <trkpt lat="44.36634" lon="4.83373">
        <ele>230.41</ele>
        <time>2026-08-31T09:43:22Z</time>
      </trkpt>
      <trkpt lat="44.36643" lon="4.83379">
        <ele>230.61</ele>
        <time>2026-08-31T09:43:26Z</time>
      </trkpt>
      <trkpt lat="44.36643" lon="4.83381">
        <ele>230.76</ele>
        <time>2026-08-31T09:43:27Z</time>
      </trkpt>
      <trkpt lat="44.36643" lon="4.83383">
        <ele>230.75</ele>
        <time>2026-08-31T09:43:28Z</time>
      </trkpt>
      <trkpt lat="44.36643" lon="4.83386">
        <ele>230.2</ele>
        <time>2026-08-31T09:43:30Z</time>
      </trkpt>
      <trkpt lat="44.36642" lon="4.83387">
        <ele>229.74</ele>
        <time>2026-08-31T09:43:31Z</time>
      </trkpt>
      <trkpt lat="44.36642" lon="4.8339">
        <ele>229.52</ele>
        <time>2026-08-31T09:43:32Z</time>
      </trkpt>
      <trkpt lat="44.36642" lon="4.83393">
        <ele>229.14</ele>
        <time>2026-08-31T09:43:33Z</time>
      </trkpt>
      <trkpt lat="44.36642" lon="4.83397">
        <ele>228.81</ele>
        <time>2026-08-31T09:43:34Z</time>
      </trkpt>
      <trkpt lat="44.36643" lon="4.83401">
        <ele>228.33</ele>
        <time>2026-08-31T09:43:35Z</time>
      </trkpt>
      <trkpt lat="44.36643" lon="4.83406">
        <ele>227.75</ele>
        <time>2026-08-31T09:43:36Z</time>
      </trkpt>
      <trkpt lat="44.36642" lon="4.8341">
        <ele>227.16</ele>
        <time>2026-08-31T09:43:37Z</time>
      </trkpt>
      <trkpt lat="44.36642" lon="4.83414">
        <ele>226.51</ele>
        <time>2026-08-31T09:43:38Z</time>
      </trkpt>
      <trkpt lat="44.36643" lon="4.83418">
        <ele>226</ele>
        <time>2026-08-31T09:43:39Z</time>
      </trkpt>
      <trkpt lat="44.36645" lon="4.8342">
        <ele>225.71</ele>
        <time>2026-08-31T09:43:40Z</time>
      </trkpt>
      <trkpt lat="44.36647" lon="4.83422">
        <ele>225.7</ele>
        <time>2026-08-31T09:43:41Z</time>
      </trkpt>
      <trkpt lat="44.36648" lon="4.83424">
        <ele>225.74</ele>
        <time>2026-08-31T09:43:42Z</time>
      </trkpt>
      <trkpt lat="44.36648" lon="4.83427">
        <ele>225.54</ele>
        <time>2026-08-31T09:43:43Z</time>
      </trkpt>
      <trkpt lat="44.36648" lon="4.8343">
        <ele>225.03</ele>
        <time>2026-08-31T09:43:44Z</time>
      </trkpt>
      <trkpt lat="44.36648" lon="4.83434">
        <ele>224.22</ele>
        <time>2026-08-31T09:43:45Z</time>
      </trkpt>
      <trkpt lat="44.36648" lon="4.83439">
        <ele>223.52</ele>
        <time>2026-08-31T09:43:46Z</time>
      </trkpt>
      <trkpt lat="44.36647" lon="4.83443">
        <ele>222.43</ele>
        <time>2026-08-31T09:43:47Z</time>
      </trkpt>
      <trkpt lat="44.36647" lon="4.83447">
        <ele>222.26</ele>
        <time>2026-08-31T09:43:48Z</time>
      </trkpt>
      <trkpt lat="44.36648" lon="4.83452">
        <ele>221.6</ele>
        <time>2026-08-31T09:43:49Z</time>
      </trkpt>
      <trkpt lat="44.36648" lon="4.83456">
        <ele>220.99</ele>
        <time>2026-08-31T09:43:50Z</time>
      </trkpt>
      <trkpt lat="44.36649" lon="4.83462">
        <ele>220.52</ele>
        <time>2026-08-31T09:43:51Z</time>
      </trkpt>
      <trkpt lat="44.3665" lon="4.83477">
        <ele>218.17</ele>
        <time>2026-08-31T09:43:54Z</time>
      </trkpt>
      <trkpt lat="44.36652" lon="4.83482">
        <ele>217.5</ele>
        <time>2026-08-31T09:43:55Z</time>
      </trkpt>
      <trkpt lat="44.36654" lon="4.83486">
        <ele>217.01</ele>
        <time>2026-08-31T09:43:56Z</time>
      </trkpt>
      <trkpt lat="44.36657" lon="4.83489">
        <ele>216.55</ele>
        <time>2026-08-31T09:43:57Z</time>
      </trkpt>
      <trkpt lat="44.36659" lon="4.83492">
        <ele>216.36</ele>
        <time>2026-08-31T09:43:58Z</time>
      </trkpt>
      <trkpt lat="44.36662" lon="4.83498">
        <ele>216.12</ele>
        <time>2026-08-31T09:44:00Z</time>
      </trkpt>
      <trkpt lat="44.36662" lon="4.83503">
        <ele>215.25</ele>
        <time>2026-08-31T09:44:02Z</time>
      </trkpt>
      <trkpt lat="44.36662" lon="4.83506">
        <ele>214.85</ele>
        <time>2026-08-31T09:44:03Z</time>
      </trkpt>
      <trkpt lat="44.36661" lon="4.83509">
        <ele>214.39</ele>
        <time>2026-08-31T09:44:04Z</time>
      </trkpt>
      <trkpt lat="44.36661" lon="4.83512">
        <ele>213.75</ele>
        <time>2026-08-31T09:44:05Z</time>
      </trkpt>
      <trkpt lat="44.3666" lon="4.83514">
        <ele>213.44</ele>
        <time>2026-08-31T09:44:06Z</time>
      </trkpt>
      <trkpt lat="44.36659" lon="4.8353">
        <ele>212.37</ele>
        <time>2026-08-31T09:44:17Z</time>
      </trkpt>
      <trkpt lat="44.36659" lon="4.83533">
        <ele>211.89</ele>
        <time>2026-08-31T09:44:18Z</time>
      </trkpt>
      <trkpt lat="44.36658" lon="4.83537">
        <ele>211.19</ele>
        <time>2026-08-31T09:44:19Z</time>
      </trkpt>
      <trkpt lat="44.36657" lon="4.8354">
        <ele>210.32</ele>
        <time>2026-08-31T09:44:20Z</time>
      </trkpt>
      <trkpt lat="44.36658" lon="4.83543">
        <ele>209.79</ele>
        <time>2026-08-31T09:44:21Z</time>
      </trkpt>
      <trkpt lat="44.36659" lon="4.83548">
        <ele>209.33</ele>
        <time>2026-08-31T09:44:22Z</time>
      </trkpt>
      <trkpt lat="44.36662" lon="4.83563">
        <ele>207.92</ele>
        <time>2026-08-31T09:44:25Z</time>
      </trkpt>
      <trkpt lat="44.36662" lon="4.83566">
        <ele>207.68</ele>
        <time>2026-08-31T09:44:26Z</time>
      </trkpt>
      <trkpt lat="44.36661" lon="4.8357">
        <ele>207.15</ele>
        <time>2026-08-31T09:44:27Z</time>
      </trkpt>
      <trkpt lat="44.36656" lon="4.83589">
        <ele>203.8</ele>
        <time>2026-08-31T09:44:32Z</time>
      </trkpt>
      <trkpt lat="44.36654" lon="4.83592">
        <ele>203.45</ele>
        <time>2026-08-31T09:44:33Z</time>
      </trkpt>
      <trkpt lat="44.36651" lon="4.83594">
        <ele>202.87</ele>
        <time>2026-08-31T09:44:34Z</time>
      </trkpt>
      <trkpt lat="44.36648" lon="4.83595">
        <ele>202.52</ele>
        <time>2026-08-31T09:44:35Z</time>
      </trkpt>
      <trkpt lat="44.36646" lon="4.83597">
        <ele>201.94</ele>
        <time>2026-08-31T09:44:36Z</time>
      </trkpt>
      <trkpt lat="44.36645" lon="4.83599">
        <ele>201.43</ele>
        <time>2026-08-31T09:44:37Z</time>
      </trkpt>
      <trkpt lat="44.36644" lon="4.83602">
        <ele>201.24</ele>
        <time>2026-08-31T09:44:38Z</time>
      </trkpt>
      <trkpt lat="44.3664" lon="4.83606">
        <ele>200.76</ele>
        <time>2026-08-31T09:44:41Z</time>
      </trkpt>
      <trkpt lat="44.36638" lon="4.83605">
        <ele>201.09</ele>
        <time>2026-08-31T09:44:46Z</time>
      </trkpt>
      <trkpt lat="44.36634" lon="4.83597">
        <ele>201.79</ele>
        <time>2026-08-31T09:44:50Z</time>
      </trkpt>
      <trkpt lat="44.36626" lon="4.83591">
        <ele>202.39</ele>
        <time>2026-08-31T09:44:54Z</time>
      </trkpt>
      <trkpt lat="44.36616" lon="4.83593">
        <ele>201.93</ele>
        <time>2026-08-31T09:45:01Z</time>
      </trkpt>
      <trkpt lat="44.36587" lon="4.83595">
        <ele>200.72</ele>
        <time>2026-08-31T09:45:11Z</time>
      </trkpt>
      <trkpt lat="44.36572" lon="4.83602">
        <ele>198.53</ele>
        <time>2026-08-31T09:45:17Z</time>
      </trkpt>
      <trkpt lat="44.36563" lon="4.83603">
        <ele>197.73</ele>
        <time>2026-08-31T09:45:20Z</time>
      </trkpt>
      <trkpt lat="44.36547" lon="4.83624">
        <ele>195.81</ele>
        <time>2026-08-31T09:45:29Z</time>
      </trkpt>
      <trkpt lat="44.36538" lon="4.83634">
        <ele>194.3</ele>
        <time>2026-08-31T09:45:33Z</time>
      </trkpt>
      <trkpt lat="44.36529" lon="4.8364">
        <ele>193.09</ele>
        <time>2026-08-31T09:45:39Z</time>
      </trkpt>
      <trkpt lat="44.36524" lon="4.83644">
        <ele>192.63</ele>
        <time>2026-08-31T09:45:41Z</time>
      </trkpt>
      <trkpt lat="44.36514" lon="4.83654">
        <ele>190.9</ele>
        <time>2026-08-31T09:45:44Z</time>
      </trkpt>
      <trkpt lat="44.36497" lon="4.83663">
        <ele>187.5</ele>
        <time>2026-08-31T09:45:50Z</time>
      </trkpt>
      <trkpt lat="44.36492" lon="4.8367">
        <ele>185.95</ele>
        <time>2026-08-31T09:45:52Z</time>
      </trkpt>
      <trkpt lat="44.36483" lon="4.83683">
        <ele>182.04</ele>
        <time>2026-08-31T09:45:59Z</time>
      </trkpt>
      <trkpt lat="44.36479" lon="4.83693">
        <ele>180.56</ele>
        <time>2026-08-31T09:46:05Z</time>
      </trkpt>
      <trkpt lat="44.36477" lon="4.83697">
        <ele>179.97</ele>
        <time>2026-08-31T09:46:06Z</time>
      </trkpt>
      <trkpt lat="44.36476" lon="4.837">
        <ele>179.23</ele>
        <time>2026-08-31T09:46:07Z</time>
      </trkpt>
      <trkpt lat="44.36476" lon="4.83702">
        <ele>178.82</ele>
        <time>2026-08-31T09:46:08Z</time>
      </trkpt>
      <trkpt lat="44.36476" lon="4.83705">
        <ele>178.34</ele>
        <time>2026-08-31T09:46:09Z</time>
      </trkpt>
      <trkpt lat="44.36476" lon="4.83708">
        <ele>178.03</ele>
        <time>2026-08-31T09:46:10Z</time>
      </trkpt>
      <trkpt lat="44.36476" lon="4.83712">
        <ele>177.79</ele>
        <time>2026-08-31T09:46:11Z</time>
      </trkpt>
      <trkpt lat="44.36475" lon="4.83718">
        <ele>177.11</ele>
        <time>2026-08-31T09:46:12Z</time>
      </trkpt>
      <trkpt lat="44.36474" lon="4.83725">
        <ele>176.41</ele>
        <time>2026-08-31T09:46:13Z</time>
      </trkpt>
      <trkpt lat="44.36472" lon="4.83733">
        <ele>175.73</ele>
        <time>2026-08-31T09:46:14Z</time>
      </trkpt>
      <trkpt lat="44.3647" lon="4.8374">
        <ele>175.21</ele>
        <time>2026-08-31T09:46:15Z</time>
      </trkpt>
      <trkpt lat="44.36465" lon="4.83764">
        <ele>172.52</ele>
        <time>2026-08-31T09:46:19Z</time>
      </trkpt>
      <trkpt lat="44.3646" lon="4.83774">
        <ele>170.5</ele>
        <time>2026-08-31T09:46:21Z</time>
      </trkpt>
      <trkpt lat="44.36457" lon="4.83778">
        <ele>169.76</ele>
        <time>2026-08-31T09:46:22Z</time>
      </trkpt>
      <trkpt lat="44.36457" lon="4.83782">
        <ele>169.15</ele>
        <time>2026-08-31T09:46:23Z</time>
      </trkpt>
      <trkpt lat="44.36458" lon="4.83787">
        <ele>169</ele>
        <time>2026-08-31T09:46:24Z</time>
      </trkpt>
      <trkpt lat="44.36458" lon="4.83792">
        <ele>168.68</ele>
        <time>2026-08-31T09:46:25Z</time>
      </trkpt>
      <trkpt lat="44.36457" lon="4.83822">
        <ele>170.19</ele>
        <time>2026-08-31T09:46:34Z</time>
      </trkpt>
      <trkpt lat="44.36453" lon="4.83828">
        <ele>170.08</ele>
        <time>2026-08-31T09:46:40Z</time>
      </trkpt>
      <trkpt lat="44.36443" lon="4.83836">
        <ele>168.7</ele>
        <time>2026-08-31T09:46:44Z</time>
      </trkpt>
      <trkpt lat="44.36428" lon="4.83846">
        <ele>167.47</ele>
        <time>2026-08-31T09:46:48Z</time>
      </trkpt>
      <trkpt lat="44.36413" lon="4.83852">
        <ele>166.11</ele>
        <time>2026-08-31T09:46:55Z</time>
      </trkpt>
      <trkpt lat="44.36407" lon="4.83869">
        <ele>165.92</ele>
        <time>2026-08-31T09:47:02Z</time>
      </trkpt>
      <trkpt lat="44.36402" lon="4.8388">
        <ele>167.88</ele>
        <time>2026-08-31T09:47:06Z</time>
      </trkpt>
      <trkpt lat="44.36398" lon="4.83891">
        <ele>168.73</ele>
        <time>2026-08-31T09:47:17Z</time>
      </trkpt>
      <trkpt lat="44.36395" lon="4.83903">
        <ele>169.19</ele>
        <time>2026-08-31T09:47:40Z</time>
      </trkpt>
      <trkpt lat="44.36393" lon="4.83908">
        <ele>169.43</ele>
        <time>2026-08-31T09:47:42Z</time>
      </trkpt>
      <trkpt lat="44.36393" lon="4.83915">
        <ele>170.41</ele>
        <time>2026-08-31T09:47:58Z</time>
      </trkpt>
      <trkpt lat="44.36396" lon="4.83914">
        <ele>169.87</ele>
        <time>2026-08-31T09:48:18Z</time>
      </trkpt>
      <trkpt lat="44.36397" lon="4.83914">
        <ele>170.05</ele>
        <time>2026-08-31T09:48:53Z</time>
      </trkpt>
      <trkpt lat="44.36397" lon="4.83914">
        <ele>170.73</ele>
        <time>2026-08-31T09:48:59Z</time>
      </trkpt>
      <trkpt lat="44.364" lon="4.83916">
        <ele>170.86</ele>
        <time>2026-08-31T09:49:01Z</time>
      </trkpt>
      <trkpt lat="44.36402" lon="4.83917">
        <ele>170.98</ele>
        <time>2026-08-31T09:49:02Z</time>
      </trkpt>
      <trkpt lat="44.36405" lon="4.83918">
        <ele>171.04</ele>
        <time>2026-08-31T09:49:03Z</time>
      </trkpt>
      <trkpt lat="44.36407" lon="4.8392">
        <ele>171.45</ele>
        <time>2026-08-31T09:49:04Z</time>
      </trkpt>
      <trkpt lat="44.36409" lon="4.83921">
        <ele>171.71</ele>
        <time>2026-08-31T09:49:05Z</time>
      </trkpt>
      <trkpt lat="44.3641" lon="4.83924">
        <ele>171.86</ele>
        <time>2026-08-31T09:49:06Z</time>
      </trkpt>
      <trkpt lat="44.3641" lon="4.83926">
        <ele>172.11</ele>
        <time>2026-08-31T09:49:07Z</time>
      </trkpt>
      <trkpt lat="44.3641" lon="4.83928">
        <ele>172.1</ele>
        <time>2026-08-31T09:49:08Z</time>
      </trkpt>
      <trkpt lat="44.36409" lon="4.8393">
        <ele>172.2</ele>
        <time>2026-08-31T09:49:09Z</time>
      </trkpt>
      <trkpt lat="44.36407" lon="4.83931">
        <ele>172.21</ele>
        <time>2026-08-31T09:49:10Z</time>
      </trkpt>
      <trkpt lat="44.36405" lon="4.83932">
        <ele>172.29</ele>
        <time>2026-08-31T09:49:11Z</time>
      </trkpt>
      <trkpt lat="44.36378" lon="4.8395">
        <ele>174.92</ele>
        <time>2026-08-31T09:49:22Z</time>
      </trkpt>
      <trkpt lat="44.36365" lon="4.83956">
        <ele>178.63</ele>
        <time>2026-08-31T09:49:27Z</time>
      </trkpt>
      <trkpt lat="44.36354" lon="4.83959">
        <ele>180.93</ele>
        <time>2026-08-31T09:49:32Z</time>
      </trkpt>
      <trkpt lat="44.36343" lon="4.83966">
        <ele>181.45</ele>
        <time>2026-08-31T09:49:45Z</time>
      </trkpt>
      <trkpt lat="44.36314" lon="4.83989">
        <ele>181.27</ele>
        <time>2026-08-31T09:49:55Z</time>
      </trkpt>
      <trkpt lat="44.36299" lon="4.83999">
        <ele>181.22</ele>
        <time>2026-08-31T09:50:00Z</time>
      </trkpt>
      <trkpt lat="44.36288" lon="4.84001">
        <ele>181.22</ele>
        <time>2026-08-31T09:50:03Z</time>
      </trkpt>
      <trkpt lat="44.36284" lon="4.84001">
        <ele>180.78</ele>
        <time>2026-08-31T09:50:04Z</time>
      </trkpt>
      <trkpt lat="44.3628" lon="4.84002">
        <ele>180.39</ele>
        <time>2026-08-31T09:50:05Z</time>
      </trkpt>
      <trkpt lat="44.36277" lon="4.84004">
        <ele>179.88</ele>
        <time>2026-08-31T09:50:06Z</time>
      </trkpt>
      <trkpt lat="44.36275" lon="4.84006">
        <ele>179.25</ele>
        <time>2026-08-31T09:50:07Z</time>
      </trkpt>
      <trkpt lat="44.36272" lon="4.84008">
        <ele>178.72</ele>
        <time>2026-08-31T09:50:08Z</time>
      </trkpt>
      <trkpt lat="44.36268" lon="4.84009">
        <ele>178.56</ele>
        <time>2026-08-31T09:50:09Z</time>
      </trkpt>
      <trkpt lat="44.36264" lon="4.84011">
        <ele>177.59</ele>
        <time>2026-08-31T09:50:10Z</time>
      </trkpt>
      <trkpt lat="44.3626" lon="4.84012">
        <ele>176.98</ele>
        <time>2026-08-31T09:50:11Z</time>
      </trkpt>
      <trkpt lat="44.36246" lon="4.84011">
        <ele>173.8</ele>
        <time>2026-08-31T09:50:16Z</time>
      </trkpt>
      <trkpt lat="44.36244" lon="4.8401">
        <ele>173.18</ele>
        <time>2026-08-31T09:50:17Z</time>
      </trkpt>
      <trkpt lat="44.36243" lon="4.8401">
        <ele>172.67</ele>
        <time>2026-08-31T09:50:18Z</time>
      </trkpt>
      <trkpt lat="44.3624" lon="4.8401">
        <ele>171.89</ele>
        <time>2026-08-31T09:50:19Z</time>
      </trkpt>
      <trkpt lat="44.36237" lon="4.8401">
        <ele>171.49</ele>
        <time>2026-08-31T09:50:20Z</time>
      </trkpt>
      <trkpt lat="44.36235" lon="4.84012">
        <ele>171.03</ele>
        <time>2026-08-31T09:50:21Z</time>
      </trkpt>
      <trkpt lat="44.36233" lon="4.84014">
        <ele>170.65</ele>
        <time>2026-08-31T09:50:22Z</time>
      </trkpt>
      <trkpt lat="44.36231" lon="4.84015">
        <ele>169.92</ele>
        <time>2026-08-31T09:50:23Z</time>
      </trkpt>
      <trkpt lat="44.36228" lon="4.84016">
        <ele>169.48</ele>
        <time>2026-08-31T09:50:24Z</time>
      </trkpt>
      <trkpt lat="44.36224" lon="4.84016">
        <ele>168.13</ele>
        <time>2026-08-31T09:50:25Z</time>
      </trkpt>
      <trkpt lat="44.36221" lon="4.84016">
        <ele>167.65</ele>
        <time>2026-08-31T09:50:26Z</time>
      </trkpt>
      <trkpt lat="44.36217" lon="4.84016">
        <ele>166.14</ele>
        <time>2026-08-31T09:50:27Z</time>
      </trkpt>
      <trkpt lat="44.36213" lon="4.84017">
        <ele>165.39</ele>
        <time>2026-08-31T09:50:28Z</time>
      </trkpt>
      <trkpt lat="44.3621" lon="4.84018">
        <ele>164.54</ele>
        <time>2026-08-31T09:50:29Z</time>
      </trkpt>
      <trkpt lat="44.36207" lon="4.84019">
        <ele>164.03</ele>
        <time>2026-08-31T09:50:30Z</time>
      </trkpt>
      <trkpt lat="44.36205" lon="4.8402">
        <ele>163.08</ele>
        <time>2026-08-31T09:50:31Z</time>
      </trkpt>
      <trkpt lat="44.36195" lon="4.84027">
        <ele>158.8</ele>
        <time>2026-08-31T09:50:36Z</time>
      </trkpt>
      <trkpt lat="44.36189" lon="4.84029">
        <ele>157.38</ele>
        <time>2026-08-31T09:50:38Z</time>
      </trkpt>
      <trkpt lat="44.36177" lon="4.84027">
        <ele>154.66</ele>
        <time>2026-08-31T09:50:42Z</time>
      </trkpt>
      <trkpt lat="44.36174" lon="4.84027">
        <ele>153.83</ele>
        <time>2026-08-31T09:50:43Z</time>
      </trkpt>
      <trkpt lat="44.36171" lon="4.84027">
        <ele>152.96</ele>
        <time>2026-08-31T09:50:44Z</time>
      </trkpt>
      <trkpt lat="44.36164" lon="4.84027">
        <ele>152.64</ele>
        <time>2026-08-31T09:50:53Z</time>
      </trkpt>
      <trkpt lat="44.36163" lon="4.84028">
        <ele>153</ele>
        <time>2026-08-31T09:51:13Z</time>
      </trkpt>
      <trkpt lat="44.36163" lon="4.84027">
        <ele>153</ele>
        <time>2026-08-31T09:51:14Z</time>
      </trkpt>
      <trkpt lat="44.36164" lon="4.84025">
        <ele>153.05</ele>
        <time>2026-08-31T09:51:15Z</time>
      </trkpt>
      <trkpt lat="44.36165" lon="4.84024">
        <ele>153.24</ele>
        <time>2026-08-31T09:51:16Z</time>
      </trkpt>
      <trkpt lat="44.36166" lon="4.84022">
        <ele>153.47</ele>
        <time>2026-08-31T09:51:17Z</time>
      </trkpt>
      <trkpt lat="44.36167" lon="4.84019">
        <ele>154.14</ele>
        <time>2026-08-31T09:51:18Z</time>
      </trkpt>
      <trkpt lat="44.36168" lon="4.84016">
        <ele>154.3</ele>
        <time>2026-08-31T09:51:19Z</time>
      </trkpt>
      <trkpt lat="44.3617" lon="4.84012">
        <ele>154.31</ele>
        <time>2026-08-31T09:51:20Z</time>
      </trkpt>
      <trkpt lat="44.36191" lon="4.83985">
        <ele>156.07</ele>
        <time>2026-08-31T09:51:30Z</time>
      </trkpt>
      <trkpt lat="44.36209" lon="4.83967">
        <ele>159.15</ele>
        <time>2026-08-31T09:51:39Z</time>
      </trkpt>
      <trkpt lat="44.36213" lon="4.83963">
        <ele>159.82</ele>
        <time>2026-08-31T09:51:41Z</time>
      </trkpt>
      <trkpt lat="44.36233" lon="4.83953">
        <ele>162.73</ele>
        <time>2026-08-31T09:51:50Z</time>
      </trkpt>
      <trkpt lat="44.36258" lon="4.83941">
        <ele>164.71</ele>
        <time>2026-08-31T09:52:02Z</time>
      </trkpt>
      <trkpt lat="44.36287" lon="4.83917">
        <ele>163.56</ele>
        <time>2026-08-31T09:52:13Z</time>
      </trkpt>
      <trkpt lat="44.36289" lon="4.83916">
        <ele>163.69</ele>
        <time>2026-08-31T09:52:14Z</time>
      </trkpt>
      <trkpt lat="44.3629" lon="4.83916">
        <ele>163.94</ele>
        <time>2026-08-31T09:52:15Z</time>
      </trkpt>
      <trkpt lat="44.36292" lon="4.83916">
        <ele>163.86</ele>
        <time>2026-08-31T09:52:16Z</time>
      </trkpt>
      <trkpt lat="44.36294" lon="4.83915">
        <ele>164.04</ele>
        <time>2026-08-31T09:52:17Z</time>
      </trkpt>
      <trkpt lat="44.36296" lon="4.83914">
        <ele>164.39</ele>
        <time>2026-08-31T09:52:18Z</time>
      </trkpt>
      <trkpt lat="44.36299" lon="4.83914">
        <ele>164.71</ele>
        <time>2026-08-31T09:52:19Z</time>
      </trkpt>
      <trkpt lat="44.36301" lon="4.83913">
        <ele>164.88</ele>
        <time>2026-08-31T09:52:20Z</time>
      </trkpt>
      <trkpt lat="44.36329" lon="4.83909">
        <ele>166.84</ele>
        <time>2026-08-31T09:52:33Z</time>
      </trkpt>
      <trkpt lat="44.36355" lon="4.83911">
        <ele>169.04</ele>
        <time>2026-08-31T09:52:45Z</time>
      </trkpt>
      <trkpt lat="44.36381" lon="4.83912">
        <ele>170.04</ele>
        <time>2026-08-31T09:52:57Z</time>
      </trkpt>
      <trkpt lat="44.36399" lon="4.8392">
        <ele>171.05</ele>
        <time>2026-08-31T09:53:08Z</time>
      </trkpt>
      <trkpt lat="44.36403" lon="4.83924">
        <ele>171.32</ele>
        <time>2026-08-31T09:53:10Z</time>
      </trkpt>
      <trkpt lat="44.36405" lon="4.83925">
        <ele>171.27</ele>
        <time>2026-08-31T09:53:11Z</time>
      </trkpt>
      <trkpt lat="44.36407" lon="4.83924">
        <ele>171.2</ele>
        <time>2026-08-31T09:53:12Z</time>
      </trkpt>
      <trkpt lat="44.36434" lon="4.83915">
        <ele>171.62</ele>
        <time>2026-08-31T09:53:23Z</time>
      </trkpt>
      <trkpt lat="44.36436" lon="4.83913">
        <ele>171.72</ele>
        <time>2026-08-31T09:53:24Z</time>
      </trkpt>
      <trkpt lat="44.36438" lon="4.83912">
        <ele>171.75</ele>
        <time>2026-08-31T09:53:25Z</time>
      </trkpt>
      <trkpt lat="44.3644" lon="4.8391">
        <ele>171.81</ele>
        <time>2026-08-31T09:53:26Z</time>
      </trkpt>
      <trkpt lat="44.36442" lon="4.83909">
        <ele>171.91</ele>
        <time>2026-08-31T09:53:27Z</time>
      </trkpt>
      <trkpt lat="44.36461" lon="4.83904">
        <ele>172.84</ele>
        <time>2026-08-31T09:53:35Z</time>
      </trkpt>
      <trkpt lat="44.36464" lon="4.83906">
        <ele>173</ele>
        <time>2026-08-31T09:53:36Z</time>
      </trkpt>
      <trkpt lat="44.36467" lon="4.83908">
        <ele>172.68</ele>
        <time>2026-08-31T09:53:37Z</time>
      </trkpt>
      <trkpt lat="44.36482" lon="4.83928">
        <ele>170.24</ele>
        <time>2026-08-31T09:53:44Z</time>
      </trkpt>
      <trkpt lat="44.36484" lon="4.83929">
        <ele>169.95</ele>
        <time>2026-08-31T09:53:45Z</time>
      </trkpt>
      <trkpt lat="44.36487" lon="4.83929">
        <ele>170.21</ele>
        <time>2026-08-31T09:53:47Z</time>
      </trkpt>
      <trkpt lat="44.36491" lon="4.83926">
        <ele>170.94</ele>
        <time>2026-08-31T09:53:49Z</time>
      </trkpt>
      <trkpt lat="44.36492" lon="4.83924">
        <ele>171.21</ele>
        <time>2026-08-31T09:53:50Z</time>
      </trkpt>
      <trkpt lat="44.36494" lon="4.83922">
        <ele>171.56</ele>
        <time>2026-08-31T09:53:51Z</time>
      </trkpt>
      <trkpt lat="44.36505" lon="4.83919">
        <ele>172.35</ele>
        <time>2026-08-31T09:53:56Z</time>
      </trkpt>
      <trkpt lat="44.36545" lon="4.83924">
        <ele>174.13</ele>
        <time>2026-08-31T09:54:11Z</time>
      </trkpt>
      <trkpt lat="44.36547" lon="4.83923">
        <ele>174.38</ele>
        <time>2026-08-31T09:54:12Z</time>
      </trkpt>
      <trkpt lat="44.3656" lon="4.83927">
        <ele>175.02</ele>
        <time>2026-08-31T09:54:17Z</time>
      </trkpt>
      <trkpt lat="44.36562" lon="4.83926">
        <ele>174.89</ele>
        <time>2026-08-31T09:54:18Z</time>
      </trkpt>
      <trkpt lat="44.36573" lon="4.83925">
        <ele>175.26</ele>
        <time>2026-08-31T09:54:22Z</time>
      </trkpt>
      <trkpt lat="44.36575" lon="4.83923">
        <ele>175.59</ele>
        <time>2026-08-31T09:54:23Z</time>
      </trkpt>
      <trkpt lat="44.36577" lon="4.83921">
        <ele>175.86</ele>
        <time>2026-08-31T09:54:24Z</time>
      </trkpt>
      <trkpt lat="44.36579" lon="4.8392">
        <ele>175.67</ele>
        <time>2026-08-31T09:54:25Z</time>
      </trkpt>
      <trkpt lat="44.36582" lon="4.83919">
        <ele>175.64</ele>
        <time>2026-08-31T09:54:26Z</time>
      </trkpt>
      <trkpt lat="44.36583" lon="4.83919">
        <ele>176.08</ele>
        <time>2026-08-31T09:54:27Z</time>
      </trkpt>
      <trkpt lat="44.36598" lon="4.83913">
        <ele>177.01</ele>
        <time>2026-08-31T09:54:35Z</time>
      </trkpt>
      <trkpt lat="44.366" lon="4.83915">
        <ele>177.03</ele>
        <time>2026-08-31T09:54:36Z</time>
      </trkpt>
      <trkpt lat="44.36603" lon="4.83917">
        <ele>177.02</ele>
        <time>2026-08-31T09:54:37Z</time>
      </trkpt>
      <trkpt lat="44.36605" lon="4.83919">
        <ele>177.2</ele>
        <time>2026-08-31T09:54:38Z</time>
      </trkpt>
      <trkpt lat="44.36607" lon="4.83922">
        <ele>177.04</ele>
        <time>2026-08-31T09:54:39Z</time>
      </trkpt>
      <trkpt lat="44.36609" lon="4.83925">
        <ele>176.8</ele>
        <time>2026-08-31T09:54:40Z</time>
      </trkpt>
      <trkpt lat="44.36611" lon="4.83929">
        <ele>176.89</ele>
        <time>2026-08-31T09:54:41Z</time>
      </trkpt>
      <trkpt lat="44.36613" lon="4.83931">
        <ele>176.44</ele>
        <time>2026-08-31T09:54:42Z</time>
      </trkpt>
      <trkpt lat="44.36615" lon="4.8393">
        <ele>176.07</ele>
        <time>2026-08-31T09:54:43Z</time>
      </trkpt>
      <trkpt lat="44.36618" lon="4.83929">
        <ele>175.93</ele>
        <time>2026-08-31T09:54:44Z</time>
      </trkpt>
      <trkpt lat="44.3662" lon="4.83927">
        <ele>175.68</ele>
        <time>2026-08-31T09:54:45Z</time>
      </trkpt>
      <trkpt lat="44.36622" lon="4.83926">
        <ele>175.72</ele>
        <time>2026-08-31T09:54:46Z</time>
      </trkpt>
      <trkpt lat="44.36624" lon="4.83924">
        <ele>175.66</ele>
        <time>2026-08-31T09:54:47Z</time>
      </trkpt>
      <trkpt lat="44.36626" lon="4.83924">
        <ele>175.74</ele>
        <time>2026-08-31T09:54:48Z</time>
      </trkpt>
      <trkpt lat="44.36628" lon="4.83924">
        <ele>175.68</ele>
        <time>2026-08-31T09:54:49Z</time>
      </trkpt>
      <trkpt lat="44.3663" lon="4.83926">
        <ele>175.93</ele>
        <time>2026-08-31T09:54:50Z</time>
      </trkpt>
      <trkpt lat="44.36631" lon="4.83928">
        <ele>176.12</ele>
        <time>2026-08-31T09:54:51Z</time>
      </trkpt>
      <trkpt lat="44.36633" lon="4.83929">
        <ele>176.29</ele>
        <time>2026-08-31T09:54:52Z</time>
      </trkpt>
      <trkpt lat="44.36635" lon="4.83929">
        <ele>176.54</ele>
        <time>2026-08-31T09:54:53Z</time>
      </trkpt>
      <trkpt lat="44.36642" lon="4.83929">
        <ele>177.56</ele>
        <time>2026-08-31T09:54:56Z</time>
      </trkpt>
      <trkpt lat="44.36644" lon="4.8393">
        <ele>178.37</ele>
        <time>2026-08-31T09:54:57Z</time>
      </trkpt>
      <trkpt lat="44.36646" lon="4.8393">
        <ele>178.61</ele>
        <time>2026-08-31T09:54:58Z</time>
      </trkpt>
      <trkpt lat="44.36649" lon="4.83929">
        <ele>178.88</ele>
        <time>2026-08-31T09:54:59Z</time>
      </trkpt>
      <trkpt lat="44.36651" lon="4.83927">
        <ele>179.28</ele>
        <time>2026-08-31T09:55:00Z</time>
      </trkpt>
      <trkpt lat="44.36654" lon="4.83926">
        <ele>179.53</ele>
        <time>2026-08-31T09:55:01Z</time>
      </trkpt>
      <trkpt lat="44.36656" lon="4.83926">
        <ele>179.81</ele>
        <time>2026-08-31T09:55:02Z</time>
      </trkpt>
      <trkpt lat="44.36658" lon="4.83926">
        <ele>180.33</ele>
        <time>2026-08-31T09:55:03Z</time>
      </trkpt>
      <trkpt lat="44.36659" lon="4.83925">
        <ele>180.65</ele>
        <time>2026-08-31T09:55:04Z</time>
      </trkpt>
      <trkpt lat="44.36669" lon="4.83927">
        <ele>180.81</ele>
        <time>2026-08-31T09:55:19Z</time>
      </trkpt>
      <trkpt lat="44.36674" lon="4.83926">
        <ele>180.12</ele>
        <time>2026-08-31T09:55:36Z</time>
      </trkpt>
      <trkpt lat="44.3668" lon="4.8392">
        <ele>181.34</ele>
        <time>2026-08-31T09:55:57Z</time>
      </trkpt>
      <trkpt lat="44.36681" lon="4.83918">
        <ele>181.24</ele>
        <time>2026-08-31T09:55:58Z</time>
      </trkpt>
      <trkpt lat="44.36683" lon="4.83917">
        <ele>181.77</ele>
        <time>2026-08-31T09:55:59Z</time>
      </trkpt>
      <trkpt lat="44.367" lon="4.83912">
        <ele>185.28</ele>
        <time>2026-08-31T09:56:10Z</time>
      </trkpt>
      <trkpt lat="44.36702" lon="4.83912">
        <ele>185.56</ele>
        <time>2026-08-31T09:56:11Z</time>
      </trkpt>
      <trkpt lat="44.36727" lon="4.83899">
        <ele>188.05</ele>
        <time>2026-08-31T09:56:24Z</time>
      </trkpt>
      <trkpt lat="44.3674" lon="4.83873">
        <ele>188.74</ele>
        <time>2026-08-31T09:56:36Z</time>
      </trkpt>
      <trkpt lat="44.3674" lon="4.83871">
        <ele>188.42</ele>
        <time>2026-08-31T09:56:38Z</time>
      </trkpt>
      <trkpt lat="44.3674" lon="4.83869">
        <ele>188.27</ele>
        <time>2026-08-31T09:56:39Z</time>
      </trkpt>
      <trkpt lat="44.36741" lon="4.83868">
        <ele>188</ele>
        <time>2026-08-31T09:56:40Z</time>
      </trkpt>
      <trkpt lat="44.36743" lon="4.83866">
        <ele>188.11</ele>
        <time>2026-08-31T09:56:41Z</time>
      </trkpt>
      <trkpt lat="44.36745" lon="4.83865">
        <ele>187.89</ele>
        <time>2026-08-31T09:56:42Z</time>
      </trkpt>
      <trkpt lat="44.36747" lon="4.83862">
        <ele>187.99</ele>
        <time>2026-08-31T09:56:43Z</time>
      </trkpt>
      <trkpt lat="44.36748" lon="4.83859">
        <ele>188.11</ele>
        <time>2026-08-31T09:56:44Z</time>
      </trkpt>
      <trkpt lat="44.36749" lon="4.83856">
        <ele>187.7</ele>
        <time>2026-08-31T09:56:45Z</time>
      </trkpt>
      <trkpt lat="44.3675" lon="4.83854">
        <ele>187.33</ele>
        <time>2026-08-31T09:56:46Z</time>
      </trkpt>
      <trkpt lat="44.36751" lon="4.8385">
        <ele>186.8</ele>
        <time>2026-08-31T09:56:47Z</time>
      </trkpt>
      <trkpt lat="44.36751" lon="4.83846">
        <ele>185.81</ele>
        <time>2026-08-31T09:56:48Z</time>
      </trkpt>
      <trkpt lat="44.3675" lon="4.83842">
        <ele>185.58</ele>
        <time>2026-08-31T09:56:49Z</time>
      </trkpt>
      <trkpt lat="44.36748" lon="4.83839">
        <ele>185.61</ele>
        <time>2026-08-31T09:56:50Z</time>
      </trkpt>
      <trkpt lat="44.36747" lon="4.83837">
        <ele>185.72</ele>
        <time>2026-08-31T09:56:51Z</time>
      </trkpt>
      <trkpt lat="44.36745" lon="4.83837">
        <ele>186.04</ele>
        <time>2026-08-31T09:56:52Z</time>
      </trkpt>
      <trkpt lat="44.36741" lon="4.83834">
        <ele>186.25</ele>
        <time>2026-08-31T09:57:06Z</time>
      </trkpt>
      <trkpt lat="44.36733" lon="4.83834">
        <ele>186.49</ele>
        <time>2026-08-31T09:57:17Z</time>
      </trkpt>
      <trkpt lat="44.36731" lon="4.83835">
        <ele>186.37</ele>
        <time>2026-08-31T09:57:18Z</time>
      </trkpt>
      <trkpt lat="44.36722" lon="4.83837">
        <ele>186.75</ele>
        <time>2026-08-31T09:57:23Z</time>
      </trkpt>
      <trkpt lat="44.3672" lon="4.83837">
        <ele>186.73</ele>
        <time>2026-08-31T09:57:24Z</time>
      </trkpt>
      <trkpt lat="44.36718" lon="4.83837">
        <ele>186.88</ele>
        <time>2026-08-31T09:57:25Z</time>
      </trkpt>
      <trkpt lat="44.36716" lon="4.83837">
        <ele>186.82</ele>
        <time>2026-08-31T09:57:26Z</time>
      </trkpt>
      <trkpt lat="44.36713" lon="4.83837">
        <ele>186.88</ele>
        <time>2026-08-31T09:57:27Z</time>
      </trkpt>
      <trkpt lat="44.36711" lon="4.83836">
        <ele>187.06</ele>
        <time>2026-08-31T09:57:28Z</time>
      </trkpt>
      <trkpt lat="44.3671" lon="4.83836">
        <ele>187.27</ele>
        <time>2026-08-31T09:57:29Z</time>
      </trkpt>
      <trkpt lat="44.36708" lon="4.83836">
        <ele>187.47</ele>
        <time>2026-08-31T09:57:30Z</time>
      </trkpt>
      <trkpt lat="44.36706" lon="4.83835">
        <ele>187.71</ele>
        <time>2026-08-31T09:57:31Z</time>
      </trkpt>
      <trkpt lat="44.36701" lon="4.83834">
        <ele>188.16</ele>
        <time>2026-08-31T09:57:34Z</time>
      </trkpt>
      <trkpt lat="44.36699" lon="4.83834">
        <ele>188.27</ele>
        <time>2026-08-31T09:57:35Z</time>
      </trkpt>
      <trkpt lat="44.36676" lon="4.83836">
        <ele>190.23</ele>
        <time>2026-08-31T09:57:47Z</time>
      </trkpt>
      <trkpt lat="44.36663" lon="4.83834">
        <ele>191.33</ele>
        <time>2026-08-31T09:57:54Z</time>
      </trkpt>
      <trkpt lat="44.36662" lon="4.83833">
        <ele>191.59</ele>
        <time>2026-08-31T09:57:55Z</time>
      </trkpt>
      <trkpt lat="44.36661" lon="4.83832">
        <ele>191.94</ele>
        <time>2026-08-31T09:57:56Z</time>
      </trkpt>
      <trkpt lat="44.36659" lon="4.83831">
        <ele>192.13</ele>
        <time>2026-08-31T09:57:57Z</time>
      </trkpt>
      <trkpt lat="44.36658" lon="4.83829">
        <ele>192.33</ele>
        <time>2026-08-31T09:57:58Z</time>
      </trkpt>
      <trkpt lat="44.36636" lon="4.8381">
        <ele>190.74</ele>
        <time>2026-08-31T09:58:09Z</time>
      </trkpt>
      <trkpt lat="44.36636" lon="4.83807">
        <ele>190.6</ele>
        <time>2026-08-31T09:58:10Z</time>
      </trkpt>
      <trkpt lat="44.36635" lon="4.83805">
        <ele>190.62</ele>
        <time>2026-08-31T09:58:11Z</time>
      </trkpt>
      <trkpt lat="44.36636" lon="4.83803">
        <ele>190.43</ele>
        <time>2026-08-31T09:58:12Z</time>
      </trkpt>
      <trkpt lat="44.36637" lon="4.83801">
        <ele>191.2</ele>
        <time>2026-08-31T09:58:13Z</time>
      </trkpt>
      <trkpt lat="44.36638" lon="4.83799">
        <ele>191.13</ele>
        <time>2026-08-31T09:58:14Z</time>
      </trkpt>
      <trkpt lat="44.36639" lon="4.83798">
        <ele>191.58</ele>
        <time>2026-08-31T09:58:15Z</time>
      </trkpt>
      <trkpt lat="44.3666" lon="4.83778">
        <ele>194.24</ele>
        <time>2026-08-31T09:58:29Z</time>
      </trkpt>
      <trkpt lat="44.36682" lon="4.83763">
        <ele>197.29</ele>
        <time>2026-08-31T09:58:41Z</time>
      </trkpt>
      <trkpt lat="44.3669" lon="4.83756">
        <ele>198.52</ele>
        <time>2026-08-31T09:58:46Z</time>
      </trkpt>
      <trkpt lat="44.36712" lon="4.83746">
        <ele>201.74</ele>
        <time>2026-08-31T09:58:57Z</time>
      </trkpt>
      <trkpt lat="44.36726" lon="4.83733">
        <ele>202.65</ele>
        <time>2026-08-31T09:59:07Z</time>
      </trkpt>
      <trkpt lat="44.36734" lon="4.8372">
        <ele>201.41</ele>
        <time>2026-08-31T09:59:38Z</time>
      </trkpt>
      <trkpt lat="44.36766" lon="4.83672">
        <ele>200.56</ele>
        <time>2026-08-31T09:59:50Z</time>
      </trkpt>
      <trkpt lat="44.36786" lon="4.83643">
        <ele>199.86</ele>
        <time>2026-08-31T09:59:58Z</time>
      </trkpt>
      <trkpt lat="44.36807" lon="4.83589">
        <ele>198.62</ele>
        <time>2026-08-31T10:00:09Z</time>
      </trkpt>
      <trkpt lat="44.36813" lon="4.83575">
        <ele>198.49</ele>
        <time>2026-08-31T10:00:12Z</time>
      </trkpt>
      <trkpt lat="44.36815" lon="4.8357">
        <ele>198.46</ele>
        <time>2026-08-31T10:00:13Z</time>
      </trkpt>
      <trkpt lat="44.36817" lon="4.83566">
        <ele>198.12</ele>
        <time>2026-08-31T10:00:14Z</time>
      </trkpt>
      <trkpt lat="44.36819" lon="4.83562">
        <ele>198.13</ele>
        <time>2026-08-31T10:00:15Z</time>
      </trkpt>
      <trkpt lat="44.36822" lon="4.83558">
        <ele>197.98</ele>
        <time>2026-08-31T10:00:16Z</time>
      </trkpt>
      <trkpt lat="44.36844" lon="4.83527">
        <ele>200.08</ele>
        <time>2026-08-31T10:00:26Z</time>
      </trkpt>
      <trkpt lat="44.36862" lon="4.83511">
        <ele>203.33</ele>
        <time>2026-08-31T10:00:34Z</time>
      </trkpt>
      <trkpt lat="44.3688" lon="4.83482">
        <ele>205.99</ele>
        <time>2026-08-31T10:00:46Z</time>
      </trkpt>
      <trkpt lat="44.36896" lon="4.83454">
        <ele>207.92</ele>
        <time>2026-08-31T10:00:58Z</time>
      </trkpt>
      <trkpt lat="44.36908" lon="4.83421">
        <ele>209.5</ele>
        <time>2026-08-31T10:01:09Z</time>
      </trkpt>
      <trkpt lat="44.36913" lon="4.83403">
        <ele>210.72</ele>
        <time>2026-08-31T10:01:15Z</time>
      </trkpt>
      <trkpt lat="44.36913" lon="4.834">
        <ele>210.88</ele>
        <time>2026-08-31T10:01:16Z</time>
      </trkpt>
      <trkpt lat="44.36914" lon="4.83397">
        <ele>211</ele>
        <time>2026-08-31T10:01:17Z</time>
      </trkpt>
      <trkpt lat="44.3692" lon="4.83363">
        <ele>213.29</ele>
        <time>2026-08-31T10:01:30Z</time>
      </trkpt>
      <trkpt lat="44.36924" lon="4.83354">
        <ele>215.06</ele>
        <time>2026-08-31T10:01:34Z</time>
      </trkpt>
      <trkpt lat="44.36925" lon="4.83353">
        <ele>215.62</ele>
        <time>2026-08-31T10:01:35Z</time>
      </trkpt>
      <trkpt lat="44.3693" lon="4.83347">
        <ele>216.94</ele>
        <time>2026-08-31T10:01:38Z</time>
      </trkpt>
      <trkpt lat="44.36946" lon="4.83334">
        <ele>220.3</ele>
        <time>2026-08-31T10:01:50Z</time>
      </trkpt>
      <trkpt lat="44.36958" lon="4.83334">
        <ele>222.89</ele>
        <time>2026-08-31T10:01:58Z</time>
      </trkpt>
      <trkpt lat="44.36959" lon="4.83334">
        <ele>223.44</ele>
        <time>2026-08-31T10:01:59Z</time>
      </trkpt>
      <trkpt lat="44.3696" lon="4.83334">
        <ele>223.75</ele>
        <time>2026-08-31T10:02:00Z</time>
      </trkpt>
      <trkpt lat="44.36962" lon="4.83335">
        <ele>223.95</ele>
        <time>2026-08-31T10:02:01Z</time>
      </trkpt>
      <trkpt lat="44.36963" lon="4.83335">
        <ele>224.02</ele>
        <time>2026-08-31T10:02:02Z</time>
      </trkpt>
      <trkpt lat="44.36972" lon="4.83338">
        <ele>224.5</ele>
        <time>2026-08-31T10:02:09Z</time>
      </trkpt>
      <trkpt lat="44.36987" lon="4.83347">
        <ele>225.99</ele>
        <time>2026-08-31T10:02:23Z</time>
      </trkpt>
      <trkpt lat="44.36988" lon="4.83348">
        <ele>226.1</ele>
        <time>2026-08-31T10:02:24Z</time>
      </trkpt>
      <trkpt lat="44.3699" lon="4.83349">
        <ele>226.15</ele>
        <time>2026-08-31T10:02:25Z</time>
      </trkpt>
      <trkpt lat="44.36991" lon="4.83349">
        <ele>226.33</ele>
        <time>2026-08-31T10:02:26Z</time>
      </trkpt>
      <trkpt lat="44.36993" lon="4.8335">
        <ele>226.49</ele>
        <time>2026-08-31T10:02:27Z</time>
      </trkpt>
      <trkpt lat="44.36994" lon="4.83351">
        <ele>226.69</ele>
        <time>2026-08-31T10:02:28Z</time>
      </trkpt>
      <trkpt lat="44.37014" lon="4.83361">
        <ele>227.31</ele>
        <time>2026-08-31T10:02:41Z</time>
      </trkpt>
      <trkpt lat="44.3702" lon="4.83361">
        <ele>227.81</ele>
        <time>2026-08-31T10:02:44Z</time>
      </trkpt>
      <trkpt lat="44.37022" lon="4.83359">
        <ele>227.96</ele>
        <time>2026-08-31T10:02:45Z</time>
      </trkpt>
      <trkpt lat="44.3703" lon="4.83336">
        <ele>227.67</ele>
        <time>2026-08-31T10:02:54Z</time>
      </trkpt>
      <trkpt lat="44.3703" lon="4.83333">
        <ele>227.45</ele>
        <time>2026-08-31T10:02:55Z</time>
      </trkpt>
      <trkpt lat="44.3703" lon="4.8333">
        <ele>227.28</ele>
        <time>2026-08-31T10:02:56Z</time>
      </trkpt>
      <trkpt lat="44.3703" lon="4.83327">
        <ele>227.47</ele>
        <time>2026-08-31T10:02:57Z</time>
      </trkpt>
      <trkpt lat="44.3703" lon="4.83323">
        <ele>227.5</ele>
        <time>2026-08-31T10:02:58Z</time>
      </trkpt>
      <trkpt lat="44.37021" lon="4.83267">
        <ele>230.82</ele>
        <time>2026-08-31T10:03:15Z</time>
      </trkpt>
      <trkpt lat="44.37019" lon="4.83244">
        <ele>233.94</ele>
        <time>2026-08-31T10:03:22Z</time>
      </trkpt>
      <trkpt lat="44.37019" lon="4.83207">
        <ele>237.16</ele>
        <time>2026-08-31T10:03:33Z</time>
      </trkpt>
      <trkpt lat="44.37014" lon="4.83175">
        <ele>238.35</ele>
        <time>2026-08-31T10:03:43Z</time>
      </trkpt>
      <trkpt lat="44.37013" lon="4.83172">
        <ele>238.39</ele>
        <time>2026-08-31T10:03:44Z</time>
      </trkpt>
      <trkpt lat="44.37013" lon="4.83168">
        <ele>238.71</ele>
        <time>2026-08-31T10:03:45Z</time>
      </trkpt>
      <trkpt lat="44.37012" lon="4.83165">
        <ele>238.89</ele>
        <time>2026-08-31T10:03:46Z</time>
      </trkpt>
      <trkpt lat="44.37011" lon="4.83161">
        <ele>238.85</ele>
        <time>2026-08-31T10:03:47Z</time>
      </trkpt>
      <trkpt lat="44.37009" lon="4.83158">
        <ele>238.76</ele>
        <time>2026-08-31T10:03:48Z</time>
      </trkpt>
      <trkpt lat="44.37008" lon="4.83156">
        <ele>238.6</ele>
        <time>2026-08-31T10:03:49Z</time>
      </trkpt>
      <trkpt lat="44.37006" lon="4.83153">
        <ele>238.64</ele>
        <time>2026-08-31T10:03:50Z</time>
      </trkpt>
      <trkpt lat="44.37004" lon="4.83151">
        <ele>238.75</ele>
        <time>2026-08-31T10:03:51Z</time>
      </trkpt>
      <trkpt lat="44.37001" lon="4.83148">
        <ele>238.72</ele>
        <time>2026-08-31T10:03:52Z</time>
      </trkpt>
      <trkpt lat="44.36958" lon="4.83128">
        <ele>238.14</ele>
        <time>2026-08-31T10:04:05Z</time>
      </trkpt>
      <trkpt lat="44.36943" lon="4.83122">
        <ele>238.25</ele>
        <time>2026-08-31T10:04:09Z</time>
      </trkpt>
      <trkpt lat="44.3694" lon="4.83118">
        <ele>238.14</ele>
        <time>2026-08-31T10:04:10Z</time>
      </trkpt>
      <trkpt lat="44.36937" lon="4.83113">
        <ele>238.13</ele>
        <time>2026-08-31T10:04:11Z</time>
      </trkpt>
      <trkpt lat="44.36936" lon="4.83107">
        <ele>238.03</ele>
        <time>2026-08-31T10:04:12Z</time>
      </trkpt>
      <trkpt lat="44.36935" lon="4.831">
        <ele>238.06</ele>
        <time>2026-08-31T10:04:13Z</time>
      </trkpt>
      <trkpt lat="44.36935" lon="4.83094">
        <ele>237.85</ele>
        <time>2026-08-31T10:04:14Z</time>
      </trkpt>
      <trkpt lat="44.36936" lon="4.83087">
        <ele>238.1</ele>
        <time>2026-08-31T10:04:15Z</time>
      </trkpt>
      <trkpt lat="44.36936" lon="4.83081">
        <ele>238.21</ele>
        <time>2026-08-31T10:04:16Z</time>
      </trkpt>
      <trkpt lat="44.36937" lon="4.83075">
        <ele>238.27</ele>
        <time>2026-08-31T10:04:17Z</time>
      </trkpt>
      <trkpt lat="44.36941" lon="4.82968">
        <ele>240.82</ele>
        <time>2026-08-31T10:04:37Z</time>
      </trkpt>
      <trkpt lat="44.36932" lon="4.82932">
        <ele>242.22</ele>
        <time>2026-08-31T10:04:46Z</time>
      </trkpt>
      <trkpt lat="44.36933" lon="4.82929">
        <ele>242.44</ele>
        <time>2026-08-31T10:04:47Z</time>
      </trkpt>
      <trkpt lat="44.36934" lon="4.82927">
        <ele>242.7</ele>
        <time>2026-08-31T10:04:48Z</time>
      </trkpt>
      <trkpt lat="44.36936" lon="4.82926">
        <ele>242.97</ele>
        <time>2026-08-31T10:04:49Z</time>
      </trkpt>
      <trkpt lat="44.36938" lon="4.82927">
        <ele>243.14</ele>
        <time>2026-08-31T10:04:50Z</time>
      </trkpt>
      <trkpt lat="44.36939" lon="4.8293">
        <ele>243.02</ele>
        <time>2026-08-31T10:04:51Z</time>
      </trkpt>
      <trkpt lat="44.36971" lon="4.82947">
        <ele>244.92</ele>
        <time>2026-08-31T10:05:04Z</time>
      </trkpt>
      <trkpt lat="44.36994" lon="4.82957">
        <ele>247.42</ele>
        <time>2026-08-31T10:05:14Z</time>
      </trkpt>
      <trkpt lat="44.36996" lon="4.82959">
        <ele>247.68</ele>
        <time>2026-08-31T10:05:15Z</time>
      </trkpt>
      <trkpt lat="44.37005" lon="4.82966">
        <ele>248.51</ele>
        <time>2026-08-31T10:05:20Z</time>
      </trkpt>
      <trkpt lat="44.37006" lon="4.82965">
        <ele>248.7</ele>
        <time>2026-08-31T10:05:21Z</time>
      </trkpt>
      <trkpt lat="44.37008" lon="4.82957">
        <ele>248.75</ele>
        <time>2026-08-31T10:05:24Z</time>
      </trkpt>
      <trkpt lat="44.37017" lon="4.82928">
        <ele>251.38</ele>
        <time>2026-08-31T10:05:36Z</time>
      </trkpt>
      <trkpt lat="44.37025" lon="4.82906">
        <ele>253.34</ele>
        <time>2026-08-31T10:05:46Z</time>
      </trkpt>
      <trkpt lat="44.37026" lon="4.82904">
        <ele>253.42</ele>
        <time>2026-08-31T10:05:47Z</time>
      </trkpt>
      <trkpt lat="44.37026" lon="4.82902">
        <ele>253.89</ele>
        <time>2026-08-31T10:05:48Z</time>
      </trkpt>
      <trkpt lat="44.37032" lon="4.82878">
        <ele>255.09</ele>
        <time>2026-08-31T10:05:59Z</time>
      </trkpt>
      <trkpt lat="44.37033" lon="4.82876">
        <ele>255.21</ele>
        <time>2026-08-31T10:06:00Z</time>
      </trkpt>
      <trkpt lat="44.37034" lon="4.82875">
        <ele>255.4</ele>
        <time>2026-08-31T10:06:01Z</time>
      </trkpt>
      <trkpt lat="44.37042" lon="4.82857">
        <ele>256.16</ele>
        <time>2026-08-31T10:06:13Z</time>
      </trkpt>
      <trkpt lat="44.37044" lon="4.82842">
        <ele>257.16</ele>
        <time>2026-08-31T10:06:18Z</time>
      </trkpt>
      <trkpt lat="44.37045" lon="4.8284">
        <ele>257.37</ele>
        <time>2026-08-31T10:06:19Z</time>
      </trkpt>
      <trkpt lat="44.37049" lon="4.82809">
        <ele>260.29</ele>
        <time>2026-08-31T10:06:31Z</time>
      </trkpt>
      <trkpt lat="44.37048" lon="4.82807">
        <ele>260.35</ele>
        <time>2026-08-31T10:06:32Z</time>
      </trkpt>
      <trkpt lat="44.37045" lon="4.82775">
        <ele>263.07</ele>
        <time>2026-08-31T10:06:43Z</time>
      </trkpt>
      <trkpt lat="44.37043" lon="4.8275">
        <ele>264.68</ele>
        <time>2026-08-31T10:06:53Z</time>
      </trkpt>
      <trkpt lat="44.37042" lon="4.82717">
        <ele>266.31</ele>
        <time>2026-08-31T10:07:05Z</time>
      </trkpt>
      <trkpt lat="44.37035" lon="4.8267">
        <ele>267.65</ele>
        <time>2026-08-31T10:07:19Z</time>
      </trkpt>
      <trkpt lat="44.37035" lon="4.82623">
        <ele>270.1</ele>
        <time>2026-08-31T10:07:34Z</time>
      </trkpt>
      <trkpt lat="44.37035" lon="4.8262">
        <ele>270.36</ele>
        <time>2026-08-31T10:07:35Z</time>
      </trkpt>
      <trkpt lat="44.37035" lon="4.82617">
        <ele>270.72</ele>
        <time>2026-08-31T10:07:36Z</time>
      </trkpt>
      <trkpt lat="44.37035" lon="4.82615">
        <ele>271.01</ele>
        <time>2026-08-31T10:07:37Z</time>
      </trkpt>
      <trkpt lat="44.37036" lon="4.82612">
        <ele>271.2</ele>
        <time>2026-08-31T10:07:38Z</time>
      </trkpt>
      <trkpt lat="44.37038" lon="4.82609">
        <ele>271.37</ele>
        <time>2026-08-31T10:07:39Z</time>
      </trkpt>
      <trkpt lat="44.37046" lon="4.82577">
        <ele>273.5</ele>
        <time>2026-08-31T10:07:51Z</time>
      </trkpt>
      <trkpt lat="44.37054" lon="4.82539">
        <ele>275.16</ele>
        <time>2026-08-31T10:08:04Z</time>
      </trkpt>
      <trkpt lat="44.37067" lon="4.82504">
        <ele>277.4</ele>
        <time>2026-08-31T10:08:17Z</time>
      </trkpt>
      <trkpt lat="44.37068" lon="4.82501">
        <ele>277.36</ele>
        <time>2026-08-31T10:08:18Z</time>
      </trkpt>
      <trkpt lat="44.37069" lon="4.82497">
        <ele>277.6</ele>
        <time>2026-08-31T10:08:19Z</time>
      </trkpt>
      <trkpt lat="44.37069" lon="4.82495">
        <ele>277.88</ele>
        <time>2026-08-31T10:08:20Z</time>
      </trkpt>
      <trkpt lat="44.37071" lon="4.82493">
        <ele>278.37</ele>
        <time>2026-08-31T10:08:21Z</time>
      </trkpt>
      <trkpt lat="44.37072" lon="4.82491">
        <ele>278.52</ele>
        <time>2026-08-31T10:08:22Z</time>
      </trkpt>
      <trkpt lat="44.37073" lon="4.82489">
        <ele>278.72</ele>
        <time>2026-08-31T10:08:23Z</time>
      </trkpt>
      <trkpt lat="44.37074" lon="4.82487">
        <ele>278.93</ele>
        <time>2026-08-31T10:08:24Z</time>
      </trkpt>
      <trkpt lat="44.37075" lon="4.82484">
        <ele>279.02</ele>
        <time>2026-08-31T10:08:25Z</time>
      </trkpt>
      <trkpt lat="44.37076" lon="4.82482">
        <ele>279.22</ele>
        <time>2026-08-31T10:08:26Z</time>
      </trkpt>
      <trkpt lat="44.37077" lon="4.8248">
        <ele>279.37</ele>
        <time>2026-08-31T10:08:27Z</time>
      </trkpt>
      <trkpt lat="44.37079" lon="4.82477">
        <ele>279.43</ele>
        <time>2026-08-31T10:08:28Z</time>
      </trkpt>
      <trkpt lat="44.3708" lon="4.82475">
        <ele>279.46</ele>
        <time>2026-08-31T10:08:29Z</time>
      </trkpt>
      <trkpt lat="44.37085" lon="4.82463">
        <ele>279.94</ele>
        <time>2026-08-31T10:08:34Z</time>
      </trkpt>
      <trkpt lat="44.37087" lon="4.82461">
        <ele>279.98</ele>
        <time>2026-08-31T10:08:35Z</time>
      </trkpt>
      <trkpt lat="44.37089" lon="4.82459">
        <ele>280.33</ele>
        <time>2026-08-31T10:08:36Z</time>
      </trkpt>
      <trkpt lat="44.3709" lon="4.82456">
        <ele>280.37</ele>
        <time>2026-08-31T10:08:37Z</time>
      </trkpt>
      <trkpt lat="44.37092" lon="4.82454">
        <ele>280.39</ele>
        <time>2026-08-31T10:08:38Z</time>
      </trkpt>
      <trkpt lat="44.37103" lon="4.82437">
        <ele>281.31</ele>
        <time>2026-08-31T10:08:46Z</time>
      </trkpt>
      <trkpt lat="44.37112" lon="4.82408">
        <ele>282.51</ele>
        <time>2026-08-31T10:08:56Z</time>
      </trkpt>
      <trkpt lat="44.37118" lon="4.82376">
        <ele>283.09</ele>
        <time>2026-08-31T10:09:08Z</time>
      </trkpt>
      <trkpt lat="44.37119" lon="4.82372">
        <ele>283.04</ele>
        <time>2026-08-31T10:09:09Z</time>
      </trkpt>
      <trkpt lat="44.3712" lon="4.82367">
        <ele>283.16</ele>
        <time>2026-08-31T10:09:10Z</time>
      </trkpt>
      <trkpt lat="44.37121" lon="4.82362">
        <ele>283.25</ele>
        <time>2026-08-31T10:09:11Z</time>
      </trkpt>
      <trkpt lat="44.37121" lon="4.82358">
        <ele>283.29</ele>
        <time>2026-08-31T10:09:12Z</time>
      </trkpt>
      <trkpt lat="44.37121" lon="4.82354">
        <ele>283.34</ele>
        <time>2026-08-31T10:09:13Z</time>
      </trkpt>
      <trkpt lat="44.37122" lon="4.8235">
        <ele>283.35</ele>
        <time>2026-08-31T10:09:14Z</time>
      </trkpt>
      <trkpt lat="44.37122" lon="4.82345">
        <ele>283.27</ele>
        <time>2026-08-31T10:09:15Z</time>
      </trkpt>
      <trkpt lat="44.3713" lon="4.82303">
        <ele>284.14</ele>
        <time>2026-08-31T10:09:25Z</time>
      </trkpt>
      <trkpt lat="44.37131" lon="4.823">
        <ele>284.3</ele>
        <time>2026-08-31T10:09:26Z</time>
      </trkpt>
      <trkpt lat="44.37143" lon="4.8226">
        <ele>285.27</ele>
        <time>2026-08-31T10:09:38Z</time>
      </trkpt>
      <trkpt lat="44.37162" lon="4.82224">
        <ele>285.49</ele>
        <time>2026-08-31T10:09:49Z</time>
      </trkpt>
      <trkpt lat="44.37168" lon="4.8222">
        <ele>285.67</ele>
        <time>2026-08-31T10:09:52Z</time>
      </trkpt>
      <trkpt lat="44.3717" lon="4.82218">
        <ele>285.64</ele>
        <time>2026-08-31T10:09:53Z</time>
      </trkpt>
      <trkpt lat="44.37173" lon="4.82217">
        <ele>285.57</ele>
        <time>2026-08-31T10:09:54Z</time>
      </trkpt>
      <trkpt lat="44.37176" lon="4.82214">
        <ele>285.81</ele>
        <time>2026-08-31T10:09:55Z</time>
      </trkpt>
      <trkpt lat="44.37179" lon="4.82212">
        <ele>285.92</ele>
        <time>2026-08-31T10:09:56Z</time>
      </trkpt>
      <trkpt lat="44.37182" lon="4.8221">
        <ele>285.67</ele>
        <time>2026-08-31T10:09:57Z</time>
      </trkpt>
      <trkpt lat="44.37185" lon="4.82208">
        <ele>285.69</ele>
        <time>2026-08-31T10:09:58Z</time>
      </trkpt>
      <trkpt lat="44.37188" lon="4.82206">
        <ele>285.71</ele>
        <time>2026-08-31T10:09:59Z</time>
      </trkpt>
      <trkpt lat="44.37214" lon="4.82182">
        <ele>285</ele>
        <time>2026-08-31T10:10:09Z</time>
      </trkpt>
      <trkpt lat="44.37222" lon="4.82175">
        <ele>284.7</ele>
        <time>2026-08-31T10:10:12Z</time>
      </trkpt>
      <trkpt lat="44.37255" lon="4.82137">
        <ele>282.27</ele>
        <time>2026-08-31T10:10:24Z</time>
      </trkpt>
      <trkpt lat="44.37259" lon="4.82133">
        <ele>282.13</ele>
        <time>2026-08-31T10:10:25Z</time>
      </trkpt>
      <trkpt lat="44.37265" lon="4.82126">
        <ele>281.4</ele>
        <time>2026-08-31T10:10:27Z</time>
      </trkpt>
      <trkpt lat="44.37268" lon="4.82121">
        <ele>281.08</ele>
        <time>2026-08-31T10:10:28Z</time>
      </trkpt>
      <trkpt lat="44.3727" lon="4.82117">
        <ele>280.74</ele>
        <time>2026-08-31T10:10:29Z</time>
      </trkpt>
      <trkpt lat="44.37272" lon="4.82111">
        <ele>280.49</ele>
        <time>2026-08-31T10:10:30Z</time>
      </trkpt>
      <trkpt lat="44.37273" lon="4.82106">
        <ele>279.93</ele>
        <time>2026-08-31T10:10:31Z</time>
      </trkpt>
      <trkpt lat="44.37274" lon="4.82101">
        <ele>279.76</ele>
        <time>2026-08-31T10:10:32Z</time>
      </trkpt>
      <trkpt lat="44.37275" lon="4.82096">
        <ele>279.32</ele>
        <time>2026-08-31T10:10:33Z</time>
      </trkpt>
      <trkpt lat="44.37276" lon="4.82091">
        <ele>279.17</ele>
        <time>2026-08-31T10:10:34Z</time>
      </trkpt>
      <trkpt lat="44.37277" lon="4.82088">
        <ele>278.93</ele>
        <time>2026-08-31T10:10:35Z</time>
      </trkpt>
      <trkpt lat="44.37282" lon="4.82081">
        <ele>278.13</ele>
        <time>2026-08-31T10:10:45Z</time>
      </trkpt>
      <trkpt lat="44.37282" lon="4.82079">
        <ele>278.23</ele>
        <time>2026-08-31T10:10:50Z</time>
      </trkpt>
      <trkpt lat="44.37282" lon="4.82077">
        <ele>278.37</ele>
        <time>2026-08-31T10:10:51Z</time>
      </trkpt>
      <trkpt lat="44.37282" lon="4.82075">
        <ele>278.09</ele>
        <time>2026-08-31T10:10:52Z</time>
      </trkpt>
      <trkpt lat="44.37283" lon="4.82073">
        <ele>277.98</ele>
        <time>2026-08-31T10:10:53Z</time>
      </trkpt>
      <trkpt lat="44.37284" lon="4.82072">
        <ele>277.81</ele>
        <time>2026-08-31T10:10:54Z</time>
      </trkpt>
      <trkpt lat="44.37305" lon="4.82056">
        <ele>277.53</ele>
        <time>2026-08-31T10:11:03Z</time>
      </trkpt>
      <trkpt lat="44.37328" lon="4.82043">
        <ele>275.59</ele>
        <time>2026-08-31T10:11:09Z</time>
      </trkpt>
      <trkpt lat="44.37332" lon="4.82043">
        <ele>275.39</ele>
        <time>2026-08-31T10:11:10Z</time>
      </trkpt>
      <trkpt lat="44.37344" lon="4.82042">
        <ele>275.17</ele>
        <time>2026-08-31T10:11:13Z</time>
      </trkpt>
      <trkpt lat="44.37349" lon="4.82043">
        <ele>274.85</ele>
        <time>2026-08-31T10:11:14Z</time>
      </trkpt>
      <trkpt lat="44.37353" lon="4.82043">
        <ele>274.96</ele>
        <time>2026-08-31T10:11:15Z</time>
      </trkpt>
      <trkpt lat="44.37357" lon="4.82043">
        <ele>274.82</ele>
        <time>2026-08-31T10:11:16Z</time>
      </trkpt>
      <trkpt lat="44.3736" lon="4.82042">
        <ele>274.5</ele>
        <time>2026-08-31T10:11:17Z</time>
      </trkpt>
      <trkpt lat="44.37394" lon="4.82021">
        <ele>271.61</ele>
        <time>2026-08-31T10:11:26Z</time>
      </trkpt>
      <trkpt lat="44.37403" lon="4.8201">
        <ele>270.02</ele>
        <time>2026-08-31T10:11:34Z</time>
      </trkpt>
      <trkpt lat="44.3741" lon="4.82002">
        <ele>269.13</ele>
        <time>2026-08-31T10:11:37Z</time>
      </trkpt>
      <trkpt lat="44.37412" lon="4.82001">
        <ele>268.69</ele>
        <time>2026-08-31T10:11:38Z</time>
      </trkpt>
      <trkpt lat="44.37415" lon="4.82002">
        <ele>268.32</ele>
        <time>2026-08-31T10:11:39Z</time>
      </trkpt>
      <trkpt lat="44.37418" lon="4.82004">
        <ele>268.03</ele>
        <time>2026-08-31T10:11:40Z</time>
      </trkpt>
      <trkpt lat="44.37419" lon="4.82007">
        <ele>268.36</ele>
        <time>2026-08-31T10:11:41Z</time>
      </trkpt>
      <trkpt lat="44.37449" lon="4.82044">
        <ele>270.08</ele>
        <time>2026-08-31T10:11:53Z</time>
      </trkpt>
      <trkpt lat="44.37499" lon="4.821">
        <ele>271.61</ele>
        <time>2026-08-31T10:12:10Z</time>
      </trkpt>
      <trkpt lat="44.37534" lon="4.82143">
        <ele>272.37</ele>
        <time>2026-08-31T10:12:24Z</time>
      </trkpt>
      <trkpt lat="44.37536" lon="4.82143">
        <ele>272.73</ele>
        <time>2026-08-31T10:12:25Z</time>
      </trkpt>
      <trkpt lat="44.37542" lon="4.8214">
        <ele>272.9</ele>
        <time>2026-08-31T10:12:27Z</time>
      </trkpt>
      <trkpt lat="44.37585" lon="4.82117">
        <ele>272.73</ele>
        <time>2026-08-31T10:12:40Z</time>
      </trkpt>
      <trkpt lat="44.37618" lon="4.8208">
        <ele>273.54</ele>
        <time>2026-08-31T10:12:52Z</time>
      </trkpt>
      <trkpt lat="44.37623" lon="4.8205">
        <ele>274.19</ele>
        <time>2026-08-31T10:12:59Z</time>
      </trkpt>
      <trkpt lat="44.37626" lon="4.82048">
        <ele>275.12</ele>
        <time>2026-08-31T10:13:00Z</time>
      </trkpt>
      <trkpt lat="44.37628" lon="4.82046">
        <ele>275.34</ele>
        <time>2026-08-31T10:13:01Z</time>
      </trkpt>
      <trkpt lat="44.37636" lon="4.82041">
        <ele>276.09</ele>
        <time>2026-08-31T10:13:04Z</time>
      </trkpt>
      <trkpt lat="44.37639" lon="4.82041">
        <ele>276.07</ele>
        <time>2026-08-31T10:13:05Z</time>
      </trkpt>
      <trkpt lat="44.37642" lon="4.82041">
        <ele>276.31</ele>
        <time>2026-08-31T10:13:06Z</time>
      </trkpt>
      <trkpt lat="44.37644" lon="4.82042">
        <ele>276.74</ele>
        <time>2026-08-31T10:13:07Z</time>
      </trkpt>
      <trkpt lat="44.37647" lon="4.82042">
        <ele>277.03</ele>
        <time>2026-08-31T10:13:08Z</time>
      </trkpt>
      <trkpt lat="44.37649" lon="4.82043">
        <ele>277.13</ele>
        <time>2026-08-31T10:13:09Z</time>
      </trkpt>
      <trkpt lat="44.37651" lon="4.82045">
        <ele>277.29</ele>
        <time>2026-08-31T10:13:10Z</time>
      </trkpt>
      <trkpt lat="44.37653" lon="4.82048">
        <ele>277.78</ele>
        <time>2026-08-31T10:13:11Z</time>
      </trkpt>
      <trkpt lat="44.37676" lon="4.82097">
        <ele>278.44</ele>
        <time>2026-08-31T10:13:25Z</time>
      </trkpt>
      <trkpt lat="44.37701" lon="4.82137">
        <ele>279.97</ele>
        <time>2026-08-31T10:13:38Z</time>
      </trkpt>
      <trkpt lat="44.37713" lon="4.82169">
        <ele>281</ele>
        <time>2026-08-31T10:13:48Z</time>
      </trkpt>
      <trkpt lat="44.3773" lon="4.82207">
        <ele>283.59</ele>
        <time>2026-08-31T10:14:00Z</time>
      </trkpt>
      <trkpt lat="44.37732" lon="4.8221">
        <ele>283.71</ele>
        <time>2026-08-31T10:14:01Z</time>
      </trkpt>
      <trkpt lat="44.37733" lon="4.82213">
        <ele>283.98</ele>
        <time>2026-08-31T10:14:02Z</time>
      </trkpt>
      <trkpt lat="44.37733" lon="4.82216">
        <ele>284.26</ele>
        <time>2026-08-31T10:14:03Z</time>
      </trkpt>
      <trkpt lat="44.37741" lon="4.82255">
        <ele>284.45</ele>
        <time>2026-08-31T10:14:13Z</time>
      </trkpt>
      <trkpt lat="44.37742" lon="4.82275">
        <ele>284.06</ele>
        <time>2026-08-31T10:14:17Z</time>
      </trkpt>
      <trkpt lat="44.37743" lon="4.82281">
        <ele>283.76</ele>
        <time>2026-08-31T10:14:18Z</time>
      </trkpt>
      <trkpt lat="44.37746" lon="4.82297">
        <ele>283.73</ele>
        <time>2026-08-31T10:14:22Z</time>
      </trkpt>
      <trkpt lat="44.37745" lon="4.823">
        <ele>283.53</ele>
        <time>2026-08-31T10:14:23Z</time>
      </trkpt>
      <trkpt lat="44.37743" lon="4.82303">
        <ele>283.36</ele>
        <time>2026-08-31T10:14:24Z</time>
      </trkpt>
      <trkpt lat="44.37741" lon="4.82307">
        <ele>282.68</ele>
        <time>2026-08-31T10:14:25Z</time>
      </trkpt>
      <trkpt lat="44.37739" lon="4.8231">
        <ele>282.09</ele>
        <time>2026-08-31T10:14:26Z</time>
      </trkpt>
      <trkpt lat="44.37738" lon="4.8231">
        <ele>281.42</ele>
        <time>2026-08-31T10:14:27Z</time>
      </trkpt>
      <trkpt lat="44.37736" lon="4.82308">
        <ele>281.21</ele>
        <time>2026-08-31T10:14:28Z</time>
      </trkpt>
      <trkpt lat="44.37735" lon="4.82306">
        <ele>280.8</ele>
        <time>2026-08-31T10:14:29Z</time>
      </trkpt>
      <trkpt lat="44.37734" lon="4.82303">
        <ele>280.48</ele>
        <time>2026-08-31T10:14:30Z</time>
      </trkpt>
      <trkpt lat="44.3773" lon="4.82297">
        <ele>279.68</ele>
        <time>2026-08-31T10:14:32Z</time>
      </trkpt>
      <trkpt lat="44.37728" lon="4.82297">
        <ele>279.47</ele>
        <time>2026-08-31T10:14:33Z</time>
      </trkpt>
      <trkpt lat="44.37725" lon="4.823">
        <ele>279.32</ele>
        <time>2026-08-31T10:14:34Z</time>
      </trkpt>
      <trkpt lat="44.37724" lon="4.82304">
        <ele>279.38</ele>
        <time>2026-08-31T10:14:35Z</time>
      </trkpt>
      <trkpt lat="44.37723" lon="4.82308">
        <ele>279.17</ele>
        <time>2026-08-31T10:14:36Z</time>
      </trkpt>
      <trkpt lat="44.37724" lon="4.82312">
        <ele>279.42</ele>
        <time>2026-08-31T10:14:37Z</time>
      </trkpt>
      <trkpt lat="44.37724" lon="4.82315">
        <ele>279.28</ele>
        <time>2026-08-31T10:14:38Z</time>
      </trkpt>
      <trkpt lat="44.37724" lon="4.82318">
        <ele>279.14</ele>
        <time>2026-08-31T10:14:39Z</time>
      </trkpt>
      <trkpt lat="44.37725" lon="4.82321">
        <ele>279.02</ele>
        <time>2026-08-31T10:14:40Z</time>
      </trkpt>
      <trkpt lat="44.37727" lon="4.82323">
        <ele>278.95</ele>
        <time>2026-08-31T10:14:41Z</time>
      </trkpt>
      <trkpt lat="44.37727" lon="4.82326">
        <ele>279.32</ele>
        <time>2026-08-31T10:14:42Z</time>
      </trkpt>
      <trkpt lat="44.37727" lon="4.82329">
        <ele>279.2</ele>
        <time>2026-08-31T10:14:43Z</time>
      </trkpt>
      <trkpt lat="44.37726" lon="4.82332">
        <ele>279.26</ele>
        <time>2026-08-31T10:14:44Z</time>
      </trkpt>
      <trkpt lat="44.37726" lon="4.82334">
        <ele>279.27</ele>
        <time>2026-08-31T10:14:45Z</time>
      </trkpt>
      <trkpt lat="44.37727" lon="4.82337">
        <ele>279.2</ele>
        <time>2026-08-31T10:14:46Z</time>
      </trkpt>
      <trkpt lat="44.37727" lon="4.8234">
        <ele>279.13</ele>
        <time>2026-08-31T10:14:47Z</time>
      </trkpt>
      <trkpt lat="44.37727" lon="4.82344">
        <ele>279.05</ele>
        <time>2026-08-31T10:14:48Z</time>
      </trkpt>
      <trkpt lat="44.37727" lon="4.82373">
        <ele>279.26</ele>
        <time>2026-08-31T10:14:59Z</time>
      </trkpt>
      <trkpt lat="44.37728" lon="4.82375">
        <ele>279.41</ele>
        <time>2026-08-31T10:15:00Z</time>
      </trkpt>
      <trkpt lat="44.37731" lon="4.82377">
        <ele>279.3</ele>
        <time>2026-08-31T10:15:01Z</time>
      </trkpt>
      <trkpt lat="44.37733" lon="4.8238">
        <ele>279.72</ele>
        <time>2026-08-31T10:15:02Z</time>
      </trkpt>
      <trkpt lat="44.37735" lon="4.82382">
        <ele>279.54</ele>
        <time>2026-08-31T10:15:03Z</time>
      </trkpt>
      <trkpt lat="44.37739" lon="4.82388">
        <ele>279.97</ele>
        <time>2026-08-31T10:15:05Z</time>
      </trkpt>
      <trkpt lat="44.3774" lon="4.82397">
        <ele>280.04</ele>
        <time>2026-08-31T10:15:08Z</time>
      </trkpt>
      <trkpt lat="44.37749" lon="4.82426">
        <ele>280.05</ele>
        <time>2026-08-31T10:15:20Z</time>
      </trkpt>
      <trkpt lat="44.37754" lon="4.82436">
        <ele>280.23</ele>
        <time>2026-08-31T10:15:28Z</time>
      </trkpt>
      <trkpt lat="44.37755" lon="4.82441">
        <ele>280.61</ele>
        <time>2026-08-31T10:15:35Z</time>
      </trkpt>
      <trkpt lat="44.37753" lon="4.82443">
        <ele>280.59</ele>
        <time>2026-08-31T10:15:36Z</time>
      </trkpt>
      <trkpt lat="44.37751" lon="4.82444">
        <ele>280.49</ele>
        <time>2026-08-31T10:15:37Z</time>
      </trkpt>
      <trkpt lat="44.37747" lon="4.82444">
        <ele>280.43</ele>
        <time>2026-08-31T10:15:38Z</time>
      </trkpt>
      <trkpt lat="44.37744" lon="4.82444">
        <ele>280.43</ele>
        <time>2026-08-31T10:15:39Z</time>
      </trkpt>
      <trkpt lat="44.3774" lon="4.82443">
        <ele>280.43</ele>
        <time>2026-08-31T10:15:40Z</time>
      </trkpt>
      <trkpt lat="44.37737" lon="4.82441">
        <ele>280.3</ele>
        <time>2026-08-31T10:15:41Z</time>
      </trkpt>
      <trkpt lat="44.37733" lon="4.8244">
        <ele>280.5</ele>
        <time>2026-08-31T10:15:42Z</time>
      </trkpt>
      <trkpt lat="44.3773" lon="4.82438">
        <ele>280.32</ele>
        <time>2026-08-31T10:15:43Z</time>
      </trkpt>
      <trkpt lat="44.37727" lon="4.82435">
        <ele>280.35</ele>
        <time>2026-08-31T10:15:44Z</time>
      </trkpt>
      <trkpt lat="44.37725" lon="4.82432">
        <ele>280.21</ele>
        <time>2026-08-31T10:15:45Z</time>
      </trkpt>
      <trkpt lat="44.37722" lon="4.82429">
        <ele>280.09</ele>
        <time>2026-08-31T10:15:46Z</time>
      </trkpt>
      <trkpt lat="44.37709" lon="4.82387">
        <ele>279.07</ele>
        <time>2026-08-31T10:15:57Z</time>
      </trkpt>
      <trkpt lat="44.37702" lon="4.82366">
        <ele>278.76</ele>
        <time>2026-08-31T10:16:01Z</time>
      </trkpt>
      <trkpt lat="44.37695" lon="4.8235">
        <ele>278.32</ele>
        <time>2026-08-31T10:16:04Z</time>
      </trkpt>
      <trkpt lat="44.37692" lon="4.82345">
        <ele>278.32</ele>
        <time>2026-08-31T10:16:05Z</time>
      </trkpt>
      <trkpt lat="44.37685" lon="4.82336">
        <ele>278.4</ele>
        <time>2026-08-31T10:16:07Z</time>
      </trkpt>
      <trkpt lat="44.37682" lon="4.82332">
        <ele>278.26</ele>
        <time>2026-08-31T10:16:08Z</time>
      </trkpt>
      <trkpt lat="44.37679" lon="4.82329">
        <ele>277.92</ele>
        <time>2026-08-31T10:16:09Z</time>
      </trkpt>
      <trkpt lat="44.37618" lon="4.8229">
        <ele>277.14</ele>
        <time>2026-08-31T10:16:24Z</time>
      </trkpt>
      <trkpt lat="44.37603" lon="4.82285">
        <ele>276.87</ele>
        <time>2026-08-31T10:16:27Z</time>
      </trkpt>
      <trkpt lat="44.37589" lon="4.82281">
        <ele>276.82</ele>
        <time>2026-08-31T10:16:30Z</time>
      </trkpt>
      <trkpt lat="44.37584" lon="4.82279">
        <ele>276.7</ele>
        <time>2026-08-31T10:16:31Z</time>
      </trkpt>
      <trkpt lat="44.3758" lon="4.82278">
        <ele>276.48</ele>
        <time>2026-08-31T10:16:32Z</time>
      </trkpt>
      <trkpt lat="44.37576" lon="4.82279">
        <ele>276.71</ele>
        <time>2026-08-31T10:16:33Z</time>
      </trkpt>
      <trkpt lat="44.37573" lon="4.8228">
        <ele>276.75</ele>
        <time>2026-08-31T10:16:34Z</time>
      </trkpt>
      <trkpt lat="44.3757" lon="4.82281">
        <ele>276.67</ele>
        <time>2026-08-31T10:16:35Z</time>
      </trkpt>
      <trkpt lat="44.3754" lon="4.82299">
        <ele>278.45</ele>
        <time>2026-08-31T10:16:47Z</time>
      </trkpt>
      <trkpt lat="44.37535" lon="4.82298">
        <ele>278.88</ele>
        <time>2026-08-31T10:16:49Z</time>
      </trkpt>
      <trkpt lat="44.37533" lon="4.82295">
        <ele>278.92</ele>
        <time>2026-08-31T10:16:50Z</time>
      </trkpt>
      <trkpt lat="44.37531" lon="4.82294">
        <ele>278.79</ele>
        <time>2026-08-31T10:16:51Z</time>
      </trkpt>
      <trkpt lat="44.37528" lon="4.82294">
        <ele>279.03</ele>
        <time>2026-08-31T10:16:52Z</time>
      </trkpt>
      <trkpt lat="44.37526" lon="4.82294">
        <ele>279.31</ele>
        <time>2026-08-31T10:16:53Z</time>
      </trkpt>
      <trkpt lat="44.37523" lon="4.82295">
        <ele>279.55</ele>
        <time>2026-08-31T10:16:54Z</time>
      </trkpt>
      <trkpt lat="44.37521" lon="4.82295">
        <ele>279.69</ele>
        <time>2026-08-31T10:16:55Z</time>
      </trkpt>
      <trkpt lat="44.37519" lon="4.82295">
        <ele>279.92</ele>
        <time>2026-08-31T10:16:56Z</time>
      </trkpt>
      <trkpt lat="44.37517" lon="4.82297">
        <ele>279.99</ele>
        <time>2026-08-31T10:16:57Z</time>
      </trkpt>
      <trkpt lat="44.37516" lon="4.82299">
        <ele>280.39</ele>
        <time>2026-08-31T10:16:58Z</time>
      </trkpt>
      <trkpt lat="44.37515" lon="4.82301">
        <ele>280.61</ele>
        <time>2026-08-31T10:16:59Z</time>
      </trkpt>
      <trkpt lat="44.37516" lon="4.82303">
        <ele>280.82</ele>
        <time>2026-08-31T10:17:00Z</time>
      </trkpt>
      <trkpt lat="44.37516" lon="4.82306">
        <ele>280.9</ele>
        <time>2026-08-31T10:17:01Z</time>
      </trkpt>
      <trkpt lat="44.37515" lon="4.82308">
        <ele>281.1</ele>
        <time>2026-08-31T10:17:02Z</time>
      </trkpt>
      <trkpt lat="44.37515" lon="4.82321">
        <ele>281.25</ele>
        <time>2026-08-31T10:17:06Z</time>
      </trkpt>
      <trkpt lat="44.37514" lon="4.82325">
        <ele>281.15</ele>
        <time>2026-08-31T10:17:07Z</time>
      </trkpt>
      <trkpt lat="44.37512" lon="4.82328">
        <ele>281.55</ele>
        <time>2026-08-31T10:17:08Z</time>
      </trkpt>
      <trkpt lat="44.3751" lon="4.8233">
        <ele>281.57</ele>
        <time>2026-08-31T10:17:09Z</time>
      </trkpt>
      <trkpt lat="44.37509" lon="4.82333">
        <ele>282.04</ele>
        <time>2026-08-31T10:17:10Z</time>
      </trkpt>
      <trkpt lat="44.37507" lon="4.82335">
        <ele>282.39</ele>
        <time>2026-08-31T10:17:11Z</time>
      </trkpt>
      <trkpt lat="44.37502" lon="4.82345">
        <ele>283.01</ele>
        <time>2026-08-31T10:17:15Z</time>
      </trkpt>
      <trkpt lat="44.37503" lon="4.82348">
        <ele>283.22</ele>
        <time>2026-08-31T10:17:16Z</time>
      </trkpt>
      <trkpt lat="44.37505" lon="4.82351">
        <ele>283.1</ele>
        <time>2026-08-31T10:17:17Z</time>
      </trkpt>
      <trkpt lat="44.37511" lon="4.8236">
        <ele>282.93</ele>
        <time>2026-08-31T10:17:20Z</time>
      </trkpt>
      <trkpt lat="44.37511" lon="4.82363">
        <ele>282.72</ele>
        <time>2026-08-31T10:17:21Z</time>
      </trkpt>
      <trkpt lat="44.3751" lon="4.82367">
        <ele>282.75</ele>
        <time>2026-08-31T10:17:22Z</time>
      </trkpt>
      <trkpt lat="44.37513" lon="4.82428">
        <ele>282.13</ele>
        <time>2026-08-31T10:17:34Z</time>
      </trkpt>
      <trkpt lat="44.37502" lon="4.82467">
        <ele>282.37</ele>
        <time>2026-08-31T10:17:44Z</time>
      </trkpt>
      <trkpt lat="44.37487" lon="4.82512">
        <ele>282.19</ele>
        <time>2026-08-31T10:17:55Z</time>
      </trkpt>
      <trkpt lat="44.37469" lon="4.82541">
        <ele>281.86</ele>
        <time>2026-08-31T10:18:03Z</time>
      </trkpt>
      <trkpt lat="44.37467" lon="4.82545">
        <ele>281.72</ele>
        <time>2026-08-31T10:18:04Z</time>
      </trkpt>
      <trkpt lat="44.37465" lon="4.82549">
        <ele>281.61</ele>
        <time>2026-08-31T10:18:05Z</time>
      </trkpt>
      <trkpt lat="44.37462" lon="4.82552">
        <ele>281.46</ele>
        <time>2026-08-31T10:18:06Z</time>
      </trkpt>
      <trkpt lat="44.3746" lon="4.82557">
        <ele>281.11</ele>
        <time>2026-08-31T10:18:14Z</time>
      </trkpt>
      <trkpt lat="44.37462" lon="4.82559">
        <ele>281.3</ele>
        <time>2026-08-31T10:18:23Z</time>
      </trkpt>
      <trkpt lat="44.37464" lon="4.8256">
        <ele>281.24</ele>
        <time>2026-08-31T10:18:24Z</time>
      </trkpt>
      <trkpt lat="44.37466" lon="4.82561">
        <ele>281.29</ele>
        <time>2026-08-31T10:18:25Z</time>
      </trkpt>
      <trkpt lat="44.37467" lon="4.82564">
        <ele>281.44</ele>
        <time>2026-08-31T10:18:26Z</time>
      </trkpt>
      <trkpt lat="44.37469" lon="4.82566">
        <ele>281.23</ele>
        <time>2026-08-31T10:18:27Z</time>
      </trkpt>
      <trkpt lat="44.3747" lon="4.82568">
        <ele>281.05</ele>
        <time>2026-08-31T10:18:28Z</time>
      </trkpt>
      <trkpt lat="44.37472" lon="4.82569">
        <ele>280.96</ele>
        <time>2026-08-31T10:18:29Z</time>
      </trkpt>
      <trkpt lat="44.37475" lon="4.8257">
        <ele>280.65</ele>
        <time>2026-08-31T10:18:30Z</time>
      </trkpt>
      <trkpt lat="44.37498" lon="4.82575">
        <ele>280.21</ele>
        <time>2026-08-31T10:18:38Z</time>
      </trkpt>
      <trkpt lat="44.375" lon="4.82578">
        <ele>280.51</ele>
        <time>2026-08-31T10:18:39Z</time>
      </trkpt>
      <trkpt lat="44.37501" lon="4.82581">
        <ele>280.19</ele>
        <time>2026-08-31T10:18:40Z</time>
      </trkpt>
      <trkpt lat="44.37502" lon="4.82585">
        <ele>280.24</ele>
        <time>2026-08-31T10:18:41Z</time>
      </trkpt>
      <trkpt lat="44.37502" lon="4.82589">
        <ele>280.23</ele>
        <time>2026-08-31T10:18:42Z</time>
      </trkpt>
      <trkpt lat="44.37503" lon="4.82592">
        <ele>280.18</ele>
        <time>2026-08-31T10:18:43Z</time>
      </trkpt>
      <trkpt lat="44.37505" lon="4.82595">
        <ele>280.1</ele>
        <time>2026-08-31T10:18:44Z</time>
      </trkpt>
      <trkpt lat="44.37506" lon="4.82599">
        <ele>280.26</ele>
        <time>2026-08-31T10:18:45Z</time>
      </trkpt>
      <trkpt lat="44.37507" lon="4.82602">
        <ele>280.19</ele>
        <time>2026-08-31T10:18:46Z</time>
      </trkpt>
      <trkpt lat="44.37508" lon="4.82604">
        <ele>280.24</ele>
        <time>2026-08-31T10:18:47Z</time>
      </trkpt>
      <trkpt lat="44.37509" lon="4.82606">
        <ele>280.35</ele>
        <time>2026-08-31T10:18:48Z</time>
      </trkpt>
      <trkpt lat="44.37511" lon="4.82612">
        <ele>280.19</ele>
        <time>2026-08-31T10:19:05Z</time>
      </trkpt>
      <trkpt lat="44.37515" lon="4.82616">
        <ele>279.9</ele>
        <time>2026-08-31T10:19:30Z</time>
      </trkpt>
      <trkpt lat="44.37516" lon="4.82618">
        <ele>279.87</ele>
        <time>2026-08-31T10:19:31Z</time>
      </trkpt>
      <trkpt lat="44.37518" lon="4.8262">
        <ele>279.93</ele>
        <time>2026-08-31T10:19:32Z</time>
      </trkpt>
      <trkpt lat="44.3752" lon="4.82623">
        <ele>279.88</ele>
        <time>2026-08-31T10:19:33Z</time>
      </trkpt>
      <trkpt lat="44.37523" lon="4.82627">
        <ele>279.96</ele>
        <time>2026-08-31T10:19:34Z</time>
      </trkpt>
      <trkpt lat="44.37525" lon="4.82631">
        <ele>280.11</ele>
        <time>2026-08-31T10:19:35Z</time>
      </trkpt>
      <trkpt lat="44.37527" lon="4.82637">
        <ele>279.95</ele>
        <time>2026-08-31T10:19:36Z</time>
      </trkpt>
      <trkpt lat="44.37529" lon="4.82642">
        <ele>279.66</ele>
        <time>2026-08-31T10:19:37Z</time>
      </trkpt>
      <trkpt lat="44.37533" lon="4.82647">
        <ele>279.28</ele>
        <time>2026-08-31T10:19:38Z</time>
      </trkpt>
      <trkpt lat="44.37536" lon="4.82652">
        <ele>279.26</ele>
        <time>2026-08-31T10:19:39Z</time>
      </trkpt>
      <trkpt lat="44.3754" lon="4.82657">
        <ele>278.99</ele>
        <time>2026-08-31T10:19:40Z</time>
      </trkpt>
      <trkpt lat="44.37543" lon="4.82664">
        <ele>278.58</ele>
        <time>2026-08-31T10:19:41Z</time>
      </trkpt>
      <trkpt lat="44.37544" lon="4.82671">
        <ele>279</ele>
        <time>2026-08-31T10:19:42Z</time>
      </trkpt>
      <trkpt lat="44.37544" lon="4.82677">
        <ele>279.23</ele>
        <time>2026-08-31T10:19:43Z</time>
      </trkpt>
      <trkpt lat="44.37543" lon="4.82681">
        <ele>279.48</ele>
        <time>2026-08-31T10:19:44Z</time>
      </trkpt>
      <trkpt lat="44.37541" lon="4.82685">
        <ele>279.55</ele>
        <time>2026-08-31T10:19:45Z</time>
      </trkpt>
      <trkpt lat="44.37539" lon="4.82688">
        <ele>279.76</ele>
        <time>2026-08-31T10:19:46Z</time>
      </trkpt>
      <trkpt lat="44.37531" lon="4.82702">
        <ele>280.85</ele>
        <time>2026-08-31T10:19:50Z</time>
      </trkpt>
      <trkpt lat="44.3753" lon="4.82703">
        <ele>281.09</ele>
        <time>2026-08-31T10:19:51Z</time>
      </trkpt>
      <trkpt lat="44.37528" lon="4.82704">
        <ele>281.51</ele>
        <time>2026-08-31T10:19:52Z</time>
      </trkpt>
      <trkpt lat="44.37527" lon="4.82705">
        <ele>281.82</ele>
        <time>2026-08-31T10:19:53Z</time>
      </trkpt>
      <trkpt lat="44.37526" lon="4.82707">
        <ele>281.98</ele>
        <time>2026-08-31T10:19:54Z</time>
      </trkpt>
      <trkpt lat="44.37525" lon="4.82709">
        <ele>282</ele>
        <time>2026-08-31T10:19:55Z</time>
      </trkpt>
      <trkpt lat="44.37519" lon="4.82724">
        <ele>282.4</ele>
        <time>2026-08-31T10:20:00Z</time>
      </trkpt>
      <trkpt lat="44.37519" lon="4.82727">
        <ele>282.55</ele>
        <time>2026-08-31T10:20:01Z</time>
      </trkpt>
      <trkpt lat="44.37518" lon="4.82731">
        <ele>282.32</ele>
        <time>2026-08-31T10:20:02Z</time>
      </trkpt>
      <trkpt lat="44.37516" lon="4.82736">
        <ele>282.2</ele>
        <time>2026-08-31T10:20:04Z</time>
      </trkpt>
      <trkpt lat="44.37515" lon="4.82739">
        <ele>282.11</ele>
        <time>2026-08-31T10:20:05Z</time>
      </trkpt>
      <trkpt lat="44.37514" lon="4.82742">
        <ele>282.08</ele>
        <time>2026-08-31T10:20:06Z</time>
      </trkpt>
      <trkpt lat="44.3751" lon="4.82754">
        <ele>281.91</ele>
        <time>2026-08-31T10:20:10Z</time>
      </trkpt>
      <trkpt lat="44.37511" lon="4.82758">
        <ele>282.13</ele>
        <time>2026-08-31T10:20:13Z</time>
      </trkpt>
      <trkpt lat="44.37517" lon="4.82762">
        <ele>282.6</ele>
        <time>2026-08-31T10:20:20Z</time>
      </trkpt>
      <trkpt lat="44.37519" lon="4.82764">
        <ele>282.65</ele>
        <time>2026-08-31T10:20:21Z</time>
      </trkpt>
      <trkpt lat="44.37526" lon="4.82772">
        <ele>282.88</ele>
        <time>2026-08-31T10:20:25Z</time>
      </trkpt>
      <trkpt lat="44.37528" lon="4.82775">
        <ele>283</ele>
        <time>2026-08-31T10:20:26Z</time>
      </trkpt>
      <trkpt lat="44.3753" lon="4.82776">
        <ele>283.09</ele>
        <time>2026-08-31T10:20:27Z</time>
      </trkpt>
      <trkpt lat="44.37532" lon="4.82777">
        <ele>283.05</ele>
        <time>2026-08-31T10:20:28Z</time>
      </trkpt>
      <trkpt lat="44.37535" lon="4.82778">
        <ele>283.26</ele>
        <time>2026-08-31T10:20:29Z</time>
      </trkpt>
      <trkpt lat="44.37561" lon="4.82799">
        <ele>285.23</ele>
        <time>2026-08-31T10:20:40Z</time>
      </trkpt>
      <trkpt lat="44.37563" lon="4.82802">
        <ele>285.31</ele>
        <time>2026-08-31T10:20:41Z</time>
      </trkpt>
      <trkpt lat="44.37566" lon="4.82807">
        <ele>285.48</ele>
        <time>2026-08-31T10:20:43Z</time>
      </trkpt>
      <trkpt lat="44.3758" lon="4.82818">
        <ele>285.99</ele>
        <time>2026-08-31T10:20:49Z</time>
      </trkpt>
      <trkpt lat="44.37582" lon="4.82819">
        <ele>286.18</ele>
        <time>2026-08-31T10:20:50Z</time>
      </trkpt>
      <trkpt lat="44.37583" lon="4.8282">
        <ele>286.08</ele>
        <time>2026-08-31T10:20:51Z</time>
      </trkpt>
      <trkpt lat="44.37585" lon="4.8282">
        <ele>286.04</ele>
        <time>2026-08-31T10:20:52Z</time>
      </trkpt>
      <trkpt lat="44.37586" lon="4.82822">
        <ele>286</ele>
        <time>2026-08-31T10:20:53Z</time>
      </trkpt>
      <trkpt lat="44.37588" lon="4.82824">
        <ele>286.05</ele>
        <time>2026-08-31T10:20:54Z</time>
      </trkpt>
      <trkpt lat="44.3759" lon="4.82826">
        <ele>286.11</ele>
        <time>2026-08-31T10:20:55Z</time>
      </trkpt>
      <trkpt lat="44.37592" lon="4.82828">
        <ele>285.79</ele>
        <time>2026-08-31T10:20:56Z</time>
      </trkpt>
      <trkpt lat="44.37595" lon="4.8283">
        <ele>285.73</ele>
        <time>2026-08-31T10:20:57Z</time>
      </trkpt>
      <trkpt lat="44.37598" lon="4.82832">
        <ele>285.83</ele>
        <time>2026-08-31T10:20:58Z</time>
      </trkpt>
      <trkpt lat="44.37601" lon="4.82834">
        <ele>285.76</ele>
        <time>2026-08-31T10:20:59Z</time>
      </trkpt>
      <trkpt lat="44.37603" lon="4.82837">
        <ele>285.74</ele>
        <time>2026-08-31T10:21:00Z</time>
      </trkpt>
      <trkpt lat="44.37605" lon="4.82839">
        <ele>285.59</ele>
        <time>2026-08-31T10:21:01Z</time>
      </trkpt>
      <trkpt lat="44.37606" lon="4.82843">
        <ele>285.57</ele>
        <time>2026-08-31T10:21:02Z</time>
      </trkpt>
      <trkpt lat="44.37607" lon="4.82846">
        <ele>285.58</ele>
        <time>2026-08-31T10:21:03Z</time>
      </trkpt>
      <trkpt lat="44.37606" lon="4.82849">
        <ele>285.7</ele>
        <time>2026-08-31T10:21:04Z</time>
      </trkpt>
      <trkpt lat="44.37607" lon="4.82852">
        <ele>285.57</ele>
        <time>2026-08-31T10:21:05Z</time>
      </trkpt>
      <trkpt lat="44.37608" lon="4.82855">
        <ele>285.46</ele>
        <time>2026-08-31T10:21:06Z</time>
      </trkpt>
      <trkpt lat="44.37611" lon="4.82858">
        <ele>285.61</ele>
        <time>2026-08-31T10:21:07Z</time>
      </trkpt>
      <trkpt lat="44.37613" lon="4.8286">
        <ele>285.96</ele>
        <time>2026-08-31T10:21:08Z</time>
      </trkpt>
      <trkpt lat="44.37615" lon="4.82862">
        <ele>286.07</ele>
        <time>2026-08-31T10:21:09Z</time>
      </trkpt>
      <trkpt lat="44.37616" lon="4.82863">
        <ele>286.06</ele>
        <time>2026-08-31T10:21:10Z</time>
      </trkpt>
      <trkpt lat="44.37618" lon="4.82865">
        <ele>285.9</ele>
        <time>2026-08-31T10:21:11Z</time>
      </trkpt>
      <trkpt lat="44.37619" lon="4.82868">
        <ele>286</ele>
        <time>2026-08-31T10:21:12Z</time>
      </trkpt>
      <trkpt lat="44.37621" lon="4.8287">
        <ele>285.64</ele>
        <time>2026-08-31T10:21:13Z</time>
      </trkpt>
      <trkpt lat="44.37623" lon="4.82872">
        <ele>285.53</ele>
        <time>2026-08-31T10:21:14Z</time>
      </trkpt>
      <trkpt lat="44.37626" lon="4.82874">
        <ele>285.3</ele>
        <time>2026-08-31T10:21:15Z</time>
      </trkpt>
      <trkpt lat="44.37628" lon="4.82877">
        <ele>285.33</ele>
        <time>2026-08-31T10:21:16Z</time>
      </trkpt>
      <trkpt lat="44.3763" lon="4.8288">
        <ele>285.67</ele>
        <time>2026-08-31T10:21:17Z</time>
      </trkpt>
      <trkpt lat="44.37633" lon="4.82882">
        <ele>285.78</ele>
        <time>2026-08-31T10:21:18Z</time>
      </trkpt>
      <trkpt lat="44.37649" lon="4.82894">
        <ele>286.01</ele>
        <time>2026-08-31T10:21:24Z</time>
      </trkpt>
      <trkpt lat="44.37651" lon="4.82897">
        <ele>285.85</ele>
        <time>2026-08-31T10:21:25Z</time>
      </trkpt>
      <trkpt lat="44.37653" lon="4.82899">
        <ele>285.93</ele>
        <time>2026-08-31T10:21:26Z</time>
      </trkpt>
      <trkpt lat="44.37655" lon="4.829">
        <ele>285.51</ele>
        <time>2026-08-31T10:21:27Z</time>
      </trkpt>
      <trkpt lat="44.37657" lon="4.82901">
        <ele>285.49</ele>
        <time>2026-08-31T10:21:28Z</time>
      </trkpt>
      <trkpt lat="44.37659" lon="4.82902">
        <ele>285.6</ele>
        <time>2026-08-31T10:21:29Z</time>
      </trkpt>
      <trkpt lat="44.37661" lon="4.82902">
        <ele>285.65</ele>
        <time>2026-08-31T10:21:30Z</time>
      </trkpt>
      <trkpt lat="44.37663" lon="4.82901">
        <ele>285.57</ele>
        <time>2026-08-31T10:21:31Z</time>
      </trkpt>
      <trkpt lat="44.37665" lon="4.829">
        <ele>285.71</ele>
        <time>2026-08-31T10:21:32Z</time>
      </trkpt>
      <trkpt lat="44.37667" lon="4.829">
        <ele>285.73</ele>
        <time>2026-08-31T10:21:33Z</time>
      </trkpt>
      <trkpt lat="44.37669" lon="4.829">
        <ele>285.53</ele>
        <time>2026-08-31T10:21:35Z</time>
      </trkpt>
      <trkpt lat="44.37671" lon="4.82902">
        <ele>285.51</ele>
        <time>2026-08-31T10:21:36Z</time>
      </trkpt>
      <trkpt lat="44.37677" lon="4.82906">
        <ele>285.51</ele>
        <time>2026-08-31T10:21:39Z</time>
      </trkpt>
      <trkpt lat="44.37685" lon="4.82905">
        <ele>285.48</ele>
        <time>2026-08-31T10:21:53Z</time>
      </trkpt>
      <trkpt lat="44.37692" lon="4.82905">
        <ele>285.6</ele>
        <time>2026-08-31T10:21:58Z</time>
      </trkpt>
      <trkpt lat="44.37694" lon="4.82905">
        <ele>285.38</ele>
        <time>2026-08-31T10:21:59Z</time>
      </trkpt>
      <trkpt lat="44.37697" lon="4.82906">
        <ele>285.39</ele>
        <time>2026-08-31T10:22:00Z</time>
      </trkpt>
      <trkpt lat="44.37718" lon="4.8291">
        <ele>283.99</ele>
        <time>2026-08-31T10:22:09Z</time>
      </trkpt>
      <trkpt lat="44.37731" lon="4.82916">
        <ele>283.36</ele>
        <time>2026-08-31T10:22:14Z</time>
      </trkpt>
      <trkpt lat="44.37733" lon="4.82916">
        <ele>283.07</ele>
        <time>2026-08-31T10:22:15Z</time>
      </trkpt>
      <trkpt lat="44.37735" lon="4.82914">
        <ele>282.92</ele>
        <time>2026-08-31T10:22:16Z</time>
      </trkpt>
      <trkpt lat="44.37737" lon="4.82914">
        <ele>282.76</ele>
        <time>2026-08-31T10:22:17Z</time>
      </trkpt>
      <trkpt lat="44.37739" lon="4.82913">
        <ele>282.64</ele>
        <time>2026-08-31T10:22:18Z</time>
      </trkpt>
      <trkpt lat="44.37743" lon="4.82913">
        <ele>282.26</ele>
        <time>2026-08-31T10:22:19Z</time>
      </trkpt>
      <trkpt lat="44.37746" lon="4.82914">
        <ele>281.93</ele>
        <time>2026-08-31T10:22:20Z</time>
      </trkpt>
      <trkpt lat="44.37749" lon="4.82916">
        <ele>281.62</ele>
        <time>2026-08-31T10:22:21Z</time>
      </trkpt>
      <trkpt lat="44.37752" lon="4.82917">
        <ele>281.59</ele>
        <time>2026-08-31T10:22:22Z</time>
      </trkpt>
      <trkpt lat="44.37755" lon="4.82917">
        <ele>281.44</ele>
        <time>2026-08-31T10:22:23Z</time>
      </trkpt>
      <trkpt lat="44.37757" lon="4.82916">
        <ele>281.17</ele>
        <time>2026-08-31T10:22:24Z</time>
      </trkpt>
      <trkpt lat="44.37759" lon="4.82917">
        <ele>280.9</ele>
        <time>2026-08-31T10:22:25Z</time>
      </trkpt>
      <trkpt lat="44.37762" lon="4.82918">
        <ele>281.02</ele>
        <time>2026-08-31T10:22:26Z</time>
      </trkpt>
      <trkpt lat="44.37764" lon="4.82919">
        <ele>281.01</ele>
        <time>2026-08-31T10:22:27Z</time>
      </trkpt>
      <trkpt lat="44.37767" lon="4.82919">
        <ele>280.54</ele>
        <time>2026-08-31T10:22:28Z</time>
      </trkpt>
      <trkpt lat="44.37769" lon="4.82919">
        <ele>280.28</ele>
        <time>2026-08-31T10:22:29Z</time>
      </trkpt>
      <trkpt lat="44.37771" lon="4.8292">
        <ele>280.29</ele>
        <time>2026-08-31T10:22:30Z</time>
      </trkpt>
      <trkpt lat="44.37773" lon="4.8292">
        <ele>279.89</ele>
        <time>2026-08-31T10:22:31Z</time>
      </trkpt>
      <trkpt lat="44.37776" lon="4.82921">
        <ele>279.65</ele>
        <time>2026-08-31T10:22:32Z</time>
      </trkpt>
      <trkpt lat="44.37778" lon="4.82921">
        <ele>279.48</ele>
        <time>2026-08-31T10:22:33Z</time>
      </trkpt>
      <trkpt lat="44.3778" lon="4.82921">
        <ele>279.2</ele>
        <time>2026-08-31T10:22:34Z</time>
      </trkpt>
      <trkpt lat="44.37783" lon="4.82921">
        <ele>279.02</ele>
        <time>2026-08-31T10:22:35Z</time>
      </trkpt>
      <trkpt lat="44.37786" lon="4.82922">
        <ele>278.98</ele>
        <time>2026-08-31T10:22:36Z</time>
      </trkpt>
      <trkpt lat="44.3779" lon="4.82924">
        <ele>278.66</ele>
        <time>2026-08-31T10:22:37Z</time>
      </trkpt>
      <trkpt lat="44.37792" lon="4.82925">
        <ele>278.61</ele>
        <time>2026-08-31T10:22:38Z</time>
      </trkpt>
      <trkpt lat="44.37795" lon="4.82926">
        <ele>278.5</ele>
        <time>2026-08-31T10:22:39Z</time>
      </trkpt>
      <trkpt lat="44.3782" lon="4.8293">
        <ele>276.73</ele>
        <time>2026-08-31T10:22:46Z</time>
      </trkpt>
      <trkpt lat="44.37825" lon="4.82932">
        <ele>276.23</ele>
        <time>2026-08-31T10:22:48Z</time>
      </trkpt>
      <trkpt lat="44.37827" lon="4.82934">
        <ele>275.69</ele>
        <time>2026-08-31T10:22:49Z</time>
      </trkpt>
      <trkpt lat="44.37832" lon="4.82936">
        <ele>275.7</ele>
        <time>2026-08-31T10:22:52Z</time>
      </trkpt>
      <trkpt lat="44.37847" lon="4.82937">
        <ele>274.68</ele>
        <time>2026-08-31T10:23:29Z</time>
      </trkpt>
      <trkpt lat="44.37851" lon="4.82938">
        <ele>275.54</ele>
        <time>2026-08-31T10:24:14Z</time>
      </trkpt>
      <trkpt lat="44.37852" lon="4.8294">
        <ele>275.41</ele>
        <time>2026-08-31T10:24:18Z</time>
      </trkpt>
      <trkpt lat="44.37853" lon="4.82942">
        <ele>275.63</ele>
        <time>2026-08-31T10:24:19Z</time>
      </trkpt>
      <trkpt lat="44.37855" lon="4.82945">
        <ele>275.62</ele>
        <time>2026-08-31T10:24:20Z</time>
      </trkpt>
      <trkpt lat="44.37857" lon="4.82949">
        <ele>275.84</ele>
        <time>2026-08-31T10:24:21Z</time>
      </trkpt>
      <trkpt lat="44.37859" lon="4.82954">
        <ele>275.97</ele>
        <time>2026-08-31T10:24:22Z</time>
      </trkpt>
      <trkpt lat="44.3786" lon="4.82959">
        <ele>276.22</ele>
        <time>2026-08-31T10:24:23Z</time>
      </trkpt>
      <trkpt lat="44.37876" lon="4.83006">
        <ele>275.61</ele>
        <time>2026-08-31T10:24:33Z</time>
      </trkpt>
      <trkpt lat="44.37893" lon="4.8305">
        <ele>275.44</ele>
        <time>2026-08-31T10:24:42Z</time>
      </trkpt>
      <trkpt lat="44.37895" lon="4.83058">
        <ele>275.04</ele>
        <time>2026-08-31T10:24:43Z</time>
      </trkpt>
      <trkpt lat="44.37922" lon="4.8317">
        <ele>272.93</ele>
        <time>2026-08-31T10:24:59Z</time>
      </trkpt>
      <trkpt lat="44.3794" lon="4.83239">
        <ele>270.77</ele>
        <time>2026-08-31T10:25:12Z</time>
      </trkpt>
      <trkpt lat="44.3794" lon="4.83247">
        <ele>270.46</ele>
        <time>2026-08-31T10:25:15Z</time>
      </trkpt>
      <trkpt lat="44.37938" lon="4.8325">
        <ele>270.38</ele>
        <time>2026-08-31T10:25:16Z</time>
      </trkpt>
      <trkpt lat="44.37937" lon="4.83253">
        <ele>270.27</ele>
        <time>2026-08-31T10:25:17Z</time>
      </trkpt>
      <trkpt lat="44.37934" lon="4.83256">
        <ele>270.44</ele>
        <time>2026-08-31T10:25:18Z</time>
      </trkpt>
      <trkpt lat="44.37932" lon="4.8326">
        <ele>270.45</ele>
        <time>2026-08-31T10:25:19Z</time>
      </trkpt>
      <trkpt lat="44.37929" lon="4.83264">
        <ele>270.31</ele>
        <time>2026-08-31T10:25:20Z</time>
      </trkpt>
      <trkpt lat="44.379" lon="4.83304">
        <ele>270.41</ele>
        <time>2026-08-31T10:25:30Z</time>
      </trkpt>
      <trkpt lat="44.37889" lon="4.83329">
        <ele>270.59</ele>
        <time>2026-08-31T10:25:36Z</time>
      </trkpt>
      <trkpt lat="44.37895" lon="4.83354">
        <ele>269.83</ele>
        <time>2026-08-31T10:25:41Z</time>
      </trkpt>
      <trkpt lat="44.37897" lon="4.83359">
        <ele>269.65</ele>
        <time>2026-08-31T10:25:42Z</time>
      </trkpt>
      <trkpt lat="44.379" lon="4.83371">
        <ele>268.6</ele>
        <time>2026-08-31T10:25:44Z</time>
      </trkpt>
      <trkpt lat="44.37901" lon="4.83378">
        <ele>268.57</ele>
        <time>2026-08-31T10:25:45Z</time>
      </trkpt>
      <trkpt lat="44.37901" lon="4.83402">
        <ele>267.47</ele>
        <time>2026-08-31T10:25:48Z</time>
      </trkpt>
      <trkpt lat="44.37903" lon="4.83411">
        <ele>266.93</ele>
        <time>2026-08-31T10:25:49Z</time>
      </trkpt>
      <trkpt lat="44.37904" lon="4.83421">
        <ele>266.72</ele>
        <time>2026-08-31T10:25:50Z</time>
      </trkpt>
      <trkpt lat="44.37906" lon="4.8343">
        <ele>266.6</ele>
        <time>2026-08-31T10:25:51Z</time>
      </trkpt>
      <trkpt lat="44.37909" lon="4.83437">
        <ele>266.04</ele>
        <time>2026-08-31T10:25:52Z</time>
      </trkpt>
      <trkpt lat="44.3791" lon="4.83445">
        <ele>266.1</ele>
        <time>2026-08-31T10:25:53Z</time>
      </trkpt>
      <trkpt lat="44.37919" lon="4.83473">
        <ele>265.82</ele>
        <time>2026-08-31T10:25:57Z</time>
      </trkpt>
      <trkpt lat="44.37921" lon="4.83479">
        <ele>265.9</ele>
        <time>2026-08-31T10:25:58Z</time>
      </trkpt>
      <trkpt lat="44.37924" lon="4.83483">
        <ele>265.89</ele>
        <time>2026-08-31T10:25:59Z</time>
      </trkpt>
      <trkpt lat="44.37926" lon="4.83489">
        <ele>265.96</ele>
        <time>2026-08-31T10:26:00Z</time>
      </trkpt>
      <trkpt lat="44.37928" lon="4.83494">
        <ele>266.23</ele>
        <time>2026-08-31T10:26:01Z</time>
      </trkpt>
      <trkpt lat="44.37944" lon="4.83555">
        <ele>265.48</ele>
        <time>2026-08-31T10:26:12Z</time>
      </trkpt>
      <trkpt lat="44.37946" lon="4.83561">
        <ele>265.57</ele>
        <time>2026-08-31T10:26:13Z</time>
      </trkpt>
      <trkpt lat="44.37956" lon="4.83587">
        <ele>265.14</ele>
        <time>2026-08-31T10:26:18Z</time>
      </trkpt>
      <trkpt lat="44.37958" lon="4.83593">
        <ele>264.92</ele>
        <time>2026-08-31T10:26:19Z</time>
      </trkpt>
      <trkpt lat="44.37961" lon="4.83625">
        <ele>264.42</ele>
        <time>2026-08-31T10:26:24Z</time>
      </trkpt>
      <trkpt lat="44.37961" lon="4.83631">
        <ele>264.5</ele>
        <time>2026-08-31T10:26:25Z</time>
      </trkpt>
      <trkpt lat="44.3796" lon="4.83637">
        <ele>264.56</ele>
        <time>2026-08-31T10:26:26Z</time>
      </trkpt>
      <trkpt lat="44.37958" lon="4.83643">
        <ele>264.44</ele>
        <time>2026-08-31T10:26:27Z</time>
      </trkpt>
      <trkpt lat="44.37955" lon="4.83649">
        <ele>264.5</ele>
        <time>2026-08-31T10:26:28Z</time>
      </trkpt>
      <trkpt lat="44.37952" lon="4.83654">
        <ele>264.31</ele>
        <time>2026-08-31T10:26:29Z</time>
      </trkpt>
      <trkpt lat="44.3795" lon="4.83661">
        <ele>264.45</ele>
        <time>2026-08-31T10:26:30Z</time>
      </trkpt>
      <trkpt lat="44.37948" lon="4.83667">
        <ele>264.39</ele>
        <time>2026-08-31T10:26:31Z</time>
      </trkpt>
      <trkpt lat="44.37942" lon="4.83685">
        <ele>264.13</ele>
        <time>2026-08-31T10:26:34Z</time>
      </trkpt>
      <trkpt lat="44.37941" lon="4.83691">
        <ele>263.64</ele>
        <time>2026-08-31T10:26:35Z</time>
      </trkpt>
      <trkpt lat="44.37939" lon="4.83697">
        <ele>263.63</ele>
        <time>2026-08-31T10:26:36Z</time>
      </trkpt>
      <trkpt lat="44.37925" lon="4.83735">
        <ele>263.56</ele>
        <time>2026-08-31T10:26:44Z</time>
      </trkpt>
      <trkpt lat="44.37926" lon="4.83739">
        <ele>263.87</ele>
        <time>2026-08-31T10:26:45Z</time>
      </trkpt>
      <trkpt lat="44.37926" lon="4.83744">
        <ele>263.83</ele>
        <time>2026-08-31T10:26:46Z</time>
      </trkpt>
      <trkpt lat="44.37922" lon="4.83769">
        <ele>263.59</ele>
        <time>2026-08-31T10:26:51Z</time>
      </trkpt>
      <trkpt lat="44.37919" lon="4.83774">
        <ele>263.49</ele>
        <time>2026-08-31T10:26:52Z</time>
      </trkpt>
      <trkpt lat="44.37917" lon="4.83779">
        <ele>263.17</ele>
        <time>2026-08-31T10:26:53Z</time>
      </trkpt>
      <trkpt lat="44.37915" lon="4.83785">
        <ele>263.04</ele>
        <time>2026-08-31T10:26:54Z</time>
      </trkpt>
      <trkpt lat="44.37913" lon="4.83791">
        <ele>263.12</ele>
        <time>2026-08-31T10:26:55Z</time>
      </trkpt>
      <trkpt lat="44.37913" lon="4.83797">
        <ele>262.96</ele>
        <time>2026-08-31T10:26:56Z</time>
      </trkpt>
      <trkpt lat="44.37913" lon="4.83804">
        <ele>262.62</ele>
        <time>2026-08-31T10:26:57Z</time>
      </trkpt>
      <trkpt lat="44.37912" lon="4.83811">
        <ele>262.79</ele>
        <time>2026-08-31T10:26:58Z</time>
      </trkpt>
      <trkpt lat="44.3791" lon="4.83817">
        <ele>262.69</ele>
        <time>2026-08-31T10:26:59Z</time>
      </trkpt>
      <trkpt lat="44.37907" lon="4.83822">
        <ele>262.82</ele>
        <time>2026-08-31T10:27:00Z</time>
      </trkpt>
      <trkpt lat="44.37901" lon="4.83834">
        <ele>262.06</ele>
        <time>2026-08-31T10:27:02Z</time>
      </trkpt>
      <trkpt lat="44.37899" lon="4.8384">
        <ele>261.8</ele>
        <time>2026-08-31T10:27:03Z</time>
      </trkpt>
      <trkpt lat="44.37898" lon="4.83845">
        <ele>261.8</ele>
        <time>2026-08-31T10:27:04Z</time>
      </trkpt>
      <trkpt lat="44.37897" lon="4.83852">
        <ele>261.35</ele>
        <time>2026-08-31T10:27:05Z</time>
      </trkpt>
      <trkpt lat="44.37896" lon="4.83859">
        <ele>261.17</ele>
        <time>2026-08-31T10:27:06Z</time>
      </trkpt>
      <trkpt lat="44.37894" lon="4.83893">
        <ele>260.24</ele>
        <time>2026-08-31T10:27:11Z</time>
      </trkpt>
      <trkpt lat="44.37893" lon="4.83899">
        <ele>260.05</ele>
        <time>2026-08-31T10:27:12Z</time>
      </trkpt>
      <trkpt lat="44.37891" lon="4.83906">
        <ele>259.83</ele>
        <time>2026-08-31T10:27:13Z</time>
      </trkpt>
      <trkpt lat="44.37889" lon="4.83912">
        <ele>259.68</ele>
        <time>2026-08-31T10:27:14Z</time>
      </trkpt>
      <trkpt lat="44.37887" lon="4.83918">
        <ele>259.79</ele>
        <time>2026-08-31T10:27:15Z</time>
      </trkpt>
      <trkpt lat="44.37884" lon="4.83923">
        <ele>259.7</ele>
        <time>2026-08-31T10:27:16Z</time>
      </trkpt>
      <trkpt lat="44.37883" lon="4.83927">
        <ele>259.5</ele>
        <time>2026-08-31T10:27:17Z</time>
      </trkpt>
      <trkpt lat="44.37882" lon="4.8393">
        <ele>259.14</ele>
        <time>2026-08-31T10:27:18Z</time>
      </trkpt>
      <trkpt lat="44.37882" lon="4.83933">
        <ele>258.69</ele>
        <time>2026-08-31T10:27:19Z</time>
      </trkpt>
      <trkpt lat="44.37882" lon="4.83935">
        <ele>258.42</ele>
        <time>2026-08-31T10:27:20Z</time>
      </trkpt>
      <trkpt lat="44.37883" lon="4.83937">
        <ele>258.45</ele>
        <time>2026-08-31T10:27:21Z</time>
      </trkpt>
      <trkpt lat="44.37884" lon="4.8394">
        <ele>258.58</ele>
        <time>2026-08-31T10:27:22Z</time>
      </trkpt>
      <trkpt lat="44.37885" lon="4.83943">
        <ele>258.28</ele>
        <time>2026-08-31T10:27:23Z</time>
      </trkpt>
      <trkpt lat="44.37888" lon="4.83944">
        <ele>258.41</ele>
        <time>2026-08-31T10:27:24Z</time>
      </trkpt>
      <trkpt lat="44.3789" lon="4.83943">
        <ele>258.62</ele>
        <time>2026-08-31T10:27:25Z</time>
      </trkpt>
      <trkpt lat="44.37893" lon="4.83943">
        <ele>259.05</ele>
        <time>2026-08-31T10:27:26Z</time>
      </trkpt>
      <trkpt lat="44.37896" lon="4.83944">
        <ele>259.18</ele>
        <time>2026-08-31T10:27:27Z</time>
      </trkpt>
      <trkpt lat="44.37899" lon="4.83943">
        <ele>259.32</ele>
        <time>2026-08-31T10:27:28Z</time>
      </trkpt>
      <trkpt lat="44.379" lon="4.83941">
        <ele>259.49</ele>
        <time>2026-08-31T10:27:29Z</time>
      </trkpt>
      <trkpt lat="44.37903" lon="4.83934">
        <ele>259.49</ele>
        <time>2026-08-31T10:27:31Z</time>
      </trkpt>
      <trkpt lat="44.37905" lon="4.83934">
        <ele>259.44</ele>
        <time>2026-08-31T10:27:32Z</time>
      </trkpt>
      <trkpt lat="44.37906" lon="4.83935">
        <ele>259.28</ele>
        <time>2026-08-31T10:27:33Z</time>
      </trkpt>
      <trkpt lat="44.37907" lon="4.83938">
        <ele>259.21</ele>
        <time>2026-08-31T10:27:34Z</time>
      </trkpt>
      <trkpt lat="44.37908" lon="4.83943">
        <ele>259.45</ele>
        <time>2026-08-31T10:27:35Z</time>
      </trkpt>
      <trkpt lat="44.37907" lon="4.83948">
        <ele>259.31</ele>
        <time>2026-08-31T10:27:36Z</time>
      </trkpt>
      <trkpt lat="44.37906" lon="4.83953">
        <ele>259.27</ele>
        <time>2026-08-31T10:27:37Z</time>
      </trkpt>
      <trkpt lat="44.37906" lon="4.83957">
        <ele>259.34</ele>
        <time>2026-08-31T10:27:38Z</time>
      </trkpt>
      <trkpt lat="44.37908" lon="4.83961">
        <ele>259.25</ele>
        <time>2026-08-31T10:27:39Z</time>
      </trkpt>
      <trkpt lat="44.3791" lon="4.83964">
        <ele>258.93</ele>
        <time>2026-08-31T10:27:40Z</time>
      </trkpt>
      <trkpt lat="44.37918" lon="4.8398">
        <ele>258.53</ele>
        <time>2026-08-31T10:27:44Z</time>
      </trkpt>
      <trkpt lat="44.37917" lon="4.83984">
        <ele>258.52</ele>
        <time>2026-08-31T10:27:45Z</time>
      </trkpt>
      <trkpt lat="44.37917" lon="4.83988">
        <ele>258.27</ele>
        <time>2026-08-31T10:27:46Z</time>
      </trkpt>
      <trkpt lat="44.37918" lon="4.83991">
        <ele>258.31</ele>
        <time>2026-08-31T10:27:47Z</time>
      </trkpt>
      <trkpt lat="44.37919" lon="4.83994">
        <ele>258.14</ele>
        <time>2026-08-31T10:27:48Z</time>
      </trkpt>
      <trkpt lat="44.37919" lon="4.83998">
        <ele>257.95</ele>
        <time>2026-08-31T10:27:49Z</time>
      </trkpt>
      <trkpt lat="44.37918" lon="4.84002">
        <ele>257.74</ele>
        <time>2026-08-31T10:27:50Z</time>
      </trkpt>
      <trkpt lat="44.37918" lon="4.84006">
        <ele>257.71</ele>
        <time>2026-08-31T10:27:51Z</time>
      </trkpt>
      <trkpt lat="44.37918" lon="4.84011">
        <ele>257.69</ele>
        <time>2026-08-31T10:27:52Z</time>
      </trkpt>
      <trkpt lat="44.37917" lon="4.84015">
        <ele>257.46</ele>
        <time>2026-08-31T10:27:53Z</time>
      </trkpt>
      <trkpt lat="44.37917" lon="4.84019">
        <ele>257.73</ele>
        <time>2026-08-31T10:27:54Z</time>
      </trkpt>
      <trkpt lat="44.37919" lon="4.84021">
        <ele>257.54</ele>
        <time>2026-08-31T10:27:55Z</time>
      </trkpt>
      <trkpt lat="44.37921" lon="4.84024">
        <ele>257.9</ele>
        <time>2026-08-31T10:27:56Z</time>
      </trkpt>
      <trkpt lat="44.37923" lon="4.84028">
        <ele>258.21</ele>
        <time>2026-08-31T10:27:57Z</time>
      </trkpt>
      <trkpt lat="44.37925" lon="4.84031">
        <ele>258.19</ele>
        <time>2026-08-31T10:27:58Z</time>
      </trkpt>
      <trkpt lat="44.37927" lon="4.84035">
        <ele>257.93</ele>
        <time>2026-08-31T10:27:59Z</time>
      </trkpt>
      <trkpt lat="44.37928" lon="4.84039">
        <ele>257.51</ele>
        <time>2026-08-31T10:28:00Z</time>
      </trkpt>
      <trkpt lat="44.37928" lon="4.84044">
        <ele>257.24</ele>
        <time>2026-08-31T10:28:01Z</time>
      </trkpt>
      <trkpt lat="44.37928" lon="4.84048">
        <ele>256.61</ele>
        <time>2026-08-31T10:28:02Z</time>
      </trkpt>
      <trkpt lat="44.37927" lon="4.84052">
        <ele>256.13</ele>
        <time>2026-08-31T10:28:03Z</time>
      </trkpt>
      <trkpt lat="44.37927" lon="4.84056">
        <ele>255.87</ele>
        <time>2026-08-31T10:28:04Z</time>
      </trkpt>
      <trkpt lat="44.37926" lon="4.84066">
        <ele>255.49</ele>
        <time>2026-08-31T10:28:06Z</time>
      </trkpt>
      <trkpt lat="44.37925" lon="4.84072">
        <ele>255.14</ele>
        <time>2026-08-31T10:28:07Z</time>
      </trkpt>
      <trkpt lat="44.37925" lon="4.84078">
        <ele>254.43</ele>
        <time>2026-08-31T10:28:08Z</time>
      </trkpt>
      <trkpt lat="44.37924" lon="4.84083">
        <ele>253.85</ele>
        <time>2026-08-31T10:28:09Z</time>
      </trkpt>
      <trkpt lat="44.37923" lon="4.84087">
        <ele>253.57</ele>
        <time>2026-08-31T10:28:10Z</time>
      </trkpt>
      <trkpt lat="44.3792" lon="4.8409">
        <ele>253.15</ele>
        <time>2026-08-31T10:28:11Z</time>
      </trkpt>
      <trkpt lat="44.37918" lon="4.84093">
        <ele>252.88</ele>
        <time>2026-08-31T10:28:12Z</time>
      </trkpt>
      <trkpt lat="44.37919" lon="4.84097">
        <ele>252.61</ele>
        <time>2026-08-31T10:28:13Z</time>
      </trkpt>
      <trkpt lat="44.3792" lon="4.841">
        <ele>252.41</ele>
        <time>2026-08-31T10:28:14Z</time>
      </trkpt>
      <trkpt lat="44.37922" lon="4.84103">
        <ele>252.12</ele>
        <time>2026-08-31T10:28:15Z</time>
      </trkpt>
      <trkpt lat="44.37924" lon="4.84106">
        <ele>251.85</ele>
        <time>2026-08-31T10:28:16Z</time>
      </trkpt>
      <trkpt lat="44.37925" lon="4.84109">
        <ele>251.53</ele>
        <time>2026-08-31T10:28:17Z</time>
      </trkpt>
      <trkpt lat="44.37924" lon="4.84115">
        <ele>251.33</ele>
        <time>2026-08-31T10:28:27Z</time>
      </trkpt>
      <trkpt lat="44.37924" lon="4.84117">
        <ele>251.12</ele>
        <time>2026-08-31T10:28:29Z</time>
      </trkpt>
      <trkpt lat="44.37924" lon="4.84119">
        <ele>250.96</ele>
        <time>2026-08-31T10:28:30Z</time>
      </trkpt>
      <trkpt lat="44.37923" lon="4.84123">
        <ele>250.7</ele>
        <time>2026-08-31T10:28:31Z</time>
      </trkpt>
      <trkpt lat="44.37922" lon="4.84127">
        <ele>250.56</ele>
        <time>2026-08-31T10:28:32Z</time>
      </trkpt>
      <trkpt lat="44.3792" lon="4.84131">
        <ele>250.12</ele>
        <time>2026-08-31T10:28:33Z</time>
      </trkpt>
      <trkpt lat="44.37917" lon="4.84134">
        <ele>249.73</ele>
        <time>2026-08-31T10:28:34Z</time>
      </trkpt>
      <trkpt lat="44.37913" lon="4.84136">
        <ele>249.54</ele>
        <time>2026-08-31T10:28:35Z</time>
      </trkpt>
      <trkpt lat="44.37899" lon="4.84146">
        <ele>248.34</ele>
        <time>2026-08-31T10:28:39Z</time>
      </trkpt>
      <trkpt lat="44.37898" lon="4.84149">
        <ele>248.32</ele>
        <time>2026-08-31T10:28:40Z</time>
      </trkpt>
      <trkpt lat="44.37898" lon="4.84153">
        <ele>247.96</ele>
        <time>2026-08-31T10:28:41Z</time>
      </trkpt>
      <trkpt lat="44.37897" lon="4.84156">
        <ele>247.98</ele>
        <time>2026-08-31T10:28:42Z</time>
      </trkpt>
      <trkpt lat="44.37893" lon="4.8416">
        <ele>247.27</ele>
        <time>2026-08-31T10:28:46Z</time>
      </trkpt>
      <trkpt lat="44.37891" lon="4.84162">
        <ele>247.23</ele>
        <time>2026-08-31T10:28:47Z</time>
      </trkpt>
      <trkpt lat="44.37888" lon="4.84163">
        <ele>247.1</ele>
        <time>2026-08-31T10:28:48Z</time>
      </trkpt>
      <trkpt lat="44.37885" lon="4.84165">
        <ele>246.99</ele>
        <time>2026-08-31T10:28:49Z</time>
      </trkpt>
      <trkpt lat="44.37883" lon="4.84169">
        <ele>246.92</ele>
        <time>2026-08-31T10:28:50Z</time>
      </trkpt>
      <trkpt lat="44.37882" lon="4.84173">
        <ele>247.01</ele>
        <time>2026-08-31T10:28:51Z</time>
      </trkpt>
      <trkpt lat="44.3788" lon="4.84178">
        <ele>246.9</ele>
        <time>2026-08-31T10:28:52Z</time>
      </trkpt>
      <trkpt lat="44.37877" lon="4.84191">
        <ele>246.4</ele>
        <time>2026-08-31T10:28:55Z</time>
      </trkpt>
      <trkpt lat="44.37875" lon="4.84193">
        <ele>246.09</ele>
        <time>2026-08-31T10:28:56Z</time>
      </trkpt>
      <trkpt lat="44.37874" lon="4.84195">
        <ele>245.81</ele>
        <time>2026-08-31T10:28:57Z</time>
      </trkpt>
      <trkpt lat="44.37873" lon="4.84197">
        <ele>245.57</ele>
        <time>2026-08-31T10:28:58Z</time>
      </trkpt>
      <trkpt lat="44.37873" lon="4.84199">
        <ele>245.74</ele>
        <time>2026-08-31T10:28:59Z</time>
      </trkpt>
      <trkpt lat="44.37873" lon="4.84201">
        <ele>245.63</ele>
        <time>2026-08-31T10:29:00Z</time>
      </trkpt>
      <trkpt lat="44.37872" lon="4.84204">
        <ele>245.74</ele>
        <time>2026-08-31T10:29:01Z</time>
      </trkpt>
      <trkpt lat="44.37871" lon="4.84205">
        <ele>245.69</ele>
        <time>2026-08-31T10:29:02Z</time>
      </trkpt>
      <trkpt lat="44.37867" lon="4.84208">
        <ele>245.5</ele>
        <time>2026-08-31T10:29:05Z</time>
      </trkpt>
      <trkpt lat="44.37866" lon="4.8421">
        <ele>245.04</ele>
        <time>2026-08-31T10:29:06Z</time>
      </trkpt>
      <trkpt lat="44.37866" lon="4.84213">
        <ele>244.94</ele>
        <time>2026-08-31T10:29:07Z</time>
      </trkpt>
      <trkpt lat="44.37868" lon="4.84216">
        <ele>244.83</ele>
        <time>2026-08-31T10:29:08Z</time>
      </trkpt>
      <trkpt lat="44.37869" lon="4.84219">
        <ele>245.08</ele>
        <time>2026-08-31T10:29:09Z</time>
      </trkpt>
      <trkpt lat="44.3787" lon="4.84222">
        <ele>245.15</ele>
        <time>2026-08-31T10:29:10Z</time>
      </trkpt>
      <trkpt lat="44.3787" lon="4.84224">
        <ele>245.2</ele>
        <time>2026-08-31T10:29:11Z</time>
      </trkpt>
      <trkpt lat="44.3787" lon="4.84226">
        <ele>244.93</ele>
        <time>2026-08-31T10:29:12Z</time>
      </trkpt>
      <trkpt lat="44.37869" lon="4.8423">
        <ele>244.76</ele>
        <time>2026-08-31T10:29:13Z</time>
      </trkpt>
      <trkpt lat="44.37868" lon="4.84239">
        <ele>244.69</ele>
        <time>2026-08-31T10:29:16Z</time>
      </trkpt>
      <trkpt lat="44.37867" lon="4.84241">
        <ele>244.47</ele>
        <time>2026-08-31T10:29:17Z</time>
      </trkpt>
      <trkpt lat="44.37864" lon="4.84242">
        <ele>243.97</ele>
        <time>2026-08-31T10:29:18Z</time>
      </trkpt>
      <trkpt lat="44.37862" lon="4.84244">
        <ele>243.77</ele>
        <time>2026-08-31T10:29:19Z</time>
      </trkpt>
      <trkpt lat="44.37861" lon="4.84246">
        <ele>243.82</ele>
        <time>2026-08-31T10:29:20Z</time>
      </trkpt>
      <trkpt lat="44.3786" lon="4.84248">
        <ele>243.51</ele>
        <time>2026-08-31T10:29:21Z</time>
      </trkpt>
      <trkpt lat="44.37859" lon="4.8425">
        <ele>243.46</ele>
        <time>2026-08-31T10:29:22Z</time>
      </trkpt>
      <trkpt lat="44.37857" lon="4.84257">
        <ele>243.18</ele>
        <time>2026-08-31T10:29:26Z</time>
      </trkpt>
      <trkpt lat="44.37856" lon="4.84261">
        <ele>243.21</ele>
        <time>2026-08-31T10:29:28Z</time>
      </trkpt>
      <trkpt lat="44.37855" lon="4.84264">
        <ele>243.35</ele>
        <time>2026-08-31T10:29:29Z</time>
      </trkpt>
      <trkpt lat="44.37853" lon="4.84267">
        <ele>243.44</ele>
        <time>2026-08-31T10:29:30Z</time>
      </trkpt>
      <trkpt lat="44.37844" lon="4.84285">
        <ele>242.08</ele>
        <time>2026-08-31T10:29:35Z</time>
      </trkpt>
      <trkpt lat="44.37845" lon="4.84288">
        <ele>241.81</ele>
        <time>2026-08-31T10:29:36Z</time>
      </trkpt>
      <trkpt lat="44.37846" lon="4.84291">
        <ele>241.97</ele>
        <time>2026-08-31T10:29:37Z</time>
      </trkpt>
      <trkpt lat="44.37848" lon="4.84293">
        <ele>242.22</ele>
        <time>2026-08-31T10:29:38Z</time>
      </trkpt>
      <trkpt lat="44.37849" lon="4.84296">
        <ele>242.04</ele>
        <time>2026-08-31T10:29:39Z</time>
      </trkpt>
      <trkpt lat="44.37849" lon="4.843">
        <ele>241.88</ele>
        <time>2026-08-31T10:29:40Z</time>
      </trkpt>
      <trkpt lat="44.37853" lon="4.84313">
        <ele>241.57</ele>
        <time>2026-08-31T10:29:44Z</time>
      </trkpt>
      <trkpt lat="44.37854" lon="4.84325">
        <ele>240.7</ele>
        <time>2026-08-31T10:29:50Z</time>
      </trkpt>
      <trkpt lat="44.37854" lon="4.84327">
        <ele>240.62</ele>
        <time>2026-08-31T10:29:51Z</time>
      </trkpt>
      <trkpt lat="44.37856" lon="4.84328">
        <ele>240.71</ele>
        <time>2026-08-31T10:29:52Z</time>
      </trkpt>
      <trkpt lat="44.37858" lon="4.8433">
        <ele>241.07</ele>
        <time>2026-08-31T10:29:53Z</time>
      </trkpt>
      <trkpt lat="44.3786" lon="4.84332">
        <ele>241.02</ele>
        <time>2026-08-31T10:29:54Z</time>
      </trkpt>
      <trkpt lat="44.37863" lon="4.84335">
        <ele>240.71</ele>
        <time>2026-08-31T10:29:55Z</time>
      </trkpt>
      <trkpt lat="44.37865" lon="4.84338">
        <ele>240.84</ele>
        <time>2026-08-31T10:29:56Z</time>
      </trkpt>
      <trkpt lat="44.37866" lon="4.84341">
        <ele>240.81</ele>
        <time>2026-08-31T10:29:57Z</time>
      </trkpt>
      <trkpt lat="44.37866" lon="4.84344">
        <ele>240.71</ele>
        <time>2026-08-31T10:29:58Z</time>
      </trkpt>
      <trkpt lat="44.37866" lon="4.84348">
        <ele>240.28</ele>
        <time>2026-08-31T10:29:59Z</time>
      </trkpt>
      <trkpt lat="44.37866" lon="4.84356">
        <ele>239.97</ele>
        <time>2026-08-31T10:30:01Z</time>
      </trkpt>
      <trkpt lat="44.37866" lon="4.84361">
        <ele>239.72</ele>
        <time>2026-08-31T10:30:02Z</time>
      </trkpt>
      <trkpt lat="44.37867" lon="4.84364">
        <ele>239.8</ele>
        <time>2026-08-31T10:30:03Z</time>
      </trkpt>
      <trkpt lat="44.37867" lon="4.84366">
        <ele>239.86</ele>
        <time>2026-08-31T10:30:04Z</time>
      </trkpt>
      <trkpt lat="44.37867" lon="4.84369">
        <ele>239.95</ele>
        <time>2026-08-31T10:30:05Z</time>
      </trkpt>
      <trkpt lat="44.37867" lon="4.84372">
        <ele>240.01</ele>
        <time>2026-08-31T10:30:06Z</time>
      </trkpt>
      <trkpt lat="44.37867" lon="4.84374">
        <ele>240.02</ele>
        <time>2026-08-31T10:30:07Z</time>
      </trkpt>
      <trkpt lat="44.37868" lon="4.84377">
        <ele>240.02</ele>
        <time>2026-08-31T10:30:08Z</time>
      </trkpt>
      <trkpt lat="44.37869" lon="4.84381">
        <ele>240.13</ele>
        <time>2026-08-31T10:30:09Z</time>
      </trkpt>
      <trkpt lat="44.3787" lon="4.84384">
        <ele>240.06</ele>
        <time>2026-08-31T10:30:10Z</time>
      </trkpt>
      <trkpt lat="44.3787" lon="4.84387">
        <ele>240.01</ele>
        <time>2026-08-31T10:30:11Z</time>
      </trkpt>
      <trkpt lat="44.3787" lon="4.84391">
        <ele>239.69</ele>
        <time>2026-08-31T10:30:12Z</time>
      </trkpt>
      <trkpt lat="44.37869" lon="4.84394">
        <ele>239.1</ele>
        <time>2026-08-31T10:30:13Z</time>
      </trkpt>
      <trkpt lat="44.37868" lon="4.84397">
        <ele>238.84</ele>
        <time>2026-08-31T10:30:14Z</time>
      </trkpt>
      <trkpt lat="44.37868" lon="4.84401">
        <ele>238.53</ele>
        <time>2026-08-31T10:30:15Z</time>
      </trkpt>
      <trkpt lat="44.37868" lon="4.84404">
        <ele>238.26</ele>
        <time>2026-08-31T10:30:16Z</time>
      </trkpt>
      <trkpt lat="44.37868" lon="4.84406">
        <ele>238</ele>
        <time>2026-08-31T10:30:17Z</time>
      </trkpt>
      <trkpt lat="44.37868" lon="4.84411">
        <ele>237.31</ele>
        <time>2026-08-31T10:30:22Z</time>
      </trkpt>
      <trkpt lat="44.37867" lon="4.84412">
        <ele>237.27</ele>
        <time>2026-08-31T10:30:23Z</time>
      </trkpt>
      <trkpt lat="44.37867" lon="4.84414">
        <ele>237.37</ele>
        <time>2026-08-31T10:30:24Z</time>
      </trkpt>
      <trkpt lat="44.37863" lon="4.84417">
        <ele>237.04</ele>
        <time>2026-08-31T10:30:27Z</time>
      </trkpt>
      <trkpt lat="44.37862" lon="4.84427">
        <ele>237.08</ele>
        <time>2026-08-31T10:30:33Z</time>
      </trkpt>
      <trkpt lat="44.37863" lon="4.8443">
        <ele>237.09</ele>
        <time>2026-08-31T10:30:34Z</time>
      </trkpt>
      <trkpt lat="44.37865" lon="4.84432">
        <ele>237.27</ele>
        <time>2026-08-31T10:30:35Z</time>
      </trkpt>
      <trkpt lat="44.37867" lon="4.84434">
        <ele>237.31</ele>
        <time>2026-08-31T10:30:36Z</time>
      </trkpt>
      <trkpt lat="44.37865" lon="4.8446">
        <ele>238.38</ele>
        <time>2026-08-31T10:30:45Z</time>
      </trkpt>
      <trkpt lat="44.37862" lon="4.84465">
        <ele>238.44</ele>
        <time>2026-08-31T10:30:47Z</time>
      </trkpt>
      <trkpt lat="44.37858" lon="4.84474">
        <ele>237.76</ele>
        <time>2026-08-31T10:30:50Z</time>
      </trkpt>
      <trkpt lat="44.37848" lon="4.84487">
        <ele>236.61</ele>
        <time>2026-08-31T10:30:54Z</time>
      </trkpt>
      <trkpt lat="44.37829" lon="4.84492">
        <ele>235.27</ele>
        <time>2026-08-31T10:31:01Z</time>
      </trkpt>
      <trkpt lat="44.37821" lon="4.84494">
        <ele>234.69</ele>
        <time>2026-08-31T10:31:04Z</time>
      </trkpt>
      <trkpt lat="44.37804" lon="4.84502">
        <ele>234.28</ele>
        <time>2026-08-31T10:31:12Z</time>
      </trkpt>
      <trkpt lat="44.37799" lon="4.84505">
        <ele>234.35</ele>
        <time>2026-08-31T10:31:17Z</time>
      </trkpt>
      <trkpt lat="44.37789" lon="4.8451">
        <ele>233.94</ele>
        <time>2026-08-31T10:31:21Z</time>
      </trkpt>
      <trkpt lat="44.3778" lon="4.84539">
        <ele>233.37</ele>
        <time>2026-08-31T10:31:29Z</time>
      </trkpt>
      <trkpt lat="44.37768" lon="4.84553">
        <ele>233.16</ele>
        <time>2026-08-31T10:31:37Z</time>
      </trkpt>
      <trkpt lat="44.3775" lon="4.84588">
        <ele>232.64</ele>
        <time>2026-08-31T10:31:49Z</time>
      </trkpt>
      <trkpt lat="44.37736" lon="4.846">
        <ele>232.36</ele>
        <time>2026-08-31T10:31:54Z</time>
      </trkpt>
      <trkpt lat="44.37724" lon="4.84594">
        <ele>231.54</ele>
        <time>2026-08-31T10:32:00Z</time>
      </trkpt>
      <trkpt lat="44.377" lon="4.84594">
        <ele>230.26</ele>
        <time>2026-08-31T10:32:09Z</time>
      </trkpt>
      <trkpt lat="44.37693" lon="4.8459">
        <ele>230.08</ele>
        <time>2026-08-31T10:32:13Z</time>
      </trkpt>
      <trkpt lat="44.37688" lon="4.84588">
        <ele>229.96</ele>
        <time>2026-08-31T10:32:15Z</time>
      </trkpt>
      <trkpt lat="44.37669" lon="4.84596">
        <ele>229.58</ele>
        <time>2026-08-31T10:32:23Z</time>
      </trkpt>
      <trkpt lat="44.3766" lon="4.84602">
        <ele>229.66</ele>
        <time>2026-08-31T10:32:28Z</time>
      </trkpt>
      <trkpt lat="44.37653" lon="4.84608">
        <ele>229.76</ele>
        <time>2026-08-31T10:32:32Z</time>
      </trkpt>
      <trkpt lat="44.37651" lon="4.84611">
        <ele>229.83</ele>
        <time>2026-08-31T10:32:34Z</time>
      </trkpt>
      <trkpt lat="44.37648" lon="4.84619">
        <ele>230.17</ele>
        <time>2026-08-31T10:32:38Z</time>
      </trkpt>
      <trkpt lat="44.37635" lon="4.84635">
        <ele>230.17</ele>
        <time>2026-08-31T10:32:43Z</time>
      </trkpt>
      <trkpt lat="44.37608" lon="4.84656">
        <ele>227.67</ele>
        <time>2026-08-31T10:32:52Z</time>
      </trkpt>
      <trkpt lat="44.37608" lon="4.84669">
        <ele>227.29</ele>
        <time>2026-08-31T10:32:57Z</time>
      </trkpt>
      <trkpt lat="44.37597" lon="4.84701">
        <ele>225.71</ele>
        <time>2026-08-31T10:33:04Z</time>
      </trkpt>
      <trkpt lat="44.37579" lon="4.84727">
        <ele>223.32</ele>
        <time>2026-08-31T10:33:13Z</time>
      </trkpt>
      <trkpt lat="44.37583" lon="4.84738">
        <ele>223.17</ele>
        <time>2026-08-31T10:33:16Z</time>
      </trkpt>
      <trkpt lat="44.37587" lon="4.84747">
        <ele>223.14</ele>
        <time>2026-08-31T10:33:19Z</time>
      </trkpt>
      <trkpt lat="44.37588" lon="4.84759">
        <ele>223.08</ele>
        <time>2026-08-31T10:33:23Z</time>
      </trkpt>
      <trkpt lat="44.37587" lon="4.84766">
        <ele>222.92</ele>
        <time>2026-08-31T10:33:31Z</time>
      </trkpt>
      <trkpt lat="44.37566" lon="4.84788">
        <ele>222.74</ele>
        <time>2026-08-31T10:33:40Z</time>
      </trkpt>
      <trkpt lat="44.37559" lon="4.84792">
        <ele>222.73</ele>
        <time>2026-08-31T10:33:42Z</time>
      </trkpt>
      <trkpt lat="44.37551" lon="4.84793">
        <ele>222.79</ele>
        <time>2026-08-31T10:33:45Z</time>
      </trkpt>
      <trkpt lat="44.37545" lon="4.84813">
        <ele>220.93</ele>
        <time>2026-08-31T10:33:54Z</time>
      </trkpt>
      <trkpt lat="44.37563" lon="4.84852">
        <ele>218.22</ele>
        <time>2026-08-31T10:34:05Z</time>
      </trkpt>
      <trkpt lat="44.37564" lon="4.84857">
        <ele>217.83</ele>
        <time>2026-08-31T10:34:06Z</time>
      </trkpt>
      <trkpt lat="44.37563" lon="4.84873">
        <ele>216.66</ele>
        <time>2026-08-31T10:34:10Z</time>
      </trkpt>
      <trkpt lat="44.37556" lon="4.84901">
        <ele>214.39</ele>
        <time>2026-08-31T10:34:23Z</time>
      </trkpt>
      <trkpt lat="44.37556" lon="4.84902">
        <ele>214.58</ele>
        <time>2026-08-31T10:34:26Z</time>
      </trkpt>
      <trkpt lat="44.37554" lon="4.84906">
        <ele>214.15</ele>
        <time>2026-08-31T10:34:28Z</time>
      </trkpt>
      <trkpt lat="44.37543" lon="4.84928">
        <ele>211.67</ele>
        <time>2026-08-31T10:34:33Z</time>
      </trkpt>
      <trkpt lat="44.37536" lon="4.84939">
        <ele>210.04</ele>
        <time>2026-08-31T10:34:35Z</time>
      </trkpt>
      <trkpt lat="44.37529" lon="4.84949">
        <ele>208.21</ele>
        <time>2026-08-31T10:34:37Z</time>
      </trkpt>
      <trkpt lat="44.37503" lon="4.8497">
        <ele>204.04</ele>
        <time>2026-08-31T10:34:42Z</time>
      </trkpt>
      <trkpt lat="44.37487" lon="4.84983">
        <ele>201</ele>
        <time>2026-08-31T10:34:45Z</time>
      </trkpt>
      <trkpt lat="44.37477" lon="4.84995">
        <ele>198.65</ele>
        <time>2026-08-31T10:34:48Z</time>
      </trkpt>
      <trkpt lat="44.37466" lon="4.85008">
        <ele>195.86</ele>
        <time>2026-08-31T10:34:52Z</time>
      </trkpt>
      <trkpt lat="44.37456" lon="4.8502">
        <ele>194.18</ele>
        <time>2026-08-31T10:35:01Z</time>
      </trkpt>
      <trkpt lat="44.37454" lon="4.85023">
        <ele>194.32</ele>
        <time>2026-08-31T10:35:06Z</time>
      </trkpt>
      <trkpt lat="44.3745" lon="4.85032">
        <ele>193.48</ele>
        <time>2026-08-31T10:35:11Z</time>
      </trkpt>
      <trkpt lat="44.37441" lon="4.85041">
        <ele>192.02</ele>
        <time>2026-08-31T10:35:14Z</time>
      </trkpt>
      <trkpt lat="44.37437" lon="4.85045">
        <ele>191.1</ele>
        <time>2026-08-31T10:35:15Z</time>
      </trkpt>
      <trkpt lat="44.37433" lon="4.85049">
        <ele>190.66</ele>
        <time>2026-08-31T10:35:16Z</time>
      </trkpt>
      <trkpt lat="44.37429" lon="4.85053">
        <ele>190.11</ele>
        <time>2026-08-31T10:35:17Z</time>
      </trkpt>
      <trkpt lat="44.37426" lon="4.85057">
        <ele>189.51</ele>
        <time>2026-08-31T10:35:18Z</time>
      </trkpt>
      <trkpt lat="44.37422" lon="4.85061">
        <ele>188.71</ele>
        <time>2026-08-31T10:35:19Z</time>
      </trkpt>
      <trkpt lat="44.37419" lon="4.85064">
        <ele>188.17</ele>
        <time>2026-08-31T10:35:20Z</time>
      </trkpt>
      <trkpt lat="44.37417" lon="4.85066">
        <ele>187.55</ele>
        <time>2026-08-31T10:35:21Z</time>
      </trkpt>
      <trkpt lat="44.37416" lon="4.85068">
        <ele>187.29</ele>
        <time>2026-08-31T10:35:22Z</time>
      </trkpt>
      <trkpt lat="44.37415" lon="4.8507">
        <ele>187.08</ele>
        <time>2026-08-31T10:35:23Z</time>
      </trkpt>
      <trkpt lat="44.37412" lon="4.85073">
        <ele>186.48</ele>
        <time>2026-08-31T10:35:24Z</time>
      </trkpt>
      <trkpt lat="44.37409" lon="4.85077">
        <ele>186.07</ele>
        <time>2026-08-31T10:35:25Z</time>
      </trkpt>
      <trkpt lat="44.37405" lon="4.85079">
        <ele>185.73</ele>
        <time>2026-08-31T10:35:26Z</time>
      </trkpt>
      <trkpt lat="44.37402" lon="4.85081">
        <ele>184.92</ele>
        <time>2026-08-31T10:35:27Z</time>
      </trkpt>
      <trkpt lat="44.37399" lon="4.85082">
        <ele>184.28</ele>
        <time>2026-08-31T10:35:28Z</time>
      </trkpt>
      <trkpt lat="44.37395" lon="4.85084">
        <ele>183.54</ele>
        <time>2026-08-31T10:35:29Z</time>
      </trkpt>
      <trkpt lat="44.37391" lon="4.85087">
        <ele>182.32</ele>
        <time>2026-08-31T10:35:30Z</time>
      </trkpt>
      <trkpt lat="44.37388" lon="4.8509">
        <ele>182.15</ele>
        <time>2026-08-31T10:35:31Z</time>
      </trkpt>
      <trkpt lat="44.37384" lon="4.85092">
        <ele>181.47</ele>
        <time>2026-08-31T10:35:32Z</time>
      </trkpt>
      <trkpt lat="44.37381" lon="4.85094">
        <ele>181.07</ele>
        <time>2026-08-31T10:35:33Z</time>
      </trkpt>
      <trkpt lat="44.37378" lon="4.85097">
        <ele>180.48</ele>
        <time>2026-08-31T10:35:34Z</time>
      </trkpt>
      <trkpt lat="44.37375" lon="4.85101">
        <ele>179.89</ele>
        <time>2026-08-31T10:35:35Z</time>
      </trkpt>
      <trkpt lat="44.37373" lon="4.85105">
        <ele>179.41</ele>
        <time>2026-08-31T10:35:36Z</time>
      </trkpt>
      <trkpt lat="44.37371" lon="4.8511">
        <ele>178.67</ele>
        <time>2026-08-31T10:35:37Z</time>
      </trkpt>
      <trkpt lat="44.3737" lon="4.85115">
        <ele>177.98</ele>
        <time>2026-08-31T10:35:38Z</time>
      </trkpt>
      <trkpt lat="44.37367" lon="4.8512">
        <ele>177.74</ele>
        <time>2026-08-31T10:35:39Z</time>
      </trkpt>
      <trkpt lat="44.37363" lon="4.85127">
        <ele>176.34</ele>
        <time>2026-08-31T10:35:41Z</time>
      </trkpt>
      <trkpt lat="44.37361" lon="4.85134">
        <ele>175.71</ele>
        <time>2026-08-31T10:35:52Z</time>
      </trkpt>
      <trkpt lat="44.37362" lon="4.85139">
        <ele>175.64</ele>
        <time>2026-08-31T10:35:56Z</time>
      </trkpt>
      <trkpt lat="44.37363" lon="4.85141">
        <ele>175.57</ele>
        <time>2026-08-31T10:35:57Z</time>
      </trkpt>
      <trkpt lat="44.37364" lon="4.85143">
        <ele>175.47</ele>
        <time>2026-08-31T10:35:58Z</time>
      </trkpt>
      <trkpt lat="44.37366" lon="4.85146">
        <ele>175.31</ele>
        <time>2026-08-31T10:35:59Z</time>
      </trkpt>
      <trkpt lat="44.37367" lon="4.85148">
        <ele>175.29</ele>
        <time>2026-08-31T10:36:00Z</time>
      </trkpt>
      <trkpt lat="44.37368" lon="4.8515">
        <ele>175.02</ele>
        <time>2026-08-31T10:36:01Z</time>
      </trkpt>
      <trkpt lat="44.37369" lon="4.85153">
        <ele>174.87</ele>
        <time>2026-08-31T10:36:02Z</time>
      </trkpt>
      <trkpt lat="44.37371" lon="4.85156">
        <ele>174.76</ele>
        <time>2026-08-31T10:36:03Z</time>
      </trkpt>
      <trkpt lat="44.37372" lon="4.85158">
        <ele>174.54</ele>
        <time>2026-08-31T10:36:04Z</time>
      </trkpt>
      <trkpt lat="44.37372" lon="4.8516">
        <ele>174.15</ele>
        <time>2026-08-31T10:36:05Z</time>
      </trkpt>
      <trkpt lat="44.37369" lon="4.85167">
        <ele>173.49</ele>
        <time>2026-08-31T10:36:08Z</time>
      </trkpt>
      <trkpt lat="44.37368" lon="4.85171">
        <ele>172.6</ele>
        <time>2026-08-31T10:36:09Z</time>
      </trkpt>
      <trkpt lat="44.37367" lon="4.85174">
        <ele>172.02</ele>
        <time>2026-08-31T10:36:10Z</time>
      </trkpt>
      <trkpt lat="44.37365" lon="4.85176">
        <ele>171.67</ele>
        <time>2026-08-31T10:36:11Z</time>
      </trkpt>
      <trkpt lat="44.37362" lon="4.85176">
        <ele>171.23</ele>
        <time>2026-08-31T10:36:12Z</time>
      </trkpt>
      <trkpt lat="44.3736" lon="4.85177">
        <ele>171.3</ele>
        <time>2026-08-31T10:36:13Z</time>
      </trkpt>
      <trkpt lat="44.37357" lon="4.85178">
        <ele>170.76</ele>
        <time>2026-08-31T10:36:14Z</time>
      </trkpt>
      <trkpt lat="44.37354" lon="4.85179">
        <ele>170.79</ele>
        <time>2026-08-31T10:36:15Z</time>
      </trkpt>
      <trkpt lat="44.37347" lon="4.85183">
        <ele>169.79</ele>
        <time>2026-08-31T10:36:19Z</time>
      </trkpt>
      <trkpt lat="44.37346" lon="4.85185">
        <ele>169.28</ele>
        <time>2026-08-31T10:36:20Z</time>
      </trkpt>
      <trkpt lat="44.37343" lon="4.8519">
        <ele>168.82</ele>
        <time>2026-08-31T10:36:30Z</time>
      </trkpt>
      <trkpt lat="44.37343" lon="4.85193">
        <ele>168.56</ele>
        <time>2026-08-31T10:36:31Z</time>
      </trkpt>
      <trkpt lat="44.37342" lon="4.85196">
        <ele>168.34</ele>
        <time>2026-08-31T10:36:32Z</time>
      </trkpt>
      <trkpt lat="44.37343" lon="4.85201">
        <ele>168.16</ele>
        <time>2026-08-31T10:36:33Z</time>
      </trkpt>
      <trkpt lat="44.37343" lon="4.85204">
        <ele>167.61</ele>
        <time>2026-08-31T10:36:34Z</time>
      </trkpt>
      <trkpt lat="44.37344" lon="4.85208">
        <ele>167.08</ele>
        <time>2026-08-31T10:36:35Z</time>
      </trkpt>
      <trkpt lat="44.37344" lon="4.85212">
        <ele>165.85</ele>
        <time>2026-08-31T10:36:37Z</time>
      </trkpt>
      <trkpt lat="44.37344" lon="4.85214">
        <ele>165.24</ele>
        <time>2026-08-31T10:36:38Z</time>
      </trkpt>
      <trkpt lat="44.37344" lon="4.85216">
        <ele>164.97</ele>
        <time>2026-08-31T10:36:39Z</time>
      </trkpt>
      <trkpt lat="44.37345" lon="4.85219">
        <ele>164.5</ele>
        <time>2026-08-31T10:36:40Z</time>
      </trkpt>
      <trkpt lat="44.37346" lon="4.85221">
        <ele>163.87</ele>
        <time>2026-08-31T10:36:41Z</time>
      </trkpt>
      <trkpt lat="44.37349" lon="4.85224">
        <ele>163.48</ele>
        <time>2026-08-31T10:36:42Z</time>
      </trkpt>
      <trkpt lat="44.37351" lon="4.85227">
        <ele>163.11</ele>
        <time>2026-08-31T10:36:43Z</time>
      </trkpt>
      <trkpt lat="44.37353" lon="4.85231">
        <ele>162.61</ele>
        <time>2026-08-31T10:36:44Z</time>
      </trkpt>
      <trkpt lat="44.37368" lon="4.85272">
        <ele>163.73</ele>
        <time>2026-08-31T10:36:53Z</time>
      </trkpt>
      <trkpt lat="44.37373" lon="4.85283">
        <ele>164.05</ele>
        <time>2026-08-31T10:36:56Z</time>
      </trkpt>
      <trkpt lat="44.37377" lon="4.85298">
        <ele>162.91</ele>
        <time>2026-08-31T10:37:07Z</time>
      </trkpt>
      <trkpt lat="44.37378" lon="4.85307">
        <ele>162.39</ele>
        <time>2026-08-31T10:37:16Z</time>
      </trkpt>
      <trkpt lat="44.37378" lon="4.8531">
        <ele>162.13</ele>
        <time>2026-08-31T10:37:17Z</time>
      </trkpt>
      <trkpt lat="44.37378" lon="4.85313">
        <ele>162.12</ele>
        <time>2026-08-31T10:37:28Z</time>
      </trkpt>
      <trkpt lat="44.3738" lon="4.85319">
        <ele>161.78</ele>
        <time>2026-08-31T10:37:36Z</time>
      </trkpt>
      <trkpt lat="44.37381" lon="4.85324">
        <ele>161.29</ele>
        <time>2026-08-31T10:37:37Z</time>
      </trkpt>
      <trkpt lat="44.37382" lon="4.8533">
        <ele>161.67</ele>
        <time>2026-08-31T10:37:38Z</time>
      </trkpt>
      <trkpt lat="44.37387" lon="4.85348">
        <ele>161.14</ele>
        <time>2026-08-31T10:37:41Z</time>
      </trkpt>
      <trkpt lat="44.37396" lon="4.85405">
        <ele>158.85</ele>
        <time>2026-08-31T10:37:49Z</time>
      </trkpt>
      <trkpt lat="44.37398" lon="4.85412">
        <ele>158.48</ele>
        <time>2026-08-31T10:37:50Z</time>
      </trkpt>
      <trkpt lat="44.37404" lon="4.8544">
        <ele>158.36</ele>
        <time>2026-08-31T10:37:54Z</time>
      </trkpt>
      <trkpt lat="44.37404" lon="4.85446">
        <ele>158</ele>
        <time>2026-08-31T10:37:55Z</time>
      </trkpt>
      <trkpt lat="44.37404" lon="4.85453">
        <ele>157.6</ele>
        <time>2026-08-31T10:37:56Z</time>
      </trkpt>
      <trkpt lat="44.37403" lon="4.8546">
        <ele>157.05</ele>
        <time>2026-08-31T10:37:57Z</time>
      </trkpt>
      <trkpt lat="44.37401" lon="4.85466">
        <ele>156.69</ele>
        <time>2026-08-31T10:37:58Z</time>
      </trkpt>
      <trkpt lat="44.37398" lon="4.85472">
        <ele>156.07</ele>
        <time>2026-08-31T10:37:59Z</time>
      </trkpt>
      <trkpt lat="44.37395" lon="4.85478">
        <ele>155.83</ele>
        <time>2026-08-31T10:38:00Z</time>
      </trkpt>
      <trkpt lat="44.37392" lon="4.85483">
        <ele>155.22</ele>
        <time>2026-08-31T10:38:01Z</time>
      </trkpt>
      <trkpt lat="44.37389" lon="4.85487">
        <ele>154.87</ele>
        <time>2026-08-31T10:38:02Z</time>
      </trkpt>
      <trkpt lat="44.37385" lon="4.85488">
        <ele>154.29</ele>
        <time>2026-08-31T10:38:03Z</time>
      </trkpt>
      <trkpt lat="44.3738" lon="4.85487">
        <ele>153.86</ele>
        <time>2026-08-31T10:38:04Z</time>
      </trkpt>
      <trkpt lat="44.37376" lon="4.85485">
        <ele>153.54</ele>
        <time>2026-08-31T10:38:05Z</time>
      </trkpt>
      <trkpt lat="44.37372" lon="4.85482">
        <ele>153.43</ele>
        <time>2026-08-31T10:38:06Z</time>
      </trkpt>
      <trkpt lat="44.37368" lon="4.85479">
        <ele>153.64</ele>
        <time>2026-08-31T10:38:07Z</time>
      </trkpt>
      <trkpt lat="44.37318" lon="4.85444">
        <ele>154.15</ele>
        <time>2026-08-31T10:38:22Z</time>
      </trkpt>
      <trkpt lat="44.37259" lon="4.8541">
        <ele>155.5</ele>
        <time>2026-08-31T10:38:33Z</time>
      </trkpt>
      <trkpt lat="44.37183" lon="4.8534">
        <ele>153.89</ele>
        <time>2026-08-31T10:38:46Z</time>
      </trkpt>
      <trkpt lat="44.3709" lon="4.8528">
        <ele>151.5</ele>
        <time>2026-08-31T10:39:01Z</time>
      </trkpt>
      <trkpt lat="44.37076" lon="4.85275">
        <ele>150.8</ele>
        <time>2026-08-31T10:39:03Z</time>
      </trkpt>
      <trkpt lat="44.36993" lon="4.85229">
        <ele>148.01</ele>
        <time>2026-08-31T10:39:16Z</time>
      </trkpt>
      <trkpt lat="44.36984" lon="4.85221">
        <ele>147.77</ele>
        <time>2026-08-31T10:39:19Z</time>
      </trkpt>
      <trkpt lat="44.36983" lon="4.85218">
        <ele>147.59</ele>
        <time>2026-08-31T10:39:20Z</time>
      </trkpt>
      <trkpt lat="44.36982" lon="4.85215">
        <ele>147.72</ele>
        <time>2026-08-31T10:39:21Z</time>
      </trkpt>
      <trkpt lat="44.36983" lon="4.85212">
        <ele>147.93</ele>
        <time>2026-08-31T10:39:22Z</time>
      </trkpt>
      <trkpt lat="44.36984" lon="4.8521">
        <ele>148.24</ele>
        <time>2026-08-31T10:39:23Z</time>
      </trkpt>
      <trkpt lat="44.36993" lon="4.85183">
        <ele>151.42</ele>
        <time>2026-08-31T10:39:31Z</time>
      </trkpt>
      <trkpt lat="44.37001" lon="4.85148">
        <ele>154.01</ele>
        <time>2026-08-31T10:39:41Z</time>
      </trkpt>
      <trkpt lat="44.37002" lon="4.85145">
        <ele>154.02</ele>
        <time>2026-08-31T10:39:42Z</time>
      </trkpt>
      <trkpt lat="44.37003" lon="4.85142">
        <ele>154.1</ele>
        <time>2026-08-31T10:39:43Z</time>
      </trkpt>
      <trkpt lat="44.37017" lon="4.85092">
        <ele>157.13</ele>
        <time>2026-08-31T10:39:59Z</time>
      </trkpt>
      <trkpt lat="44.37041" lon="4.85076">
        <ele>159.2</ele>
        <time>2026-08-31T10:40:10Z</time>
      </trkpt>
      <trkpt lat="44.37073" lon="4.85066">
        <ele>162.22</ele>
        <time>2026-08-31T10:40:24Z</time>
      </trkpt>
      <trkpt lat="44.37092" lon="4.85039">
        <ele>165.45</ele>
        <time>2026-08-31T10:40:35Z</time>
      </trkpt>
      <trkpt lat="44.37094" lon="4.85034">
        <ele>166.31</ele>
        <time>2026-08-31T10:40:37Z</time>
      </trkpt>
      <trkpt lat="44.37112" lon="4.85016">
        <ele>169.37</ele>
        <time>2026-08-31T10:40:48Z</time>
      </trkpt>
      <trkpt lat="44.37136" lon="4.85008">
        <ele>171.92</ele>
        <time>2026-08-31T10:41:00Z</time>
      </trkpt>
      <trkpt lat="44.37155" lon="4.84988">
        <ele>174.93</ele>
        <time>2026-08-31T10:41:10Z</time>
      </trkpt>
      <trkpt lat="44.3717" lon="4.84964">
        <ele>178.17</ele>
        <time>2026-08-31T10:41:20Z</time>
      </trkpt>
      <trkpt lat="44.3718" lon="4.84939">
        <ele>181.27</ele>
        <time>2026-08-31T10:41:30Z</time>
      </trkpt>
      <trkpt lat="44.37181" lon="4.84932">
        <ele>182.13</ele>
        <time>2026-08-31T10:41:33Z</time>
      </trkpt>
      <trkpt lat="44.3718" lon="4.8493">
        <ele>182.38</ele>
        <time>2026-08-31T10:41:34Z</time>
      </trkpt>
      <trkpt lat="44.37175" lon="4.84902">
        <ele>184.45</ele>
        <time>2026-08-31T10:41:45Z</time>
      </trkpt>
      <trkpt lat="44.37175" lon="4.84899">
        <ele>184.69</ele>
        <time>2026-08-31T10:41:46Z</time>
      </trkpt>
      <trkpt lat="44.37175" lon="4.84897">
        <ele>184.84</ele>
        <time>2026-08-31T10:41:47Z</time>
      </trkpt>
      <trkpt lat="44.37175" lon="4.84894">
        <ele>184.97</ele>
        <time>2026-08-31T10:41:48Z</time>
      </trkpt>
      <trkpt lat="44.37175" lon="4.8489">
        <ele>185.27</ele>
        <time>2026-08-31T10:41:49Z</time>
      </trkpt>
      <trkpt lat="44.37175" lon="4.84887">
        <ele>185.38</ele>
        <time>2026-08-31T10:41:50Z</time>
      </trkpt>
      <trkpt lat="44.37175" lon="4.84884">
        <ele>185.66</ele>
        <time>2026-08-31T10:41:51Z</time>
      </trkpt>
      <trkpt lat="44.37174" lon="4.84881">
        <ele>185.81</ele>
        <time>2026-08-31T10:41:52Z</time>
      </trkpt>
      <trkpt lat="44.37173" lon="4.84879">
        <ele>186.15</ele>
        <time>2026-08-31T10:41:53Z</time>
      </trkpt>
      <trkpt lat="44.37173" lon="4.84877">
        <ele>186.16</ele>
        <time>2026-08-31T10:41:54Z</time>
      </trkpt>
      <trkpt lat="44.37172" lon="4.84875">
        <ele>186.28</ele>
        <time>2026-08-31T10:41:55Z</time>
      </trkpt>
      <trkpt lat="44.3717" lon="4.84874">
        <ele>186.43</ele>
        <time>2026-08-31T10:41:56Z</time>
      </trkpt>
      <trkpt lat="44.37168" lon="4.84871">
        <ele>186.33</ele>
        <time>2026-08-31T10:41:57Z</time>
      </trkpt>
      <trkpt lat="44.37167" lon="4.84868">
        <ele>186.4</ele>
        <time>2026-08-31T10:41:58Z</time>
      </trkpt>
      <trkpt lat="44.37166" lon="4.84865">
        <ele>186.67</ele>
        <time>2026-08-31T10:41:59Z</time>
      </trkpt>
      <trkpt lat="44.37166" lon="4.84863">
        <ele>186.51</ele>
        <time>2026-08-31T10:42:00Z</time>
      </trkpt>
      <trkpt lat="44.37165" lon="4.8486">
        <ele>186.61</ele>
        <time>2026-08-31T10:42:01Z</time>
      </trkpt>
      <trkpt lat="44.37165" lon="4.84857">
        <ele>186.71</ele>
        <time>2026-08-31T10:42:02Z</time>
      </trkpt>
      <trkpt lat="44.37165" lon="4.84854">
        <ele>186.76</ele>
        <time>2026-08-31T10:42:03Z</time>
      </trkpt>
      <trkpt lat="44.37164" lon="4.84852">
        <ele>186.69</ele>
        <time>2026-08-31T10:42:04Z</time>
      </trkpt>
      <trkpt lat="44.37162" lon="4.8485">
        <ele>186.77</ele>
        <time>2026-08-31T10:42:05Z</time>
      </trkpt>
      <trkpt lat="44.3716" lon="4.84849">
        <ele>186.68</ele>
        <time>2026-08-31T10:42:06Z</time>
      </trkpt>
      <trkpt lat="44.37159" lon="4.84847">
        <ele>186.69</ele>
        <time>2026-08-31T10:42:07Z</time>
      </trkpt>
      <trkpt lat="44.37158" lon="4.84844">
        <ele>186.75</ele>
        <time>2026-08-31T10:42:08Z</time>
      </trkpt>
      <trkpt lat="44.37157" lon="4.84842">
        <ele>186.63</ele>
        <time>2026-08-31T10:42:09Z</time>
      </trkpt>
      <trkpt lat="44.37155" lon="4.8484">
        <ele>186.7</ele>
        <time>2026-08-31T10:42:10Z</time>
      </trkpt>
      <trkpt lat="44.37154" lon="4.84838">
        <ele>186.66</ele>
        <time>2026-08-31T10:42:11Z</time>
      </trkpt>
      <trkpt lat="44.37153" lon="4.84837">
        <ele>186.84</ele>
        <time>2026-08-31T10:42:12Z</time>
      </trkpt>
      <trkpt lat="44.37152" lon="4.84836">
        <ele>186.65</ele>
        <time>2026-08-31T10:42:13Z</time>
      </trkpt>
      <trkpt lat="44.3715" lon="4.84835">
        <ele>186.5</ele>
        <time>2026-08-31T10:42:14Z</time>
      </trkpt>
      <trkpt lat="44.3714" lon="4.8482">
        <ele>186.44</ele>
        <time>2026-08-31T10:42:29Z</time>
      </trkpt>
      <trkpt lat="44.37136" lon="4.84814">
        <ele>186.83</ele>
        <time>2026-08-31T10:42:49Z</time>
      </trkpt>
      <trkpt lat="44.37135" lon="4.84813">
        <ele>186.92</ele>
        <time>2026-08-31T10:42:50Z</time>
      </trkpt>
      <trkpt lat="44.37133" lon="4.84812">
        <ele>186.98</ele>
        <time>2026-08-31T10:42:51Z</time>
      </trkpt>
      <trkpt lat="44.37127" lon="4.84804">
        <ele>187.03</ele>
        <time>2026-08-31T10:42:55Z</time>
      </trkpt>
      <trkpt lat="44.37127" lon="4.84802">
        <ele>187.04</ele>
        <time>2026-08-31T10:42:56Z</time>
      </trkpt>
      <trkpt lat="44.37128" lon="4.84799">
        <ele>186.84</ele>
        <time>2026-08-31T10:42:57Z</time>
      </trkpt>
      <trkpt lat="44.37129" lon="4.84797">
        <ele>187.41</ele>
        <time>2026-08-31T10:42:58Z</time>
      </trkpt>
      <trkpt lat="44.37131" lon="4.84795">
        <ele>187.49</ele>
        <time>2026-08-31T10:42:59Z</time>
      </trkpt>
      <trkpt lat="44.37132" lon="4.84792">
        <ele>187.76</ele>
        <time>2026-08-31T10:43:00Z</time>
      </trkpt>
      <trkpt lat="44.37133" lon="4.84789">
        <ele>187.93</ele>
        <time>2026-08-31T10:43:01Z</time>
      </trkpt>
      <trkpt lat="44.37134" lon="4.84786">
        <ele>188.25</ele>
        <time>2026-08-31T10:43:02Z</time>
      </trkpt>
      <trkpt lat="44.37143" lon="4.8478">
        <ele>188.98</ele>
        <time>2026-08-31T10:43:10Z</time>
      </trkpt>
      <trkpt lat="44.37146" lon="4.84778">
        <ele>189.11</ele>
        <time>2026-08-31T10:43:19Z</time>
      </trkpt>
      <trkpt lat="44.37148" lon="4.84776">
        <ele>189.33</ele>
        <time>2026-08-31T10:43:20Z</time>
      </trkpt>
      <trkpt lat="44.3715" lon="4.84769">
        <ele>189.71</ele>
        <time>2026-08-31T10:43:22Z</time>
      </trkpt>
      <trkpt lat="44.37151" lon="4.84766">
        <ele>189.98</ele>
        <time>2026-08-31T10:43:23Z</time>
      </trkpt>
      <trkpt lat="44.37151" lon="4.84763">
        <ele>189.91</ele>
        <time>2026-08-31T10:43:24Z</time>
      </trkpt>
      <trkpt lat="44.3715" lon="4.8476">
        <ele>189.56</ele>
        <time>2026-08-31T10:43:25Z</time>
      </trkpt>
      <trkpt lat="44.3715" lon="4.84757">
        <ele>189.49</ele>
        <time>2026-08-31T10:43:26Z</time>
      </trkpt>
      <trkpt lat="44.3715" lon="4.84754">
        <ele>189.44</ele>
        <time>2026-08-31T10:43:27Z</time>
      </trkpt>
      <trkpt lat="44.37149" lon="4.84751">
        <ele>189.33</ele>
        <time>2026-08-31T10:43:28Z</time>
      </trkpt>
      <trkpt lat="44.37147" lon="4.84751">
        <ele>189.2</ele>
        <time>2026-08-31T10:43:29Z</time>
      </trkpt>
      <trkpt lat="44.37144" lon="4.84749">
        <ele>189.09</ele>
        <time>2026-08-31T10:43:30Z</time>
      </trkpt>
      <trkpt lat="44.37142" lon="4.84749">
        <ele>188.72</ele>
        <time>2026-08-31T10:43:31Z</time>
      </trkpt>
      <trkpt lat="44.3714" lon="4.8475">
        <ele>188.5</ele>
        <time>2026-08-31T10:43:32Z</time>
      </trkpt>
      <trkpt lat="44.37138" lon="4.84751">
        <ele>187.93</ele>
        <time>2026-08-31T10:43:33Z</time>
      </trkpt>
      <trkpt lat="44.37135" lon="4.84752">
        <ele>187.76</ele>
        <time>2026-08-31T10:43:34Z</time>
      </trkpt>
      <trkpt lat="44.37132" lon="4.84752">
        <ele>187.63</ele>
        <time>2026-08-31T10:43:35Z</time>
      </trkpt>
      <trkpt lat="44.37129" lon="4.84751">
        <ele>186.79</ele>
        <time>2026-08-31T10:43:36Z</time>
      </trkpt>
      <trkpt lat="44.37127" lon="4.84748">
        <ele>186.16</ele>
        <time>2026-08-31T10:43:37Z</time>
      </trkpt>
      <trkpt lat="44.37127" lon="4.84744">
        <ele>185.7</ele>
        <time>2026-08-31T10:43:38Z</time>
      </trkpt>
      <trkpt lat="44.37127" lon="4.8474">
        <ele>185.18</ele>
        <time>2026-08-31T10:43:39Z</time>
      </trkpt>
      <trkpt lat="44.37125" lon="4.84732">
        <ele>184.73</ele>
        <time>2026-08-31T10:43:41Z</time>
      </trkpt>
      <trkpt lat="44.37124" lon="4.8473">
        <ele>184.16</ele>
        <time>2026-08-31T10:43:42Z</time>
      </trkpt>
      <trkpt lat="44.37117" lon="4.84731">
        <ele>183.36</ele>
        <time>2026-08-31T10:43:44Z</time>
      </trkpt>
      <trkpt lat="44.37115" lon="4.84733">
        <ele>182.99</ele>
        <time>2026-08-31T10:43:45Z</time>
      </trkpt>
      <trkpt lat="44.37112" lon="4.84735">
        <ele>182.51</ele>
        <time>2026-08-31T10:43:46Z</time>
      </trkpt>
      <trkpt lat="44.37109" lon="4.84737">
        <ele>181.92</ele>
        <time>2026-08-31T10:43:47Z</time>
      </trkpt>
      <trkpt lat="44.37106" lon="4.84739">
        <ele>181.37</ele>
        <time>2026-08-31T10:43:48Z</time>
      </trkpt>
      <trkpt lat="44.37103" lon="4.84741">
        <ele>181.26</ele>
        <time>2026-08-31T10:43:49Z</time>
      </trkpt>
      <trkpt lat="44.371" lon="4.84743">
        <ele>180.64</ele>
        <time>2026-08-31T10:43:50Z</time>
      </trkpt>
      <trkpt lat="44.37098" lon="4.84746">
        <ele>180.33</ele>
        <time>2026-08-31T10:43:51Z</time>
      </trkpt>
      <trkpt lat="44.37097" lon="4.84748">
        <ele>180.42</ele>
        <time>2026-08-31T10:43:52Z</time>
      </trkpt>
      <trkpt lat="44.37096" lon="4.84751">
        <ele>180.35</ele>
        <time>2026-08-31T10:43:53Z</time>
      </trkpt>
      <trkpt lat="44.37095" lon="4.84753">
        <ele>180.36</ele>
        <time>2026-08-31T10:43:54Z</time>
      </trkpt>
      <trkpt lat="44.37092" lon="4.84756">
        <ele>180.3</ele>
        <time>2026-08-31T10:43:55Z</time>
      </trkpt>
      <trkpt lat="44.3709" lon="4.84758">
        <ele>179.74</ele>
        <time>2026-08-31T10:43:56Z</time>
      </trkpt>
      <trkpt lat="44.37087" lon="4.84759">
        <ele>179.43</ele>
        <time>2026-08-31T10:43:57Z</time>
      </trkpt>
      <trkpt lat="44.37084" lon="4.84759">
        <ele>178.94</ele>
        <time>2026-08-31T10:43:58Z</time>
      </trkpt>
      <trkpt lat="44.37082" lon="4.8476">
        <ele>178.53</ele>
        <time>2026-08-31T10:43:59Z</time>
      </trkpt>
      <trkpt lat="44.37076" lon="4.84764">
        <ele>178.48</ele>
        <time>2026-08-31T10:44:08Z</time>
      </trkpt>
      <trkpt lat="44.37074" lon="4.84766">
        <ele>178.49</ele>
        <time>2026-08-31T10:44:09Z</time>
      </trkpt>
      <trkpt lat="44.37071" lon="4.84769">
        <ele>178.07</ele>
        <time>2026-08-31T10:44:10Z</time>
      </trkpt>
      <trkpt lat="44.37068" lon="4.84773">
        <ele>177.76</ele>
        <time>2026-08-31T10:44:11Z</time>
      </trkpt>
      <trkpt lat="44.37066" lon="4.84777">
        <ele>177.54</ele>
        <time>2026-08-31T10:44:12Z</time>
      </trkpt>
      <trkpt lat="44.37066" lon="4.84781">
        <ele>177.61</ele>
        <time>2026-08-31T10:44:13Z</time>
      </trkpt>
      <trkpt lat="44.37065" lon="4.84784">
        <ele>177.74</ele>
        <time>2026-08-31T10:44:14Z</time>
      </trkpt>
      <trkpt lat="44.37063" lon="4.84786">
        <ele>177.84</ele>
        <time>2026-08-31T10:44:15Z</time>
      </trkpt>
      <trkpt lat="44.37061" lon="4.84786">
        <ele>177.56</ele>
        <time>2026-08-31T10:44:16Z</time>
      </trkpt>
      <trkpt lat="44.37058" lon="4.84787">
        <ele>177.12</ele>
        <time>2026-08-31T10:44:17Z</time>
      </trkpt>
      <trkpt lat="44.37038" lon="4.84792">
        <ele>173.31</ele>
        <time>2026-08-31T10:44:22Z</time>
      </trkpt>
      <trkpt lat="44.37032" lon="4.84793">
        <ele>172.52</ele>
        <time>2026-08-31T10:44:23Z</time>
      </trkpt>
      <trkpt lat="44.37026" lon="4.84793">
        <ele>171.88</ele>
        <time>2026-08-31T10:44:24Z</time>
      </trkpt>
      <trkpt lat="44.3702" lon="4.84794">
        <ele>170.99</ele>
        <time>2026-08-31T10:44:25Z</time>
      </trkpt>
      <trkpt lat="44.37014" lon="4.84795">
        <ele>170.31</ele>
        <time>2026-08-31T10:44:26Z</time>
      </trkpt>
      <trkpt lat="44.37009" lon="4.84796">
        <ele>169.89</ele>
        <time>2026-08-31T10:44:27Z</time>
      </trkpt>
      <trkpt lat="44.37004" lon="4.84796">
        <ele>169.46</ele>
        <time>2026-08-31T10:44:28Z</time>
      </trkpt>
      <trkpt lat="44.36998" lon="4.84796">
        <ele>169.14</ele>
        <time>2026-08-31T10:44:29Z</time>
      </trkpt>
      <trkpt lat="44.36994" lon="4.84797">
        <ele>168.76</ele>
        <time>2026-08-31T10:44:30Z</time>
      </trkpt>
      <trkpt lat="44.36989" lon="4.84796">
        <ele>168.16</ele>
        <time>2026-08-31T10:44:31Z</time>
      </trkpt>
      <trkpt lat="44.36984" lon="4.84794">
        <ele>167.37</ele>
        <time>2026-08-31T10:44:32Z</time>
      </trkpt>
      <trkpt lat="44.36979" lon="4.84793">
        <ele>166.97</ele>
        <time>2026-08-31T10:44:33Z</time>
      </trkpt>
      <trkpt lat="44.36973" lon="4.84794">
        <ele>166.33</ele>
        <time>2026-08-31T10:44:34Z</time>
      </trkpt>
      <trkpt lat="44.36968" lon="4.84796">
        <ele>165.77</ele>
        <time>2026-08-31T10:44:35Z</time>
      </trkpt>
      <trkpt lat="44.36963" lon="4.84796">
        <ele>165.51</ele>
        <time>2026-08-31T10:44:36Z</time>
      </trkpt>
      <trkpt lat="44.36958" lon="4.84796">
        <ele>165</ele>
        <time>2026-08-31T10:44:37Z</time>
      </trkpt>
      <trkpt lat="44.36955" lon="4.84798">
        <ele>164.22</ele>
        <time>2026-08-31T10:44:38Z</time>
      </trkpt>
      <trkpt lat="44.36952" lon="4.848">
        <ele>164.21</ele>
        <time>2026-08-31T10:44:39Z</time>
      </trkpt>
      <trkpt lat="44.36951" lon="4.84802">
        <ele>164.18</ele>
        <time>2026-08-31T10:44:40Z</time>
      </trkpt>
      <trkpt lat="44.36945" lon="4.84806">
        <ele>164.32</ele>
        <time>2026-08-31T10:44:53Z</time>
      </trkpt>
      <trkpt lat="44.36944" lon="4.84806">
        <ele>164.43</ele>
        <time>2026-08-31T10:44:54Z</time>
      </trkpt>
      <trkpt lat="44.36942" lon="4.84807">
        <ele>164.15</ele>
        <time>2026-08-31T10:44:55Z</time>
      </trkpt>
      <trkpt lat="44.3694" lon="4.84809">
        <ele>164.12</ele>
        <time>2026-08-31T10:44:56Z</time>
      </trkpt>
      <trkpt lat="44.36938" lon="4.84811">
        <ele>163.9</ele>
        <time>2026-08-31T10:44:57Z</time>
      </trkpt>
      <trkpt lat="44.36935" lon="4.84813">
        <ele>163.8</ele>
        <time>2026-08-31T10:44:58Z</time>
      </trkpt>
      <trkpt lat="44.36933" lon="4.84815">
        <ele>163.63</ele>
        <time>2026-08-31T10:44:59Z</time>
      </trkpt>
      <trkpt lat="44.36932" lon="4.84818">
        <ele>164.02</ele>
        <time>2026-08-31T10:45:00Z</time>
      </trkpt>
      <trkpt lat="44.3693" lon="4.8482">
        <ele>164.03</ele>
        <time>2026-08-31T10:45:01Z</time>
      </trkpt>
      <trkpt lat="44.36929" lon="4.84823">
        <ele>164.34</ele>
        <time>2026-08-31T10:45:02Z</time>
      </trkpt>
      <trkpt lat="44.36928" lon="4.84825">
        <ele>164.63</ele>
        <time>2026-08-31T10:45:03Z</time>
      </trkpt>
      <trkpt lat="44.36926" lon="4.84827">
        <ele>164.69</ele>
        <time>2026-08-31T10:45:04Z</time>
      </trkpt>
      <trkpt lat="44.36923" lon="4.84829">
        <ele>164.59</ele>
        <time>2026-08-31T10:45:05Z</time>
      </trkpt>
      <trkpt lat="44.36922" lon="4.84832">
        <ele>164.43</ele>
        <time>2026-08-31T10:45:06Z</time>
      </trkpt>
      <trkpt lat="44.36921" lon="4.84834">
        <ele>164.57</ele>
        <time>2026-08-31T10:45:07Z</time>
      </trkpt>
      <trkpt lat="44.3692" lon="4.84837">
        <ele>164.93</ele>
        <time>2026-08-31T10:45:08Z</time>
      </trkpt>
      <trkpt lat="44.36919" lon="4.8484">
        <ele>164.99</ele>
        <time>2026-08-31T10:45:09Z</time>
      </trkpt>
      <trkpt lat="44.36917" lon="4.84843">
        <ele>164.94</ele>
        <time>2026-08-31T10:45:10Z</time>
      </trkpt>
      <trkpt lat="44.36915" lon="4.84845">
        <ele>164.61</ele>
        <time>2026-08-31T10:45:11Z</time>
      </trkpt>
      <trkpt lat="44.36914" lon="4.84848">
        <ele>164.53</ele>
        <time>2026-08-31T10:45:12Z</time>
      </trkpt>
      <trkpt lat="44.36915" lon="4.84851">
        <ele>164.48</ele>
        <time>2026-08-31T10:45:13Z</time>
      </trkpt>
      <trkpt lat="44.36915" lon="4.84853">
        <ele>164.55</ele>
        <time>2026-08-31T10:45:14Z</time>
      </trkpt>
      <trkpt lat="44.36915" lon="4.84856">
        <ele>164.45</ele>
        <time>2026-08-31T10:45:15Z</time>
      </trkpt>
      <trkpt lat="44.36916" lon="4.84862">
        <ele>163.94</ele>
        <time>2026-08-31T10:45:17Z</time>
      </trkpt>
      <trkpt lat="44.36917" lon="4.84864">
        <ele>163.83</ele>
        <time>2026-08-31T10:45:18Z</time>
      </trkpt>
      <trkpt lat="44.36919" lon="4.84864">
        <ele>163.94</ele>
        <time>2026-08-31T10:45:19Z</time>
      </trkpt>
      <trkpt lat="44.3692" lon="4.84863">
        <ele>164.28</ele>
        <time>2026-08-31T10:45:20Z</time>
      </trkpt>
      <trkpt lat="44.36922" lon="4.84862">
        <ele>164.76</ele>
        <time>2026-08-31T10:45:21Z</time>
      </trkpt>
      <trkpt lat="44.36924" lon="4.84861">
        <ele>165.05</ele>
        <time>2026-08-31T10:45:22Z</time>
      </trkpt>
      <trkpt lat="44.3694" lon="4.84857">
        <ele>167.33</ele>
        <time>2026-08-31T10:45:32Z</time>
      </trkpt>
      <trkpt lat="44.36941" lon="4.84856">
        <ele>167.36</ele>
        <time>2026-08-31T10:45:39Z</time>
      </trkpt>
      <trkpt lat="44.36974" lon="4.84841">
        <ele>170.65</ele>
        <time>2026-08-31T10:45:50Z</time>
      </trkpt>
      <trkpt lat="44.37009" lon="4.84829">
        <ele>173.87</ele>
        <time>2026-08-31T10:46:00Z</time>
      </trkpt>
      <trkpt lat="44.3705" lon="4.84816">
        <ele>177.14</ele>
        <time>2026-08-31T10:46:11Z</time>
      </trkpt>
      <trkpt lat="44.37061" lon="4.84811">
        <ele>178.87</ele>
        <time>2026-08-31T10:46:14Z</time>
      </trkpt>
      <trkpt lat="44.37066" lon="4.8481">
        <ele>179.21</ele>
        <time>2026-08-31T10:46:15Z</time>
      </trkpt>
      <trkpt lat="44.3707" lon="4.84808">
        <ele>179.58</ele>
        <time>2026-08-31T10:46:16Z</time>
      </trkpt>
      <trkpt lat="44.37077" lon="4.84804">
        <ele>180.53</ele>
        <time>2026-08-31T10:46:18Z</time>
      </trkpt>
      <trkpt lat="44.37097" lon="4.84799">
        <ele>183.7</ele>
        <time>2026-08-31T10:46:24Z</time>
      </trkpt>
      <trkpt lat="44.37099" lon="4.848">
        <ele>183.85</ele>
        <time>2026-08-31T10:46:25Z</time>
      </trkpt>
      <trkpt lat="44.37101" lon="4.84801">
        <ele>184.21</ele>
        <time>2026-08-31T10:46:26Z</time>
      </trkpt>
      <trkpt lat="44.37104" lon="4.84802">
        <ele>184.52</ele>
        <time>2026-08-31T10:46:27Z</time>
      </trkpt>
      <trkpt lat="44.37106" lon="4.84801">
        <ele>184.68</ele>
        <time>2026-08-31T10:46:28Z</time>
      </trkpt>
      <trkpt lat="44.37108" lon="4.848">
        <ele>184.86</ele>
        <time>2026-08-31T10:46:29Z</time>
      </trkpt>
      <trkpt lat="44.37124" lon="4.84788">
        <ele>187.17</ele>
        <time>2026-08-31T10:46:36Z</time>
      </trkpt>
      <trkpt lat="44.37126" lon="4.84785">
        <ele>187.45</ele>
        <time>2026-08-31T10:46:37Z</time>
      </trkpt>
      <trkpt lat="44.37128" lon="4.84783">
        <ele>187.63</ele>
        <time>2026-08-31T10:46:38Z</time>
      </trkpt>
      <trkpt lat="44.3713" lon="4.84781">
        <ele>187.83</ele>
        <time>2026-08-31T10:46:39Z</time>
      </trkpt>
      <trkpt lat="44.37132" lon="4.84779">
        <ele>188.28</ele>
        <time>2026-08-31T10:46:40Z</time>
      </trkpt>
      <trkpt lat="44.37134" lon="4.84778">
        <ele>188.56</ele>
        <time>2026-08-31T10:46:41Z</time>
      </trkpt>
      <trkpt lat="44.37136" lon="4.84778">
        <ele>189.05</ele>
        <time>2026-08-31T10:46:42Z</time>
      </trkpt>
      <trkpt lat="44.37139" lon="4.84777">
        <ele>189.1</ele>
        <time>2026-08-31T10:46:43Z</time>
      </trkpt>
      <trkpt lat="44.3714" lon="4.84776">
        <ele>189.1</ele>
        <time>2026-08-31T10:46:44Z</time>
      </trkpt>
      <trkpt lat="44.37141" lon="4.84773">
        <ele>188.89</ele>
        <time>2026-08-31T10:46:45Z</time>
      </trkpt>
      <trkpt lat="44.37143" lon="4.84771">
        <ele>189.12</ele>
        <time>2026-08-31T10:46:46Z</time>
      </trkpt>
      <trkpt lat="44.37144" lon="4.8477">
        <ele>189.27</ele>
        <time>2026-08-31T10:46:47Z</time>
      </trkpt>
      <trkpt lat="44.37147" lon="4.84768">
        <ele>189.54</ele>
        <time>2026-08-31T10:46:48Z</time>
      </trkpt>
      <trkpt lat="44.37149" lon="4.84767">
        <ele>189.67</ele>
        <time>2026-08-31T10:46:49Z</time>
      </trkpt>
      <trkpt lat="44.37152" lon="4.84767">
        <ele>189.8</ele>
        <time>2026-08-31T10:46:50Z</time>
      </trkpt>
      <trkpt lat="44.37155" lon="4.84766">
        <ele>190.05</ele>
        <time>2026-08-31T10:46:51Z</time>
      </trkpt>
      <trkpt lat="44.37158" lon="4.84766">
        <ele>190.03</ele>
        <time>2026-08-31T10:46:52Z</time>
      </trkpt>
      <trkpt lat="44.3716" lon="4.84765">
        <ele>190.26</ele>
        <time>2026-08-31T10:46:53Z</time>
      </trkpt>
      <trkpt lat="44.37162" lon="4.84763">
        <ele>190.45</ele>
        <time>2026-08-31T10:46:54Z</time>
      </trkpt>
      <trkpt lat="44.37163" lon="4.84761">
        <ele>190.54</ele>
        <time>2026-08-31T10:46:55Z</time>
      </trkpt>
      <trkpt lat="44.37164" lon="4.84758">
        <ele>190.91</ele>
        <time>2026-08-31T10:46:56Z</time>
      </trkpt>
      <trkpt lat="44.37164" lon="4.84756">
        <ele>191.01</ele>
        <time>2026-08-31T10:46:57Z</time>
      </trkpt>
      <trkpt lat="44.37165" lon="4.84754">
        <ele>191.05</ele>
        <time>2026-08-31T10:46:58Z</time>
      </trkpt>
      <trkpt lat="44.37165" lon="4.84752">
        <ele>191.15</ele>
        <time>2026-08-31T10:46:59Z</time>
      </trkpt>
      <trkpt lat="44.37166" lon="4.8475">
        <ele>190.98</ele>
        <time>2026-08-31T10:47:00Z</time>
      </trkpt>
      <trkpt lat="44.37168" lon="4.84748">
        <ele>191.23</ele>
        <time>2026-08-31T10:47:01Z</time>
      </trkpt>
      <trkpt lat="44.3717" lon="4.84747">
        <ele>191.21</ele>
        <time>2026-08-31T10:47:02Z</time>
      </trkpt>
      <trkpt lat="44.37173" lon="4.84745">
        <ele>191.37</ele>
        <time>2026-08-31T10:47:03Z</time>
      </trkpt>
      <trkpt lat="44.37176" lon="4.84744">
        <ele>191.42</ele>
        <time>2026-08-31T10:47:04Z</time>
      </trkpt>
      <trkpt lat="44.37202" lon="4.84729">
        <ele>194.65</ele>
        <time>2026-08-31T10:47:14Z</time>
      </trkpt>
      <trkpt lat="44.37236" lon="4.84707">
        <ele>197.46</ele>
        <time>2026-08-31T10:47:27Z</time>
      </trkpt>
      <trkpt lat="44.37264" lon="4.84696">
        <ele>200.47</ele>
        <time>2026-08-31T10:47:37Z</time>
      </trkpt>
      <trkpt lat="44.37294" lon="4.84685">
        <ele>203.59</ele>
        <time>2026-08-31T10:47:47Z</time>
      </trkpt>
      <trkpt lat="44.37316" lon="4.84682">
        <ele>206.15</ele>
        <time>2026-08-31T10:47:54Z</time>
      </trkpt>
      <trkpt lat="44.37355" lon="4.84672">
        <ele>208.87</ele>
        <time>2026-08-31T10:48:07Z</time>
      </trkpt>
      <trkpt lat="44.37387" lon="4.84656">
        <ele>209.56</ele>
        <time>2026-08-31T10:48:19Z</time>
      </trkpt>
      <trkpt lat="44.37394" lon="4.84651">
        <ele>209.59</ele>
        <time>2026-08-31T10:48:43Z</time>
      </trkpt>
      <trkpt lat="44.37395" lon="4.84649">
        <ele>209.45</ele>
        <time>2026-08-31T10:48:44Z</time>
      </trkpt>
      <trkpt lat="44.37397" lon="4.84645">
        <ele>209.46</ele>
        <time>2026-08-31T10:48:46Z</time>
      </trkpt>
      <trkpt lat="44.37398" lon="4.84642">
        <ele>209.12</ele>
        <time>2026-08-31T10:48:47Z</time>
      </trkpt>
      <trkpt lat="44.37397" lon="4.84639">
        <ele>209.04</ele>
        <time>2026-08-31T10:48:48Z</time>
      </trkpt>
      <trkpt lat="44.37396" lon="4.84637">
        <ele>209.19</ele>
        <time>2026-08-31T10:48:49Z</time>
      </trkpt>
      <trkpt lat="44.37393" lon="4.84636">
        <ele>208.96</ele>
        <time>2026-08-31T10:48:50Z</time>
      </trkpt>
      <trkpt lat="44.3739" lon="4.84637">
        <ele>208.87</ele>
        <time>2026-08-31T10:48:51Z</time>
      </trkpt>
      <trkpt lat="44.37386" lon="4.84638">
        <ele>208.72</ele>
        <time>2026-08-31T10:48:52Z</time>
      </trkpt>
      <trkpt lat="44.37383" lon="4.84639">
        <ele>208.59</ele>
        <time>2026-08-31T10:48:53Z</time>
      </trkpt>
      <trkpt lat="44.37379" lon="4.84639">
        <ele>208.7</ele>
        <time>2026-08-31T10:48:54Z</time>
      </trkpt>
      <trkpt lat="44.3737" lon="4.84641">
        <ele>207.65</ele>
        <time>2026-08-31T10:48:56Z</time>
      </trkpt>
      <trkpt lat="44.37367" lon="4.84643">
        <ele>207.74</ele>
        <time>2026-08-31T10:48:57Z</time>
      </trkpt>
      <trkpt lat="44.37364" lon="4.84646">
        <ele>207.87</ele>
        <time>2026-08-31T10:48:58Z</time>
      </trkpt>
      <trkpt lat="44.37362" lon="4.84646">
        <ele>208.01</ele>
        <time>2026-08-31T10:48:59Z</time>
      </trkpt>
      <trkpt lat="44.37359" lon="4.84645">
        <ele>207.73</ele>
        <time>2026-08-31T10:49:00Z</time>
      </trkpt>
      <trkpt lat="44.37357" lon="4.84642">
        <ele>207.39</ele>
        <time>2026-08-31T10:49:01Z</time>
      </trkpt>
      <trkpt lat="44.37354" lon="4.84638">
        <ele>207.01</ele>
        <time>2026-08-31T10:49:02Z</time>
      </trkpt>
      <trkpt lat="44.37353" lon="4.84634">
        <ele>206.59</ele>
        <time>2026-08-31T10:49:03Z</time>
      </trkpt>
      <trkpt lat="44.37352" lon="4.84628">
        <ele>205.88</ele>
        <time>2026-08-31T10:49:04Z</time>
      </trkpt>
      <trkpt lat="44.3735" lon="4.84623">
        <ele>204.96</ele>
        <time>2026-08-31T10:49:05Z</time>
      </trkpt>
      <trkpt lat="44.37341" lon="4.846">
        <ele>201.99</ele>
        <time>2026-08-31T10:49:10Z</time>
      </trkpt>
      <trkpt lat="44.37338" lon="4.84598">
        <ele>201.46</ele>
        <time>2026-08-31T10:49:11Z</time>
      </trkpt>
      <trkpt lat="44.37335" lon="4.84597">
        <ele>200.94</ele>
        <time>2026-08-31T10:49:12Z</time>
      </trkpt>
      <trkpt lat="44.37332" lon="4.84596">
        <ele>200.59</ele>
        <time>2026-08-31T10:49:13Z</time>
      </trkpt>
      <trkpt lat="44.37329" lon="4.84596">
        <ele>200.28</ele>
        <time>2026-08-31T10:49:14Z</time>
      </trkpt>
      <trkpt lat="44.37326" lon="4.84596">
        <ele>199.83</ele>
        <time>2026-08-31T10:49:15Z</time>
      </trkpt>
      <trkpt lat="44.37323" lon="4.84595">
        <ele>199.47</ele>
        <time>2026-08-31T10:49:16Z</time>
      </trkpt>
      <trkpt lat="44.3732" lon="4.84595">
        <ele>199.11</ele>
        <time>2026-08-31T10:49:17Z</time>
      </trkpt>
      <trkpt lat="44.37316" lon="4.84595">
        <ele>198.68</ele>
        <time>2026-08-31T10:49:18Z</time>
      </trkpt>
      <trkpt lat="44.37307" lon="4.84587">
        <ele>198.49</ele>
        <time>2026-08-31T10:49:27Z</time>
      </trkpt>
      <trkpt lat="44.37305" lon="4.84587">
        <ele>198.51</ele>
        <time>2026-08-31T10:49:28Z</time>
      </trkpt>
      <trkpt lat="44.37302" lon="4.84587">
        <ele>198.52</ele>
        <time>2026-08-31T10:49:29Z</time>
      </trkpt>
      <trkpt lat="44.37299" lon="4.84589">
        <ele>198.59</ele>
        <time>2026-08-31T10:49:30Z</time>
      </trkpt>
      <trkpt lat="44.37296" lon="4.84591">
        <ele>198.45</ele>
        <time>2026-08-31T10:49:31Z</time>
      </trkpt>
      <trkpt lat="44.37279" lon="4.84622">
        <ele>199.25</ele>
        <time>2026-08-31T10:49:39Z</time>
      </trkpt>
      <trkpt lat="44.37276" lon="4.84627">
        <ele>200.35</ele>
        <time>2026-08-31T10:49:41Z</time>
      </trkpt>
      <trkpt lat="44.37274" lon="4.84629">
        <ele>200.78</ele>
        <time>2026-08-31T10:49:42Z</time>
      </trkpt>
      <trkpt lat="44.37271" lon="4.84632">
        <ele>200.94</ele>
        <time>2026-08-31T10:49:43Z</time>
      </trkpt>
      <trkpt lat="44.37269" lon="4.84635">
        <ele>200.85</ele>
        <time>2026-08-31T10:49:44Z</time>
      </trkpt>
      <trkpt lat="44.37267" lon="4.84637">
        <ele>200.67</ele>
        <time>2026-08-31T10:49:45Z</time>
      </trkpt>
      <trkpt lat="44.37264" lon="4.84639">
        <ele>200.86</ele>
        <time>2026-08-31T10:49:46Z</time>
      </trkpt>
      <trkpt lat="44.37261" lon="4.84641">
        <ele>200.68</ele>
        <time>2026-08-31T10:49:47Z</time>
      </trkpt>
      <trkpt lat="44.37234" lon="4.84665">
        <ele>199</ele>
        <time>2026-08-31T10:49:56Z</time>
      </trkpt>
      <trkpt lat="44.37231" lon="4.84665">
        <ele>198.78</ele>
        <time>2026-08-31T10:49:57Z</time>
      </trkpt>
      <trkpt lat="44.37228" lon="4.84664">
        <ele>198.68</ele>
        <time>2026-08-31T10:49:58Z</time>
      </trkpt>
      <trkpt lat="44.37226" lon="4.84663">
        <ele>198.28</ele>
        <time>2026-08-31T10:49:59Z</time>
      </trkpt>
      <trkpt lat="44.37224" lon="4.84662">
        <ele>197.9</ele>
        <time>2026-08-31T10:50:00Z</time>
      </trkpt>
      <trkpt lat="44.3722" lon="4.84663">
        <ele>197.49</ele>
        <time>2026-08-31T10:50:01Z</time>
      </trkpt>
      <trkpt lat="44.37217" lon="4.84662">
        <ele>197.05</ele>
        <time>2026-08-31T10:50:02Z</time>
      </trkpt>
      <trkpt lat="44.37214" lon="4.84661">
        <ele>196.31</ele>
        <time>2026-08-31T10:50:03Z</time>
      </trkpt>
      <trkpt lat="44.37211" lon="4.84661">
        <ele>195.73</ele>
        <time>2026-08-31T10:50:04Z</time>
      </trkpt>
      <trkpt lat="44.37208" lon="4.84663">
        <ele>194.99</ele>
        <time>2026-08-31T10:50:05Z</time>
      </trkpt>
      <trkpt lat="44.37208" lon="4.84665">
        <ele>194.64</ele>
        <time>2026-08-31T10:50:06Z</time>
      </trkpt>
      <trkpt lat="44.37204" lon="4.8467">
        <ele>194.5</ele>
        <time>2026-08-31T10:50:13Z</time>
      </trkpt>
      <trkpt lat="44.37202" lon="4.84673">
        <ele>194.46</ele>
        <time>2026-08-31T10:50:14Z</time>
      </trkpt>
      <trkpt lat="44.372" lon="4.84676">
        <ele>194.61</ele>
        <time>2026-08-31T10:50:15Z</time>
      </trkpt>
      <trkpt lat="44.37198" lon="4.84679">
        <ele>194.47</ele>
        <time>2026-08-31T10:50:16Z</time>
      </trkpt>
      <trkpt lat="44.37196" lon="4.84683">
        <ele>194.06</ele>
        <time>2026-08-31T10:50:17Z</time>
      </trkpt>
      <trkpt lat="44.37195" lon="4.84688">
        <ele>193.94</ele>
        <time>2026-08-31T10:50:18Z</time>
      </trkpt>
      <trkpt lat="44.37193" lon="4.84692">
        <ele>193.82</ele>
        <time>2026-08-31T10:50:19Z</time>
      </trkpt>
      <trkpt lat="44.37191" lon="4.84696">
        <ele>193.97</ele>
        <time>2026-08-31T10:50:20Z</time>
      </trkpt>
      <trkpt lat="44.37189" lon="4.84701">
        <ele>193.79</ele>
        <time>2026-08-31T10:50:21Z</time>
      </trkpt>
      <trkpt lat="44.37186" lon="4.84706">
        <ele>193.49</ele>
        <time>2026-08-31T10:50:22Z</time>
      </trkpt>
      <trkpt lat="44.37184" lon="4.84712">
        <ele>193.38</ele>
        <time>2026-08-31T10:50:23Z</time>
      </trkpt>
      <trkpt lat="44.37182" lon="4.84718">
        <ele>192.94</ele>
        <time>2026-08-31T10:50:24Z</time>
      </trkpt>
      <trkpt lat="44.37178" lon="4.84724">
        <ele>192.85</ele>
        <time>2026-08-31T10:50:25Z</time>
      </trkpt>
      <trkpt lat="44.37174" lon="4.84729">
        <ele>192.56</ele>
        <time>2026-08-31T10:50:26Z</time>
      </trkpt>
      <trkpt lat="44.3717" lon="4.84735">
        <ele>191.76</ele>
        <time>2026-08-31T10:50:27Z</time>
      </trkpt>
      <trkpt lat="44.37168" lon="4.84741">
        <ele>191.04</ele>
        <time>2026-08-31T10:50:28Z</time>
      </trkpt>
      <trkpt lat="44.37163" lon="4.84748">
        <ele>190.14</ele>
        <time>2026-08-31T10:50:30Z</time>
      </trkpt>
      <trkpt lat="44.3716" lon="4.8475">
        <ele>189.42</ele>
        <time>2026-08-31T10:50:31Z</time>
      </trkpt>
      <trkpt lat="44.37157" lon="4.84751">
        <ele>189.39</ele>
        <time>2026-08-31T10:50:32Z</time>
      </trkpt>
      <trkpt lat="44.37155" lon="4.84749">
        <ele>189.07</ele>
        <time>2026-08-31T10:50:33Z</time>
      </trkpt>
      <trkpt lat="44.37153" lon="4.84747">
        <ele>188.68</ele>
        <time>2026-08-31T10:50:34Z</time>
      </trkpt>
      <trkpt lat="44.37151" lon="4.84745">
        <ele>188.43</ele>
        <time>2026-08-31T10:50:35Z</time>
      </trkpt>
      <trkpt lat="44.37145" lon="4.84745">
        <ele>187.75</ele>
        <time>2026-08-31T10:50:44Z</time>
      </trkpt>
      <trkpt lat="44.3713" lon="4.84747">
        <ele>186.23</ele>
        <time>2026-08-31T10:50:49Z</time>
      </trkpt>
      <trkpt lat="44.37128" lon="4.84745">
        <ele>185.75</ele>
        <time>2026-08-31T10:50:50Z</time>
      </trkpt>
      <trkpt lat="44.37127" lon="4.84742">
        <ele>185.39</ele>
        <time>2026-08-31T10:50:51Z</time>
      </trkpt>
      <trkpt lat="44.37128" lon="4.84739">
        <ele>184.88</ele>
        <time>2026-08-31T10:50:52Z</time>
      </trkpt>
      <trkpt lat="44.37128" lon="4.84736">
        <ele>184.74</ele>
        <time>2026-08-31T10:50:53Z</time>
      </trkpt>
      <trkpt lat="44.37127" lon="4.84732">
        <ele>184.6</ele>
        <time>2026-08-31T10:50:54Z</time>
      </trkpt>
      <trkpt lat="44.37125" lon="4.84729">
        <ele>184.3</ele>
        <time>2026-08-31T10:50:55Z</time>
      </trkpt>
      <trkpt lat="44.37122" lon="4.84728">
        <ele>184.01</ele>
        <time>2026-08-31T10:50:56Z</time>
      </trkpt>
      <trkpt lat="44.37118" lon="4.84729">
        <ele>183.49</ele>
        <time>2026-08-31T10:50:57Z</time>
      </trkpt>
      <trkpt lat="44.37115" lon="4.84732">
        <ele>183.2</ele>
        <time>2026-08-31T10:50:58Z</time>
      </trkpt>
      <trkpt lat="44.3711" lon="4.84735">
        <ele>182.4</ele>
        <time>2026-08-31T10:50:59Z</time>
      </trkpt>
      <trkpt lat="44.37106" lon="4.84737">
        <ele>181.96</ele>
        <time>2026-08-31T10:51:00Z</time>
      </trkpt>
      <trkpt lat="44.37102" lon="4.84741">
        <ele>181.23</ele>
        <time>2026-08-31T10:51:01Z</time>
      </trkpt>
      <trkpt lat="44.37099" lon="4.84744">
        <ele>180.92</ele>
        <time>2026-08-31T10:51:02Z</time>
      </trkpt>
      <trkpt lat="44.37098" lon="4.84747">
        <ele>180.82</ele>
        <time>2026-08-31T10:51:03Z</time>
      </trkpt>
      <trkpt lat="44.37096" lon="4.84751">
        <ele>180.86</ele>
        <time>2026-08-31T10:51:04Z</time>
      </trkpt>
      <trkpt lat="44.37094" lon="4.84754">
        <ele>180.71</ele>
        <time>2026-08-31T10:51:05Z</time>
      </trkpt>
      <trkpt lat="44.37091" lon="4.84758">
        <ele>180.31</ele>
        <time>2026-08-31T10:51:06Z</time>
      </trkpt>
      <trkpt lat="44.37089" lon="4.8476">
        <ele>179.84</ele>
        <time>2026-08-31T10:51:07Z</time>
      </trkpt>
      <trkpt lat="44.37087" lon="4.84759">
        <ele>179.31</ele>
        <time>2026-08-31T10:51:08Z</time>
      </trkpt>
      <trkpt lat="44.37085" lon="4.84758">
        <ele>178.73</ele>
        <time>2026-08-31T10:51:09Z</time>
      </trkpt>
      <trkpt lat="44.37082" lon="4.84756">
        <ele>177.75</ele>
        <time>2026-08-31T10:51:21Z</time>
      </trkpt>
      <trkpt lat="44.3708" lon="4.84743">
        <ele>174.87</ele>
        <time>2026-08-31T10:51:25Z</time>
      </trkpt>
      <trkpt lat="44.3708" lon="4.84727">
        <ele>172.93</ele>
        <time>2026-08-31T10:51:28Z</time>
      </trkpt>
      <trkpt lat="44.37086" lon="4.84685">
        <ele>172.67</ele>
        <time>2026-08-31T10:51:37Z</time>
      </trkpt>
      <trkpt lat="44.37086" lon="4.84673">
        <ele>173.35</ele>
        <time>2026-08-31T10:51:40Z</time>
      </trkpt>
      <trkpt lat="44.371" lon="4.84641">
        <ele>173.52</ele>
        <time>2026-08-31T10:51:48Z</time>
      </trkpt>
      <trkpt lat="44.37107" lon="4.84632">
        <ele>175.04</ele>
        <time>2026-08-31T10:51:52Z</time>
      </trkpt>
      <trkpt lat="44.37113" lon="4.84626">
        <ele>176.12</ele>
        <time>2026-08-31T10:51:55Z</time>
      </trkpt>
      <trkpt lat="44.37128" lon="4.84603">
        <ele>177.45</ele>
        <time>2026-08-31T10:52:04Z</time>
      </trkpt>
      <trkpt lat="44.37149" lon="4.84572">
        <ele>179.45</ele>
        <time>2026-08-31T10:52:17Z</time>
      </trkpt>
      <trkpt lat="44.37168" lon="4.84553">
        <ele>180.83</ele>
        <time>2026-08-31T10:52:27Z</time>
      </trkpt>
      <trkpt lat="44.37184" lon="4.84544">
        <ele>183.24</ele>
        <time>2026-08-31T10:52:35Z</time>
      </trkpt>
      <trkpt lat="44.37191" lon="4.84546">
        <ele>185.11</ele>
        <time>2026-08-31T10:52:40Z</time>
      </trkpt>
      <trkpt lat="44.37199" lon="4.84548">
        <ele>186.93</ele>
        <time>2026-08-31T10:52:53Z</time>
      </trkpt>
      <trkpt lat="44.37216" lon="4.84551">
        <ele>187.69</ele>
        <time>2026-08-31T10:53:04Z</time>
      </trkpt>
      <trkpt lat="44.37219" lon="4.84553">
        <ele>188.01</ele>
        <time>2026-08-31T10:53:06Z</time>
      </trkpt>
      <trkpt lat="44.3723" lon="4.84548">
        <ele>188.82</ele>
        <time>2026-08-31T10:53:12Z</time>
      </trkpt>
      <trkpt lat="44.37233" lon="4.84546">
        <ele>188.7</ele>
        <time>2026-08-31T10:53:14Z</time>
      </trkpt>
      <trkpt lat="44.37242" lon="4.84544">
        <ele>189.4</ele>
        <time>2026-08-31T10:53:20Z</time>
      </trkpt>
      <trkpt lat="44.37245" lon="4.84544">
        <ele>189.69</ele>
        <time>2026-08-31T10:53:22Z</time>
      </trkpt>
      <trkpt lat="44.37249" lon="4.84544">
        <ele>190.35</ele>
        <time>2026-08-31T10:53:25Z</time>
      </trkpt>
      <trkpt lat="44.37253" lon="4.84545">
        <ele>191.17</ele>
        <time>2026-08-31T10:53:28Z</time>
      </trkpt>
      <trkpt lat="44.37259" lon="4.84543">
        <ele>191.65</ele>
        <time>2026-08-31T10:53:33Z</time>
      </trkpt>
      <trkpt lat="44.37268" lon="4.84542">
        <ele>191.68</ele>
        <time>2026-08-31T10:53:38Z</time>
      </trkpt>
      <trkpt lat="44.37273" lon="4.84543">
        <ele>192.6</ele>
        <time>2026-08-31T10:53:43Z</time>
      </trkpt>
      <trkpt lat="44.37279" lon="4.84542">
        <ele>192.65</ele>
        <time>2026-08-31T10:53:47Z</time>
      </trkpt>
      <trkpt lat="44.37286" lon="4.84545">
        <ele>193.74</ele>
        <time>2026-08-31T10:53:51Z</time>
      </trkpt>
      <trkpt lat="44.37303" lon="4.84563">
        <ele>197.23</ele>
        <time>2026-08-31T10:54:03Z</time>
      </trkpt>
      <trkpt lat="44.37309" lon="4.84574">
        <ele>198.84</ele>
        <time>2026-08-31T10:54:08Z</time>
      </trkpt>
      <trkpt lat="44.37317" lon="4.84576">
        <ele>199.68</ele>
        <time>2026-08-31T10:54:13Z</time>
      </trkpt>
      <trkpt lat="44.37322" lon="4.84577">
        <ele>200.1</ele>
        <time>2026-08-31T10:54:16Z</time>
      </trkpt>
      <trkpt lat="44.37337" lon="4.84575">
        <ele>200.76</ele>
        <time>2026-08-31T10:54:28Z</time>
      </trkpt>
      <trkpt lat="44.37341" lon="4.84573">
        <ele>200.56</ele>
        <time>2026-08-31T10:54:30Z</time>
      </trkpt>
      <trkpt lat="44.37343" lon="4.8457">
        <ele>200.3</ele>
        <time>2026-08-31T10:54:31Z</time>
      </trkpt>
      <trkpt lat="44.37345" lon="4.8457">
        <ele>200.04</ele>
        <time>2026-08-31T10:54:32Z</time>
      </trkpt>
      <trkpt lat="44.37347" lon="4.8457">
        <ele>199.89</ele>
        <time>2026-08-31T10:54:33Z</time>
      </trkpt>
      <trkpt lat="44.37349" lon="4.8457">
        <ele>200.05</ele>
        <time>2026-08-31T10:54:34Z</time>
      </trkpt>
      <trkpt lat="44.37362" lon="4.84572">
        <ele>200.56</ele>
        <time>2026-08-31T10:54:41Z</time>
      </trkpt>
      <trkpt lat="44.3738" lon="4.84561">
        <ele>200.05</ele>
        <time>2026-08-31T10:54:49Z</time>
      </trkpt>
      <trkpt lat="44.37383" lon="4.84554">
        <ele>202.1</ele>
        <time>2026-08-31T10:54:52Z</time>
      </trkpt>
      <trkpt lat="44.3739" lon="4.84543">
        <ele>204.73</ele>
        <time>2026-08-31T10:54:58Z</time>
      </trkpt>
      <trkpt lat="44.37391" lon="4.84543">
        <ele>204.89</ele>
        <time>2026-08-31T10:54:59Z</time>
      </trkpt>
      <trkpt lat="44.37396" lon="4.84542">
        <ele>205.84</ele>
        <time>2026-08-31T10:55:02Z</time>
      </trkpt>
      <trkpt lat="44.37396" lon="4.84532">
        <ele>207.57</ele>
        <time>2026-08-31T10:55:08Z</time>
      </trkpt>
      <trkpt lat="44.37392" lon="4.84526">
        <ele>207.51</ele>
        <time>2026-08-31T10:55:11Z</time>
      </trkpt>
      <trkpt lat="44.37392" lon="4.84508">
        <ele>209.19</ele>
        <time>2026-08-31T10:55:23Z</time>
      </trkpt>
      <trkpt lat="44.37392" lon="4.84507">
        <ele>209.13</ele>
        <time>2026-08-31T10:55:26Z</time>
      </trkpt>
      <trkpt lat="44.37388" lon="4.84486">
        <ele>210.71</ele>
        <time>2026-08-31T10:55:38Z</time>
      </trkpt>
      <trkpt lat="44.37397" lon="4.84477">
        <ele>212.88</ele>
        <time>2026-08-31T10:55:46Z</time>
      </trkpt>
      <trkpt lat="44.37409" lon="4.84472">
        <ele>214.28</ele>
        <time>2026-08-31T10:55:54Z</time>
      </trkpt>
      <trkpt lat="44.37414" lon="4.8445">
        <ele>215.72</ele>
        <time>2026-08-31T10:56:05Z</time>
      </trkpt>
      <trkpt lat="44.37419" lon="4.8444">
        <ele>215.7</ele>
        <time>2026-08-31T10:56:09Z</time>
      </trkpt>
      <trkpt lat="44.37422" lon="4.84436">
        <ele>215.44</ele>
        <time>2026-08-31T10:56:11Z</time>
      </trkpt>
      <trkpt lat="44.37428" lon="4.84433">
        <ele>215.45</ele>
        <time>2026-08-31T10:56:15Z</time>
      </trkpt>
      <trkpt lat="44.3744" lon="4.84423">
        <ele>215.28</ele>
        <time>2026-08-31T10:56:27Z</time>
      </trkpt>
      <trkpt lat="44.37453" lon="4.844">
        <ele>214.95</ele>
        <time>2026-08-31T10:56:57Z</time>
      </trkpt>
      <trkpt lat="44.37456" lon="4.84395">
        <ele>214.63</ele>
        <time>2026-08-31T10:56:58Z</time>
      </trkpt>
      <trkpt lat="44.37459" lon="4.8439">
        <ele>214.18</ele>
        <time>2026-08-31T10:56:59Z</time>
      </trkpt>
      <trkpt lat="44.37462" lon="4.84386">
        <ele>214.09</ele>
        <time>2026-08-31T10:57:00Z</time>
      </trkpt>
      <trkpt lat="44.37465" lon="4.84381">
        <ele>213.57</ele>
        <time>2026-08-31T10:57:01Z</time>
      </trkpt>
      <trkpt lat="44.37469" lon="4.84377">
        <ele>213.07</ele>
        <time>2026-08-31T10:57:02Z</time>
      </trkpt>
      <trkpt lat="44.37473" lon="4.84373">
        <ele>212.65</ele>
        <time>2026-08-31T10:57:03Z</time>
      </trkpt>
      <trkpt lat="44.3748" lon="4.84365">
        <ele>211.45</ele>
        <time>2026-08-31T10:57:05Z</time>
      </trkpt>
      <trkpt lat="44.37494" lon="4.84358">
        <ele>210.14</ele>
        <time>2026-08-31T10:57:08Z</time>
      </trkpt>
      <trkpt lat="44.37499" lon="4.84356">
        <ele>209.51</ele>
        <time>2026-08-31T10:57:09Z</time>
      </trkpt>
      <trkpt lat="44.37512" lon="4.84344">
        <ele>207.91</ele>
        <time>2026-08-31T10:57:16Z</time>
      </trkpt>
      <trkpt lat="44.37507" lon="4.84321">
        <ele>211.28</ele>
        <time>2026-08-31T10:57:24Z</time>
      </trkpt>
      <trkpt lat="44.37503" lon="4.84297">
        <ele>215.29</ele>
        <time>2026-08-31T10:57:32Z</time>
      </trkpt>
      <trkpt lat="44.37499" lon="4.84274">
        <ele>218.24</ele>
        <time>2026-08-31T10:57:39Z</time>
      </trkpt>
      <trkpt lat="44.37498" lon="4.84248">
        <ele>221.24</ele>
        <time>2026-08-31T10:57:47Z</time>
      </trkpt>
      <trkpt lat="44.37496" lon="4.8423">
        <ele>221.25</ele>
        <time>2026-08-31T10:58:00Z</time>
      </trkpt>
      <trkpt lat="44.37495" lon="4.84227">
        <ele>221.13</ele>
        <time>2026-08-31T10:58:13Z</time>
      </trkpt>
      <trkpt lat="44.37495" lon="4.84225">
        <ele>221.12</ele>
        <time>2026-08-31T10:58:14Z</time>
      </trkpt>
      <trkpt lat="44.37495" lon="4.84221">
        <ele>221.07</ele>
        <time>2026-08-31T10:58:15Z</time>
      </trkpt>
      <trkpt lat="44.37497" lon="4.84217">
        <ele>221.19</ele>
        <time>2026-08-31T10:58:16Z</time>
      </trkpt>
      <trkpt lat="44.37499" lon="4.84212">
        <ele>221.13</ele>
        <time>2026-08-31T10:58:17Z</time>
      </trkpt>
      <trkpt lat="44.37501" lon="4.84207">
        <ele>220.82</ele>
        <time>2026-08-31T10:58:18Z</time>
      </trkpt>
      <trkpt lat="44.37503" lon="4.84202">
        <ele>220.76</ele>
        <time>2026-08-31T10:58:19Z</time>
      </trkpt>
      <trkpt lat="44.37506" lon="4.84197">
        <ele>220.71</ele>
        <time>2026-08-31T10:58:20Z</time>
      </trkpt>
      <trkpt lat="44.37509" lon="4.84192">
        <ele>220.4</ele>
        <time>2026-08-31T10:58:21Z</time>
      </trkpt>
      <trkpt lat="44.37511" lon="4.84187">
        <ele>220.32</ele>
        <time>2026-08-31T10:58:22Z</time>
      </trkpt>
      <trkpt lat="44.37512" lon="4.84182">
        <ele>220.29</ele>
        <time>2026-08-31T10:58:23Z</time>
      </trkpt>
      <trkpt lat="44.37514" lon="4.84178">
        <ele>220.2</ele>
        <time>2026-08-31T10:58:24Z</time>
      </trkpt>
      <trkpt lat="44.37516" lon="4.84164">
        <ele>221.03</ele>
        <time>2026-08-31T10:58:27Z</time>
      </trkpt>
      <trkpt lat="44.37518" lon="4.84158">
        <ele>221.39</ele>
        <time>2026-08-31T10:58:28Z</time>
      </trkpt>
      <trkpt lat="44.37522" lon="4.84144">
        <ele>221.64</ele>
        <time>2026-08-31T10:58:30Z</time>
      </trkpt>
      <trkpt lat="44.37525" lon="4.84139">
        <ele>221.47</ele>
        <time>2026-08-31T10:58:31Z</time>
      </trkpt>
      <trkpt lat="44.37534" lon="4.84115">
        <ele>222.61</ele>
        <time>2026-08-31T10:58:36Z</time>
      </trkpt>
      <trkpt lat="44.37534" lon="4.84108">
        <ele>222.99</ele>
        <time>2026-08-31T10:58:37Z</time>
      </trkpt>
      <trkpt lat="44.37533" lon="4.84103">
        <ele>223.33</ele>
        <time>2026-08-31T10:58:38Z</time>
      </trkpt>
      <trkpt lat="44.37531" lon="4.84097">
        <ele>223.52</ele>
        <time>2026-08-31T10:58:39Z</time>
      </trkpt>
      <trkpt lat="44.37528" lon="4.84092">
        <ele>223.78</ele>
        <time>2026-08-31T10:58:40Z</time>
      </trkpt>
      <trkpt lat="44.37525" lon="4.84087">
        <ele>223.9</ele>
        <time>2026-08-31T10:58:41Z</time>
      </trkpt>
      <trkpt lat="44.37496" lon="4.84049">
        <ele>226.72</ele>
        <time>2026-08-31T10:58:52Z</time>
      </trkpt>
      <trkpt lat="44.37482" lon="4.8404">
        <ele>227.54</ele>
        <time>2026-08-31T10:58:58Z</time>
      </trkpt>
      <trkpt lat="44.37481" lon="4.84038">
        <ele>227.49</ele>
        <time>2026-08-31T10:58:59Z</time>
      </trkpt>
      <trkpt lat="44.37481" lon="4.84035">
        <ele>227.97</ele>
        <time>2026-08-31T10:59:04Z</time>
      </trkpt>
      <trkpt lat="44.37481" lon="4.84027">
        <ele>229</ele>
        <time>2026-08-31T10:59:19Z</time>
      </trkpt>
      <trkpt lat="44.37481" lon="4.84023">
        <ele>229.28</ele>
        <time>2026-08-31T10:59:23Z</time>
      </trkpt>
      <trkpt lat="44.37493" lon="4.84002">
        <ele>231.44</ele>
        <time>2026-08-31T10:59:33Z</time>
      </trkpt>
      <trkpt lat="44.37499" lon="4.83986">
        <ele>232.73</ele>
        <time>2026-08-31T10:59:39Z</time>
      </trkpt>
      <trkpt lat="44.37506" lon="4.83944">
        <ele>235</ele>
        <time>2026-08-31T10:59:54Z</time>
      </trkpt>
      <trkpt lat="44.37516" lon="4.83916">
        <ele>236.87</ele>
        <time>2026-08-31T11:00:08Z</time>
      </trkpt>
      <trkpt lat="44.37517" lon="4.83913">
        <ele>236.69</ele>
        <time>2026-08-31T11:00:38Z</time>
      </trkpt>
      <trkpt lat="44.37521" lon="4.83911">
        <ele>236.74</ele>
        <time>2026-08-31T11:00:40Z</time>
      </trkpt>
      <trkpt lat="44.37523" lon="4.83911">
        <ele>236.75</ele>
        <time>2026-08-31T11:00:41Z</time>
      </trkpt>
      <trkpt lat="44.37526" lon="4.83912">
        <ele>236.89</ele>
        <time>2026-08-31T11:00:42Z</time>
      </trkpt>
      <trkpt lat="44.37528" lon="4.83912">
        <ele>237.25</ele>
        <time>2026-08-31T11:00:43Z</time>
      </trkpt>
      <trkpt lat="44.3753" lon="4.83914">
        <ele>237.24</ele>
        <time>2026-08-31T11:00:44Z</time>
      </trkpt>
      <trkpt lat="44.37532" lon="4.83915">
        <ele>237.25</ele>
        <time>2026-08-31T11:00:45Z</time>
      </trkpt>
      <trkpt lat="44.37535" lon="4.83916">
        <ele>237.25</ele>
        <time>2026-08-31T11:00:46Z</time>
      </trkpt>
      <trkpt lat="44.37538" lon="4.83917">
        <ele>237.05</ele>
        <time>2026-08-31T11:00:47Z</time>
      </trkpt>
      <trkpt lat="44.37542" lon="4.83917">
        <ele>237.5</ele>
        <time>2026-08-31T11:00:48Z</time>
      </trkpt>
      <trkpt lat="44.37547" lon="4.83917">
        <ele>237.83</ele>
        <time>2026-08-31T11:00:49Z</time>
      </trkpt>
      <trkpt lat="44.37551" lon="4.83918">
        <ele>237.93</ele>
        <time>2026-08-31T11:00:50Z</time>
      </trkpt>
      <trkpt lat="44.37555" lon="4.83919">
        <ele>238.21</ele>
        <time>2026-08-31T11:00:51Z</time>
      </trkpt>
      <trkpt lat="44.37574" lon="4.83924">
        <ele>239.41</ele>
        <time>2026-08-31T11:00:56Z</time>
      </trkpt>
      <trkpt lat="44.37578" lon="4.83927">
        <ele>239.92</ele>
        <time>2026-08-31T11:00:57Z</time>
      </trkpt>
      <trkpt lat="44.37583" lon="4.83928">
        <ele>240.2</ele>
        <time>2026-08-31T11:00:58Z</time>
      </trkpt>
      <trkpt lat="44.37597" lon="4.83934">
        <ele>241.48</ele>
        <time>2026-08-31T11:01:01Z</time>
      </trkpt>
      <trkpt lat="44.37618" lon="4.83948">
        <ele>242.37</ele>
        <time>2026-08-31T11:01:06Z</time>
      </trkpt>
      <trkpt lat="44.37627" lon="4.83955">
        <ele>242.3</ele>
        <time>2026-08-31T11:01:08Z</time>
      </trkpt>
      <trkpt lat="44.37631" lon="4.83958">
        <ele>242.38</ele>
        <time>2026-08-31T11:01:09Z</time>
      </trkpt>
      <trkpt lat="44.37649" lon="4.83969">
        <ele>242.07</ele>
        <time>2026-08-31T11:01:13Z</time>
      </trkpt>
      <trkpt lat="44.37654" lon="4.83971">
        <ele>242.07</ele>
        <time>2026-08-31T11:01:14Z</time>
      </trkpt>
      <trkpt lat="44.37717" lon="4.84017">
        <ele>240.37</ele>
        <time>2026-08-31T11:01:29Z</time>
      </trkpt>
      <trkpt lat="44.37729" lon="4.84034">
        <ele>241.14</ele>
        <time>2026-08-31T11:01:34Z</time>
      </trkpt>
      <trkpt lat="44.37729" lon="4.84036">
        <ele>241.13</ele>
        <time>2026-08-31T11:01:35Z</time>
      </trkpt>
      <trkpt lat="44.37729" lon="4.84042">
        <ele>241.21</ele>
        <time>2026-08-31T11:01:49Z</time>
      </trkpt>
      <trkpt lat="44.37724" lon="4.84074">
        <ele>241.51</ele>
        <time>2026-08-31T11:01:57Z</time>
      </trkpt>
      <trkpt lat="44.37722" lon="4.84078">
        <ele>241.87</ele>
        <time>2026-08-31T11:01:58Z</time>
      </trkpt>
      <trkpt lat="44.37704" lon="4.84078">
        <ele>240.89</ele>
        <time>2026-08-31T11:02:06Z</time>
      </trkpt>
      <trkpt lat="44.37688" lon="4.84094">
        <ele>238.97</ele>
        <time>2026-08-31T11:02:16Z</time>
      </trkpt>
      <trkpt lat="44.37684" lon="4.84094">
        <ele>238.76</ele>
        <time>2026-08-31T11:02:17Z</time>
      </trkpt>
      <trkpt lat="44.37662" lon="4.84095">
        <ele>237.19</ele>
        <time>2026-08-31T11:02:22Z</time>
      </trkpt>
      <trkpt lat="44.37656" lon="4.84084">
        <ele>236.08</ele>
        <time>2026-08-31T11:02:27Z</time>
      </trkpt>
      <trkpt lat="44.37652" lon="4.84076">
        <ele>235.4</ele>
        <time>2026-08-31T11:02:30Z</time>
      </trkpt>
      <trkpt lat="44.37651" lon="4.84066">
        <ele>234.42</ele>
        <time>2026-08-31T11:02:34Z</time>
      </trkpt>
      <trkpt lat="44.37647" lon="4.84061">
        <ele>233.95</ele>
        <time>2026-08-31T11:02:36Z</time>
      </trkpt>
      <trkpt lat="44.37638" lon="4.84058">
        <ele>233.19</ele>
        <time>2026-08-31T11:02:46Z</time>
      </trkpt>
      <trkpt lat="44.37637" lon="4.84058">
        <ele>233.16</ele>
        <time>2026-08-31T11:02:50Z</time>
      </trkpt>
      <trkpt lat="44.37615" lon="4.84062">
        <ele>232.26</ele>
        <time>2026-08-31T11:02:59Z</time>
      </trkpt>
      <trkpt lat="44.37606" lon="4.84062">
        <ele>231.23</ele>
        <time>2026-08-31T11:03:01Z</time>
      </trkpt>
      <trkpt lat="44.37601" lon="4.84063">
        <ele>231.05</ele>
        <time>2026-08-31T11:03:02Z</time>
      </trkpt>
      <trkpt lat="44.37592" lon="4.84066">
        <ele>230.37</ele>
        <time>2026-08-31T11:03:04Z</time>
      </trkpt>
      <trkpt lat="44.37573" lon="4.8408">
        <ele>227.8</ele>
        <time>2026-08-31T11:03:08Z</time>
      </trkpt>
      <trkpt lat="44.37547" lon="4.84091">
        <ele>225.24</ele>
        <time>2026-08-31T11:03:16Z</time>
      </trkpt>
      <trkpt lat="44.37544" lon="4.84094">
        <ele>224.97</ele>
        <time>2026-08-31T11:03:17Z</time>
      </trkpt>
      <trkpt lat="44.37542" lon="4.84096">
        <ele>224.49</ele>
        <time>2026-08-31T11:03:18Z</time>
      </trkpt>
      <trkpt lat="44.3754" lon="4.84096">
        <ele>224.18</ele>
        <time>2026-08-31T11:03:19Z</time>
      </trkpt>
      <trkpt lat="44.37538" lon="4.84095">
        <ele>224.02</ele>
        <time>2026-08-31T11:03:20Z</time>
      </trkpt>
      <trkpt lat="44.37529" lon="4.84096">
        <ele>223.36</ele>
        <time>2026-08-31T11:03:29Z</time>
      </trkpt>
      <trkpt lat="44.37524" lon="4.84095">
        <ele>222.56</ele>
        <time>2026-08-31T11:03:33Z</time>
      </trkpt>
      <trkpt lat="44.37515" lon="4.84098">
        <ele>222.21</ele>
        <time>2026-08-31T11:03:36Z</time>
      </trkpt>
      <trkpt lat="44.375" lon="4.84112">
        <ele>218.53</ele>
        <time>2026-08-31T11:03:42Z</time>
      </trkpt>
      <trkpt lat="44.37497" lon="4.84112">
        <ele>218.28</ele>
        <time>2026-08-31T11:03:43Z</time>
      </trkpt>
      <trkpt lat="44.37454" lon="4.84121">
        <ele>217.1</ele>
        <time>2026-08-31T11:03:56Z</time>
      </trkpt>
      <trkpt lat="44.37446" lon="4.84123">
        <ele>217.14</ele>
        <time>2026-08-31T11:03:59Z</time>
      </trkpt>
      <trkpt lat="44.37418" lon="4.84137">
        <ele>213.88</ele>
        <time>2026-08-31T11:04:08Z</time>
      </trkpt>
      <trkpt lat="44.3741" lon="4.84145">
        <ele>211.13</ele>
        <time>2026-08-31T11:04:15Z</time>
      </trkpt>
      <trkpt lat="44.37408" lon="4.84148">
        <ele>211.17</ele>
        <time>2026-08-31T11:04:20Z</time>
      </trkpt>
      <trkpt lat="44.37388" lon="4.8416">
        <ele>208.38</ele>
        <time>2026-08-31T11:04:27Z</time>
      </trkpt>
      <trkpt lat="44.37354" lon="4.84178">
        <ele>206.48</ele>
        <time>2026-08-31T11:04:39Z</time>
      </trkpt>
      <trkpt lat="44.37348" lon="4.84179">
        <ele>205.96</ele>
        <time>2026-08-31T11:04:42Z</time>
      </trkpt>
      <trkpt lat="44.37342" lon="4.84179">
        <ele>207.18</ele>
        <time>2026-08-31T11:04:45Z</time>
      </trkpt>
      <trkpt lat="44.3734" lon="4.8418">
        <ele>207.26</ele>
        <time>2026-08-31T11:04:49Z</time>
      </trkpt>
      <trkpt lat="44.37324" lon="4.84187">
        <ele>207.84</ele>
        <time>2026-08-31T11:04:55Z</time>
      </trkpt>
      <trkpt lat="44.37296" lon="4.84208">
        <ele>206.54</ele>
        <time>2026-08-31T11:05:04Z</time>
      </trkpt>
      <trkpt lat="44.37281" lon="4.84218">
        <ele>205.87</ele>
        <time>2026-08-31T11:05:10Z</time>
      </trkpt>
      <trkpt lat="44.37278" lon="4.84219">
        <ele>205.68</ele>
        <time>2026-08-31T11:05:12Z</time>
      </trkpt>
      <trkpt lat="44.37269" lon="4.84229">
        <ele>205.27</ele>
        <time>2026-08-31T11:05:19Z</time>
      </trkpt>
      <trkpt lat="44.37269" lon="4.84245">
        <ele>201.81</ele>
        <time>2026-08-31T11:05:26Z</time>
      </trkpt>
      <trkpt lat="44.37265" lon="4.84253">
        <ele>199.84</ele>
        <time>2026-08-31T11:05:30Z</time>
      </trkpt>
      <trkpt lat="44.37259" lon="4.84265">
        <ele>198.46</ele>
        <time>2026-08-31T11:05:33Z</time>
      </trkpt>
      <trkpt lat="44.37254" lon="4.84281">
        <ele>195.3</ele>
        <time>2026-08-31T11:05:37Z</time>
      </trkpt>
      <trkpt lat="44.37247" lon="4.84295">
        <ele>194.02</ele>
        <time>2026-08-31T11:05:40Z</time>
      </trkpt>
      <trkpt lat="44.37238" lon="4.84316">
        <ele>192.06</ele>
        <time>2026-08-31T11:05:49Z</time>
      </trkpt>
      <trkpt lat="44.37225" lon="4.84343">
        <ele>191.44</ele>
        <time>2026-08-31T11:06:00Z</time>
      </trkpt>
      <trkpt lat="44.37215" lon="4.84354">
        <ele>191.5</ele>
        <time>2026-08-31T11:06:04Z</time>
      </trkpt>
      <trkpt lat="44.372" lon="4.8438">
        <ele>191.29</ele>
        <time>2026-08-31T11:06:12Z</time>
      </trkpt>
      <trkpt lat="44.37194" lon="4.84396">
        <ele>190.57</ele>
        <time>2026-08-31T11:06:17Z</time>
      </trkpt>
      <trkpt lat="44.37187" lon="4.84412">
        <ele>189.99</ele>
        <time>2026-08-31T11:06:27Z</time>
      </trkpt>
      <trkpt lat="44.3718" lon="4.84431">
        <ele>189.07</ele>
        <time>2026-08-31T11:06:33Z</time>
      </trkpt>
      <trkpt lat="44.3717" lon="4.8446">
        <ele>187.09</ele>
        <time>2026-08-31T11:06:41Z</time>
      </trkpt>
      <trkpt lat="44.37163" lon="4.84469">
        <ele>187.21</ele>
        <time>2026-08-31T11:06:46Z</time>
      </trkpt>
      <trkpt lat="44.3715" lon="4.8449">
        <ele>186.07</ele>
        <time>2026-08-31T11:06:51Z</time>
      </trkpt>
      <trkpt lat="44.37136" lon="4.84506">
        <ele>184.94</ele>
        <time>2026-08-31T11:06:55Z</time>
      </trkpt>
      <trkpt lat="44.37114" lon="4.84533">
        <ele>184.59</ele>
        <time>2026-08-31T11:07:05Z</time>
      </trkpt>
      <trkpt lat="44.37113" lon="4.84534">
        <ele>184.56</ele>
        <time>2026-08-31T11:07:06Z</time>
      </trkpt>
      <trkpt lat="44.37104" lon="4.84547">
        <ele>184.11</ele>
        <time>2026-08-31T11:07:10Z</time>
      </trkpt>
      <trkpt lat="44.37101" lon="4.84551">
        <ele>183.93</ele>
        <time>2026-08-31T11:07:11Z</time>
      </trkpt>
      <trkpt lat="44.37098" lon="4.84556">
        <ele>183.86</ele>
        <time>2026-08-31T11:07:12Z</time>
      </trkpt>
      <trkpt lat="44.37096" lon="4.84561">
        <ele>183.35</ele>
        <time>2026-08-31T11:07:13Z</time>
      </trkpt>
      <trkpt lat="44.37093" lon="4.84566">
        <ele>183.34</ele>
        <time>2026-08-31T11:07:14Z</time>
      </trkpt>
      <trkpt lat="44.3709" lon="4.8457">
        <ele>183.44</ele>
        <time>2026-08-31T11:07:15Z</time>
      </trkpt>
      <trkpt lat="44.37078" lon="4.84588">
        <ele>182.82</ele>
        <time>2026-08-31T11:07:20Z</time>
      </trkpt>
      <trkpt lat="44.37076" lon="4.8459">
        <ele>183.12</ele>
        <time>2026-08-31T11:07:21Z</time>
      </trkpt>
      <trkpt lat="44.37075" lon="4.84593">
        <ele>182.99</ele>
        <time>2026-08-31T11:07:22Z</time>
      </trkpt>
      <trkpt lat="44.37067" lon="4.8461">
        <ele>181.23</ele>
        <time>2026-08-31T11:07:28Z</time>
      </trkpt>
      <trkpt lat="44.37051" lon="4.84641">
        <ele>181.22</ele>
        <time>2026-08-31T11:07:37Z</time>
      </trkpt>
      <trkpt lat="44.37043" lon="4.84655">
        <ele>181.42</ele>
        <time>2026-08-31T11:07:44Z</time>
      </trkpt>
      <trkpt lat="44.37042" lon="4.84658">
        <ele>181.07</ele>
        <time>2026-08-31T11:07:45Z</time>
      </trkpt>
      <trkpt lat="44.3704" lon="4.84661">
        <ele>180.94</ele>
        <time>2026-08-31T11:07:46Z</time>
      </trkpt>
      <trkpt lat="44.37039" lon="4.84663">
        <ele>181.01</ele>
        <time>2026-08-31T11:07:47Z</time>
      </trkpt>
      <trkpt lat="44.37036" lon="4.84665">
        <ele>180.59</ele>
        <time>2026-08-31T11:07:48Z</time>
      </trkpt>
      <trkpt lat="44.37034" lon="4.84668">
        <ele>180.34</ele>
        <time>2026-08-31T11:07:49Z</time>
      </trkpt>
      <trkpt lat="44.37032" lon="4.84672">
        <ele>180.13</ele>
        <time>2026-08-31T11:07:50Z</time>
      </trkpt>
      <trkpt lat="44.3703" lon="4.84676">
        <ele>179.54</ele>
        <time>2026-08-31T11:07:51Z</time>
      </trkpt>
      <trkpt lat="44.37029" lon="4.84682">
        <ele>178.88</ele>
        <time>2026-08-31T11:07:53Z</time>
      </trkpt>
      <trkpt lat="44.37029" lon="4.84684">
        <ele>178</ele>
        <time>2026-08-31T11:07:54Z</time>
      </trkpt>
      <trkpt lat="44.37024" lon="4.84693">
        <ele>176.52</ele>
        <time>2026-08-31T11:07:57Z</time>
      </trkpt>
      <trkpt lat="44.37015" lon="4.84701">
        <ele>176.04</ele>
        <time>2026-08-31T11:08:01Z</time>
      </trkpt>
      <trkpt lat="44.37009" lon="4.84708">
        <ele>174.93</ele>
        <time>2026-08-31T11:08:03Z</time>
      </trkpt>
      <trkpt lat="44.36988" lon="4.84725">
        <ele>171.82</ele>
        <time>2026-08-31T11:08:08Z</time>
      </trkpt>
      <trkpt lat="44.36971" lon="4.8473">
        <ele>170.83</ele>
        <time>2026-08-31T11:08:11Z</time>
      </trkpt>
      <trkpt lat="44.36957" lon="4.84733">
        <ele>168.94</ele>
        <time>2026-08-31T11:08:13Z</time>
      </trkpt>
      <trkpt lat="44.36938" lon="4.84738">
        <ele>166.82</ele>
        <time>2026-08-31T11:08:17Z</time>
      </trkpt>
      <trkpt lat="44.36935" lon="4.84739">
        <ele>166.59</ele>
        <time>2026-08-31T11:08:18Z</time>
      </trkpt>
      <trkpt lat="44.36925" lon="4.84747">
        <ele>166.06</ele>
        <time>2026-08-31T11:08:32Z</time>
      </trkpt>
      <trkpt lat="44.36895" lon="4.84759">
        <ele>164.83</ele>
        <time>2026-08-31T11:08:41Z</time>
      </trkpt>
      <trkpt lat="44.36884" lon="4.84766">
        <ele>164.51</ele>
        <time>2026-08-31T11:08:44Z</time>
      </trkpt>
      <trkpt lat="44.36874" lon="4.84776">
        <ele>164.09</ele>
        <time>2026-08-31T11:08:47Z</time>
      </trkpt>
      <trkpt lat="44.36871" lon="4.84781">
        <ele>163.79</ele>
        <time>2026-08-31T11:08:48Z</time>
      </trkpt>
      <trkpt lat="44.36867" lon="4.84786">
        <ele>163.39</ele>
        <time>2026-08-31T11:08:49Z</time>
      </trkpt>
      <trkpt lat="44.36863" lon="4.8479">
        <ele>162.55</ele>
        <time>2026-08-31T11:08:50Z</time>
      </trkpt>
      <trkpt lat="44.3686" lon="4.84792">
        <ele>162.6</ele>
        <time>2026-08-31T11:08:51Z</time>
      </trkpt>
      <trkpt lat="44.36857" lon="4.84793">
        <ele>162.49</ele>
        <time>2026-08-31T11:08:52Z</time>
      </trkpt>
      <trkpt lat="44.36855" lon="4.84793">
        <ele>162.62</ele>
        <time>2026-08-31T11:08:53Z</time>
      </trkpt>
      <trkpt lat="44.3685" lon="4.84796">
        <ele>162.41</ele>
        <time>2026-08-31T11:08:55Z</time>
      </trkpt>
      <trkpt lat="44.36848" lon="4.84799">
        <ele>162.13</ele>
        <time>2026-08-31T11:08:56Z</time>
      </trkpt>
      <trkpt lat="44.36845" lon="4.84803">
        <ele>162.26</ele>
        <time>2026-08-31T11:08:57Z</time>
      </trkpt>
      <trkpt lat="44.36842" lon="4.84807">
        <ele>161.4</ele>
        <time>2026-08-31T11:08:58Z</time>
      </trkpt>
      <trkpt lat="44.36839" lon="4.84813">
        <ele>161.18</ele>
        <time>2026-08-31T11:08:59Z</time>
      </trkpt>
      <trkpt lat="44.36824" lon="4.84843">
        <ele>157.01</ele>
        <time>2026-08-31T11:09:03Z</time>
      </trkpt>
      <trkpt lat="44.36821" lon="4.84848">
        <ele>156.65</ele>
        <time>2026-08-31T11:09:04Z</time>
      </trkpt>
      <trkpt lat="44.36817" lon="4.84851">
        <ele>156.08</ele>
        <time>2026-08-31T11:09:05Z</time>
      </trkpt>
      <trkpt lat="44.36813" lon="4.84854">
        <ele>155.78</ele>
        <time>2026-08-31T11:09:06Z</time>
      </trkpt>
      <trkpt lat="44.36802" lon="4.84861">
        <ele>154.39</ele>
        <time>2026-08-31T11:09:14Z</time>
      </trkpt>
      <trkpt lat="44.36798" lon="4.84864">
        <ele>154.51</ele>
        <time>2026-08-31T11:09:22Z</time>
      </trkpt>
      <trkpt lat="44.36797" lon="4.84867">
        <ele>154.48</ele>
        <time>2026-08-31T11:09:23Z</time>
      </trkpt>
      <trkpt lat="44.36795" lon="4.8487">
        <ele>154.47</ele>
        <time>2026-08-31T11:09:24Z</time>
      </trkpt>
      <trkpt lat="44.36792" lon="4.84872">
        <ele>154.36</ele>
        <time>2026-08-31T11:09:25Z</time>
      </trkpt>
      <trkpt lat="44.3679" lon="4.84872">
        <ele>154.14</ele>
        <time>2026-08-31T11:09:26Z</time>
      </trkpt>
      <trkpt lat="44.36787" lon="4.84871">
        <ele>153.88</ele>
        <time>2026-08-31T11:09:27Z</time>
      </trkpt>
      <trkpt lat="44.36784" lon="4.84872">
        <ele>153.53</ele>
        <time>2026-08-31T11:09:28Z</time>
      </trkpt>
      <trkpt lat="44.3678" lon="4.84872">
        <ele>153.23</ele>
        <time>2026-08-31T11:09:29Z</time>
      </trkpt>
      <trkpt lat="44.36776" lon="4.84872">
        <ele>152.94</ele>
        <time>2026-08-31T11:09:30Z</time>
      </trkpt>
      <trkpt lat="44.36772" lon="4.84874">
        <ele>152.51</ele>
        <time>2026-08-31T11:09:31Z</time>
      </trkpt>
      <trkpt lat="44.36769" lon="4.84876">
        <ele>152.35</ele>
        <time>2026-08-31T11:09:32Z</time>
      </trkpt>
      <trkpt lat="44.36767" lon="4.8488">
        <ele>151.77</ele>
        <time>2026-08-31T11:09:33Z</time>
      </trkpt>
      <trkpt lat="44.36765" lon="4.84884">
        <ele>151.38</ele>
        <time>2026-08-31T11:09:34Z</time>
      </trkpt>
      <trkpt lat="44.36763" lon="4.84887">
        <ele>151.46</ele>
        <time>2026-08-31T11:09:35Z</time>
      </trkpt>
      <trkpt lat="44.36761" lon="4.8489">
        <ele>151.42</ele>
        <time>2026-08-31T11:09:36Z</time>
      </trkpt>
      <trkpt lat="44.36758" lon="4.84894">
        <ele>151.57</ele>
        <time>2026-08-31T11:09:37Z</time>
      </trkpt>
      <trkpt lat="44.36754" lon="4.84897">
        <ele>151.09</ele>
        <time>2026-08-31T11:09:38Z</time>
      </trkpt>
      <trkpt lat="44.36746" lon="4.84903">
        <ele>150.8</ele>
        <time>2026-08-31T11:09:40Z</time>
      </trkpt>
      <trkpt lat="44.36736" lon="4.84909">
        <ele>149.62</ele>
        <time>2026-08-31T11:09:42Z</time>
      </trkpt>
      <trkpt lat="44.36732" lon="4.84913">
        <ele>149.92</ele>
        <time>2026-08-31T11:09:43Z</time>
      </trkpt>
      <trkpt lat="44.3673" lon="4.84918">
        <ele>149.89</ele>
        <time>2026-08-31T11:09:44Z</time>
      </trkpt>
      <trkpt lat="44.36727" lon="4.84924">
        <ele>149.14</ele>
        <time>2026-08-31T11:09:45Z</time>
      </trkpt>
      <trkpt lat="44.36723" lon="4.8493">
        <ele>148.9</ele>
        <time>2026-08-31T11:09:46Z</time>
      </trkpt>
      <trkpt lat="44.36719" lon="4.84934">
        <ele>148.89</ele>
        <time>2026-08-31T11:09:47Z</time>
      </trkpt>
      <trkpt lat="44.36715" lon="4.84937">
        <ele>148.41</ele>
        <time>2026-08-31T11:09:48Z</time>
      </trkpt>
      <trkpt lat="44.36711" lon="4.84939">
        <ele>148.02</ele>
        <time>2026-08-31T11:09:49Z</time>
      </trkpt>
      <trkpt lat="44.36708" lon="4.84942">
        <ele>148.23</ele>
        <time>2026-08-31T11:09:50Z</time>
      </trkpt>
      <trkpt lat="44.36705" lon="4.84945">
        <ele>147.61</ele>
        <time>2026-08-31T11:09:51Z</time>
      </trkpt>
      <trkpt lat="44.36678" lon="4.84964">
        <ele>146.75</ele>
        <time>2026-08-31T11:10:00Z</time>
      </trkpt>
      <trkpt lat="44.36662" lon="4.84981">
        <ele>146.57</ele>
        <time>2026-08-31T11:10:08Z</time>
      </trkpt>
      <trkpt lat="44.36658" lon="4.84989">
        <ele>146.42</ele>
        <time>2026-08-31T11:10:26Z</time>
      </trkpt>
      <trkpt lat="44.36657" lon="4.8499">
        <ele>146.52</ele>
        <time>2026-08-31T11:10:29Z</time>
      </trkpt>
      <trkpt lat="44.36655" lon="4.84993">
        <ele>146.68</ele>
        <time>2026-08-31T11:10:32Z</time>
      </trkpt>
      <trkpt lat="44.36654" lon="4.84995">
        <ele>146.62</ele>
        <time>2026-08-31T11:10:33Z</time>
      </trkpt>
      <trkpt lat="44.36652" lon="4.84998">
        <ele>146.54</ele>
        <time>2026-08-31T11:10:34Z</time>
      </trkpt>
      <trkpt lat="44.3665" lon="4.85001">
        <ele>146.61</ele>
        <time>2026-08-31T11:10:35Z</time>
      </trkpt>
      <trkpt lat="44.36647" lon="4.85005">
        <ele>146.62</ele>
        <time>2026-08-31T11:10:36Z</time>
      </trkpt>
      <trkpt lat="44.36646" lon="4.85008">
        <ele>146.26</ele>
        <time>2026-08-31T11:10:37Z</time>
      </trkpt>
      <trkpt lat="44.36643" lon="4.8501">
        <ele>146.18</ele>
        <time>2026-08-31T11:10:38Z</time>
      </trkpt>
      <trkpt lat="44.36641" lon="4.85012">
        <ele>146.12</ele>
        <time>2026-08-31T11:10:39Z</time>
      </trkpt>
      <trkpt lat="44.36639" lon="4.85014">
        <ele>146</ele>
        <time>2026-08-31T11:10:40Z</time>
      </trkpt>
      <trkpt lat="44.36636" lon="4.85016">
        <ele>145.67</ele>
        <time>2026-08-31T11:10:41Z</time>
      </trkpt>
      <trkpt lat="44.36634" lon="4.85018">
        <ele>145.8</ele>
        <time>2026-08-31T11:10:42Z</time>
      </trkpt>
      <trkpt lat="44.36631" lon="4.8502">
        <ele>145.64</ele>
        <time>2026-08-31T11:10:43Z</time>
      </trkpt>
      <trkpt lat="44.36629" lon="4.85023">
        <ele>145.76</ele>
        <time>2026-08-31T11:10:44Z</time>
      </trkpt>
      <trkpt lat="44.36627" lon="4.85028">
        <ele>145.76</ele>
        <time>2026-08-31T11:10:45Z</time>
      </trkpt>
      <trkpt lat="44.36625" lon="4.85032">
        <ele>145.86</ele>
        <time>2026-08-31T11:10:46Z</time>
      </trkpt>
      <trkpt lat="44.36622" lon="4.85049">
        <ele>146.36</ele>
        <time>2026-08-31T11:10:53Z</time>
      </trkpt>
      <trkpt lat="44.3662" lon="4.85051">
        <ele>146.26</ele>
        <time>2026-08-31T11:10:54Z</time>
      </trkpt>
      <trkpt lat="44.3658" lon="4.85101">
        <ele>144.18</ele>
        <time>2026-08-31T11:11:03Z</time>
      </trkpt>
      <trkpt lat="44.36521" lon="4.85175">
        <ele>141.02</ele>
        <time>2026-08-31T11:11:13Z</time>
      </trkpt>
      <trkpt lat="44.36427" lon="4.85292">
        <ele>138.33</ele>
        <time>2026-08-31T11:11:27Z</time>
      </trkpt>
      <trkpt lat="44.3634" lon="4.85397">
        <ele>135.39</ele>
        <time>2026-08-31T11:11:42Z</time>
      </trkpt>
      <trkpt lat="44.36314" lon="4.85429">
        <ele>134.61</ele>
        <time>2026-08-31T11:11:48Z</time>
      </trkpt>
      <trkpt lat="44.36312" lon="4.85434">
        <ele>134.48</ele>
        <time>2026-08-31T11:11:49Z</time>
      </trkpt>
      <trkpt lat="44.3631" lon="4.85438">
        <ele>134.35</ele>
        <time>2026-08-31T11:11:50Z</time>
      </trkpt>
      <trkpt lat="44.36307" lon="4.85441">
        <ele>134.51</ele>
        <time>2026-08-31T11:11:51Z</time>
      </trkpt>
      <trkpt lat="44.36306" lon="4.85443">
        <ele>134.3</ele>
        <time>2026-08-31T11:11:52Z</time>
      </trkpt>
      <trkpt lat="44.36286" lon="4.8547">
        <ele>134.35</ele>
        <time>2026-08-31T11:12:02Z</time>
      </trkpt>
      <trkpt lat="44.36243" lon="4.85474">
        <ele>135.14</ele>
        <time>2026-08-31T11:12:15Z</time>
      </trkpt>
      <trkpt lat="44.36223" lon="4.85479">
        <ele>135.46</ele>
        <time>2026-08-31T11:12:20Z</time>
      </trkpt>
      <trkpt lat="44.36219" lon="4.85482">
        <ele>135.4</ele>
        <time>2026-08-31T11:12:21Z</time>
      </trkpt>
      <trkpt lat="44.36216" lon="4.85485">
        <ele>135.53</ele>
        <time>2026-08-31T11:12:22Z</time>
      </trkpt>
      <trkpt lat="44.36212" lon="4.85489">
        <ele>135.63</ele>
        <time>2026-08-31T11:12:23Z</time>
      </trkpt>
      <trkpt lat="44.3621" lon="4.85493">
        <ele>135.72</ele>
        <time>2026-08-31T11:12:24Z</time>
      </trkpt>
      <trkpt lat="44.36207" lon="4.85498">
        <ele>135.76</ele>
        <time>2026-08-31T11:12:25Z</time>
      </trkpt>
      <trkpt lat="44.36203" lon="4.85502">
        <ele>135.54</ele>
        <time>2026-08-31T11:12:26Z</time>
      </trkpt>
      <trkpt lat="44.36184" lon="4.85534">
        <ele>135.83</ele>
        <time>2026-08-31T11:12:32Z</time>
      </trkpt>
      <trkpt lat="44.36176" lon="4.85553">
        <ele>136.68</ele>
        <time>2026-08-31T11:12:35Z</time>
      </trkpt>
      <trkpt lat="44.36138" lon="4.85647">
        <ele>135.56</ele>
        <time>2026-08-31T11:12:50Z</time>
      </trkpt>
      <trkpt lat="44.36136" lon="4.85652">
        <ele>135.46</ele>
        <time>2026-08-31T11:12:51Z</time>
      </trkpt>
      <trkpt lat="44.36133" lon="4.85664">
        <ele>135.82</ele>
        <time>2026-08-31T11:12:53Z</time>
      </trkpt>
      <trkpt lat="44.36131" lon="4.85669">
        <ele>135.98</ele>
        <time>2026-08-31T11:12:54Z</time>
      </trkpt>
      <trkpt lat="44.3613" lon="4.85674">
        <ele>136.01</ele>
        <time>2026-08-31T11:12:55Z</time>
      </trkpt>
      <trkpt lat="44.36131" lon="4.85679">
        <ele>136.13</ele>
        <time>2026-08-31T11:12:56Z</time>
      </trkpt>
      <trkpt lat="44.36133" lon="4.85683">
        <ele>136.03</ele>
        <time>2026-08-31T11:12:57Z</time>
      </trkpt>
      <trkpt lat="44.36134" lon="4.85688">
        <ele>136.02</ele>
        <time>2026-08-31T11:12:58Z</time>
      </trkpt>
      <trkpt lat="44.36134" lon="4.85694">
        <ele>136.22</ele>
        <time>2026-08-31T11:12:59Z</time>
      </trkpt>
      <trkpt lat="44.36135" lon="4.857">
        <ele>136.03</ele>
        <time>2026-08-31T11:13:00Z</time>
      </trkpt>
      <trkpt lat="44.36136" lon="4.85706">
        <ele>136.1</ele>
        <time>2026-08-31T11:13:01Z</time>
      </trkpt>
      <trkpt lat="44.36136" lon="4.85712">
        <ele>136</ele>
        <time>2026-08-31T11:13:02Z</time>
      </trkpt>
      <trkpt lat="44.36136" lon="4.85717">
        <ele>136.03</ele>
        <time>2026-08-31T11:13:03Z</time>
      </trkpt>
      <trkpt lat="44.36135" lon="4.85722">
        <ele>135.83</ele>
        <time>2026-08-31T11:13:04Z</time>
      </trkpt>
      <trkpt lat="44.36133" lon="4.85727">
        <ele>135.97</ele>
        <time>2026-08-31T11:13:05Z</time>
      </trkpt>
      <trkpt lat="44.36119" lon="4.85762">
        <ele>136.17</ele>
        <time>2026-08-31T11:13:16Z</time>
      </trkpt>
      <trkpt lat="44.36121" lon="4.85765">
        <ele>136.37</ele>
        <time>2026-08-31T11:13:17Z</time>
      </trkpt>
      <trkpt lat="44.36124" lon="4.85767">
        <ele>136.42</ele>
        <time>2026-08-31T11:13:18Z</time>
      </trkpt>
      <trkpt lat="44.36127" lon="4.8577">
        <ele>136.55</ele>
        <time>2026-08-31T11:13:19Z</time>
      </trkpt>
      <trkpt lat="44.3613" lon="4.85772">
        <ele>136.34</ele>
        <time>2026-08-31T11:13:20Z</time>
      </trkpt>
      <trkpt lat="44.36133" lon="4.85774">
        <ele>136.33</ele>
        <time>2026-08-31T11:13:21Z</time>
      </trkpt>
      <trkpt lat="44.36136" lon="4.85776">
        <ele>136.7</ele>
        <time>2026-08-31T11:13:22Z</time>
      </trkpt>
      <trkpt lat="44.36139" lon="4.85778">
        <ele>136.78</ele>
        <time>2026-08-31T11:13:23Z</time>
      </trkpt>
      <trkpt lat="44.3614" lon="4.8578">
        <ele>136.54</ele>
        <time>2026-08-31T11:13:24Z</time>
      </trkpt>
      <trkpt lat="44.36162" lon="4.85798">
        <ele>137.06</ele>
        <time>2026-08-31T11:17:29Z</time>
      </trkpt>
    </trkseg>
  </trk>
</gpx>